<?xml version="1.0" encoding="UTF-8" standalone="no" ?>
<gpx xmlns="http://www.topografix.com/GPX/1/1" xmlns:xsi="http://www.w3.org/2001/XMLSchema-instance" xsi:schemaLocation="http://www.topografix.com/GPX/1/1 http://www.topografix.com/GPX/1/1/gpx.xsd" version="1.1" creator="VisuGPX - https://www.visugpx.com">
  <metadata>
    <name>[03/06/2018] La Molière</name>
    <desc><![CDATA[Belle randonnée de 45km avec 1200m de D 
Beaux points de vues et chemin des crêtes remarquable.]]></desc>
  </metadata>
  <trk>
    <name><![CDATA[[03/06/2018] La Molière_1]]></name>
    <trkseg>
      <trkpt lat="45.07077" lon="5.55148">
        <ele>1024.871338</ele>
        <time>2018-06-03T07:04:59Z</time>
      </trkpt>
      <trkpt lat="45.07077" lon="5.55149">
        <ele>1024.871338</ele>
        <time>2018-06-03T07:05:00Z</time>
      </trkpt>
      <trkpt lat="45.07088" lon="5.55135">
        <ele>1023.975586</ele>
        <time>2018-06-03T07:05:31Z</time>
      </trkpt>
      <trkpt lat="45.07095" lon="5.55124">
        <ele>1023.225769</ele>
        <time>2018-06-03T07:05:36Z</time>
      </trkpt>
      <trkpt lat="45.07106" lon="5.55122">
        <ele>1022.916138</ele>
        <time>2018-06-03T07:05:41Z</time>
      </trkpt>
      <trkpt lat="45.07119" lon="5.55128">
        <ele>1023.048767</ele>
        <time>2018-06-03T07:05:46Z</time>
      </trkpt>
      <trkpt lat="45.07128" lon="5.55131">
        <ele>1023</ele>
        <time>2018-06-03T07:05:50Z</time>
      </trkpt>
      <trkpt lat="45.07136" lon="5.55137">
        <ele>1023.1</ele>
        <time>2018-06-03T07:05:53Z</time>
      </trkpt>
      <trkpt lat="45.07146" lon="5.55144">
        <ele>1023.3</ele>
        <time>2018-06-03T07:05:57Z</time>
      </trkpt>
      <trkpt lat="45.07153" lon="5.55153">
        <ele>1023.2</ele>
        <time>2018-06-03T07:06:00Z</time>
      </trkpt>
      <trkpt lat="45.07167" lon="5.55156">
        <ele>1022.8</ele>
        <time>2018-06-03T07:06:04Z</time>
      </trkpt>
      <trkpt lat="45.07177" lon="5.55167">
        <ele>1022.6</ele>
        <time>2018-06-03T07:06:06Z</time>
      </trkpt>
      <trkpt lat="45.07186" lon="5.55179">
        <ele>1022.3</ele>
        <time>2018-06-03T07:06:08Z</time>
      </trkpt>
      <trkpt lat="45.07194" lon="5.5519">
        <ele>1022</ele>
        <time>2018-06-03T07:06:10Z</time>
      </trkpt>
      <trkpt lat="45.07202" lon="5.55201">
        <ele>1021.8</ele>
        <time>2018-06-03T07:06:12Z</time>
      </trkpt>
      <trkpt lat="45.0721" lon="5.55212">
        <ele>1021.5</ele>
        <time>2018-06-03T07:06:14Z</time>
      </trkpt>
      <trkpt lat="45.07218" lon="5.55223">
        <ele>1021.4</ele>
        <time>2018-06-03T07:06:16Z</time>
      </trkpt>
      <trkpt lat="45.07226" lon="5.55234">
        <ele>1020.9</ele>
        <time>2018-06-03T07:06:18Z</time>
      </trkpt>
      <trkpt lat="45.07233" lon="5.55245">
        <ele>1020.7</ele>
        <time>2018-06-03T07:06:20Z</time>
      </trkpt>
      <trkpt lat="45.07241" lon="5.55256">
        <ele>1020.6</ele>
        <time>2018-06-03T07:06:22Z</time>
      </trkpt>
      <trkpt lat="45.07248" lon="5.55267">
        <ele>1020.4</ele>
        <time>2018-06-03T07:06:24Z</time>
      </trkpt>
      <trkpt lat="45.07255" lon="5.55277">
        <ele>1020.4</ele>
        <time>2018-06-03T07:06:26Z</time>
      </trkpt>
      <trkpt lat="45.07262" lon="5.55287">
        <ele>1019.9</ele>
        <time>2018-06-03T07:06:28Z</time>
      </trkpt>
      <trkpt lat="45.07269" lon="5.55297">
        <ele>1019.8</ele>
        <time>2018-06-03T07:06:30Z</time>
      </trkpt>
      <trkpt lat="45.07275" lon="5.55306">
        <ele>1019.5</ele>
        <time>2018-06-03T07:06:32Z</time>
      </trkpt>
      <trkpt lat="45.07282" lon="5.55316">
        <ele>1019.3</ele>
        <time>2018-06-03T07:06:34Z</time>
      </trkpt>
      <trkpt lat="45.07289" lon="5.55326">
        <ele>1019.1</ele>
        <time>2018-06-03T07:06:36Z</time>
      </trkpt>
      <trkpt lat="45.07296" lon="5.55335">
        <ele>1018.8</ele>
        <time>2018-06-03T07:06:38Z</time>
      </trkpt>
      <trkpt lat="45.07303" lon="5.55345">
        <ele>1018.5</ele>
        <time>2018-06-03T07:06:40Z</time>
      </trkpt>
      <trkpt lat="45.0731" lon="5.55354">
        <ele>1018.5</ele>
        <time>2018-06-03T07:06:42Z</time>
      </trkpt>
      <trkpt lat="45.07316" lon="5.55363">
        <ele>1018.3</ele>
        <time>2018-06-03T07:06:44Z</time>
      </trkpt>
      <trkpt lat="45.07323" lon="5.55372">
        <ele>1018.3</ele>
        <time>2018-06-03T07:06:46Z</time>
      </trkpt>
      <trkpt lat="45.0733" lon="5.55382">
        <ele>1018.1</ele>
        <time>2018-06-03T07:06:48Z</time>
      </trkpt>
      <trkpt lat="45.07336" lon="5.5539">
        <ele>1017.8</ele>
        <time>2018-06-03T07:06:50Z</time>
      </trkpt>
      <trkpt lat="45.07347" lon="5.55402">
        <ele>1017.5</ele>
        <time>2018-06-03T07:06:53Z</time>
      </trkpt>
      <trkpt lat="45.07358" lon="5.55408">
        <ele>1017.3</ele>
        <time>2018-06-03T07:06:56Z</time>
      </trkpt>
      <trkpt lat="45.07368" lon="5.55409">
        <ele>1017.2</ele>
        <time>2018-06-03T07:06:59Z</time>
      </trkpt>
      <trkpt lat="45.07378" lon="5.55405">
        <ele>1016.9</ele>
        <time>2018-06-03T07:07:03Z</time>
      </trkpt>
      <trkpt lat="45.07388" lon="5.55397">
        <ele>1016.7</ele>
        <time>2018-06-03T07:07:07Z</time>
      </trkpt>
      <trkpt lat="45.07397" lon="5.5539">
        <ele>1016.7</ele>
        <time>2018-06-03T07:07:10Z</time>
      </trkpt>
      <trkpt lat="45.07407" lon="5.55381">
        <ele>1016.5</ele>
        <time>2018-06-03T07:07:13Z</time>
      </trkpt>
      <trkpt lat="45.07418" lon="5.55373">
        <ele>1016.2</ele>
        <time>2018-06-03T07:07:16Z</time>
      </trkpt>
      <trkpt lat="45.0743" lon="5.55363">
        <ele>1015.9</ele>
        <time>2018-06-03T07:07:19Z</time>
      </trkpt>
      <trkpt lat="45.07437" lon="5.55357">
        <ele>1015.7</ele>
        <time>2018-06-03T07:07:21Z</time>
      </trkpt>
      <trkpt lat="45.07446" lon="5.55351">
        <ele>1015.7</ele>
        <time>2018-06-03T07:07:23Z</time>
      </trkpt>
      <trkpt lat="45.07455" lon="5.55345">
        <ele>1015.5</ele>
        <time>2018-06-03T07:07:25Z</time>
      </trkpt>
      <trkpt lat="45.07463" lon="5.55337">
        <ele>1015.3</ele>
        <time>2018-06-03T07:07:27Z</time>
      </trkpt>
      <trkpt lat="45.07472" lon="5.5533">
        <ele>1014.9</ele>
        <time>2018-06-03T07:07:29Z</time>
      </trkpt>
      <trkpt lat="45.07481" lon="5.55322">
        <ele>1014.6</ele>
        <time>2018-06-03T07:07:31Z</time>
      </trkpt>
      <trkpt lat="45.07492" lon="5.55314">
        <ele>1014.3</ele>
        <time>2018-06-03T07:07:33Z</time>
      </trkpt>
      <trkpt lat="45.07503" lon="5.55306">
        <ele>1013.9</ele>
        <time>2018-06-03T07:07:35Z</time>
      </trkpt>
      <trkpt lat="45.07513" lon="5.55298">
        <ele>1013.5</ele>
        <time>2018-06-03T07:07:37Z</time>
      </trkpt>
      <trkpt lat="45.07523" lon="5.5529">
        <ele>1012.9</ele>
        <time>2018-06-03T07:07:39Z</time>
      </trkpt>
      <trkpt lat="45.07533" lon="5.55282">
        <ele>1012.2</ele>
        <time>2018-06-03T07:07:41Z</time>
      </trkpt>
      <trkpt lat="45.07544" lon="5.55274">
        <ele>1011.5</ele>
        <time>2018-06-03T07:07:43Z</time>
      </trkpt>
      <trkpt lat="45.07555" lon="5.55266">
        <ele>1010.8</ele>
        <time>2018-06-03T07:07:45Z</time>
      </trkpt>
      <trkpt lat="45.07567" lon="5.5526">
        <ele>1010.2</ele>
        <time>2018-06-03T07:07:47Z</time>
      </trkpt>
      <trkpt lat="45.07579" lon="5.55255">
        <ele>1009.6</ele>
        <time>2018-06-03T07:07:49Z</time>
      </trkpt>
      <trkpt lat="45.07593" lon="5.55254">
        <ele>1009</ele>
        <time>2018-06-03T07:07:51Z</time>
      </trkpt>
      <trkpt lat="45.07607" lon="5.55255">
        <ele>1008.4</ele>
        <time>2018-06-03T07:07:53Z</time>
      </trkpt>
      <trkpt lat="45.07621" lon="5.55259">
        <ele>1007.6</ele>
        <time>2018-06-03T07:07:55Z</time>
      </trkpt>
      <trkpt lat="45.07635" lon="5.55266">
        <ele>1006.8</ele>
        <time>2018-06-03T07:07:57Z</time>
      </trkpt>
      <trkpt lat="45.07648" lon="5.55275">
        <ele>1005.9</ele>
        <time>2018-06-03T07:07:59Z</time>
      </trkpt>
      <trkpt lat="45.07661" lon="5.55285">
        <ele>1005</ele>
        <time>2018-06-03T07:08:01Z</time>
      </trkpt>
      <trkpt lat="45.07673" lon="5.55295">
        <ele>1004</ele>
        <time>2018-06-03T07:08:03Z</time>
      </trkpt>
      <trkpt lat="45.07684" lon="5.55304">
        <ele>1003.1</ele>
        <time>2018-06-03T07:08:05Z</time>
      </trkpt>
      <trkpt lat="45.07694" lon="5.55312">
        <ele>1002.3</ele>
        <time>2018-06-03T07:08:07Z</time>
      </trkpt>
      <trkpt lat="45.07703" lon="5.5532">
        <ele>1001.5</ele>
        <time>2018-06-03T07:08:09Z</time>
      </trkpt>
      <trkpt lat="45.0771" lon="5.5533">
        <ele>1000.9</ele>
        <time>2018-06-03T07:08:11Z</time>
      </trkpt>
      <trkpt lat="45.07718" lon="5.55341">
        <ele>999.9</ele>
        <time>2018-06-03T07:08:13Z</time>
      </trkpt>
      <trkpt lat="45.07724" lon="5.55354">
        <ele>999.3</ele>
        <time>2018-06-03T07:08:15Z</time>
      </trkpt>
      <trkpt lat="45.07729" lon="5.55368">
        <ele>998.5</ele>
        <time>2018-06-03T07:08:17Z</time>
      </trkpt>
      <trkpt lat="45.07732" lon="5.55384">
        <ele>997.9</ele>
        <time>2018-06-03T07:08:19Z</time>
      </trkpt>
      <trkpt lat="45.07734" lon="5.55401">
        <ele>997.3</ele>
        <time>2018-06-03T07:08:21Z</time>
      </trkpt>
      <trkpt lat="45.07736" lon="5.55418">
        <ele>996.8</ele>
        <time>2018-06-03T07:08:23Z</time>
      </trkpt>
      <trkpt lat="45.07737" lon="5.55437">
        <ele>996.2</ele>
        <time>2018-06-03T07:08:25Z</time>
      </trkpt>
      <trkpt lat="45.07736" lon="5.55456">
        <ele>995.5</ele>
        <time>2018-06-03T07:08:27Z</time>
      </trkpt>
      <trkpt lat="45.07736" lon="5.55477">
        <ele>994.8</ele>
        <time>2018-06-03T07:08:29Z</time>
      </trkpt>
      <trkpt lat="45.07736" lon="5.55499">
        <ele>994</ele>
        <time>2018-06-03T07:08:31Z</time>
      </trkpt>
      <trkpt lat="45.07735" lon="5.55523">
        <ele>993.2</ele>
        <time>2018-06-03T07:08:33Z</time>
      </trkpt>
      <trkpt lat="45.07736" lon="5.55546">
        <ele>992.3</ele>
        <time>2018-06-03T07:08:35Z</time>
      </trkpt>
      <trkpt lat="45.0774" lon="5.55569">
        <ele>991.5</ele>
        <time>2018-06-03T07:08:37Z</time>
      </trkpt>
      <trkpt lat="45.07747" lon="5.55589">
        <ele>990.6</ele>
        <time>2018-06-03T07:08:39Z</time>
      </trkpt>
      <trkpt lat="45.07757" lon="5.55605">
        <ele>989.8</ele>
        <time>2018-06-03T07:08:41Z</time>
      </trkpt>
      <trkpt lat="45.07769" lon="5.55615">
        <ele>989.1</ele>
        <time>2018-06-03T07:08:43Z</time>
      </trkpt>
      <trkpt lat="45.07784" lon="5.55621">
        <ele>988.4</ele>
        <time>2018-06-03T07:08:45Z</time>
      </trkpt>
      <trkpt lat="45.07799" lon="5.55623">
        <ele>987.8</ele>
        <time>2018-06-03T07:08:47Z</time>
      </trkpt>
      <trkpt lat="45.07812" lon="5.5562">
        <ele>987.3</ele>
        <time>2018-06-03T07:08:49Z</time>
      </trkpt>
      <trkpt lat="45.07825" lon="5.55612">
        <ele>986.9</ele>
        <time>2018-06-03T07:08:51Z</time>
      </trkpt>
      <trkpt lat="45.07836" lon="5.556">
        <ele>986.4</ele>
        <time>2018-06-03T07:08:53Z</time>
      </trkpt>
      <trkpt lat="45.07843" lon="5.55585">
        <ele>986.1</ele>
        <time>2018-06-03T07:08:55Z</time>
      </trkpt>
      <trkpt lat="45.0785" lon="5.55569">
        <ele>985.7</ele>
        <time>2018-06-03T07:08:57Z</time>
      </trkpt>
      <trkpt lat="45.07855" lon="5.55555">
        <ele>985.6</ele>
        <time>2018-06-03T07:08:59Z</time>
      </trkpt>
      <trkpt lat="45.0786" lon="5.55541">
        <ele>985.3</ele>
        <time>2018-06-03T07:09:01Z</time>
      </trkpt>
      <trkpt lat="45.07865" lon="5.55528">
        <ele>985.2</ele>
        <time>2018-06-03T07:09:03Z</time>
      </trkpt>
      <trkpt lat="45.07869" lon="5.55515">
        <ele>985</ele>
        <time>2018-06-03T07:09:05Z</time>
      </trkpt>
      <trkpt lat="45.07873" lon="5.55504">
        <ele>985</ele>
        <time>2018-06-03T07:09:07Z</time>
      </trkpt>
      <trkpt lat="45.07879" lon="5.55487">
        <ele>984.9</ele>
        <time>2018-06-03T07:09:10Z</time>
      </trkpt>
      <trkpt lat="45.07884" lon="5.55472">
        <ele>984.9</ele>
        <time>2018-06-03T07:09:13Z</time>
      </trkpt>
      <trkpt lat="45.07889" lon="5.55458">
        <ele>985</ele>
        <time>2018-06-03T07:09:16Z</time>
      </trkpt>
      <trkpt lat="45.07893" lon="5.55445">
        <ele>985.2</ele>
        <time>2018-06-03T07:09:19Z</time>
      </trkpt>
      <trkpt lat="45.07898" lon="5.55431">
        <ele>985.1</ele>
        <time>2018-06-03T07:09:23Z</time>
      </trkpt>
      <trkpt lat="45.07902" lon="5.5542">
        <ele>985.2</ele>
        <time>2018-06-03T07:09:26Z</time>
      </trkpt>
      <trkpt lat="45.07907" lon="5.55405">
        <ele>985.4</ele>
        <time>2018-06-03T07:09:30Z</time>
      </trkpt>
      <trkpt lat="45.07912" lon="5.55392">
        <ele>985.4</ele>
        <time>2018-06-03T07:09:34Z</time>
      </trkpt>
      <trkpt lat="45.07918" lon="5.5538">
        <ele>985.6</ele>
        <time>2018-06-03T07:09:39Z</time>
      </trkpt>
      <trkpt lat="45.07926" lon="5.55372">
        <ele>985.7</ele>
        <time>2018-06-03T07:12:46Z</time>
      </trkpt>
      <trkpt lat="45.07934" lon="5.55366">
        <ele>986.4</ele>
        <time>2018-06-03T07:12:52Z</time>
      </trkpt>
      <trkpt lat="45.07941" lon="5.55359">
        <ele>986.8</ele>
        <time>2018-06-03T07:12:56Z</time>
      </trkpt>
      <trkpt lat="45.07949" lon="5.5535">
        <ele>987.5</ele>
        <time>2018-06-03T07:13:00Z</time>
      </trkpt>
      <trkpt lat="45.07957" lon="5.55343">
        <ele>988</ele>
        <time>2018-06-03T07:13:04Z</time>
      </trkpt>
      <trkpt lat="45.07966" lon="5.55341">
        <ele>988.9</ele>
        <time>2018-06-03T07:13:09Z</time>
      </trkpt>
      <trkpt lat="45.07974" lon="5.55347">
        <ele>990</ele>
        <time>2018-06-03T07:13:15Z</time>
      </trkpt>
      <trkpt lat="45.07977" lon="5.55361">
        <ele>991.5</ele>
        <time>2018-06-03T07:13:23Z</time>
      </trkpt>
      <trkpt lat="45.07979" lon="5.55377">
        <ele>993.4</ele>
        <time>2018-06-03T07:13:30Z</time>
      </trkpt>
      <trkpt lat="45.07977" lon="5.55391">
        <ele>995.2</ele>
        <time>2018-06-03T07:13:44Z</time>
      </trkpt>
      <trkpt lat="45.07973" lon="5.55402">
        <ele>995.5</ele>
        <time>2018-06-03T07:13:54Z</time>
      </trkpt>
      <trkpt lat="45.07973" lon="5.55416">
        <ele>996</ele>
        <time>2018-06-03T07:14:50Z</time>
      </trkpt>
      <trkpt lat="45.07969" lon="5.55429">
        <ele>996.7</ele>
        <time>2018-06-03T07:14:57Z</time>
      </trkpt>
      <trkpt lat="45.07965" lon="5.55442">
        <ele>997.7</ele>
        <time>2018-06-03T07:15:03Z</time>
      </trkpt>
      <trkpt lat="45.07962" lon="5.55455">
        <ele>998.7</ele>
        <time>2018-06-03T07:15:09Z</time>
      </trkpt>
      <trkpt lat="45.07961" lon="5.55469">
        <ele>999.7</ele>
        <time>2018-06-03T07:15:16Z</time>
      </trkpt>
      <trkpt lat="45.07964" lon="5.55483">
        <ele>1000.9</ele>
        <time>2018-06-03T07:15:23Z</time>
      </trkpt>
      <trkpt lat="45.07967" lon="5.55496">
        <ele>1002.1</ele>
        <time>2018-06-03T07:15:30Z</time>
      </trkpt>
      <trkpt lat="45.0797" lon="5.55509">
        <ele>1003.3</ele>
        <time>2018-06-03T07:15:37Z</time>
      </trkpt>
      <trkpt lat="45.07973" lon="5.55522">
        <ele>1004.8</ele>
        <time>2018-06-03T07:15:44Z</time>
      </trkpt>
      <trkpt lat="45.07975" lon="5.55535">
        <ele>1005.9</ele>
        <time>2018-06-03T07:15:50Z</time>
      </trkpt>
      <trkpt lat="45.07974" lon="5.55548">
        <ele>1007.1</ele>
        <time>2018-06-03T07:15:56Z</time>
      </trkpt>
      <trkpt lat="45.07973" lon="5.55562">
        <ele>1008.4</ele>
        <time>2018-06-03T07:16:03Z</time>
      </trkpt>
      <trkpt lat="45.07971" lon="5.55575">
        <ele>1009.8</ele>
        <time>2018-06-03T07:16:10Z</time>
      </trkpt>
      <trkpt lat="45.0797" lon="5.55589">
        <ele>1010.9</ele>
        <time>2018-06-03T07:16:17Z</time>
      </trkpt>
      <trkpt lat="45.07968" lon="5.55602">
        <ele>1012.1</ele>
        <time>2018-06-03T07:16:24Z</time>
      </trkpt>
      <trkpt lat="45.07967" lon="5.55615">
        <ele>1013.2</ele>
        <time>2018-06-03T07:16:30Z</time>
      </trkpt>
      <trkpt lat="45.07966" lon="5.5563">
        <ele>1014.2</ele>
        <time>2018-06-03T07:16:37Z</time>
      </trkpt>
      <trkpt lat="45.07964" lon="5.55644">
        <ele>1015.4</ele>
        <time>2018-06-03T07:16:44Z</time>
      </trkpt>
      <trkpt lat="45.07963" lon="5.55657">
        <ele>1016.3</ele>
        <time>2018-06-03T07:16:50Z</time>
      </trkpt>
      <trkpt lat="45.07962" lon="5.5567">
        <ele>1016.9</ele>
        <time>2018-06-03T07:16:56Z</time>
      </trkpt>
      <trkpt lat="45.07961" lon="5.55684">
        <ele>1017.9</ele>
        <time>2018-06-03T07:17:02Z</time>
      </trkpt>
      <trkpt lat="45.07961" lon="5.55699">
        <ele>1018.6</ele>
        <time>2018-06-03T07:17:08Z</time>
      </trkpt>
      <trkpt lat="45.07959" lon="5.55713">
        <ele>1019.2</ele>
        <time>2018-06-03T07:17:14Z</time>
      </trkpt>
      <trkpt lat="45.07957" lon="5.55727">
        <ele>1019.6</ele>
        <time>2018-06-03T07:17:20Z</time>
      </trkpt>
      <trkpt lat="45.07956" lon="5.55741">
        <ele>1020.4</ele>
        <time>2018-06-03T07:17:26Z</time>
      </trkpt>
      <trkpt lat="45.07955" lon="5.55755">
        <ele>1021</ele>
        <time>2018-06-03T07:17:32Z</time>
      </trkpt>
      <trkpt lat="45.07955" lon="5.55769">
        <ele>1021.3</ele>
        <time>2018-06-03T07:17:38Z</time>
      </trkpt>
      <trkpt lat="45.07953" lon="5.55784">
        <ele>1022.1</ele>
        <time>2018-06-03T07:17:44Z</time>
      </trkpt>
      <trkpt lat="45.07952" lon="5.55797">
        <ele>1022.6</ele>
        <time>2018-06-03T07:17:49Z</time>
      </trkpt>
      <trkpt lat="45.07951" lon="5.55809">
        <ele>1023.1</ele>
        <time>2018-06-03T07:17:54Z</time>
      </trkpt>
      <trkpt lat="45.0795" lon="5.55822">
        <ele>1023.4</ele>
        <time>2018-06-03T07:17:59Z</time>
      </trkpt>
      <trkpt lat="45.07949" lon="5.55836">
        <ele>1023.7</ele>
        <time>2018-06-03T07:18:04Z</time>
      </trkpt>
      <trkpt lat="45.07947" lon="5.55849">
        <ele>1023.9</ele>
        <time>2018-06-03T07:18:09Z</time>
      </trkpt>
      <trkpt lat="45.07946" lon="5.55863">
        <ele>1024</ele>
        <time>2018-06-03T07:18:14Z</time>
      </trkpt>
      <trkpt lat="45.07945" lon="5.55878">
        <ele>1024.3</ele>
        <time>2018-06-03T07:18:19Z</time>
      </trkpt>
      <trkpt lat="45.07943" lon="5.55892">
        <ele>1024.5</ele>
        <time>2018-06-03T07:18:24Z</time>
      </trkpt>
      <trkpt lat="45.07944" lon="5.55907">
        <ele>1024.5</ele>
        <time>2018-06-03T07:18:29Z</time>
      </trkpt>
      <trkpt lat="45.07948" lon="5.55919">
        <ele>1024.8</ele>
        <time>2018-06-03T07:18:34Z</time>
      </trkpt>
      <trkpt lat="45.07953" lon="5.55931">
        <ele>1025.3</ele>
        <time>2018-06-03T07:18:39Z</time>
      </trkpt>
      <trkpt lat="45.07958" lon="5.55943">
        <ele>1026.2</ele>
        <time>2018-06-03T07:18:44Z</time>
      </trkpt>
      <trkpt lat="45.0796" lon="5.55958">
        <ele>1026.7</ele>
        <time>2018-06-03T07:18:49Z</time>
      </trkpt>
      <trkpt lat="45.07956" lon="5.55973">
        <ele>1027</ele>
        <time>2018-06-03T07:18:54Z</time>
      </trkpt>
      <trkpt lat="45.07951" lon="5.55984">
        <ele>1027.4</ele>
        <time>2018-06-03T07:18:58Z</time>
      </trkpt>
      <trkpt lat="45.07946" lon="5.55996">
        <ele>1027.7</ele>
        <time>2018-06-03T07:19:03Z</time>
      </trkpt>
      <trkpt lat="45.07941" lon="5.56008">
        <ele>1028</ele>
        <time>2018-06-03T07:19:07Z</time>
      </trkpt>
      <trkpt lat="45.07936" lon="5.5602">
        <ele>1028.3</ele>
        <time>2018-06-03T07:19:11Z</time>
      </trkpt>
      <trkpt lat="45.07931" lon="5.5603">
        <ele>1028.5</ele>
        <time>2018-06-03T07:19:15Z</time>
      </trkpt>
      <trkpt lat="45.07925" lon="5.56044">
        <ele>1028.9</ele>
        <time>2018-06-03T07:19:20Z</time>
      </trkpt>
      <trkpt lat="45.0792" lon="5.56054">
        <ele>1029.3</ele>
        <time>2018-06-03T07:19:24Z</time>
      </trkpt>
      <trkpt lat="45.07915" lon="5.56065">
        <ele>1029.6</ele>
        <time>2018-06-03T07:19:28Z</time>
      </trkpt>
      <trkpt lat="45.07911" lon="5.56077">
        <ele>1029.8</ele>
        <time>2018-06-03T07:19:32Z</time>
      </trkpt>
      <trkpt lat="45.07906" lon="5.56088">
        <ele>1030</ele>
        <time>2018-06-03T07:19:36Z</time>
      </trkpt>
      <trkpt lat="45.07902" lon="5.56099">
        <ele>1030.2</ele>
        <time>2018-06-03T07:19:40Z</time>
      </trkpt>
      <trkpt lat="45.07897" lon="5.56112">
        <ele>1030.8</ele>
        <time>2018-06-03T07:19:45Z</time>
      </trkpt>
      <trkpt lat="45.07892" lon="5.56125">
        <ele>1031.2</ele>
        <time>2018-06-03T07:19:50Z</time>
      </trkpt>
      <trkpt lat="45.07886" lon="5.56139">
        <ele>1031.5</ele>
        <time>2018-06-03T07:19:55Z</time>
      </trkpt>
      <trkpt lat="45.07881" lon="5.56151">
        <ele>1031.7</ele>
        <time>2018-06-03T07:19:59Z</time>
      </trkpt>
      <trkpt lat="45.07876" lon="5.56164">
        <ele>1031.9</ele>
        <time>2018-06-03T07:20:03Z</time>
      </trkpt>
      <trkpt lat="45.07871" lon="5.56176">
        <ele>1032.2</ele>
        <time>2018-06-03T07:20:07Z</time>
      </trkpt>
      <trkpt lat="45.07866" lon="5.56188">
        <ele>1032.3</ele>
        <time>2018-06-03T07:20:11Z</time>
      </trkpt>
      <trkpt lat="45.07861" lon="5.56201">
        <ele>1032.6</ele>
        <time>2018-06-03T07:20:15Z</time>
      </trkpt>
      <trkpt lat="45.07855" lon="5.56214">
        <ele>1032.8</ele>
        <time>2018-06-03T07:20:19Z</time>
      </trkpt>
      <trkpt lat="45.0785" lon="5.56226">
        <ele>1033</ele>
        <time>2018-06-03T07:20:23Z</time>
      </trkpt>
      <trkpt lat="45.07845" lon="5.56239">
        <ele>1033.1</ele>
        <time>2018-06-03T07:20:27Z</time>
      </trkpt>
      <trkpt lat="45.07839" lon="5.56252">
        <ele>1033.4</ele>
        <time>2018-06-03T07:20:31Z</time>
      </trkpt>
      <trkpt lat="45.07834" lon="5.56264">
        <ele>1033.6</ele>
        <time>2018-06-03T07:20:35Z</time>
      </trkpt>
      <trkpt lat="45.07829" lon="5.56278">
        <ele>1033.8</ele>
        <time>2018-06-03T07:20:39Z</time>
      </trkpt>
      <trkpt lat="45.07825" lon="5.56293">
        <ele>1034.1</ele>
        <time>2018-06-03T07:20:43Z</time>
      </trkpt>
      <trkpt lat="45.0782" lon="5.56307">
        <ele>1034.4</ele>
        <time>2018-06-03T07:20:47Z</time>
      </trkpt>
      <trkpt lat="45.07816" lon="5.56321">
        <ele>1034.7</ele>
        <time>2018-06-03T07:20:51Z</time>
      </trkpt>
      <trkpt lat="45.07812" lon="5.56333">
        <ele>1034.6</ele>
        <time>2018-06-03T07:20:55Z</time>
      </trkpt>
      <trkpt lat="45.07809" lon="5.56347">
        <ele>1034.8</ele>
        <time>2018-06-03T07:20:59Z</time>
      </trkpt>
      <trkpt lat="45.07806" lon="5.56361">
        <ele>1035.2</ele>
        <time>2018-06-03T07:21:03Z</time>
      </trkpt>
      <trkpt lat="45.07802" lon="5.56376">
        <ele>1035.5</ele>
        <time>2018-06-03T07:21:07Z</time>
      </trkpt>
      <trkpt lat="45.07799" lon="5.56391">
        <ele>1035.7</ele>
        <time>2018-06-03T07:21:11Z</time>
      </trkpt>
      <trkpt lat="45.07795" lon="5.56405">
        <ele>1035.9</ele>
        <time>2018-06-03T07:21:15Z</time>
      </trkpt>
      <trkpt lat="45.07791" lon="5.5642">
        <ele>1036.3</ele>
        <time>2018-06-03T07:21:19Z</time>
      </trkpt>
      <trkpt lat="45.07785" lon="5.56432">
        <ele>1036.5</ele>
        <time>2018-06-03T07:21:23Z</time>
      </trkpt>
      <trkpt lat="45.0778" lon="5.56445">
        <ele>1036.6</ele>
        <time>2018-06-03T07:21:27Z</time>
      </trkpt>
      <trkpt lat="45.07776" lon="5.56458">
        <ele>1036.7</ele>
        <time>2018-06-03T07:21:31Z</time>
      </trkpt>
      <trkpt lat="45.07771" lon="5.56472">
        <ele>1036.9</ele>
        <time>2018-06-03T07:21:35Z</time>
      </trkpt>
      <trkpt lat="45.07767" lon="5.56484">
        <ele>1037</ele>
        <time>2018-06-03T07:21:39Z</time>
      </trkpt>
      <trkpt lat="45.07762" lon="5.56498">
        <ele>1037.6</ele>
        <time>2018-06-03T07:21:44Z</time>
      </trkpt>
      <trkpt lat="45.07757" lon="5.56512">
        <ele>1038.2</ele>
        <time>2018-06-03T07:21:49Z</time>
      </trkpt>
      <trkpt lat="45.07753" lon="5.56524">
        <ele>1038.8</ele>
        <time>2018-06-03T07:21:54Z</time>
      </trkpt>
      <trkpt lat="45.0775" lon="5.56537">
        <ele>1039.5</ele>
        <time>2018-06-03T07:21:59Z</time>
      </trkpt>
      <trkpt lat="45.07748" lon="5.56551">
        <ele>1040</ele>
        <time>2018-06-03T07:22:04Z</time>
      </trkpt>
      <trkpt lat="45.07745" lon="5.56564">
        <ele>1040.6</ele>
        <time>2018-06-03T07:22:09Z</time>
      </trkpt>
      <trkpt lat="45.07743" lon="5.56577">
        <ele>1041.3</ele>
        <time>2018-06-03T07:22:14Z</time>
      </trkpt>
      <trkpt lat="45.07741" lon="5.56592">
        <ele>1042.4</ele>
        <time>2018-06-03T07:22:20Z</time>
      </trkpt>
      <trkpt lat="45.07739" lon="5.56607">
        <ele>1043.4</ele>
        <time>2018-06-03T07:22:26Z</time>
      </trkpt>
      <trkpt lat="45.07736" lon="5.5662">
        <ele>1044.3</ele>
        <time>2018-06-03T07:22:32Z</time>
      </trkpt>
      <trkpt lat="45.07733" lon="5.56633">
        <ele>1045.6</ele>
        <time>2018-06-03T07:22:38Z</time>
      </trkpt>
      <trkpt lat="45.07728" lon="5.56646">
        <ele>1046.8</ele>
        <time>2018-06-03T07:22:44Z</time>
      </trkpt>
      <trkpt lat="45.07723" lon="5.56658">
        <ele>1048.2</ele>
        <time>2018-06-03T07:22:50Z</time>
      </trkpt>
      <trkpt lat="45.07716" lon="5.56668">
        <ele>1049.3</ele>
        <time>2018-06-03T07:22:56Z</time>
      </trkpt>
      <trkpt lat="45.0771" lon="5.56677">
        <ele>1050.5</ele>
        <time>2018-06-03T07:23:02Z</time>
      </trkpt>
      <trkpt lat="45.07703" lon="5.56686">
        <ele>1051.7</ele>
        <time>2018-06-03T07:23:08Z</time>
      </trkpt>
      <trkpt lat="45.07697" lon="5.56696">
        <ele>1052.8</ele>
        <time>2018-06-03T07:23:14Z</time>
      </trkpt>
      <trkpt lat="45.07691" lon="5.56707">
        <ele>1053.8</ele>
        <time>2018-06-03T07:23:21Z</time>
      </trkpt>
      <trkpt lat="45.07686" lon="5.56718">
        <ele>1055.1</ele>
        <time>2018-06-03T07:23:27Z</time>
      </trkpt>
      <trkpt lat="45.07681" lon="5.56729">
        <ele>1056.6</ele>
        <time>2018-06-03T07:23:33Z</time>
      </trkpt>
      <trkpt lat="45.07679" lon="5.56742">
        <ele>1058.1</ele>
        <time>2018-06-03T07:23:40Z</time>
      </trkpt>
      <trkpt lat="45.07679" lon="5.56756">
        <ele>1060.1</ele>
        <time>2018-06-03T07:23:48Z</time>
      </trkpt>
      <trkpt lat="45.07679" lon="5.5677">
        <ele>1061.6</ele>
        <time>2018-06-03T07:23:55Z</time>
      </trkpt>
      <trkpt lat="45.0768" lon="5.56783">
        <ele>1062.8</ele>
        <time>2018-06-03T07:24:02Z</time>
      </trkpt>
      <trkpt lat="45.0768" lon="5.56796">
        <ele>1064.1</ele>
        <time>2018-06-03T07:24:09Z</time>
      </trkpt>
      <trkpt lat="45.0768" lon="5.5681">
        <ele>1065.2</ele>
        <time>2018-06-03T07:24:16Z</time>
      </trkpt>
      <trkpt lat="45.0768" lon="5.56823">
        <ele>1066.1</ele>
        <time>2018-06-03T07:24:22Z</time>
      </trkpt>
      <trkpt lat="45.07681" lon="5.56836">
        <ele>1067.2</ele>
        <time>2018-06-03T07:24:28Z</time>
      </trkpt>
      <trkpt lat="45.07682" lon="5.56849">
        <ele>1068.1</ele>
        <time>2018-06-03T07:24:34Z</time>
      </trkpt>
      <trkpt lat="45.07684" lon="5.56863">
        <ele>1069.2</ele>
        <time>2018-06-03T07:24:41Z</time>
      </trkpt>
      <trkpt lat="45.07687" lon="5.56877">
        <ele>1070.5</ele>
        <time>2018-06-03T07:24:48Z</time>
      </trkpt>
      <trkpt lat="45.07691" lon="5.5689">
        <ele>1071.8</ele>
        <time>2018-06-03T07:24:55Z</time>
      </trkpt>
      <trkpt lat="45.07694" lon="5.56904">
        <ele>1073.3</ele>
        <time>2018-06-03T07:25:02Z</time>
      </trkpt>
      <trkpt lat="45.07696" lon="5.56917">
        <ele>1074.5</ele>
        <time>2018-06-03T07:25:09Z</time>
      </trkpt>
      <trkpt lat="45.07699" lon="5.56931">
        <ele>1075.7</ele>
        <time>2018-06-03T07:25:16Z</time>
      </trkpt>
      <trkpt lat="45.07702" lon="5.56945">
        <ele>1076.9</ele>
        <time>2018-06-03T07:25:23Z</time>
      </trkpt>
      <trkpt lat="45.07703" lon="5.56958">
        <ele>1077.9</ele>
        <time>2018-06-03T07:25:29Z</time>
      </trkpt>
      <trkpt lat="45.07706" lon="5.56972">
        <ele>1079</ele>
        <time>2018-06-03T07:25:36Z</time>
      </trkpt>
      <trkpt lat="45.07708" lon="5.56987">
        <ele>1079.9</ele>
        <time>2018-06-03T07:25:43Z</time>
      </trkpt>
      <trkpt lat="45.07709" lon="5.57">
        <ele>1080.7</ele>
        <time>2018-06-03T07:25:49Z</time>
      </trkpt>
      <trkpt lat="45.07708" lon="5.57014">
        <ele>1081.2</ele>
        <time>2018-06-03T07:25:55Z</time>
      </trkpt>
      <trkpt lat="45.07708" lon="5.57027">
        <ele>1081.6</ele>
        <time>2018-06-03T07:26:00Z</time>
      </trkpt>
      <trkpt lat="45.07709" lon="5.5704">
        <ele>1082.3</ele>
        <time>2018-06-03T07:26:05Z</time>
      </trkpt>
      <trkpt lat="45.07709" lon="5.57053">
        <ele>1082.5</ele>
        <time>2018-06-03T07:26:10Z</time>
      </trkpt>
      <trkpt lat="45.07709" lon="5.57067">
        <ele>1082.8</ele>
        <time>2018-06-03T07:26:15Z</time>
      </trkpt>
      <trkpt lat="45.0771" lon="5.57081">
        <ele>1082.9</ele>
        <time>2018-06-03T07:26:20Z</time>
      </trkpt>
      <trkpt lat="45.07709" lon="5.57095">
        <ele>1083.2</ele>
        <time>2018-06-03T07:26:25Z</time>
      </trkpt>
      <trkpt lat="45.07707" lon="5.57109">
        <ele>1083.8</ele>
        <time>2018-06-03T07:26:30Z</time>
      </trkpt>
      <trkpt lat="45.07708" lon="5.57124">
        <ele>1084.6</ele>
        <time>2018-06-03T07:26:36Z</time>
      </trkpt>
      <trkpt lat="45.07707" lon="5.57137">
        <ele>1085.6</ele>
        <time>2018-06-03T07:26:42Z</time>
      </trkpt>
      <trkpt lat="45.07708" lon="5.57151">
        <ele>1086.7</ele>
        <time>2018-06-03T07:26:48Z</time>
      </trkpt>
      <trkpt lat="45.0771" lon="5.57164">
        <ele>1087.9</ele>
        <time>2018-06-03T07:26:54Z</time>
      </trkpt>
      <trkpt lat="45.07713" lon="5.57178">
        <ele>1089</ele>
        <time>2018-06-03T07:27:00Z</time>
      </trkpt>
      <trkpt lat="45.07716" lon="5.5719">
        <ele>1090.1</ele>
        <time>2018-06-03T07:27:06Z</time>
      </trkpt>
      <trkpt lat="45.07719" lon="5.57203">
        <ele>1090.9</ele>
        <time>2018-06-03T07:27:12Z</time>
      </trkpt>
      <trkpt lat="45.07723" lon="5.57215">
        <ele>1092.1</ele>
        <time>2018-06-03T07:27:18Z</time>
      </trkpt>
      <trkpt lat="45.07729" lon="5.57228">
        <ele>1093.4</ele>
        <time>2018-06-03T07:27:25Z</time>
      </trkpt>
      <trkpt lat="45.07735" lon="5.57239">
        <ele>1094.5</ele>
        <time>2018-06-03T07:27:31Z</time>
      </trkpt>
      <trkpt lat="45.0774" lon="5.57251">
        <ele>1096.1</ele>
        <time>2018-06-03T07:27:37Z</time>
      </trkpt>
      <trkpt lat="45.07745" lon="5.57264">
        <ele>1098.1</ele>
        <time>2018-06-03T07:27:43Z</time>
      </trkpt>
      <trkpt lat="45.07748" lon="5.57278">
        <ele>1100.2</ele>
        <time>2018-06-03T07:27:49Z</time>
      </trkpt>
      <trkpt lat="45.07749" lon="5.57292">
        <ele>1101.4</ele>
        <time>2018-06-03T07:27:56Z</time>
      </trkpt>
      <trkpt lat="45.07752" lon="5.57304">
        <ele>1101.7</ele>
        <time>2018-06-03T07:28:33Z</time>
      </trkpt>
      <trkpt lat="45.07743" lon="5.57313">
        <ele>1101.6</ele>
        <time>2018-06-03T07:31:08Z</time>
      </trkpt>
      <trkpt lat="45.07735" lon="5.57319">
        <ele>1101.6</ele>
        <time>2018-06-03T07:31:12Z</time>
      </trkpt>
      <trkpt lat="45.07726" lon="5.57322">
        <ele>1101.2</ele>
        <time>2018-06-03T07:31:16Z</time>
      </trkpt>
      <trkpt lat="45.0772" lon="5.57334">
        <ele>1101.2</ele>
        <time>2018-06-03T07:31:21Z</time>
      </trkpt>
      <trkpt lat="45.07725" lon="5.57346">
        <ele>1101.2</ele>
        <time>2018-06-03T07:31:25Z</time>
      </trkpt>
      <trkpt lat="45.07732" lon="5.57357">
        <ele>1101.4</ele>
        <time>2018-06-03T07:31:29Z</time>
      </trkpt>
      <trkpt lat="45.07738" lon="5.57372">
        <ele>1101.6</ele>
        <time>2018-06-03T07:31:33Z</time>
      </trkpt>
      <trkpt lat="45.07745" lon="5.57386">
        <ele>1101.6</ele>
        <time>2018-06-03T07:31:37Z</time>
      </trkpt>
      <trkpt lat="45.07751" lon="5.57398">
        <ele>1101.5</ele>
        <time>2018-06-03T07:31:40Z</time>
      </trkpt>
      <trkpt lat="45.07758" lon="5.57411">
        <ele>1101.3</ele>
        <time>2018-06-03T07:31:43Z</time>
      </trkpt>
      <trkpt lat="45.07764" lon="5.57422">
        <ele>1101.1</ele>
        <time>2018-06-03T07:31:45Z</time>
      </trkpt>
      <trkpt lat="45.07769" lon="5.57432">
        <ele>1100.9</ele>
        <time>2018-06-03T07:31:47Z</time>
      </trkpt>
      <trkpt lat="45.07775" lon="5.57443">
        <ele>1100.6</ele>
        <time>2018-06-03T07:31:49Z</time>
      </trkpt>
      <trkpt lat="45.07781" lon="5.57455">
        <ele>1100.3</ele>
        <time>2018-06-03T07:31:51Z</time>
      </trkpt>
      <trkpt lat="45.07786" lon="5.57466">
        <ele>1100.1</ele>
        <time>2018-06-03T07:31:53Z</time>
      </trkpt>
      <trkpt lat="45.07792" lon="5.57478">
        <ele>1099.8</ele>
        <time>2018-06-03T07:31:55Z</time>
      </trkpt>
      <trkpt lat="45.07799" lon="5.57489">
        <ele>1099.3</ele>
        <time>2018-06-03T07:31:57Z</time>
      </trkpt>
      <trkpt lat="45.07811" lon="5.57499">
        <ele>1098.6</ele>
        <time>2018-06-03T07:32:00Z</time>
      </trkpt>
      <trkpt lat="45.0782" lon="5.57504">
        <ele>1098.1</ele>
        <time>2018-06-03T07:32:02Z</time>
      </trkpt>
      <trkpt lat="45.07831" lon="5.57505">
        <ele>1097.8</ele>
        <time>2018-06-03T07:32:04Z</time>
      </trkpt>
      <trkpt lat="45.07842" lon="5.57506">
        <ele>1097.2</ele>
        <time>2018-06-03T07:32:06Z</time>
      </trkpt>
      <trkpt lat="45.07854" lon="5.57505">
        <ele>1096.7</ele>
        <time>2018-06-03T07:32:08Z</time>
      </trkpt>
      <trkpt lat="45.07866" lon="5.57505">
        <ele>1096.3</ele>
        <time>2018-06-03T07:32:10Z</time>
      </trkpt>
      <trkpt lat="45.07878" lon="5.57503">
        <ele>1095.8</ele>
        <time>2018-06-03T07:32:12Z</time>
      </trkpt>
      <trkpt lat="45.07889" lon="5.57499">
        <ele>1095.3</ele>
        <time>2018-06-03T07:32:14Z</time>
      </trkpt>
      <trkpt lat="45.079" lon="5.57492">
        <ele>1095</ele>
        <time>2018-06-03T07:32:16Z</time>
      </trkpt>
      <trkpt lat="45.0791" lon="5.57485">
        <ele>1094.7</ele>
        <time>2018-06-03T07:32:18Z</time>
      </trkpt>
      <trkpt lat="45.07919" lon="5.57478">
        <ele>1094.5</ele>
        <time>2018-06-03T07:32:20Z</time>
      </trkpt>
      <trkpt lat="45.07928" lon="5.57472">
        <ele>1094.4</ele>
        <time>2018-06-03T07:32:22Z</time>
      </trkpt>
      <trkpt lat="45.07937" lon="5.57469">
        <ele>1094.2</ele>
        <time>2018-06-03T07:32:24Z</time>
      </trkpt>
      <trkpt lat="45.07947" lon="5.57468">
        <ele>1094.1</ele>
        <time>2018-06-03T07:32:26Z</time>
      </trkpt>
      <trkpt lat="45.07956" lon="5.57471">
        <ele>1094.2</ele>
        <time>2018-06-03T07:32:28Z</time>
      </trkpt>
      <trkpt lat="45.07966" lon="5.5748">
        <ele>1094.3</ele>
        <time>2018-06-03T07:32:31Z</time>
      </trkpt>
      <trkpt lat="45.07975" lon="5.57494">
        <ele>1094.3</ele>
        <time>2018-06-03T07:32:34Z</time>
      </trkpt>
      <trkpt lat="45.07984" lon="5.57509">
        <ele>1094.3</ele>
        <time>2018-06-03T07:32:37Z</time>
      </trkpt>
      <trkpt lat="45.07991" lon="5.57517">
        <ele>1094.4</ele>
        <time>2018-06-03T07:32:39Z</time>
      </trkpt>
      <trkpt lat="45.07999" lon="5.57524">
        <ele>1094.4</ele>
        <time>2018-06-03T07:32:41Z</time>
      </trkpt>
      <trkpt lat="45.0801" lon="5.57532">
        <ele>1094.7</ele>
        <time>2018-06-03T07:32:44Z</time>
      </trkpt>
      <trkpt lat="45.08021" lon="5.57541">
        <ele>1094.8</ele>
        <time>2018-06-03T07:32:47Z</time>
      </trkpt>
      <trkpt lat="45.08031" lon="5.57551">
        <ele>1094.9</ele>
        <time>2018-06-03T07:32:50Z</time>
      </trkpt>
      <trkpt lat="45.08039" lon="5.57563">
        <ele>1095.1</ele>
        <time>2018-06-03T07:32:53Z</time>
      </trkpt>
      <trkpt lat="45.08047" lon="5.57575">
        <ele>1095.1</ele>
        <time>2018-06-03T07:32:56Z</time>
      </trkpt>
      <trkpt lat="45.08054" lon="5.57589">
        <ele>1095.1</ele>
        <time>2018-06-03T07:32:59Z</time>
      </trkpt>
      <trkpt lat="45.08061" lon="5.57601">
        <ele>1095.1</ele>
        <time>2018-06-03T07:33:02Z</time>
      </trkpt>
      <trkpt lat="45.08071" lon="5.5761">
        <ele>1095</ele>
        <time>2018-06-03T07:33:05Z</time>
      </trkpt>
      <trkpt lat="45.08083" lon="5.57617">
        <ele>1095</ele>
        <time>2018-06-03T07:33:08Z</time>
      </trkpt>
      <trkpt lat="45.08096" lon="5.57619">
        <ele>1094.8</ele>
        <time>2018-06-03T07:33:11Z</time>
      </trkpt>
      <trkpt lat="45.08109" lon="5.57617">
        <ele>1094.9</ele>
        <time>2018-06-03T07:33:14Z</time>
      </trkpt>
      <trkpt lat="45.08119" lon="5.57614">
        <ele>1094.8</ele>
        <time>2018-06-03T07:33:16Z</time>
      </trkpt>
      <trkpt lat="45.08129" lon="5.57609">
        <ele>1094.5</ele>
        <time>2018-06-03T07:33:18Z</time>
      </trkpt>
      <trkpt lat="45.08139" lon="5.57604">
        <ele>1094.1</ele>
        <time>2018-06-03T07:33:20Z</time>
      </trkpt>
      <trkpt lat="45.0815" lon="5.576">
        <ele>1093.6</ele>
        <time>2018-06-03T07:33:22Z</time>
      </trkpt>
      <trkpt lat="45.08161" lon="5.57595">
        <ele>1092.9</ele>
        <time>2018-06-03T07:33:24Z</time>
      </trkpt>
      <trkpt lat="45.08172" lon="5.57591">
        <ele>1092.3</ele>
        <time>2018-06-03T07:33:26Z</time>
      </trkpt>
      <trkpt lat="45.08183" lon="5.57587">
        <ele>1091.8</ele>
        <time>2018-06-03T07:33:28Z</time>
      </trkpt>
      <trkpt lat="45.08195" lon="5.57581">
        <ele>1091.3</ele>
        <time>2018-06-03T07:33:30Z</time>
      </trkpt>
      <trkpt lat="45.08207" lon="5.57574">
        <ele>1090.6</ele>
        <time>2018-06-03T07:33:32Z</time>
      </trkpt>
      <trkpt lat="45.0822" lon="5.57564">
        <ele>1089.9</ele>
        <time>2018-06-03T07:33:34Z</time>
      </trkpt>
      <trkpt lat="45.08233" lon="5.57553">
        <ele>1088.9</ele>
        <time>2018-06-03T07:33:36Z</time>
      </trkpt>
      <trkpt lat="45.08247" lon="5.57542">
        <ele>1088</ele>
        <time>2018-06-03T07:33:38Z</time>
      </trkpt>
      <trkpt lat="45.08263" lon="5.57535">
        <ele>1087.2</ele>
        <time>2018-06-03T07:33:40Z</time>
      </trkpt>
      <trkpt lat="45.0828" lon="5.57538">
        <ele>1086.2</ele>
        <time>2018-06-03T07:33:42Z</time>
      </trkpt>
      <trkpt lat="45.08288" lon="5.57544">
        <ele>1085.6</ele>
        <time>2018-06-03T07:33:43Z</time>
      </trkpt>
      <trkpt lat="45.08295" lon="5.57553">
        <ele>1085</ele>
        <time>2018-06-03T07:33:44Z</time>
      </trkpt>
      <trkpt lat="45.08301" lon="5.57564">
        <ele>1084.4</ele>
        <time>2018-06-03T07:33:45Z</time>
      </trkpt>
      <trkpt lat="45.08307" lon="5.57575">
        <ele>1083.9</ele>
        <time>2018-06-03T07:33:46Z</time>
      </trkpt>
      <trkpt lat="45.08314" lon="5.57586">
        <ele>1083.2</ele>
        <time>2018-06-03T07:33:47Z</time>
      </trkpt>
      <trkpt lat="45.08321" lon="5.57597">
        <ele>1082.5</ele>
        <time>2018-06-03T07:33:48Z</time>
      </trkpt>
      <trkpt lat="45.08329" lon="5.57608">
        <ele>1081.6</ele>
        <time>2018-06-03T07:33:49Z</time>
      </trkpt>
      <trkpt lat="45.08337" lon="5.57618">
        <ele>1080.8</ele>
        <time>2018-06-03T07:33:50Z</time>
      </trkpt>
      <trkpt lat="45.08345" lon="5.57629">
        <ele>1079.8</ele>
        <time>2018-06-03T07:33:51Z</time>
      </trkpt>
      <trkpt lat="45.08352" lon="5.57638">
        <ele>1078.8</ele>
        <time>2018-06-03T07:33:52Z</time>
      </trkpt>
      <trkpt lat="45.0836" lon="5.57648">
        <ele>1078</ele>
        <time>2018-06-03T07:33:53Z</time>
      </trkpt>
      <trkpt lat="45.08366" lon="5.57658">
        <ele>1077.2</ele>
        <time>2018-06-03T07:33:54Z</time>
      </trkpt>
      <trkpt lat="45.08372" lon="5.5767">
        <ele>1076.3</ele>
        <time>2018-06-03T07:33:55Z</time>
      </trkpt>
      <trkpt lat="45.08376" lon="5.57682">
        <ele>1075.5</ele>
        <time>2018-06-03T07:33:56Z</time>
      </trkpt>
      <trkpt lat="45.08381" lon="5.57694">
        <ele>1074.8</ele>
        <time>2018-06-03T07:33:57Z</time>
      </trkpt>
      <trkpt lat="45.08385" lon="5.57707">
        <ele>1074</ele>
        <time>2018-06-03T07:33:58Z</time>
      </trkpt>
      <trkpt lat="45.08388" lon="5.5772">
        <ele>1073.2</ele>
        <time>2018-06-03T07:33:59Z</time>
      </trkpt>
      <trkpt lat="45.08392" lon="5.57732">
        <ele>1072.5</ele>
        <time>2018-06-03T07:34:00Z</time>
      </trkpt>
      <trkpt lat="45.08399" lon="5.57753">
        <ele>1071.5</ele>
        <time>2018-06-03T07:34:02Z</time>
      </trkpt>
      <trkpt lat="45.08404" lon="5.57767">
        <ele>1070.8</ele>
        <time>2018-06-03T07:34:04Z</time>
      </trkpt>
      <trkpt lat="45.08408" lon="5.57779">
        <ele>1070.1</ele>
        <time>2018-06-03T07:34:07Z</time>
      </trkpt>
      <trkpt lat="45.08405" lon="5.57764">
        <ele>1069.2</ele>
        <time>2018-06-03T07:34:20Z</time>
      </trkpt>
      <trkpt lat="45.08402" lon="5.5775">
        <ele>1069.4</ele>
        <time>2018-06-03T07:34:23Z</time>
      </trkpt>
      <trkpt lat="45.08398" lon="5.57737">
        <ele>1069.5</ele>
        <time>2018-06-03T07:34:26Z</time>
      </trkpt>
      <trkpt lat="45.08393" lon="5.57724">
        <ele>1069.6</ele>
        <time>2018-06-03T07:34:29Z</time>
      </trkpt>
      <trkpt lat="45.08404" lon="5.57721">
        <ele>1069.4</ele>
        <time>2018-06-03T07:34:35Z</time>
      </trkpt>
      <trkpt lat="45.08412" lon="5.57729">
        <ele>1069.3</ele>
        <time>2018-06-03T07:34:38Z</time>
      </trkpt>
      <trkpt lat="45.08421" lon="5.57734">
        <ele>1069.4</ele>
        <time>2018-06-03T07:34:41Z</time>
      </trkpt>
      <trkpt lat="45.08429" lon="5.57741">
        <ele>1069.4</ele>
        <time>2018-06-03T07:34:44Z</time>
      </trkpt>
      <trkpt lat="45.08436" lon="5.57753">
        <ele>1068.9</ele>
        <time>2018-06-03T07:34:47Z</time>
      </trkpt>
      <trkpt lat="45.08444" lon="5.57764">
        <ele>1067.9</ele>
        <time>2018-06-03T07:34:49Z</time>
      </trkpt>
      <trkpt lat="45.08452" lon="5.57781">
        <ele>1066.7</ele>
        <time>2018-06-03T07:34:51Z</time>
      </trkpt>
      <trkpt lat="45.08457" lon="5.57801">
        <ele>1065.2</ele>
        <time>2018-06-03T07:34:53Z</time>
      </trkpt>
      <trkpt lat="45.0846" lon="5.57821">
        <ele>1063.8</ele>
        <time>2018-06-03T07:34:55Z</time>
      </trkpt>
      <trkpt lat="45.08459" lon="5.57842">
        <ele>1062.6</ele>
        <time>2018-06-03T07:34:57Z</time>
      </trkpt>
      <trkpt lat="45.08458" lon="5.57861">
        <ele>1061</ele>
        <time>2018-06-03T07:34:59Z</time>
      </trkpt>
      <trkpt lat="45.08459" lon="5.57878">
        <ele>1059.3</ele>
        <time>2018-06-03T07:35:01Z</time>
      </trkpt>
      <trkpt lat="45.08462" lon="5.57893">
        <ele>1057.2</ele>
        <time>2018-06-03T07:35:04Z</time>
      </trkpt>
      <trkpt lat="45.0847" lon="5.57901">
        <ele>1055.4</ele>
        <time>2018-06-03T07:35:09Z</time>
      </trkpt>
      <trkpt lat="45.08483" lon="5.57898">
        <ele>1054.7</ele>
        <time>2018-06-03T07:35:12Z</time>
      </trkpt>
      <trkpt lat="45.08493" lon="5.57894">
        <ele>1054.2</ele>
        <time>2018-06-03T07:35:14Z</time>
      </trkpt>
      <trkpt lat="45.08503" lon="5.57889">
        <ele>1053.9</ele>
        <time>2018-06-03T07:35:16Z</time>
      </trkpt>
      <trkpt lat="45.08512" lon="5.57883">
        <ele>1053.6</ele>
        <time>2018-06-03T07:35:18Z</time>
      </trkpt>
      <trkpt lat="45.08522" lon="5.57873">
        <ele>1053.2</ele>
        <time>2018-06-03T07:35:20Z</time>
      </trkpt>
      <trkpt lat="45.08532" lon="5.5786">
        <ele>1052.6</ele>
        <time>2018-06-03T07:35:22Z</time>
      </trkpt>
      <trkpt lat="45.08541" lon="5.57846">
        <ele>1052.2</ele>
        <time>2018-06-03T07:35:24Z</time>
      </trkpt>
      <trkpt lat="45.08547" lon="5.57829">
        <ele>1051.7</ele>
        <time>2018-06-03T07:35:26Z</time>
      </trkpt>
      <trkpt lat="45.08555" lon="5.57812">
        <ele>1051.2</ele>
        <time>2018-06-03T07:35:28Z</time>
      </trkpt>
      <trkpt lat="45.08561" lon="5.57793">
        <ele>1050.7</ele>
        <time>2018-06-03T07:35:30Z</time>
      </trkpt>
      <trkpt lat="45.08565" lon="5.57774">
        <ele>1050</ele>
        <time>2018-06-03T07:35:32Z</time>
      </trkpt>
      <trkpt lat="45.08568" lon="5.57755">
        <ele>1049.4</ele>
        <time>2018-06-03T07:35:34Z</time>
      </trkpt>
      <trkpt lat="45.08572" lon="5.57735">
        <ele>1049</ele>
        <time>2018-06-03T07:35:36Z</time>
      </trkpt>
      <trkpt lat="45.08572" lon="5.57715">
        <ele>1048.6</ele>
        <time>2018-06-03T07:35:38Z</time>
      </trkpt>
      <trkpt lat="45.08573" lon="5.57693">
        <ele>1048</ele>
        <time>2018-06-03T07:35:40Z</time>
      </trkpt>
      <trkpt lat="45.08573" lon="5.57673">
        <ele>1047.5</ele>
        <time>2018-06-03T07:35:42Z</time>
      </trkpt>
      <trkpt lat="45.08576" lon="5.57653">
        <ele>1047.1</ele>
        <time>2018-06-03T07:35:44Z</time>
      </trkpt>
      <trkpt lat="45.08581" lon="5.57635">
        <ele>1046.7</ele>
        <time>2018-06-03T07:35:46Z</time>
      </trkpt>
      <trkpt lat="45.08586" lon="5.57619">
        <ele>1046.6</ele>
        <time>2018-06-03T07:35:48Z</time>
      </trkpt>
      <trkpt lat="45.0859" lon="5.57605">
        <ele>1046.9</ele>
        <time>2018-06-03T07:35:50Z</time>
      </trkpt>
      <trkpt lat="45.08594" lon="5.57593">
        <ele>1047.2</ele>
        <time>2018-06-03T07:35:52Z</time>
      </trkpt>
      <trkpt lat="45.08598" lon="5.57577">
        <ele>1047.7</ele>
        <time>2018-06-03T07:35:55Z</time>
      </trkpt>
      <trkpt lat="45.08602" lon="5.57561">
        <ele>1048.3</ele>
        <time>2018-06-03T07:35:58Z</time>
      </trkpt>
      <trkpt lat="45.08606" lon="5.57547">
        <ele>1049</ele>
        <time>2018-06-03T07:36:01Z</time>
      </trkpt>
      <trkpt lat="45.08612" lon="5.57536">
        <ele>1049.7</ele>
        <time>2018-06-03T07:36:04Z</time>
      </trkpt>
      <trkpt lat="45.08618" lon="5.57526">
        <ele>1051.1</ele>
        <time>2018-06-03T07:36:08Z</time>
      </trkpt>
      <trkpt lat="45.08627" lon="5.57519">
        <ele>1052.6</ele>
        <time>2018-06-03T07:36:13Z</time>
      </trkpt>
      <trkpt lat="45.08636" lon="5.57516">
        <ele>1054</ele>
        <time>2018-06-03T07:36:18Z</time>
      </trkpt>
      <trkpt lat="45.08646" lon="5.57515">
        <ele>1055</ele>
        <time>2018-06-03T07:36:23Z</time>
      </trkpt>
      <trkpt lat="45.08655" lon="5.57514">
        <ele>1056.1</ele>
        <time>2018-06-03T07:36:28Z</time>
      </trkpt>
      <trkpt lat="45.08665" lon="5.5751">
        <ele>1057.2</ele>
        <time>2018-06-03T07:36:33Z</time>
      </trkpt>
      <trkpt lat="45.08674" lon="5.57503">
        <ele>1057.9</ele>
        <time>2018-06-03T07:36:38Z</time>
      </trkpt>
      <trkpt lat="45.08682" lon="5.57494">
        <ele>1058.7</ele>
        <time>2018-06-03T07:36:43Z</time>
      </trkpt>
      <trkpt lat="45.08692" lon="5.57487">
        <ele>1059</ele>
        <time>2018-06-03T07:36:48Z</time>
      </trkpt>
      <trkpt lat="45.08701" lon="5.57483">
        <ele>1059.1</ele>
        <time>2018-06-03T07:36:51Z</time>
      </trkpt>
      <trkpt lat="45.0871" lon="5.57478">
        <ele>1059.1</ele>
        <time>2018-06-03T07:36:54Z</time>
      </trkpt>
      <trkpt lat="45.0872" lon="5.5747">
        <ele>1058.8</ele>
        <time>2018-06-03T07:36:57Z</time>
      </trkpt>
      <trkpt lat="45.0873" lon="5.57463">
        <ele>1058.3</ele>
        <time>2018-06-03T07:37:00Z</time>
      </trkpt>
      <trkpt lat="45.08743" lon="5.57456">
        <ele>1058.1</ele>
        <time>2018-06-03T07:37:03Z</time>
      </trkpt>
      <trkpt lat="45.08755" lon="5.57452">
        <ele>1057.8</ele>
        <time>2018-06-03T07:37:06Z</time>
      </trkpt>
      <trkpt lat="45.08767" lon="5.57447">
        <ele>1057.5</ele>
        <time>2018-06-03T07:37:09Z</time>
      </trkpt>
      <trkpt lat="45.08779" lon="5.57443">
        <ele>1057.2</ele>
        <time>2018-06-03T07:37:12Z</time>
      </trkpt>
      <trkpt lat="45.08791" lon="5.57439">
        <ele>1057.1</ele>
        <time>2018-06-03T07:37:15Z</time>
      </trkpt>
      <trkpt lat="45.08803" lon="5.57437">
        <ele>1057.1</ele>
        <time>2018-06-03T07:37:18Z</time>
      </trkpt>
      <trkpt lat="45.08815" lon="5.57437">
        <ele>1056.5</ele>
        <time>2018-06-03T07:37:21Z</time>
      </trkpt>
      <trkpt lat="45.08826" lon="5.57436">
        <ele>1056.2</ele>
        <time>2018-06-03T07:37:23Z</time>
      </trkpt>
      <trkpt lat="45.08836" lon="5.57431">
        <ele>1055.7</ele>
        <time>2018-06-03T07:37:25Z</time>
      </trkpt>
      <trkpt lat="45.08847" lon="5.57423">
        <ele>1054.9</ele>
        <time>2018-06-03T07:37:27Z</time>
      </trkpt>
      <trkpt lat="45.08854" lon="5.57412">
        <ele>1054.2</ele>
        <time>2018-06-03T07:37:29Z</time>
      </trkpt>
      <trkpt lat="45.0886" lon="5.57402">
        <ele>1053.8</ele>
        <time>2018-06-03T07:37:31Z</time>
      </trkpt>
      <trkpt lat="45.08872" lon="5.57395">
        <ele>1053.4</ele>
        <time>2018-06-03T07:37:34Z</time>
      </trkpt>
      <trkpt lat="45.08884" lon="5.57393">
        <ele>1052.8</ele>
        <time>2018-06-03T07:37:36Z</time>
      </trkpt>
      <trkpt lat="45.08899" lon="5.5739">
        <ele>1052.1</ele>
        <time>2018-06-03T07:37:38Z</time>
      </trkpt>
      <trkpt lat="45.08915" lon="5.57387">
        <ele>1050.9</ele>
        <time>2018-06-03T07:37:40Z</time>
      </trkpt>
      <trkpt lat="45.08925" lon="5.57385">
        <ele>1050.3</ele>
        <time>2018-06-03T07:37:41Z</time>
      </trkpt>
      <trkpt lat="45.08934" lon="5.57384">
        <ele>1049.6</ele>
        <time>2018-06-03T07:37:42Z</time>
      </trkpt>
      <trkpt lat="45.08944" lon="5.57383">
        <ele>1048.9</ele>
        <time>2018-06-03T07:37:43Z</time>
      </trkpt>
      <trkpt lat="45.08954" lon="5.57382">
        <ele>1048</ele>
        <time>2018-06-03T07:37:44Z</time>
      </trkpt>
      <trkpt lat="45.08964" lon="5.57381">
        <ele>1047.2</ele>
        <time>2018-06-03T07:37:45Z</time>
      </trkpt>
      <trkpt lat="45.08973" lon="5.5738">
        <ele>1046.4</ele>
        <time>2018-06-03T07:37:46Z</time>
      </trkpt>
      <trkpt lat="45.08983" lon="5.57377">
        <ele>1045.6</ele>
        <time>2018-06-03T07:37:47Z</time>
      </trkpt>
      <trkpt lat="45.08992" lon="5.57374">
        <ele>1044.9</ele>
        <time>2018-06-03T07:37:48Z</time>
      </trkpt>
      <trkpt lat="45.09008" lon="5.57367">
        <ele>1043.6</ele>
        <time>2018-06-03T07:37:50Z</time>
      </trkpt>
      <trkpt lat="45.0902" lon="5.57358">
        <ele>1042.3</ele>
        <time>2018-06-03T07:37:52Z</time>
      </trkpt>
      <trkpt lat="45.09026" lon="5.57348">
        <ele>1041.1</ele>
        <time>2018-06-03T07:37:54Z</time>
      </trkpt>
      <trkpt lat="45.0903" lon="5.57336">
        <ele>1040.1</ele>
        <time>2018-06-03T07:37:56Z</time>
      </trkpt>
      <trkpt lat="45.09033" lon="5.57323">
        <ele>1039.4</ele>
        <time>2018-06-03T07:37:58Z</time>
      </trkpt>
      <trkpt lat="45.09037" lon="5.5731">
        <ele>1039</ele>
        <time>2018-06-03T07:38:00Z</time>
      </trkpt>
      <trkpt lat="45.09041" lon="5.57297">
        <ele>1038.4</ele>
        <time>2018-06-03T07:38:02Z</time>
      </trkpt>
      <trkpt lat="45.09046" lon="5.57285">
        <ele>1037.9</ele>
        <time>2018-06-03T07:38:04Z</time>
      </trkpt>
      <trkpt lat="45.0905" lon="5.57272">
        <ele>1037.5</ele>
        <time>2018-06-03T07:38:06Z</time>
      </trkpt>
      <trkpt lat="45.09052" lon="5.57258">
        <ele>1037.1</ele>
        <time>2018-06-03T07:38:08Z</time>
      </trkpt>
      <trkpt lat="45.09053" lon="5.57244">
        <ele>1036.8</ele>
        <time>2018-06-03T07:38:10Z</time>
      </trkpt>
      <trkpt lat="45.09054" lon="5.57229">
        <ele>1036.3</ele>
        <time>2018-06-03T07:38:13Z</time>
      </trkpt>
      <trkpt lat="45.09064" lon="5.57224">
        <ele>1035.7</ele>
        <time>2018-06-03T07:38:16Z</time>
      </trkpt>
      <trkpt lat="45.09076" lon="5.57224">
        <ele>1035.2</ele>
        <time>2018-06-03T07:38:19Z</time>
      </trkpt>
      <trkpt lat="45.09085" lon="5.57227">
        <ele>1035</ele>
        <time>2018-06-03T07:38:21Z</time>
      </trkpt>
      <trkpt lat="45.09094" lon="5.57232">
        <ele>1034.8</ele>
        <time>2018-06-03T07:38:23Z</time>
      </trkpt>
      <trkpt lat="45.09103" lon="5.57237">
        <ele>1034.5</ele>
        <time>2018-06-03T07:38:25Z</time>
      </trkpt>
      <trkpt lat="45.09112" lon="5.57244">
        <ele>1034.3</ele>
        <time>2018-06-03T07:38:27Z</time>
      </trkpt>
      <trkpt lat="45.09121" lon="5.57252">
        <ele>1034</ele>
        <time>2018-06-03T07:38:29Z</time>
      </trkpt>
      <trkpt lat="45.09131" lon="5.57262">
        <ele>1033.7</ele>
        <time>2018-06-03T07:38:31Z</time>
      </trkpt>
      <trkpt lat="45.09143" lon="5.57273">
        <ele>1033.1</ele>
        <time>2018-06-03T07:38:33Z</time>
      </trkpt>
      <trkpt lat="45.09156" lon="5.57286">
        <ele>1032.4</ele>
        <time>2018-06-03T07:38:35Z</time>
      </trkpt>
      <trkpt lat="45.09168" lon="5.57296">
        <ele>1031.1</ele>
        <time>2018-06-03T07:38:37Z</time>
      </trkpt>
      <trkpt lat="45.09182" lon="5.57304">
        <ele>1029.8</ele>
        <time>2018-06-03T07:38:39Z</time>
      </trkpt>
      <trkpt lat="45.09196" lon="5.57311">
        <ele>1028.7</ele>
        <time>2018-06-03T07:38:41Z</time>
      </trkpt>
      <trkpt lat="45.09211" lon="5.57318">
        <ele>1027.3</ele>
        <time>2018-06-03T07:38:43Z</time>
      </trkpt>
      <trkpt lat="45.09227" lon="5.57329">
        <ele>1025.5</ele>
        <time>2018-06-03T07:38:45Z</time>
      </trkpt>
      <trkpt lat="45.09241" lon="5.5734">
        <ele>1023.7</ele>
        <time>2018-06-03T07:38:47Z</time>
      </trkpt>
      <trkpt lat="45.09255" lon="5.57348">
        <ele>1021.9</ele>
        <time>2018-06-03T07:38:49Z</time>
      </trkpt>
      <trkpt lat="45.09267" lon="5.57351">
        <ele>1020.1</ele>
        <time>2018-06-03T07:38:51Z</time>
      </trkpt>
      <trkpt lat="45.09278" lon="5.57348">
        <ele>1018.2</ele>
        <time>2018-06-03T07:38:53Z</time>
      </trkpt>
      <trkpt lat="45.09289" lon="5.57338">
        <ele>1016.8</ele>
        <time>2018-06-03T07:38:55Z</time>
      </trkpt>
      <trkpt lat="45.093" lon="5.57328">
        <ele>1015.6</ele>
        <time>2018-06-03T07:38:57Z</time>
      </trkpt>
      <trkpt lat="45.09311" lon="5.57318">
        <ele>1014.2</ele>
        <time>2018-06-03T07:38:59Z</time>
      </trkpt>
      <trkpt lat="45.09324" lon="5.57309">
        <ele>1013.1</ele>
        <time>2018-06-03T07:39:01Z</time>
      </trkpt>
      <trkpt lat="45.09337" lon="5.57301">
        <ele>1012.3</ele>
        <time>2018-06-03T07:39:03Z</time>
      </trkpt>
      <trkpt lat="45.0935" lon="5.57292">
        <ele>1011.4</ele>
        <time>2018-06-03T07:39:05Z</time>
      </trkpt>
      <trkpt lat="45.0936" lon="5.57281">
        <ele>1010.8</ele>
        <time>2018-06-03T07:39:07Z</time>
      </trkpt>
      <trkpt lat="45.0937" lon="5.57269">
        <ele>1009.9</ele>
        <time>2018-06-03T07:39:09Z</time>
      </trkpt>
      <trkpt lat="45.09377" lon="5.5726">
        <ele>1009.4</ele>
        <time>2018-06-03T07:39:11Z</time>
      </trkpt>
      <trkpt lat="45.09386" lon="5.57247">
        <ele>1008.9</ele>
        <time>2018-06-03T07:39:13Z</time>
      </trkpt>
      <trkpt lat="45.09395" lon="5.57239">
        <ele>1008.6</ele>
        <time>2018-06-03T07:39:14Z</time>
      </trkpt>
      <trkpt lat="45.09406" lon="5.57227">
        <ele>1008.1</ele>
        <time>2018-06-03T07:39:16Z</time>
      </trkpt>
      <trkpt lat="45.09417" lon="5.5722">
        <ele>1007.5</ele>
        <time>2018-06-03T07:39:18Z</time>
      </trkpt>
      <trkpt lat="45.09427" lon="5.57222">
        <ele>1006.8</ele>
        <time>2018-06-03T07:39:20Z</time>
      </trkpt>
      <trkpt lat="45.09437" lon="5.57229">
        <ele>1006.4</ele>
        <time>2018-06-03T07:39:22Z</time>
      </trkpt>
      <trkpt lat="45.09446" lon="5.57236">
        <ele>1005.9</ele>
        <time>2018-06-03T07:39:24Z</time>
      </trkpt>
      <trkpt lat="45.09455" lon="5.57243">
        <ele>1005.5</ele>
        <time>2018-06-03T07:39:26Z</time>
      </trkpt>
      <trkpt lat="45.09465" lon="5.57251">
        <ele>1005.3</ele>
        <time>2018-06-03T07:39:28Z</time>
      </trkpt>
      <trkpt lat="45.09475" lon="5.57256">
        <ele>1005.2</ele>
        <time>2018-06-03T07:39:30Z</time>
      </trkpt>
      <trkpt lat="45.09484" lon="5.57259">
        <ele>1005.2</ele>
        <time>2018-06-03T07:39:32Z</time>
      </trkpt>
      <trkpt lat="45.09493" lon="5.57264">
        <ele>1005</ele>
        <time>2018-06-03T07:39:34Z</time>
      </trkpt>
      <trkpt lat="45.09502" lon="5.5727">
        <ele>1004.7</ele>
        <time>2018-06-03T07:39:36Z</time>
      </trkpt>
      <trkpt lat="45.09512" lon="5.57277">
        <ele>1004.6</ele>
        <time>2018-06-03T07:39:38Z</time>
      </trkpt>
      <trkpt lat="45.09521" lon="5.57285">
        <ele>1004.4</ele>
        <time>2018-06-03T07:39:40Z</time>
      </trkpt>
      <trkpt lat="45.09531" lon="5.57292">
        <ele>1004.3</ele>
        <time>2018-06-03T07:39:42Z</time>
      </trkpt>
      <trkpt lat="45.09541" lon="5.573">
        <ele>1004.2</ele>
        <time>2018-06-03T07:39:44Z</time>
      </trkpt>
      <trkpt lat="45.0955" lon="5.57307">
        <ele>1004.1</ele>
        <time>2018-06-03T07:39:46Z</time>
      </trkpt>
      <trkpt lat="45.09559" lon="5.57313">
        <ele>1004</ele>
        <time>2018-06-03T07:39:48Z</time>
      </trkpt>
      <trkpt lat="45.09569" lon="5.57318">
        <ele>1003.8</ele>
        <time>2018-06-03T07:39:50Z</time>
      </trkpt>
      <trkpt lat="45.09579" lon="5.57322">
        <ele>1003.7</ele>
        <time>2018-06-03T07:39:52Z</time>
      </trkpt>
      <trkpt lat="45.09589" lon="5.57325">
        <ele>1003.5</ele>
        <time>2018-06-03T07:39:54Z</time>
      </trkpt>
      <trkpt lat="45.09598" lon="5.57331">
        <ele>1003.7</ele>
        <time>2018-06-03T07:39:56Z</time>
      </trkpt>
      <trkpt lat="45.09604" lon="5.5734">
        <ele>1003.7</ele>
        <time>2018-06-03T07:39:58Z</time>
      </trkpt>
      <trkpt lat="45.09613" lon="5.57352">
        <ele>1003.8</ele>
        <time>2018-06-03T07:40:01Z</time>
      </trkpt>
      <trkpt lat="45.09621" lon="5.57361">
        <ele>1004</ele>
        <time>2018-06-03T07:40:04Z</time>
      </trkpt>
      <trkpt lat="45.09632" lon="5.57365">
        <ele>1004.2</ele>
        <time>2018-06-03T07:40:07Z</time>
      </trkpt>
      <trkpt lat="45.09642" lon="5.57365">
        <ele>1004.3</ele>
        <time>2018-06-03T07:40:10Z</time>
      </trkpt>
      <trkpt lat="45.09654" lon="5.57365">
        <ele>1004.3</ele>
        <time>2018-06-03T07:40:13Z</time>
      </trkpt>
      <trkpt lat="45.09666" lon="5.57364">
        <ele>1004.5</ele>
        <time>2018-06-03T07:40:16Z</time>
      </trkpt>
      <trkpt lat="45.09678" lon="5.57363">
        <ele>1004.4</ele>
        <time>2018-06-03T07:40:19Z</time>
      </trkpt>
      <trkpt lat="45.09689" lon="5.57362">
        <ele>1004.3</ele>
        <time>2018-06-03T07:40:22Z</time>
      </trkpt>
      <trkpt lat="45.09701" lon="5.57361">
        <ele>1004.6</ele>
        <time>2018-06-03T07:40:25Z</time>
      </trkpt>
      <trkpt lat="45.09713" lon="5.57361">
        <ele>1004.8</ele>
        <time>2018-06-03T07:40:28Z</time>
      </trkpt>
      <trkpt lat="45.09725" lon="5.57359">
        <ele>1004.6</ele>
        <time>2018-06-03T07:40:31Z</time>
      </trkpt>
      <trkpt lat="45.09734" lon="5.57347">
        <ele>1004.4</ele>
        <time>2018-06-03T07:40:34Z</time>
      </trkpt>
      <trkpt lat="45.09737" lon="5.57335">
        <ele>1004.3</ele>
        <time>2018-06-03T07:40:36Z</time>
      </trkpt>
      <trkpt lat="45.09739" lon="5.57321">
        <ele>1004.2</ele>
        <time>2018-06-03T07:40:38Z</time>
      </trkpt>
      <trkpt lat="45.09745" lon="5.57305">
        <ele>1003.8</ele>
        <time>2018-06-03T07:40:41Z</time>
      </trkpt>
      <trkpt lat="45.09756" lon="5.57304">
        <ele>1003.5</ele>
        <time>2018-06-03T07:40:44Z</time>
      </trkpt>
      <trkpt lat="45.09768" lon="5.57309">
        <ele>1003.4</ele>
        <time>2018-06-03T07:40:47Z</time>
      </trkpt>
      <trkpt lat="45.0978" lon="5.57313">
        <ele>1003.3</ele>
        <time>2018-06-03T07:40:50Z</time>
      </trkpt>
      <trkpt lat="45.09793" lon="5.57317">
        <ele>1003.3</ele>
        <time>2018-06-03T07:40:53Z</time>
      </trkpt>
      <trkpt lat="45.09805" lon="5.5732">
        <ele>1003.2</ele>
        <time>2018-06-03T07:40:56Z</time>
      </trkpt>
      <trkpt lat="45.09818" lon="5.57323">
        <ele>1003.2</ele>
        <time>2018-06-03T07:40:59Z</time>
      </trkpt>
      <trkpt lat="45.09832" lon="5.57325">
        <ele>1003.2</ele>
        <time>2018-06-03T07:41:02Z</time>
      </trkpt>
      <trkpt lat="45.09845" lon="5.57329">
        <ele>1003.1</ele>
        <time>2018-06-03T07:41:05Z</time>
      </trkpt>
      <trkpt lat="45.09856" lon="5.57333">
        <ele>1003.1</ele>
        <time>2018-06-03T07:41:08Z</time>
      </trkpt>
      <trkpt lat="45.09866" lon="5.57336">
        <ele>1003</ele>
        <time>2018-06-03T07:41:11Z</time>
      </trkpt>
      <trkpt lat="45.09877" lon="5.5734">
        <ele>1002.7</ele>
        <time>2018-06-03T07:41:14Z</time>
      </trkpt>
      <trkpt lat="45.09889" lon="5.57343">
        <ele>1002.9</ele>
        <time>2018-06-03T07:41:17Z</time>
      </trkpt>
      <trkpt lat="45.099" lon="5.57345">
        <ele>1003</ele>
        <time>2018-06-03T07:41:20Z</time>
      </trkpt>
      <trkpt lat="45.09912" lon="5.57347">
        <ele>1003.3</ele>
        <time>2018-06-03T07:41:23Z</time>
      </trkpt>
      <trkpt lat="45.09922" lon="5.57346">
        <ele>1003.7</ele>
        <time>2018-06-03T07:41:26Z</time>
      </trkpt>
      <trkpt lat="45.09931" lon="5.57347">
        <ele>1004.3</ele>
        <time>2018-06-03T07:41:29Z</time>
      </trkpt>
      <trkpt lat="45.0994" lon="5.5735">
        <ele>1004.9</ele>
        <time>2018-06-03T07:41:32Z</time>
      </trkpt>
      <trkpt lat="45.09949" lon="5.57355">
        <ele>1005.4</ele>
        <time>2018-06-03T07:41:35Z</time>
      </trkpt>
      <trkpt lat="45.09957" lon="5.57361">
        <ele>1005.9</ele>
        <time>2018-06-03T07:41:38Z</time>
      </trkpt>
      <trkpt lat="45.09967" lon="5.57365">
        <ele>1006.2</ele>
        <time>2018-06-03T07:41:41Z</time>
      </trkpt>
      <trkpt lat="45.09978" lon="5.57368">
        <ele>1006.5</ele>
        <time>2018-06-03T07:41:44Z</time>
      </trkpt>
      <trkpt lat="45.09988" lon="5.5737">
        <ele>1006.8</ele>
        <time>2018-06-03T07:41:47Z</time>
      </trkpt>
      <trkpt lat="45.09999" lon="5.57372">
        <ele>1007</ele>
        <time>2018-06-03T07:41:50Z</time>
      </trkpt>
      <trkpt lat="45.1001" lon="5.57372">
        <ele>1006.9</ele>
        <time>2018-06-03T07:41:53Z</time>
      </trkpt>
      <trkpt lat="45.1002" lon="5.57375">
        <ele>1006.6</ele>
        <time>2018-06-03T07:41:56Z</time>
      </trkpt>
      <trkpt lat="45.10024" lon="5.57386">
        <ele>1006.2</ele>
        <time>2018-06-03T07:41:59Z</time>
      </trkpt>
      <trkpt lat="45.10026" lon="5.57399">
        <ele>1006.2</ele>
        <time>2018-06-03T07:42:02Z</time>
      </trkpt>
      <trkpt lat="45.10028" lon="5.57412">
        <ele>1006.2</ele>
        <time>2018-06-03T07:42:05Z</time>
      </trkpt>
      <trkpt lat="45.1003" lon="5.57426">
        <ele>1006.4</ele>
        <time>2018-06-03T07:42:08Z</time>
      </trkpt>
      <trkpt lat="45.10032" lon="5.5744">
        <ele>1006.6</ele>
        <time>2018-06-03T07:42:11Z</time>
      </trkpt>
      <trkpt lat="45.10034" lon="5.57453">
        <ele>1006.9</ele>
        <time>2018-06-03T07:42:14Z</time>
      </trkpt>
      <trkpt lat="45.10036" lon="5.57466">
        <ele>1007.2</ele>
        <time>2018-06-03T07:42:17Z</time>
      </trkpt>
      <trkpt lat="45.10039" lon="5.57482">
        <ele>1007.7</ele>
        <time>2018-06-03T07:42:21Z</time>
      </trkpt>
      <trkpt lat="45.10042" lon="5.57498">
        <ele>1008.2</ele>
        <time>2018-06-03T07:42:25Z</time>
      </trkpt>
      <trkpt lat="45.10045" lon="5.57514">
        <ele>1008.6</ele>
        <time>2018-06-03T07:42:29Z</time>
      </trkpt>
      <trkpt lat="45.10047" lon="5.57526">
        <ele>1009</ele>
        <time>2018-06-03T07:42:32Z</time>
      </trkpt>
      <trkpt lat="45.10045" lon="5.57543">
        <ele>1009.5</ele>
        <time>2018-06-03T07:42:36Z</time>
      </trkpt>
      <trkpt lat="45.10041" lon="5.57557">
        <ele>1010.1</ele>
        <time>2018-06-03T07:42:40Z</time>
      </trkpt>
      <trkpt lat="45.10036" lon="5.57569">
        <ele>1010.6</ele>
        <time>2018-06-03T07:42:44Z</time>
      </trkpt>
      <trkpt lat="45.1003" lon="5.57581">
        <ele>1011.5</ele>
        <time>2018-06-03T07:42:48Z</time>
      </trkpt>
      <trkpt lat="45.10025" lon="5.57593">
        <ele>1012.2</ele>
        <time>2018-06-03T07:42:52Z</time>
      </trkpt>
      <trkpt lat="45.10021" lon="5.57604">
        <ele>1013.2</ele>
        <time>2018-06-03T07:42:56Z</time>
      </trkpt>
      <trkpt lat="45.10017" lon="5.57616">
        <ele>1014</ele>
        <time>2018-06-03T07:43:00Z</time>
      </trkpt>
      <trkpt lat="45.10014" lon="5.57629">
        <ele>1014.5</ele>
        <time>2018-06-03T07:43:04Z</time>
      </trkpt>
      <trkpt lat="45.1001" lon="5.57643">
        <ele>1014.8</ele>
        <time>2018-06-03T07:43:08Z</time>
      </trkpt>
      <trkpt lat="45.10006" lon="5.57657">
        <ele>1015.4</ele>
        <time>2018-06-03T07:43:12Z</time>
      </trkpt>
      <trkpt lat="45.10002" lon="5.57672">
        <ele>1015.7</ele>
        <time>2018-06-03T07:43:16Z</time>
      </trkpt>
      <trkpt lat="45.09998" lon="5.57687">
        <ele>1016</ele>
        <time>2018-06-03T07:43:20Z</time>
      </trkpt>
      <trkpt lat="45.09993" lon="5.57702">
        <ele>1016.3</ele>
        <time>2018-06-03T07:43:24Z</time>
      </trkpt>
      <trkpt lat="45.09989" lon="5.57717">
        <ele>1016.5</ele>
        <time>2018-06-03T07:43:28Z</time>
      </trkpt>
      <trkpt lat="45.09984" lon="5.57731">
        <ele>1016.9</ele>
        <time>2018-06-03T07:43:32Z</time>
      </trkpt>
      <trkpt lat="45.0998" lon="5.57745">
        <ele>1017.2</ele>
        <time>2018-06-03T07:43:36Z</time>
      </trkpt>
      <trkpt lat="45.09976" lon="5.57758">
        <ele>1017.7</ele>
        <time>2018-06-03T07:43:40Z</time>
      </trkpt>
      <trkpt lat="45.09972" lon="5.57772">
        <ele>1018</ele>
        <time>2018-06-03T07:43:44Z</time>
      </trkpt>
      <trkpt lat="45.09968" lon="5.57785">
        <ele>1018.6</ele>
        <time>2018-06-03T07:43:48Z</time>
      </trkpt>
      <trkpt lat="45.09965" lon="5.57798">
        <ele>1019.2</ele>
        <time>2018-06-03T07:43:52Z</time>
      </trkpt>
      <trkpt lat="45.09961" lon="5.57811">
        <ele>1019.8</ele>
        <time>2018-06-03T07:43:56Z</time>
      </trkpt>
      <trkpt lat="45.09958" lon="5.57823">
        <ele>1020.4</ele>
        <time>2018-06-03T07:44:00Z</time>
      </trkpt>
      <trkpt lat="45.09954" lon="5.57835">
        <ele>1021</ele>
        <time>2018-06-03T07:44:04Z</time>
      </trkpt>
      <trkpt lat="45.0995" lon="5.57849">
        <ele>1022</ele>
        <time>2018-06-03T07:44:09Z</time>
      </trkpt>
      <trkpt lat="45.09946" lon="5.57863">
        <ele>1022.9</ele>
        <time>2018-06-03T07:44:14Z</time>
      </trkpt>
      <trkpt lat="45.09944" lon="5.57876">
        <ele>1024</ele>
        <time>2018-06-03T07:44:19Z</time>
      </trkpt>
      <trkpt lat="45.09944" lon="5.5789">
        <ele>1025.3</ele>
        <time>2018-06-03T07:44:24Z</time>
      </trkpt>
      <trkpt lat="45.09943" lon="5.57903">
        <ele>1026.2</ele>
        <time>2018-06-03T07:44:29Z</time>
      </trkpt>
      <trkpt lat="45.09943" lon="5.57918">
        <ele>1027.2</ele>
        <time>2018-06-03T07:44:34Z</time>
      </trkpt>
      <trkpt lat="45.09943" lon="5.57931">
        <ele>1028.1</ele>
        <time>2018-06-03T07:44:39Z</time>
      </trkpt>
      <trkpt lat="45.09947" lon="5.57944">
        <ele>1028.9</ele>
        <time>2018-06-03T07:44:45Z</time>
      </trkpt>
      <trkpt lat="45.09958" lon="5.57942">
        <ele>1029.4</ele>
        <time>2018-06-03T07:44:50Z</time>
      </trkpt>
      <trkpt lat="45.09969" lon="5.57941">
        <ele>1029.8</ele>
        <time>2018-06-03T07:44:54Z</time>
      </trkpt>
      <trkpt lat="45.09975" lon="5.57929">
        <ele>1029.5</ele>
        <time>2018-06-03T07:45:00Z</time>
      </trkpt>
      <trkpt lat="45.09978" lon="5.57913">
        <ele>1028.8</ele>
        <time>2018-06-03T07:45:04Z</time>
      </trkpt>
      <trkpt lat="45.09987" lon="5.5791">
        <ele>1028.2</ele>
        <time>2018-06-03T07:45:08Z</time>
      </trkpt>
      <trkpt lat="45.09998" lon="5.57908">
        <ele>1027.8</ele>
        <time>2018-06-03T07:45:12Z</time>
      </trkpt>
      <trkpt lat="45.10008" lon="5.579">
        <ele>1027.5</ele>
        <time>2018-06-03T07:45:15Z</time>
      </trkpt>
      <trkpt lat="45.10019" lon="5.57891">
        <ele>1027.2</ele>
        <time>2018-06-03T07:45:18Z</time>
      </trkpt>
      <trkpt lat="45.10031" lon="5.57883">
        <ele>1026.6</ele>
        <time>2018-06-03T07:45:21Z</time>
      </trkpt>
      <trkpt lat="45.10042" lon="5.57872">
        <ele>1025.8</ele>
        <time>2018-06-03T07:45:24Z</time>
      </trkpt>
      <trkpt lat="45.1005" lon="5.57866">
        <ele>1025.5</ele>
        <time>2018-06-03T07:45:27Z</time>
      </trkpt>
      <trkpt lat="45.10058" lon="5.57857">
        <ele>1025.1</ele>
        <time>2018-06-03T07:45:30Z</time>
      </trkpt>
      <trkpt lat="45.10068" lon="5.57848">
        <ele>1024.6</ele>
        <time>2018-06-03T07:45:33Z</time>
      </trkpt>
      <trkpt lat="45.10076" lon="5.5784">
        <ele>1024.2</ele>
        <time>2018-06-03T07:45:36Z</time>
      </trkpt>
      <trkpt lat="45.10084" lon="5.57831">
        <ele>1023.6</ele>
        <time>2018-06-03T07:45:40Z</time>
      </trkpt>
      <trkpt lat="45.10092" lon="5.5782">
        <ele>1023.2</ele>
        <time>2018-06-03T07:45:43Z</time>
      </trkpt>
      <trkpt lat="45.10099" lon="5.57811">
        <ele>1022.8</ele>
        <time>2018-06-03T07:45:46Z</time>
      </trkpt>
      <trkpt lat="45.10107" lon="5.57799">
        <ele>1022.2</ele>
        <time>2018-06-03T07:45:50Z</time>
      </trkpt>
      <trkpt lat="45.10113" lon="5.5779">
        <ele>1021.8</ele>
        <time>2018-06-03T07:45:53Z</time>
      </trkpt>
      <trkpt lat="45.10122" lon="5.57778">
        <ele>1021.2</ele>
        <time>2018-06-03T07:45:57Z</time>
      </trkpt>
      <trkpt lat="45.1013" lon="5.57768">
        <ele>1020.8</ele>
        <time>2018-06-03T07:46:00Z</time>
      </trkpt>
      <trkpt lat="45.10137" lon="5.57756">
        <ele>1020.5</ele>
        <time>2018-06-03T07:46:03Z</time>
      </trkpt>
      <trkpt lat="45.10146" lon="5.57745">
        <ele>1020.2</ele>
        <time>2018-06-03T07:46:06Z</time>
      </trkpt>
      <trkpt lat="45.10156" lon="5.57733">
        <ele>1019.7</ele>
        <time>2018-06-03T07:46:09Z</time>
      </trkpt>
      <trkpt lat="45.10163" lon="5.57725">
        <ele>1019.4</ele>
        <time>2018-06-03T07:46:11Z</time>
      </trkpt>
      <trkpt lat="45.10171" lon="5.57718">
        <ele>1019.2</ele>
        <time>2018-06-03T07:46:13Z</time>
      </trkpt>
      <trkpt lat="45.10179" lon="5.57711">
        <ele>1018.9</ele>
        <time>2018-06-03T07:46:15Z</time>
      </trkpt>
      <trkpt lat="45.1019" lon="5.577">
        <ele>1018.4</ele>
        <time>2018-06-03T07:46:18Z</time>
      </trkpt>
      <trkpt lat="45.10198" lon="5.57693">
        <ele>1017.9</ele>
        <time>2018-06-03T07:46:20Z</time>
      </trkpt>
      <trkpt lat="45.10206" lon="5.57687">
        <ele>1017.6</ele>
        <time>2018-06-03T07:46:22Z</time>
      </trkpt>
      <trkpt lat="45.10215" lon="5.5768">
        <ele>1017.4</ele>
        <time>2018-06-03T07:46:24Z</time>
      </trkpt>
      <trkpt lat="45.10223" lon="5.57674">
        <ele>1017</ele>
        <time>2018-06-03T07:46:26Z</time>
      </trkpt>
      <trkpt lat="45.10232" lon="5.57667">
        <ele>1016.8</ele>
        <time>2018-06-03T07:46:28Z</time>
      </trkpt>
      <trkpt lat="45.1024" lon="5.5766">
        <ele>1016.2</ele>
        <time>2018-06-03T07:46:30Z</time>
      </trkpt>
      <trkpt lat="45.1025" lon="5.57652">
        <ele>1016</ele>
        <time>2018-06-03T07:46:33Z</time>
      </trkpt>
      <trkpt lat="45.10261" lon="5.57643">
        <ele>1015.7</ele>
        <time>2018-06-03T07:46:36Z</time>
      </trkpt>
      <trkpt lat="45.10271" lon="5.57635">
        <ele>1015.3</ele>
        <time>2018-06-03T07:46:39Z</time>
      </trkpt>
      <trkpt lat="45.10282" lon="5.57626">
        <ele>1015</ele>
        <time>2018-06-03T07:46:42Z</time>
      </trkpt>
      <trkpt lat="45.10294" lon="5.57617">
        <ele>1014.6</ele>
        <time>2018-06-03T07:46:45Z</time>
      </trkpt>
      <trkpt lat="45.10302" lon="5.57611">
        <ele>1014.5</ele>
        <time>2018-06-03T07:46:47Z</time>
      </trkpt>
      <trkpt lat="45.10311" lon="5.57607">
        <ele>1014.1</ele>
        <time>2018-06-03T07:46:49Z</time>
      </trkpt>
      <trkpt lat="45.10321" lon="5.57603">
        <ele>1013.5</ele>
        <time>2018-06-03T07:46:51Z</time>
      </trkpt>
      <trkpt lat="45.10332" lon="5.57601">
        <ele>1013.1</ele>
        <time>2018-06-03T07:46:53Z</time>
      </trkpt>
      <trkpt lat="45.10344" lon="5.57601">
        <ele>1012.5</ele>
        <time>2018-06-03T07:46:55Z</time>
      </trkpt>
      <trkpt lat="45.10357" lon="5.57603">
        <ele>1011.2</ele>
        <time>2018-06-03T07:46:57Z</time>
      </trkpt>
      <trkpt lat="45.10371" lon="5.57606">
        <ele>1010.3</ele>
        <time>2018-06-03T07:46:59Z</time>
      </trkpt>
      <trkpt lat="45.10384" lon="5.57608">
        <ele>1009.5</ele>
        <time>2018-06-03T07:47:01Z</time>
      </trkpt>
      <trkpt lat="45.10396" lon="5.5761">
        <ele>1008.5</ele>
        <time>2018-06-03T07:47:03Z</time>
      </trkpt>
      <trkpt lat="45.10409" lon="5.57611">
        <ele>1007.5</ele>
        <time>2018-06-03T07:47:05Z</time>
      </trkpt>
      <trkpt lat="45.10423" lon="5.57613">
        <ele>1006.6</ele>
        <time>2018-06-03T07:47:07Z</time>
      </trkpt>
      <trkpt lat="45.10436" lon="5.57614">
        <ele>1005.4</ele>
        <time>2018-06-03T07:47:09Z</time>
      </trkpt>
      <trkpt lat="45.1045" lon="5.57614">
        <ele>1004.7</ele>
        <time>2018-06-03T07:47:11Z</time>
      </trkpt>
      <trkpt lat="45.10464" lon="5.57614">
        <ele>1004.1</ele>
        <time>2018-06-03T07:47:13Z</time>
      </trkpt>
      <trkpt lat="45.10477" lon="5.57616">
        <ele>1003.4</ele>
        <time>2018-06-03T07:47:15Z</time>
      </trkpt>
      <trkpt lat="45.10489" lon="5.57617">
        <ele>1002.9</ele>
        <time>2018-06-03T07:47:17Z</time>
      </trkpt>
      <trkpt lat="45.10501" lon="5.57617">
        <ele>1002.3</ele>
        <time>2018-06-03T07:47:19Z</time>
      </trkpt>
      <trkpt lat="45.10511" lon="5.57617">
        <ele>1001.9</ele>
        <time>2018-06-03T07:47:21Z</time>
      </trkpt>
      <trkpt lat="45.10524" lon="5.57614">
        <ele>1001.7</ele>
        <time>2018-06-03T07:47:24Z</time>
      </trkpt>
      <trkpt lat="45.10535" lon="5.57611">
        <ele>1001.7</ele>
        <time>2018-06-03T07:47:27Z</time>
      </trkpt>
      <trkpt lat="45.10546" lon="5.5761">
        <ele>1002.2</ele>
        <time>2018-06-03T07:47:30Z</time>
      </trkpt>
      <trkpt lat="45.10555" lon="5.57611">
        <ele>1002.8</ele>
        <time>2018-06-03T07:47:33Z</time>
      </trkpt>
      <trkpt lat="45.10564" lon="5.57613">
        <ele>1003.3</ele>
        <time>2018-06-03T07:47:36Z</time>
      </trkpt>
      <trkpt lat="45.10573" lon="5.57615">
        <ele>1003.6</ele>
        <time>2018-06-03T07:47:39Z</time>
      </trkpt>
      <trkpt lat="45.10583" lon="5.57617">
        <ele>1004.3</ele>
        <time>2018-06-03T07:47:42Z</time>
      </trkpt>
      <trkpt lat="45.10592" lon="5.5762">
        <ele>1004.6</ele>
        <time>2018-06-03T07:47:45Z</time>
      </trkpt>
      <trkpt lat="45.10602" lon="5.57621">
        <ele>1005.2</ele>
        <time>2018-06-03T07:47:48Z</time>
      </trkpt>
      <trkpt lat="45.10613" lon="5.57622">
        <ele>1005.4</ele>
        <time>2018-06-03T07:47:51Z</time>
      </trkpt>
      <trkpt lat="45.10622" lon="5.57621">
        <ele>1005.5</ele>
        <time>2018-06-03T07:47:54Z</time>
      </trkpt>
      <trkpt lat="45.10632" lon="5.57619">
        <ele>1005.5</ele>
        <time>2018-06-03T07:48:00Z</time>
      </trkpt>
      <trkpt lat="45.10641" lon="5.57615">
        <ele>1005.5</ele>
        <time>2018-06-03T07:48:03Z</time>
      </trkpt>
      <trkpt lat="45.1065" lon="5.57612">
        <ele>1005.5</ele>
        <time>2018-06-03T07:48:06Z</time>
      </trkpt>
      <trkpt lat="45.10659" lon="5.57619">
        <ele>1005.4</ele>
        <time>2018-06-03T07:48:10Z</time>
      </trkpt>
      <trkpt lat="45.1066" lon="5.57635">
        <ele>1005.8</ele>
        <time>2018-06-03T07:48:14Z</time>
      </trkpt>
      <trkpt lat="45.10661" lon="5.57651">
        <ele>1006</ele>
        <time>2018-06-03T07:48:18Z</time>
      </trkpt>
      <trkpt lat="45.10662" lon="5.57668">
        <ele>1006.5</ele>
        <time>2018-06-03T07:48:22Z</time>
      </trkpt>
      <trkpt lat="45.10663" lon="5.57681">
        <ele>1006.7</ele>
        <time>2018-06-03T07:48:25Z</time>
      </trkpt>
      <trkpt lat="45.10665" lon="5.57697">
        <ele>1007.2</ele>
        <time>2018-06-03T07:48:29Z</time>
      </trkpt>
      <trkpt lat="45.10666" lon="5.57714">
        <ele>1007.8</ele>
        <time>2018-06-03T07:48:33Z</time>
      </trkpt>
      <trkpt lat="45.10667" lon="5.57729">
        <ele>1008.4</ele>
        <time>2018-06-03T07:48:37Z</time>
      </trkpt>
      <trkpt lat="45.10669" lon="5.57743">
        <ele>1009</ele>
        <time>2018-06-03T07:48:41Z</time>
      </trkpt>
      <trkpt lat="45.10669" lon="5.57758">
        <ele>1009.6</ele>
        <time>2018-06-03T07:48:45Z</time>
      </trkpt>
      <trkpt lat="45.1067" lon="5.57772">
        <ele>1010.1</ele>
        <time>2018-06-03T07:48:49Z</time>
      </trkpt>
      <trkpt lat="45.10671" lon="5.57786">
        <ele>1010.9</ele>
        <time>2018-06-03T07:48:53Z</time>
      </trkpt>
      <trkpt lat="45.10672" lon="5.578">
        <ele>1011.4</ele>
        <time>2018-06-03T07:48:57Z</time>
      </trkpt>
      <trkpt lat="45.10673" lon="5.57813">
        <ele>1012.2</ele>
        <time>2018-06-03T07:49:01Z</time>
      </trkpt>
      <trkpt lat="45.10675" lon="5.57827">
        <ele>1013.1</ele>
        <time>2018-06-03T07:49:05Z</time>
      </trkpt>
      <trkpt lat="45.10675" lon="5.5784">
        <ele>1014</ele>
        <time>2018-06-03T07:49:09Z</time>
      </trkpt>
      <trkpt lat="45.10676" lon="5.57853">
        <ele>1014.6</ele>
        <time>2018-06-03T07:49:13Z</time>
      </trkpt>
      <trkpt lat="45.10676" lon="5.57866">
        <ele>1015.4</ele>
        <time>2018-06-03T07:49:17Z</time>
      </trkpt>
      <trkpt lat="45.10678" lon="5.5788">
        <ele>1016.3</ele>
        <time>2018-06-03T07:49:22Z</time>
      </trkpt>
      <trkpt lat="45.10679" lon="5.57894">
        <ele>1017.1</ele>
        <time>2018-06-03T07:49:27Z</time>
      </trkpt>
      <trkpt lat="45.10681" lon="5.57907">
        <ele>1018.2</ele>
        <time>2018-06-03T07:49:32Z</time>
      </trkpt>
      <trkpt lat="45.10681" lon="5.57921">
        <ele>1018.9</ele>
        <time>2018-06-03T07:49:36Z</time>
      </trkpt>
      <trkpt lat="45.10681" lon="5.57934">
        <ele>1019.6</ele>
        <time>2018-06-03T07:49:40Z</time>
      </trkpt>
      <trkpt lat="45.10682" lon="5.57948">
        <ele>1020.4</ele>
        <time>2018-06-03T07:49:44Z</time>
      </trkpt>
      <trkpt lat="45.10681" lon="5.57961">
        <ele>1021</ele>
        <time>2018-06-03T07:49:48Z</time>
      </trkpt>
      <trkpt lat="45.10683" lon="5.57977">
        <ele>1021.9</ele>
        <time>2018-06-03T07:49:53Z</time>
      </trkpt>
      <trkpt lat="45.10684" lon="5.57991">
        <ele>1022.8</ele>
        <time>2018-06-03T07:49:57Z</time>
      </trkpt>
      <trkpt lat="45.10685" lon="5.58006">
        <ele>1023.2</ele>
        <time>2018-06-03T07:50:01Z</time>
      </trkpt>
      <trkpt lat="45.10686" lon="5.5802">
        <ele>1023.8</ele>
        <time>2018-06-03T07:50:05Z</time>
      </trkpt>
      <trkpt lat="45.10688" lon="5.58034">
        <ele>1024.6</ele>
        <time>2018-06-03T07:50:10Z</time>
      </trkpt>
      <trkpt lat="45.10697" lon="5.58042">
        <ele>1025.6</ele>
        <time>2018-06-03T07:50:16Z</time>
      </trkpt>
      <trkpt lat="45.10707" lon="5.58045">
        <ele>1026.1</ele>
        <time>2018-06-03T07:50:21Z</time>
      </trkpt>
      <trkpt lat="45.10717" lon="5.5805">
        <ele>1026.4</ele>
        <time>2018-06-03T07:50:25Z</time>
      </trkpt>
      <trkpt lat="45.10728" lon="5.58054">
        <ele>1026.4</ele>
        <time>2018-06-03T07:50:29Z</time>
      </trkpt>
      <trkpt lat="45.10739" lon="5.58058">
        <ele>1026.2</ele>
        <time>2018-06-03T07:50:32Z</time>
      </trkpt>
      <trkpt lat="45.1075" lon="5.58063">
        <ele>1025.8</ele>
        <time>2018-06-03T07:50:35Z</time>
      </trkpt>
      <trkpt lat="45.10759" lon="5.58067">
        <ele>1025.6</ele>
        <time>2018-06-03T07:50:37Z</time>
      </trkpt>
      <trkpt lat="45.10768" lon="5.58071">
        <ele>1025.3</ele>
        <time>2018-06-03T07:50:39Z</time>
      </trkpt>
      <trkpt lat="45.10779" lon="5.58075">
        <ele>1024.9</ele>
        <time>2018-06-03T07:50:41Z</time>
      </trkpt>
      <trkpt lat="45.1079" lon="5.58079">
        <ele>1024.4</ele>
        <time>2018-06-03T07:50:43Z</time>
      </trkpt>
      <trkpt lat="45.10802" lon="5.58082">
        <ele>1024</ele>
        <time>2018-06-03T07:50:45Z</time>
      </trkpt>
      <trkpt lat="45.10814" lon="5.58083">
        <ele>1023.6</ele>
        <time>2018-06-03T07:50:47Z</time>
      </trkpt>
      <trkpt lat="45.10827" lon="5.58079">
        <ele>1023.1</ele>
        <time>2018-06-03T07:50:49Z</time>
      </trkpt>
      <trkpt lat="45.10838" lon="5.58071">
        <ele>1022.6</ele>
        <time>2018-06-03T07:50:51Z</time>
      </trkpt>
      <trkpt lat="45.10849" lon="5.58064">
        <ele>1022.2</ele>
        <time>2018-06-03T07:50:53Z</time>
      </trkpt>
      <trkpt lat="45.10859" lon="5.58058">
        <ele>1021.8</ele>
        <time>2018-06-03T07:50:55Z</time>
      </trkpt>
      <trkpt lat="45.10869" lon="5.58055">
        <ele>1021.6</ele>
        <time>2018-06-03T07:50:57Z</time>
      </trkpt>
      <trkpt lat="45.10879" lon="5.58054">
        <ele>1021.6</ele>
        <time>2018-06-03T07:50:59Z</time>
      </trkpt>
      <trkpt lat="45.10889" lon="5.58056">
        <ele>1021.5</ele>
        <time>2018-06-03T07:51:01Z</time>
      </trkpt>
      <trkpt lat="45.10898" lon="5.58059">
        <ele>1021.6</ele>
        <time>2018-06-03T07:51:03Z</time>
      </trkpt>
      <trkpt lat="45.10907" lon="5.58062">
        <ele>1021.8</ele>
        <time>2018-06-03T07:51:05Z</time>
      </trkpt>
      <trkpt lat="45.10916" lon="5.58066">
        <ele>1021.9</ele>
        <time>2018-06-03T07:51:07Z</time>
      </trkpt>
      <trkpt lat="45.10925" lon="5.5807">
        <ele>1022.1</ele>
        <time>2018-06-03T07:51:09Z</time>
      </trkpt>
      <trkpt lat="45.10937" lon="5.58076">
        <ele>1022.3</ele>
        <time>2018-06-03T07:51:12Z</time>
      </trkpt>
      <trkpt lat="45.1095" lon="5.58081">
        <ele>1022.4</ele>
        <time>2018-06-03T07:51:15Z</time>
      </trkpt>
      <trkpt lat="45.10962" lon="5.58086">
        <ele>1022.6</ele>
        <time>2018-06-03T07:51:18Z</time>
      </trkpt>
      <trkpt lat="45.10973" lon="5.5809">
        <ele>1023</ele>
        <time>2018-06-03T07:51:21Z</time>
      </trkpt>
      <trkpt lat="45.10984" lon="5.58093">
        <ele>1023.4</ele>
        <time>2018-06-03T07:51:24Z</time>
      </trkpt>
      <trkpt lat="45.10995" lon="5.58096">
        <ele>1023.9</ele>
        <time>2018-06-03T07:51:27Z</time>
      </trkpt>
      <trkpt lat="45.11006" lon="5.58098">
        <ele>1024.2</ele>
        <time>2018-06-03T07:51:30Z</time>
      </trkpt>
      <trkpt lat="45.11017" lon="5.581">
        <ele>1024.6</ele>
        <time>2018-06-03T07:51:33Z</time>
      </trkpt>
      <trkpt lat="45.11028" lon="5.58103">
        <ele>1025.2</ele>
        <time>2018-06-03T07:51:36Z</time>
      </trkpt>
      <trkpt lat="45.11038" lon="5.58105">
        <ele>1025.7</ele>
        <time>2018-06-03T07:51:39Z</time>
      </trkpt>
      <trkpt lat="45.11049" lon="5.58107">
        <ele>1026.1</ele>
        <time>2018-06-03T07:51:42Z</time>
      </trkpt>
      <trkpt lat="45.11059" lon="5.5811">
        <ele>1026.7</ele>
        <time>2018-06-03T07:51:45Z</time>
      </trkpt>
      <trkpt lat="45.11069" lon="5.58113">
        <ele>1027</ele>
        <time>2018-06-03T07:51:48Z</time>
      </trkpt>
      <trkpt lat="45.1108" lon="5.58118">
        <ele>1027.2</ele>
        <time>2018-06-03T07:51:51Z</time>
      </trkpt>
      <trkpt lat="45.1109" lon="5.58124">
        <ele>1027.5</ele>
        <time>2018-06-03T07:51:54Z</time>
      </trkpt>
      <trkpt lat="45.11099" lon="5.58132">
        <ele>1028</ele>
        <time>2018-06-03T07:51:57Z</time>
      </trkpt>
      <trkpt lat="45.11109" lon="5.58142">
        <ele>1028.3</ele>
        <time>2018-06-03T07:52:00Z</time>
      </trkpt>
      <trkpt lat="45.11118" lon="5.58153">
        <ele>1028.3</ele>
        <time>2018-06-03T07:52:03Z</time>
      </trkpt>
      <trkpt lat="45.11128" lon="5.58163">
        <ele>1028.2</ele>
        <time>2018-06-03T07:52:06Z</time>
      </trkpt>
      <trkpt lat="45.11139" lon="5.58171">
        <ele>1028.1</ele>
        <time>2018-06-03T07:52:09Z</time>
      </trkpt>
      <trkpt lat="45.1115" lon="5.58179">
        <ele>1028</ele>
        <time>2018-06-03T07:52:12Z</time>
      </trkpt>
      <trkpt lat="45.11162" lon="5.58186">
        <ele>1028</ele>
        <time>2018-06-03T07:52:15Z</time>
      </trkpt>
      <trkpt lat="45.11175" lon="5.58191">
        <ele>1028</ele>
        <time>2018-06-03T07:52:18Z</time>
      </trkpt>
      <trkpt lat="45.11185" lon="5.58195">
        <ele>1027.9</ele>
        <time>2018-06-03T07:52:20Z</time>
      </trkpt>
      <trkpt lat="45.11195" lon="5.58198">
        <ele>1027.5</ele>
        <time>2018-06-03T07:52:22Z</time>
      </trkpt>
      <trkpt lat="45.11206" lon="5.582">
        <ele>1027.2</ele>
        <time>2018-06-03T07:52:24Z</time>
      </trkpt>
      <trkpt lat="45.11218" lon="5.58201">
        <ele>1026.9</ele>
        <time>2018-06-03T07:52:26Z</time>
      </trkpt>
      <trkpt lat="45.1123" lon="5.58203">
        <ele>1026.7</ele>
        <time>2018-06-03T07:52:28Z</time>
      </trkpt>
      <trkpt lat="45.11242" lon="5.58205">
        <ele>1026.2</ele>
        <time>2018-06-03T07:52:30Z</time>
      </trkpt>
      <trkpt lat="45.11255" lon="5.58208">
        <ele>1025.7</ele>
        <time>2018-06-03T07:52:32Z</time>
      </trkpt>
      <trkpt lat="45.11268" lon="5.58209">
        <ele>1025.1</ele>
        <time>2018-06-03T07:52:34Z</time>
      </trkpt>
      <trkpt lat="45.11282" lon="5.58211">
        <ele>1024.5</ele>
        <time>2018-06-03T07:52:36Z</time>
      </trkpt>
      <trkpt lat="45.11296" lon="5.58212">
        <ele>1023.9</ele>
        <time>2018-06-03T07:52:38Z</time>
      </trkpt>
      <trkpt lat="45.11311" lon="5.58214">
        <ele>1023.3</ele>
        <time>2018-06-03T07:52:40Z</time>
      </trkpt>
      <trkpt lat="45.11325" lon="5.58216">
        <ele>1022.6</ele>
        <time>2018-06-03T07:52:42Z</time>
      </trkpt>
      <trkpt lat="45.1134" lon="5.58218">
        <ele>1022.1</ele>
        <time>2018-06-03T07:52:44Z</time>
      </trkpt>
      <trkpt lat="45.11354" lon="5.58221">
        <ele>1021.5</ele>
        <time>2018-06-03T07:52:46Z</time>
      </trkpt>
      <trkpt lat="45.11368" lon="5.58225">
        <ele>1021.1</ele>
        <time>2018-06-03T07:52:48Z</time>
      </trkpt>
      <trkpt lat="45.11381" lon="5.5823">
        <ele>1020.8</ele>
        <time>2018-06-03T07:52:50Z</time>
      </trkpt>
      <trkpt lat="45.11393" lon="5.58238">
        <ele>1020.5</ele>
        <time>2018-06-03T07:52:52Z</time>
      </trkpt>
      <trkpt lat="45.11405" lon="5.58246">
        <ele>1020.1</ele>
        <time>2018-06-03T07:52:54Z</time>
      </trkpt>
      <trkpt lat="45.11416" lon="5.58256">
        <ele>1019.7</ele>
        <time>2018-06-03T07:52:56Z</time>
      </trkpt>
      <trkpt lat="45.11427" lon="5.58266">
        <ele>1019.4</ele>
        <time>2018-06-03T07:52:58Z</time>
      </trkpt>
      <trkpt lat="45.11438" lon="5.58277">
        <ele>1019.1</ele>
        <time>2018-06-03T07:53:00Z</time>
      </trkpt>
      <trkpt lat="45.1145" lon="5.58287">
        <ele>1018.6</ele>
        <time>2018-06-03T07:53:02Z</time>
      </trkpt>
      <trkpt lat="45.11463" lon="5.58296">
        <ele>1018</ele>
        <time>2018-06-03T07:53:04Z</time>
      </trkpt>
      <trkpt lat="45.11477" lon="5.58304">
        <ele>1017.4</ele>
        <time>2018-06-03T07:53:06Z</time>
      </trkpt>
      <trkpt lat="45.11492" lon="5.58311">
        <ele>1016.7</ele>
        <time>2018-06-03T07:53:08Z</time>
      </trkpt>
      <trkpt lat="45.11506" lon="5.58319">
        <ele>1015.9</ele>
        <time>2018-06-03T07:53:10Z</time>
      </trkpt>
      <trkpt lat="45.11519" lon="5.58326">
        <ele>1015.3</ele>
        <time>2018-06-03T07:53:12Z</time>
      </trkpt>
      <trkpt lat="45.11532" lon="5.58334">
        <ele>1014.7</ele>
        <time>2018-06-03T07:53:14Z</time>
      </trkpt>
      <trkpt lat="45.11544" lon="5.58342">
        <ele>1014.2</ele>
        <time>2018-06-03T07:53:16Z</time>
      </trkpt>
      <trkpt lat="45.11555" lon="5.5835">
        <ele>1013.9</ele>
        <time>2018-06-03T07:53:18Z</time>
      </trkpt>
      <trkpt lat="45.11567" lon="5.58358">
        <ele>1013.6</ele>
        <time>2018-06-03T07:53:20Z</time>
      </trkpt>
      <trkpt lat="45.11578" lon="5.58365">
        <ele>1013.4</ele>
        <time>2018-06-03T07:53:22Z</time>
      </trkpt>
      <trkpt lat="45.11589" lon="5.58372">
        <ele>1013.2</ele>
        <time>2018-06-03T07:53:24Z</time>
      </trkpt>
      <trkpt lat="45.116" lon="5.5838">
        <ele>1013</ele>
        <time>2018-06-03T07:53:26Z</time>
      </trkpt>
      <trkpt lat="45.1161" lon="5.58387">
        <ele>1012.9</ele>
        <time>2018-06-03T07:53:28Z</time>
      </trkpt>
      <trkpt lat="45.1162" lon="5.58394">
        <ele>1012.9</ele>
        <time>2018-06-03T07:53:30Z</time>
      </trkpt>
      <trkpt lat="45.1163" lon="5.584">
        <ele>1013.2</ele>
        <time>2018-06-03T07:53:32Z</time>
      </trkpt>
      <trkpt lat="45.11638" lon="5.58407">
        <ele>1013.3</ele>
        <time>2018-06-03T07:53:34Z</time>
      </trkpt>
      <trkpt lat="45.11646" lon="5.58412">
        <ele>1013.5</ele>
        <time>2018-06-03T07:53:36Z</time>
      </trkpt>
      <trkpt lat="45.11658" lon="5.5842">
        <ele>1013.8</ele>
        <time>2018-06-03T07:53:39Z</time>
      </trkpt>
      <trkpt lat="45.11668" lon="5.58427">
        <ele>1014.4</ele>
        <time>2018-06-03T07:53:42Z</time>
      </trkpt>
      <trkpt lat="45.11677" lon="5.58434">
        <ele>1015.2</ele>
        <time>2018-06-03T07:53:45Z</time>
      </trkpt>
      <trkpt lat="45.11685" lon="5.5844">
        <ele>1015.7</ele>
        <time>2018-06-03T07:53:48Z</time>
      </trkpt>
      <trkpt lat="45.11696" lon="5.58448">
        <ele>1016.4</ele>
        <time>2018-06-03T07:53:52Z</time>
      </trkpt>
      <trkpt lat="45.11706" lon="5.58455">
        <ele>1017.3</ele>
        <time>2018-06-03T07:53:56Z</time>
      </trkpt>
      <trkpt lat="45.11714" lon="5.58462">
        <ele>1017.8</ele>
        <time>2018-06-03T07:53:59Z</time>
      </trkpt>
      <trkpt lat="45.11722" lon="5.58468">
        <ele>1018.4</ele>
        <time>2018-06-03T07:54:02Z</time>
      </trkpt>
      <trkpt lat="45.11732" lon="5.58477">
        <ele>1019.3</ele>
        <time>2018-06-03T07:54:06Z</time>
      </trkpt>
      <trkpt lat="45.11742" lon="5.58486">
        <ele>1019.9</ele>
        <time>2018-06-03T07:54:10Z</time>
      </trkpt>
      <trkpt lat="45.11751" lon="5.58496">
        <ele>1020.7</ele>
        <time>2018-06-03T07:54:14Z</time>
      </trkpt>
      <trkpt lat="45.1176" lon="5.58506">
        <ele>1021.4</ele>
        <time>2018-06-03T07:54:18Z</time>
      </trkpt>
      <trkpt lat="45.11767" lon="5.58518">
        <ele>1022.3</ele>
        <time>2018-06-03T07:54:22Z</time>
      </trkpt>
      <trkpt lat="45.11775" lon="5.5853">
        <ele>1023.3</ele>
        <time>2018-06-03T07:54:26Z</time>
      </trkpt>
      <trkpt lat="45.11782" lon="5.58537">
        <ele>1024.1</ele>
        <time>2018-06-03T07:54:29Z</time>
      </trkpt>
      <trkpt lat="45.11793" lon="5.58543">
        <ele>1024.9</ele>
        <time>2018-06-03T07:54:33Z</time>
      </trkpt>
      <trkpt lat="45.11802" lon="5.58547">
        <ele>1025.3</ele>
        <time>2018-06-03T07:54:36Z</time>
      </trkpt>
      <trkpt lat="45.11811" lon="5.5855">
        <ele>1025.7</ele>
        <time>2018-06-03T07:54:39Z</time>
      </trkpt>
      <trkpt lat="45.1182" lon="5.58555">
        <ele>1026</ele>
        <time>2018-06-03T07:54:42Z</time>
      </trkpt>
      <trkpt lat="45.11829" lon="5.58559">
        <ele>1026.4</ele>
        <time>2018-06-03T07:54:45Z</time>
      </trkpt>
      <trkpt lat="45.11839" lon="5.58563">
        <ele>1026.6</ele>
        <time>2018-06-03T07:54:48Z</time>
      </trkpt>
      <trkpt lat="45.11851" lon="5.58564">
        <ele>1026.6</ele>
        <time>2018-06-03T07:54:51Z</time>
      </trkpt>
      <trkpt lat="45.11863" lon="5.58558">
        <ele>1026.4</ele>
        <time>2018-06-03T07:54:54Z</time>
      </trkpt>
      <trkpt lat="45.11872" lon="5.58551">
        <ele>1026.1</ele>
        <time>2018-06-03T07:54:56Z</time>
      </trkpt>
      <trkpt lat="45.1188" lon="5.58543">
        <ele>1025.7</ele>
        <time>2018-06-03T07:54:58Z</time>
      </trkpt>
      <trkpt lat="45.11889" lon="5.58536">
        <ele>1025.4</ele>
        <time>2018-06-03T07:55:00Z</time>
      </trkpt>
      <trkpt lat="45.11897" lon="5.58528">
        <ele>1025.2</ele>
        <time>2018-06-03T07:55:02Z</time>
      </trkpt>
      <trkpt lat="45.11909" lon="5.58525">
        <ele>1025.1</ele>
        <time>2018-06-03T07:55:05Z</time>
      </trkpt>
      <trkpt lat="45.11919" lon="5.58538">
        <ele>1024.8</ele>
        <time>2018-06-03T07:55:08Z</time>
      </trkpt>
      <trkpt lat="45.11925" lon="5.58551">
        <ele>1024.6</ele>
        <time>2018-06-03T07:55:10Z</time>
      </trkpt>
      <trkpt lat="45.11929" lon="5.58565">
        <ele>1024.3</ele>
        <time>2018-06-03T07:55:12Z</time>
      </trkpt>
      <trkpt lat="45.11934" lon="5.5858">
        <ele>1024.1</ele>
        <time>2018-06-03T07:55:14Z</time>
      </trkpt>
      <trkpt lat="45.11936" lon="5.58596">
        <ele>1023.8</ele>
        <time>2018-06-03T07:55:16Z</time>
      </trkpt>
      <trkpt lat="45.11936" lon="5.58613">
        <ele>1023.4</ele>
        <time>2018-06-03T07:55:18Z</time>
      </trkpt>
      <trkpt lat="45.11936" lon="5.5863">
        <ele>1023</ele>
        <time>2018-06-03T07:55:20Z</time>
      </trkpt>
      <trkpt lat="45.11937" lon="5.58647">
        <ele>1022.4</ele>
        <time>2018-06-03T07:55:22Z</time>
      </trkpt>
      <trkpt lat="45.11938" lon="5.58664">
        <ele>1021.9</ele>
        <time>2018-06-03T07:55:24Z</time>
      </trkpt>
      <trkpt lat="45.1194" lon="5.5868">
        <ele>1021.7</ele>
        <time>2018-06-03T07:55:26Z</time>
      </trkpt>
      <trkpt lat="45.11943" lon="5.58693">
        <ele>1021.5</ele>
        <time>2018-06-03T07:55:28Z</time>
      </trkpt>
      <trkpt lat="45.11947" lon="5.58706">
        <ele>1021.4</ele>
        <time>2018-06-03T07:55:30Z</time>
      </trkpt>
      <trkpt lat="45.1195" lon="5.58718">
        <ele>1021.4</ele>
        <time>2018-06-03T07:55:32Z</time>
      </trkpt>
      <trkpt lat="45.11959" lon="5.58732">
        <ele>1021.5</ele>
        <time>2018-06-03T07:55:35Z</time>
      </trkpt>
      <trkpt lat="45.11968" lon="5.58738">
        <ele>1021.5</ele>
        <time>2018-06-03T07:55:37Z</time>
      </trkpt>
      <trkpt lat="45.11977" lon="5.5874">
        <ele>1021.4</ele>
        <time>2018-06-03T07:55:39Z</time>
      </trkpt>
      <trkpt lat="45.11987" lon="5.58741">
        <ele>1021.2</ele>
        <time>2018-06-03T07:55:41Z</time>
      </trkpt>
      <trkpt lat="45.11996" lon="5.5874">
        <ele>1021</ele>
        <time>2018-06-03T07:55:43Z</time>
      </trkpt>
      <trkpt lat="45.1201" lon="5.58741">
        <ele>1020.6</ele>
        <time>2018-06-03T07:55:46Z</time>
      </trkpt>
      <trkpt lat="45.1202" lon="5.5874">
        <ele>1020.3</ele>
        <time>2018-06-03T07:55:48Z</time>
      </trkpt>
      <trkpt lat="45.12031" lon="5.5874">
        <ele>1020</ele>
        <time>2018-06-03T07:55:50Z</time>
      </trkpt>
      <trkpt lat="45.12042" lon="5.58739">
        <ele>1019.7</ele>
        <time>2018-06-03T07:55:52Z</time>
      </trkpt>
      <trkpt lat="45.12052" lon="5.5874">
        <ele>1019.5</ele>
        <time>2018-06-03T07:55:54Z</time>
      </trkpt>
      <trkpt lat="45.12062" lon="5.58742">
        <ele>1019.3</ele>
        <time>2018-06-03T07:55:56Z</time>
      </trkpt>
      <trkpt lat="45.12072" lon="5.58744">
        <ele>1019.2</ele>
        <time>2018-06-03T07:55:58Z</time>
      </trkpt>
      <trkpt lat="45.12082" lon="5.58747">
        <ele>1019.1</ele>
        <time>2018-06-03T07:56:00Z</time>
      </trkpt>
      <trkpt lat="45.12092" lon="5.5875">
        <ele>1019</ele>
        <time>2018-06-03T07:56:02Z</time>
      </trkpt>
      <trkpt lat="45.12103" lon="5.58753">
        <ele>1018.9</ele>
        <time>2018-06-03T07:56:04Z</time>
      </trkpt>
      <trkpt lat="45.12112" lon="5.58756">
        <ele>1018.8</ele>
        <time>2018-06-03T07:56:06Z</time>
      </trkpt>
      <trkpt lat="45.12121" lon="5.5876">
        <ele>1018.7</ele>
        <time>2018-06-03T07:56:08Z</time>
      </trkpt>
      <trkpt lat="45.12131" lon="5.58764">
        <ele>1018.6</ele>
        <time>2018-06-03T07:56:10Z</time>
      </trkpt>
      <trkpt lat="45.1214" lon="5.58769">
        <ele>1018.6</ele>
        <time>2018-06-03T07:56:12Z</time>
      </trkpt>
      <trkpt lat="45.1215" lon="5.58775">
        <ele>1018.7</ele>
        <time>2018-06-03T07:56:14Z</time>
      </trkpt>
      <trkpt lat="45.12159" lon="5.58782">
        <ele>1018.5</ele>
        <time>2018-06-03T07:56:16Z</time>
      </trkpt>
      <trkpt lat="45.12168" lon="5.58791">
        <ele>1018.4</ele>
        <time>2018-06-03T07:56:18Z</time>
      </trkpt>
      <trkpt lat="45.12176" lon="5.58801">
        <ele>1018.3</ele>
        <time>2018-06-03T07:56:20Z</time>
      </trkpt>
      <trkpt lat="45.12184" lon="5.58811">
        <ele>1018.2</ele>
        <time>2018-06-03T07:56:22Z</time>
      </trkpt>
      <trkpt lat="45.12192" lon="5.58822">
        <ele>1018.1</ele>
        <time>2018-06-03T07:56:24Z</time>
      </trkpt>
      <trkpt lat="45.12199" lon="5.58832">
        <ele>1017.8</ele>
        <time>2018-06-03T07:56:27Z</time>
      </trkpt>
      <trkpt lat="45.12205" lon="5.58817">
        <ele>1017.1</ele>
        <time>2018-06-03T07:56:32Z</time>
      </trkpt>
      <trkpt lat="45.12212" lon="5.58808">
        <ele>1016.5</ele>
        <time>2018-06-03T07:56:34Z</time>
      </trkpt>
      <trkpt lat="45.12221" lon="5.58797">
        <ele>1015.8</ele>
        <time>2018-06-03T07:56:36Z</time>
      </trkpt>
      <trkpt lat="45.12232" lon="5.58784">
        <ele>1014.8</ele>
        <time>2018-06-03T07:56:38Z</time>
      </trkpt>
      <trkpt lat="45.12244" lon="5.58771">
        <ele>1013.9</ele>
        <time>2018-06-03T07:56:40Z</time>
      </trkpt>
      <trkpt lat="45.12257" lon="5.58757">
        <ele>1013.2</ele>
        <time>2018-06-03T07:56:42Z</time>
      </trkpt>
      <trkpt lat="45.12271" lon="5.58744">
        <ele>1012.4</ele>
        <time>2018-06-03T07:56:44Z</time>
      </trkpt>
      <trkpt lat="45.12285" lon="5.5873">
        <ele>1011.4</ele>
        <time>2018-06-03T07:56:46Z</time>
      </trkpt>
      <trkpt lat="45.12298" lon="5.58717">
        <ele>1010.5</ele>
        <time>2018-06-03T07:56:48Z</time>
      </trkpt>
      <trkpt lat="45.1231" lon="5.58703">
        <ele>1009.8</ele>
        <time>2018-06-03T07:56:50Z</time>
      </trkpt>
      <trkpt lat="45.12321" lon="5.58688">
        <ele>1009.1</ele>
        <time>2018-06-03T07:56:52Z</time>
      </trkpt>
      <trkpt lat="45.12332" lon="5.58672">
        <ele>1008.7</ele>
        <time>2018-06-03T07:56:54Z</time>
      </trkpt>
      <trkpt lat="45.12341" lon="5.58657">
        <ele>1008.3</ele>
        <time>2018-06-03T07:56:56Z</time>
      </trkpt>
      <trkpt lat="45.1235" lon="5.5864">
        <ele>1007.8</ele>
        <time>2018-06-03T07:56:58Z</time>
      </trkpt>
      <trkpt lat="45.12356" lon="5.58623">
        <ele>1007.4</ele>
        <time>2018-06-03T07:57:00Z</time>
      </trkpt>
      <trkpt lat="45.12361" lon="5.58606">
        <ele>1007.2</ele>
        <time>2018-06-03T07:57:02Z</time>
      </trkpt>
      <trkpt lat="45.12365" lon="5.58588">
        <ele>1006.9</ele>
        <time>2018-06-03T07:57:04Z</time>
      </trkpt>
      <trkpt lat="45.12369" lon="5.58571">
        <ele>1006.7</ele>
        <time>2018-06-03T07:57:06Z</time>
      </trkpt>
      <trkpt lat="45.12375" lon="5.58556">
        <ele>1006.4</ele>
        <time>2018-06-03T07:57:08Z</time>
      </trkpt>
      <trkpt lat="45.1238" lon="5.58541">
        <ele>1006.2</ele>
        <time>2018-06-03T07:57:10Z</time>
      </trkpt>
      <trkpt lat="45.12385" lon="5.58527">
        <ele>1006.1</ele>
        <time>2018-06-03T07:57:12Z</time>
      </trkpt>
      <trkpt lat="45.1239" lon="5.58512">
        <ele>1006</ele>
        <time>2018-06-03T07:57:14Z</time>
      </trkpt>
      <trkpt lat="45.12395" lon="5.58497">
        <ele>1005.8</ele>
        <time>2018-06-03T07:57:16Z</time>
      </trkpt>
      <trkpt lat="45.12401" lon="5.58482">
        <ele>1005.6</ele>
        <time>2018-06-03T07:57:18Z</time>
      </trkpt>
      <trkpt lat="45.12407" lon="5.58468">
        <ele>1005.5</ele>
        <time>2018-06-03T07:57:20Z</time>
      </trkpt>
      <trkpt lat="45.12412" lon="5.58452">
        <ele>1005.1</ele>
        <time>2018-06-03T07:57:22Z</time>
      </trkpt>
      <trkpt lat="45.12417" lon="5.58437">
        <ele>1005</ele>
        <time>2018-06-03T07:57:24Z</time>
      </trkpt>
      <trkpt lat="45.12422" lon="5.58422">
        <ele>1004.9</ele>
        <time>2018-06-03T07:57:26Z</time>
      </trkpt>
      <trkpt lat="45.12428" lon="5.58407">
        <ele>1004.7</ele>
        <time>2018-06-03T07:57:28Z</time>
      </trkpt>
      <trkpt lat="45.12433" lon="5.58392">
        <ele>1004.5</ele>
        <time>2018-06-03T07:57:30Z</time>
      </trkpt>
      <trkpt lat="45.12438" lon="5.58377">
        <ele>1004.7</ele>
        <time>2018-06-03T07:57:32Z</time>
      </trkpt>
      <trkpt lat="45.12443" lon="5.58362">
        <ele>1004.7</ele>
        <time>2018-06-03T07:57:34Z</time>
      </trkpt>
      <trkpt lat="45.12448" lon="5.58348">
        <ele>1004.7</ele>
        <time>2018-06-03T07:57:36Z</time>
      </trkpt>
      <trkpt lat="45.12453" lon="5.58334">
        <ele>1004.5</ele>
        <time>2018-06-03T07:57:38Z</time>
      </trkpt>
      <trkpt lat="45.12458" lon="5.5832">
        <ele>1004.4</ele>
        <time>2018-06-03T07:57:40Z</time>
      </trkpt>
      <trkpt lat="45.12462" lon="5.58307">
        <ele>1004.4</ele>
        <time>2018-06-03T07:57:42Z</time>
      </trkpt>
      <trkpt lat="45.12467" lon="5.58295">
        <ele>1004.3</ele>
        <time>2018-06-03T07:57:44Z</time>
      </trkpt>
      <trkpt lat="45.12471" lon="5.58283">
        <ele>1004.3</ele>
        <time>2018-06-03T07:57:46Z</time>
      </trkpt>
      <trkpt lat="45.12475" lon="5.58271">
        <ele>1004.3</ele>
        <time>2018-06-03T07:57:48Z</time>
      </trkpt>
      <trkpt lat="45.12479" lon="5.58259">
        <ele>1004.3</ele>
        <time>2018-06-03T07:57:50Z</time>
      </trkpt>
      <trkpt lat="45.12484" lon="5.58247">
        <ele>1004.2</ele>
        <time>2018-06-03T07:57:52Z</time>
      </trkpt>
      <trkpt lat="45.12488" lon="5.58235">
        <ele>1004.1</ele>
        <time>2018-06-03T07:57:54Z</time>
      </trkpt>
      <trkpt lat="45.12492" lon="5.58221">
        <ele>1004.1</ele>
        <time>2018-06-03T07:57:56Z</time>
      </trkpt>
      <trkpt lat="45.12495" lon="5.58208">
        <ele>1004.1</ele>
        <time>2018-06-03T07:57:58Z</time>
      </trkpt>
      <trkpt lat="45.12498" lon="5.58195">
        <ele>1004.1</ele>
        <time>2018-06-03T07:58:00Z</time>
      </trkpt>
      <trkpt lat="45.12506" lon="5.58183">
        <ele>1004.1</ele>
        <time>2018-06-03T07:58:03Z</time>
      </trkpt>
      <trkpt lat="45.12516" lon="5.58186">
        <ele>1004.3</ele>
        <time>2018-06-03T07:58:06Z</time>
      </trkpt>
      <trkpt lat="45.12525" lon="5.58192">
        <ele>1004.5</ele>
        <time>2018-06-03T07:58:09Z</time>
      </trkpt>
      <trkpt lat="45.12534" lon="5.58197">
        <ele>1004.6</ele>
        <time>2018-06-03T07:58:12Z</time>
      </trkpt>
      <trkpt lat="45.12539" lon="5.58208">
        <ele>1004.6</ele>
        <time>2018-06-03T07:58:15Z</time>
      </trkpt>
      <trkpt lat="45.12546" lon="5.5822">
        <ele>1004.6</ele>
        <time>2018-06-03T07:58:18Z</time>
      </trkpt>
      <trkpt lat="45.12555" lon="5.5823">
        <ele>1004.8</ele>
        <time>2018-06-03T07:58:21Z</time>
      </trkpt>
      <trkpt lat="45.12563" lon="5.5824">
        <ele>1005</ele>
        <time>2018-06-03T07:58:24Z</time>
      </trkpt>
      <trkpt lat="45.12571" lon="5.58251">
        <ele>1005.1</ele>
        <time>2018-06-03T07:58:27Z</time>
      </trkpt>
      <trkpt lat="45.12577" lon="5.58263">
        <ele>1005.4</ele>
        <time>2018-06-03T07:58:30Z</time>
      </trkpt>
      <trkpt lat="45.12584" lon="5.58275">
        <ele>1005.9</ele>
        <time>2018-06-03T07:58:33Z</time>
      </trkpt>
      <trkpt lat="45.1259" lon="5.58288">
        <ele>1006.5</ele>
        <time>2018-06-03T07:58:36Z</time>
      </trkpt>
      <trkpt lat="45.12596" lon="5.58301">
        <ele>1006.8</ele>
        <time>2018-06-03T07:58:39Z</time>
      </trkpt>
      <trkpt lat="45.12602" lon="5.58314">
        <ele>1007</ele>
        <time>2018-06-03T07:58:42Z</time>
      </trkpt>
      <trkpt lat="45.12608" lon="5.58327">
        <ele>1007.4</ele>
        <time>2018-06-03T07:58:45Z</time>
      </trkpt>
      <trkpt lat="45.12614" lon="5.58339">
        <ele>1007.7</ele>
        <time>2018-06-03T07:58:48Z</time>
      </trkpt>
      <trkpt lat="45.1262" lon="5.58352">
        <ele>1008.1</ele>
        <time>2018-06-03T07:58:51Z</time>
      </trkpt>
      <trkpt lat="45.12626" lon="5.58365">
        <ele>1008.4</ele>
        <time>2018-06-03T07:58:54Z</time>
      </trkpt>
      <trkpt lat="45.12632" lon="5.58379">
        <ele>1008.7</ele>
        <time>2018-06-03T07:58:57Z</time>
      </trkpt>
      <trkpt lat="45.12638" lon="5.58393">
        <ele>1009</ele>
        <time>2018-06-03T07:59:00Z</time>
      </trkpt>
      <trkpt lat="45.12644" lon="5.58408">
        <ele>1009.3</ele>
        <time>2018-06-03T07:59:03Z</time>
      </trkpt>
      <trkpt lat="45.12649" lon="5.58422">
        <ele>1009.4</ele>
        <time>2018-06-03T07:59:06Z</time>
      </trkpt>
      <trkpt lat="45.12655" lon="5.58437">
        <ele>1009.4</ele>
        <time>2018-06-03T07:59:09Z</time>
      </trkpt>
      <trkpt lat="45.12658" lon="5.58452">
        <ele>1009.5</ele>
        <time>2018-06-03T07:59:12Z</time>
      </trkpt>
      <trkpt lat="45.12659" lon="5.58469">
        <ele>1009.7</ele>
        <time>2018-06-03T07:59:15Z</time>
      </trkpt>
      <trkpt lat="45.12661" lon="5.58484">
        <ele>1009.9</ele>
        <time>2018-06-03T07:59:18Z</time>
      </trkpt>
      <trkpt lat="45.12664" lon="5.58499">
        <ele>1010.1</ele>
        <time>2018-06-03T07:59:21Z</time>
      </trkpt>
      <trkpt lat="45.12668" lon="5.58511">
        <ele>1010.4</ele>
        <time>2018-06-03T07:59:24Z</time>
      </trkpt>
      <trkpt lat="45.12669" lon="5.58525">
        <ele>1010.8</ele>
        <time>2018-06-03T07:59:27Z</time>
      </trkpt>
      <trkpt lat="45.12673" lon="5.58539">
        <ele>1011.1</ele>
        <time>2018-06-03T07:59:30Z</time>
      </trkpt>
      <trkpt lat="45.12679" lon="5.58553">
        <ele>1011.4</ele>
        <time>2018-06-03T07:59:33Z</time>
      </trkpt>
      <trkpt lat="45.12686" lon="5.58565">
        <ele>1011.8</ele>
        <time>2018-06-03T07:59:36Z</time>
      </trkpt>
      <trkpt lat="45.12693" lon="5.58579">
        <ele>1012.1</ele>
        <time>2018-06-03T07:59:39Z</time>
      </trkpt>
      <trkpt lat="45.12698" lon="5.5859">
        <ele>1012</ele>
        <time>2018-06-03T07:59:41Z</time>
      </trkpt>
      <trkpt lat="45.12704" lon="5.58605">
        <ele>1012.2</ele>
        <time>2018-06-03T07:59:44Z</time>
      </trkpt>
      <trkpt lat="45.1271" lon="5.58621">
        <ele>1012.3</ele>
        <time>2018-06-03T07:59:47Z</time>
      </trkpt>
      <trkpt lat="45.12717" lon="5.58635">
        <ele>1012.5</ele>
        <time>2018-06-03T07:59:50Z</time>
      </trkpt>
      <trkpt lat="45.12723" lon="5.58651">
        <ele>1012.8</ele>
        <time>2018-06-03T07:59:53Z</time>
      </trkpt>
      <trkpt lat="45.12733" lon="5.58659">
        <ele>1013</ele>
        <time>2018-06-03T07:59:56Z</time>
      </trkpt>
      <trkpt lat="45.12741" lon="5.58667">
        <ele>1013.2</ele>
        <time>2018-06-03T07:59:59Z</time>
      </trkpt>
      <trkpt lat="45.12749" lon="5.58676">
        <ele>1013.4</ele>
        <time>2018-06-03T08:00:02Z</time>
      </trkpt>
      <trkpt lat="45.12757" lon="5.58684">
        <ele>1013.5</ele>
        <time>2018-06-03T08:00:05Z</time>
      </trkpt>
      <trkpt lat="45.12769" lon="5.58691">
        <ele>1013.7</ele>
        <time>2018-06-03T08:00:08Z</time>
      </trkpt>
      <trkpt lat="45.12778" lon="5.58698">
        <ele>1013.9</ele>
        <time>2018-06-03T08:00:11Z</time>
      </trkpt>
      <trkpt lat="45.12788" lon="5.58708">
        <ele>1014</ele>
        <time>2018-06-03T08:00:15Z</time>
      </trkpt>
      <trkpt lat="45.12796" lon="5.58715">
        <ele>1013.9</ele>
        <time>2018-06-03T08:00:18Z</time>
      </trkpt>
      <trkpt lat="45.12808" lon="5.5872">
        <ele>1014</ele>
        <time>2018-06-03T08:00:21Z</time>
      </trkpt>
      <trkpt lat="45.1282" lon="5.58726">
        <ele>1014.2</ele>
        <time>2018-06-03T08:00:24Z</time>
      </trkpt>
      <trkpt lat="45.1283" lon="5.58733">
        <ele>1014.2</ele>
        <time>2018-06-03T08:00:27Z</time>
      </trkpt>
      <trkpt lat="45.1284" lon="5.58739">
        <ele>1014.1</ele>
        <time>2018-06-03T08:00:30Z</time>
      </trkpt>
      <trkpt lat="45.12849" lon="5.58746">
        <ele>1014.3</ele>
        <time>2018-06-03T08:00:34Z</time>
      </trkpt>
      <trkpt lat="45.12855" lon="5.58756">
        <ele>1014.1</ele>
        <time>2018-06-03T08:00:52Z</time>
      </trkpt>
      <trkpt lat="45.1285" lon="5.5877">
        <ele>1014.1</ele>
        <time>2018-06-03T08:00:56Z</time>
      </trkpt>
      <trkpt lat="45.12846" lon="5.58784">
        <ele>1014.2</ele>
        <time>2018-06-03T08:00:59Z</time>
      </trkpt>
      <trkpt lat="45.12843" lon="5.58796">
        <ele>1014.6</ele>
        <time>2018-06-03T08:01:02Z</time>
      </trkpt>
      <trkpt lat="45.12839" lon="5.5881">
        <ele>1014.9</ele>
        <time>2018-06-03T08:01:05Z</time>
      </trkpt>
      <trkpt lat="45.12834" lon="5.58825">
        <ele>1015.2</ele>
        <time>2018-06-03T08:01:08Z</time>
      </trkpt>
      <trkpt lat="45.1283" lon="5.5884">
        <ele>1015.5</ele>
        <time>2018-06-03T08:01:11Z</time>
      </trkpt>
      <trkpt lat="45.12827" lon="5.58853">
        <ele>1015.9</ele>
        <time>2018-06-03T08:01:14Z</time>
      </trkpt>
      <trkpt lat="45.12822" lon="5.58867">
        <ele>1016.2</ele>
        <time>2018-06-03T08:01:18Z</time>
      </trkpt>
      <trkpt lat="45.1282" lon="5.58882">
        <ele>1016.4</ele>
        <time>2018-06-03T08:01:23Z</time>
      </trkpt>
      <trkpt lat="45.12817" lon="5.58896">
        <ele>1016.7</ele>
        <time>2018-06-03T08:01:28Z</time>
      </trkpt>
      <trkpt lat="45.12816" lon="5.58909">
        <ele>1017.1</ele>
        <time>2018-06-03T08:01:33Z</time>
      </trkpt>
      <trkpt lat="45.12821" lon="5.58921">
        <ele>1017.4</ele>
        <time>2018-06-03T08:01:38Z</time>
      </trkpt>
      <trkpt lat="45.12819" lon="5.58935">
        <ele>1017.3</ele>
        <time>2018-06-03T08:01:43Z</time>
      </trkpt>
      <trkpt lat="45.12824" lon="5.58922">
        <ele>1018.9</ele>
        <time>2018-06-03T08:23:40Z</time>
      </trkpt>
      <trkpt lat="45.12823" lon="5.58907">
        <ele>1018.4</ele>
        <time>2018-06-03T08:23:45Z</time>
      </trkpt>
      <trkpt lat="45.12823" lon="5.58892">
        <ele>1018.1</ele>
        <time>2018-06-03T08:23:49Z</time>
      </trkpt>
      <trkpt lat="45.12825" lon="5.58879">
        <ele>1018</ele>
        <time>2018-06-03T08:23:52Z</time>
      </trkpt>
      <trkpt lat="45.12828" lon="5.58866">
        <ele>1017.9</ele>
        <time>2018-06-03T08:23:55Z</time>
      </trkpt>
      <trkpt lat="45.12831" lon="5.58852">
        <ele>1017.5</ele>
        <time>2018-06-03T08:23:58Z</time>
      </trkpt>
      <trkpt lat="45.12836" lon="5.58836">
        <ele>1017.2</ele>
        <time>2018-06-03T08:24:01Z</time>
      </trkpt>
      <trkpt lat="45.1284" lon="5.58819">
        <ele>1016.9</ele>
        <time>2018-06-03T08:24:04Z</time>
      </trkpt>
      <trkpt lat="45.12844" lon="5.58808">
        <ele>1016.8</ele>
        <time>2018-06-03T08:24:06Z</time>
      </trkpt>
      <trkpt lat="45.12849" lon="5.58791">
        <ele>1016.6</ele>
        <time>2018-06-03T08:24:09Z</time>
      </trkpt>
      <trkpt lat="45.12852" lon="5.58778">
        <ele>1016.4</ele>
        <time>2018-06-03T08:24:11Z</time>
      </trkpt>
      <trkpt lat="45.12856" lon="5.58766">
        <ele>1016.1</ele>
        <time>2018-06-03T08:24:13Z</time>
      </trkpt>
      <trkpt lat="45.12859" lon="5.5875">
        <ele>1016</ele>
        <time>2018-06-03T08:24:15Z</time>
      </trkpt>
      <trkpt lat="45.12863" lon="5.58737">
        <ele>1015.7</ele>
        <time>2018-06-03T08:24:17Z</time>
      </trkpt>
      <trkpt lat="45.12867" lon="5.58724">
        <ele>1015.5</ele>
        <time>2018-06-03T08:24:19Z</time>
      </trkpt>
      <trkpt lat="45.12871" lon="5.58711">
        <ele>1015.2</ele>
        <time>2018-06-03T08:24:21Z</time>
      </trkpt>
      <trkpt lat="45.12875" lon="5.58699">
        <ele>1015.1</ele>
        <time>2018-06-03T08:24:23Z</time>
      </trkpt>
      <trkpt lat="45.12879" lon="5.58687">
        <ele>1014.9</ele>
        <time>2018-06-03T08:24:25Z</time>
      </trkpt>
      <trkpt lat="45.12882" lon="5.58674">
        <ele>1014.7</ele>
        <time>2018-06-03T08:24:27Z</time>
      </trkpt>
      <trkpt lat="45.12887" lon="5.5866">
        <ele>1014.3</ele>
        <time>2018-06-03T08:24:29Z</time>
      </trkpt>
      <trkpt lat="45.1289" lon="5.58647">
        <ele>1014</ele>
        <time>2018-06-03T08:24:31Z</time>
      </trkpt>
      <trkpt lat="45.12894" lon="5.58634">
        <ele>1013.9</ele>
        <time>2018-06-03T08:24:33Z</time>
      </trkpt>
      <trkpt lat="45.12896" lon="5.58618">
        <ele>1013.6</ele>
        <time>2018-06-03T08:24:35Z</time>
      </trkpt>
      <trkpt lat="45.129" lon="5.58605">
        <ele>1013.4</ele>
        <time>2018-06-03T08:24:37Z</time>
      </trkpt>
      <trkpt lat="45.12905" lon="5.5859">
        <ele>1013.2</ele>
        <time>2018-06-03T08:24:39Z</time>
      </trkpt>
      <trkpt lat="45.1291" lon="5.58576">
        <ele>1013.1</ele>
        <time>2018-06-03T08:24:41Z</time>
      </trkpt>
      <trkpt lat="45.12915" lon="5.58562">
        <ele>1012.9</ele>
        <time>2018-06-03T08:24:43Z</time>
      </trkpt>
      <trkpt lat="45.12919" lon="5.58547">
        <ele>1012.8</ele>
        <time>2018-06-03T08:24:45Z</time>
      </trkpt>
      <trkpt lat="45.12924" lon="5.58534">
        <ele>1012.7</ele>
        <time>2018-06-03T08:24:47Z</time>
      </trkpt>
      <trkpt lat="45.12928" lon="5.58519">
        <ele>1012.6</ele>
        <time>2018-06-03T08:24:49Z</time>
      </trkpt>
      <trkpt lat="45.12932" lon="5.58505">
        <ele>1012.4</ele>
        <time>2018-06-03T08:24:51Z</time>
      </trkpt>
      <trkpt lat="45.12937" lon="5.58491">
        <ele>1012.1</ele>
        <time>2018-06-03T08:24:53Z</time>
      </trkpt>
      <trkpt lat="45.12941" lon="5.58477">
        <ele>1012.1</ele>
        <time>2018-06-03T08:24:55Z</time>
      </trkpt>
      <trkpt lat="45.12945" lon="5.58464">
        <ele>1011.9</ele>
        <time>2018-06-03T08:24:57Z</time>
      </trkpt>
      <trkpt lat="45.12949" lon="5.5845">
        <ele>1011.8</ele>
        <time>2018-06-03T08:24:59Z</time>
      </trkpt>
      <trkpt lat="45.12954" lon="5.58436">
        <ele>1011.7</ele>
        <time>2018-06-03T08:25:01Z</time>
      </trkpt>
      <trkpt lat="45.12957" lon="5.58423">
        <ele>1011.6</ele>
        <time>2018-06-03T08:25:03Z</time>
      </trkpt>
      <trkpt lat="45.12962" lon="5.58408">
        <ele>1011.5</ele>
        <time>2018-06-03T08:25:05Z</time>
      </trkpt>
      <trkpt lat="45.12966" lon="5.58395">
        <ele>1011.2</ele>
        <time>2018-06-03T08:25:07Z</time>
      </trkpt>
      <trkpt lat="45.12971" lon="5.58382">
        <ele>1011</ele>
        <time>2018-06-03T08:25:09Z</time>
      </trkpt>
      <trkpt lat="45.12975" lon="5.58368">
        <ele>1010.8</ele>
        <time>2018-06-03T08:25:11Z</time>
      </trkpt>
      <trkpt lat="45.12978" lon="5.58354">
        <ele>1010.6</ele>
        <time>2018-06-03T08:25:13Z</time>
      </trkpt>
      <trkpt lat="45.12982" lon="5.5834">
        <ele>1010.6</ele>
        <time>2018-06-03T08:25:15Z</time>
      </trkpt>
      <trkpt lat="45.12986" lon="5.58327">
        <ele>1010.5</ele>
        <time>2018-06-03T08:25:17Z</time>
      </trkpt>
      <trkpt lat="45.12989" lon="5.58313">
        <ele>1010.5</ele>
        <time>2018-06-03T08:25:19Z</time>
      </trkpt>
      <trkpt lat="45.12992" lon="5.583">
        <ele>1010.4</ele>
        <time>2018-06-03T08:25:21Z</time>
      </trkpt>
      <trkpt lat="45.12996" lon="5.58287">
        <ele>1010.2</ele>
        <time>2018-06-03T08:25:23Z</time>
      </trkpt>
      <trkpt lat="45.13" lon="5.58274">
        <ele>1010.1</ele>
        <time>2018-06-03T08:25:25Z</time>
      </trkpt>
      <trkpt lat="45.13004" lon="5.58262">
        <ele>1010</ele>
        <time>2018-06-03T08:25:27Z</time>
      </trkpt>
      <trkpt lat="45.13009" lon="5.58251">
        <ele>1010</ele>
        <time>2018-06-03T08:25:29Z</time>
      </trkpt>
      <trkpt lat="45.13017" lon="5.58241">
        <ele>1010.1</ele>
        <time>2018-06-03T08:25:31Z</time>
      </trkpt>
      <trkpt lat="45.13025" lon="5.58233">
        <ele>1010</ele>
        <time>2018-06-03T08:25:33Z</time>
      </trkpt>
      <trkpt lat="45.13034" lon="5.58226">
        <ele>1010</ele>
        <time>2018-06-03T08:25:35Z</time>
      </trkpt>
      <trkpt lat="45.13044" lon="5.58222">
        <ele>1010</ele>
        <time>2018-06-03T08:25:37Z</time>
      </trkpt>
      <trkpt lat="45.13054" lon="5.5822">
        <ele>1009.8</ele>
        <time>2018-06-03T08:25:39Z</time>
      </trkpt>
      <trkpt lat="45.13064" lon="5.58217">
        <ele>1009</ele>
        <time>2018-06-03T08:25:41Z</time>
      </trkpt>
      <trkpt lat="45.13076" lon="5.58209">
        <ele>1009.2</ele>
        <time>2018-06-03T08:25:44Z</time>
      </trkpt>
      <trkpt lat="45.13085" lon="5.58199">
        <ele>1008.9</ele>
        <time>2018-06-03T08:25:47Z</time>
      </trkpt>
      <trkpt lat="45.13096" lon="5.58191">
        <ele>1008.8</ele>
        <time>2018-06-03T08:25:50Z</time>
      </trkpt>
      <trkpt lat="45.13106" lon="5.58179">
        <ele>1008.6</ele>
        <time>2018-06-03T08:25:53Z</time>
      </trkpt>
      <trkpt lat="45.13114" lon="5.58172">
        <ele>1008.6</ele>
        <time>2018-06-03T08:25:55Z</time>
      </trkpt>
      <trkpt lat="45.13124" lon="5.58168">
        <ele>1008.6</ele>
        <time>2018-06-03T08:25:57Z</time>
      </trkpt>
      <trkpt lat="45.13139" lon="5.58167">
        <ele>1008</ele>
        <time>2018-06-03T08:26:00Z</time>
      </trkpt>
      <trkpt lat="45.13155" lon="5.58168">
        <ele>1008.4</ele>
        <time>2018-06-03T08:26:03Z</time>
      </trkpt>
      <trkpt lat="45.13167" lon="5.58169">
        <ele>1008.3</ele>
        <time>2018-06-03T08:26:05Z</time>
      </trkpt>
      <trkpt lat="45.13179" lon="5.58171">
        <ele>1007</ele>
        <time>2018-06-03T08:26:07Z</time>
      </trkpt>
      <trkpt lat="45.13196" lon="5.58174">
        <ele>1007.2</ele>
        <time>2018-06-03T08:26:10Z</time>
      </trkpt>
      <trkpt lat="45.13209" lon="5.58175">
        <ele>1006.8</ele>
        <time>2018-06-03T08:26:12Z</time>
      </trkpt>
      <trkpt lat="45.13228" lon="5.58179">
        <ele>1005</ele>
        <time>2018-06-03T08:26:15Z</time>
      </trkpt>
      <trkpt lat="45.13247" lon="5.58185">
        <ele>1005.4</ele>
        <time>2018-06-03T08:26:18Z</time>
      </trkpt>
      <trkpt lat="45.13259" lon="5.5819">
        <ele>1005</ele>
        <time>2018-06-03T08:26:20Z</time>
      </trkpt>
      <trkpt lat="45.13272" lon="5.58197">
        <ele>1004.6</ele>
        <time>2018-06-03T08:26:22Z</time>
      </trkpt>
      <trkpt lat="45.13283" lon="5.58205">
        <ele>1004.4</ele>
        <time>2018-06-03T08:26:24Z</time>
      </trkpt>
      <trkpt lat="45.13295" lon="5.58213">
        <ele>1004</ele>
        <time>2018-06-03T08:26:26Z</time>
      </trkpt>
      <trkpt lat="45.13306" lon="5.58221">
        <ele>1003.7</ele>
        <time>2018-06-03T08:26:28Z</time>
      </trkpt>
      <trkpt lat="45.13323" lon="5.58235">
        <ele>1003</ele>
        <time>2018-06-03T08:26:31Z</time>
      </trkpt>
      <trkpt lat="45.1334" lon="5.58249">
        <ele>1002.8</ele>
        <time>2018-06-03T08:26:34Z</time>
      </trkpt>
      <trkpt lat="45.1335" lon="5.58259">
        <ele>1002.5</ele>
        <time>2018-06-03T08:26:36Z</time>
      </trkpt>
      <trkpt lat="45.1336" lon="5.58271">
        <ele>1002.2</ele>
        <time>2018-06-03T08:26:38Z</time>
      </trkpt>
      <trkpt lat="45.1337" lon="5.58282">
        <ele>1002</ele>
        <time>2018-06-03T08:26:40Z</time>
      </trkpt>
      <trkpt lat="45.13381" lon="5.58293">
        <ele>1001.8</ele>
        <time>2018-06-03T08:26:42Z</time>
      </trkpt>
      <trkpt lat="45.13391" lon="5.58304">
        <ele>1001.7</ele>
        <time>2018-06-03T08:26:44Z</time>
      </trkpt>
      <trkpt lat="45.134" lon="5.58316">
        <ele>1001.7</ele>
        <time>2018-06-03T08:26:46Z</time>
      </trkpt>
      <trkpt lat="45.13409" lon="5.58326">
        <ele>1001.6</ele>
        <time>2018-06-03T08:26:48Z</time>
      </trkpt>
      <trkpt lat="45.13418" lon="5.58337">
        <ele>1001.5</ele>
        <time>2018-06-03T08:26:50Z</time>
      </trkpt>
      <trkpt lat="45.13428" lon="5.58347">
        <ele>1001</ele>
        <time>2018-06-03T08:26:52Z</time>
      </trkpt>
      <trkpt lat="45.13444" lon="5.58363">
        <ele>1001.1</ele>
        <time>2018-06-03T08:26:55Z</time>
      </trkpt>
      <trkpt lat="45.13455" lon="5.58374">
        <ele>1000.9</ele>
        <time>2018-06-03T08:26:57Z</time>
      </trkpt>
      <trkpt lat="45.13466" lon="5.58386">
        <ele>1000.6</ele>
        <time>2018-06-03T08:26:59Z</time>
      </trkpt>
      <trkpt lat="45.13477" lon="5.58398">
        <ele>1000.1</ele>
        <time>2018-06-03T08:27:01Z</time>
      </trkpt>
      <trkpt lat="45.1349" lon="5.5841">
        <ele>999.7</ele>
        <time>2018-06-03T08:27:03Z</time>
      </trkpt>
      <trkpt lat="45.13502" lon="5.58423">
        <ele>998</ele>
        <time>2018-06-03T08:27:05Z</time>
      </trkpt>
      <trkpt lat="45.13522" lon="5.58441">
        <ele>998.3</ele>
        <time>2018-06-03T08:27:08Z</time>
      </trkpt>
      <trkpt lat="45.13536" lon="5.58453">
        <ele>997.5</ele>
        <time>2018-06-03T08:27:10Z</time>
      </trkpt>
      <trkpt lat="45.13552" lon="5.58465">
        <ele>996.7</ele>
        <time>2018-06-03T08:27:12Z</time>
      </trkpt>
      <trkpt lat="45.1356" lon="5.58471">
        <ele>996.3</ele>
        <time>2018-06-03T08:27:13Z</time>
      </trkpt>
      <trkpt lat="45.13568" lon="5.58477">
        <ele>995.9</ele>
        <time>2018-06-03T08:27:14Z</time>
      </trkpt>
      <trkpt lat="45.13577" lon="5.58483">
        <ele>995.4</ele>
        <time>2018-06-03T08:27:15Z</time>
      </trkpt>
      <trkpt lat="45.13585" lon="5.58489">
        <ele>994.8</ele>
        <time>2018-06-03T08:27:16Z</time>
      </trkpt>
      <trkpt lat="45.13594" lon="5.58496">
        <ele>994.3</ele>
        <time>2018-06-03T08:27:17Z</time>
      </trkpt>
      <trkpt lat="45.13603" lon="5.58503">
        <ele>993.8</ele>
        <time>2018-06-03T08:27:18Z</time>
      </trkpt>
      <trkpt lat="45.13612" lon="5.5851">
        <ele>993.2</ele>
        <time>2018-06-03T08:27:19Z</time>
      </trkpt>
      <trkpt lat="45.13621" lon="5.58517">
        <ele>992.6</ele>
        <time>2018-06-03T08:27:20Z</time>
      </trkpt>
      <trkpt lat="45.13628" lon="5.58525">
        <ele>991.9</ele>
        <time>2018-06-03T08:27:21Z</time>
      </trkpt>
      <trkpt lat="45.13637" lon="5.58532">
        <ele>991.3</ele>
        <time>2018-06-03T08:27:22Z</time>
      </trkpt>
      <trkpt lat="45.13645" lon="5.5854">
        <ele>990.6</ele>
        <time>2018-06-03T08:27:23Z</time>
      </trkpt>
      <trkpt lat="45.13653" lon="5.58548">
        <ele>989.9</ele>
        <time>2018-06-03T08:27:24Z</time>
      </trkpt>
      <trkpt lat="45.1366" lon="5.58555">
        <ele>989.3</ele>
        <time>2018-06-03T08:27:25Z</time>
      </trkpt>
      <trkpt lat="45.13668" lon="5.58563">
        <ele>988.7</ele>
        <time>2018-06-03T08:27:26Z</time>
      </trkpt>
      <trkpt lat="45.1368" lon="5.58578">
        <ele>987.5</ele>
        <time>2018-06-03T08:27:28Z</time>
      </trkpt>
      <trkpt lat="45.13692" lon="5.5859">
        <ele>986</ele>
        <time>2018-06-03T08:27:30Z</time>
      </trkpt>
      <trkpt lat="45.13706" lon="5.58595">
        <ele>984.6</ele>
        <time>2018-06-03T08:27:32Z</time>
      </trkpt>
      <trkpt lat="45.1372" lon="5.58596">
        <ele>983.6</ele>
        <time>2018-06-03T08:27:34Z</time>
      </trkpt>
      <trkpt lat="45.13735" lon="5.58603">
        <ele>982.5</ele>
        <time>2018-06-03T08:27:36Z</time>
      </trkpt>
      <trkpt lat="45.13748" lon="5.58611">
        <ele>981.6</ele>
        <time>2018-06-03T08:27:38Z</time>
      </trkpt>
      <trkpt lat="45.13761" lon="5.58614">
        <ele>981.1</ele>
        <time>2018-06-03T08:27:40Z</time>
      </trkpt>
      <trkpt lat="45.13773" lon="5.58616">
        <ele>980.8</ele>
        <time>2018-06-03T08:27:42Z</time>
      </trkpt>
      <trkpt lat="45.13784" lon="5.58617">
        <ele>980.9</ele>
        <time>2018-06-03T08:27:44Z</time>
      </trkpt>
      <trkpt lat="45.13794" lon="5.58618">
        <ele>981.1</ele>
        <time>2018-06-03T08:27:46Z</time>
      </trkpt>
      <trkpt lat="45.13804" lon="5.5862">
        <ele>981.2</ele>
        <time>2018-06-03T08:27:48Z</time>
      </trkpt>
      <trkpt lat="45.13814" lon="5.58622">
        <ele>981.3</ele>
        <time>2018-06-03T08:27:50Z</time>
      </trkpt>
      <trkpt lat="45.13828" lon="5.58625">
        <ele>981</ele>
        <time>2018-06-03T08:27:53Z</time>
      </trkpt>
      <trkpt lat="45.13843" lon="5.58628">
        <ele>981.6</ele>
        <time>2018-06-03T08:27:56Z</time>
      </trkpt>
      <trkpt lat="45.13854" lon="5.58631">
        <ele>981.5</ele>
        <time>2018-06-03T08:27:58Z</time>
      </trkpt>
      <trkpt lat="45.13866" lon="5.58635">
        <ele>981.5</ele>
        <time>2018-06-03T08:28:00Z</time>
      </trkpt>
      <trkpt lat="45.13877" lon="5.5864">
        <ele>981.5</ele>
        <time>2018-06-03T08:28:02Z</time>
      </trkpt>
      <trkpt lat="45.13893" lon="5.58649">
        <ele>981</ele>
        <time>2018-06-03T08:28:05Z</time>
      </trkpt>
      <trkpt lat="45.13909" lon="5.58658">
        <ele>980.9</ele>
        <time>2018-06-03T08:28:08Z</time>
      </trkpt>
      <trkpt lat="45.1392" lon="5.58664">
        <ele>980.7</ele>
        <time>2018-06-03T08:28:10Z</time>
      </trkpt>
      <trkpt lat="45.13936" lon="5.58673">
        <ele>980</ele>
        <time>2018-06-03T08:28:13Z</time>
      </trkpt>
      <trkpt lat="45.13953" lon="5.58683">
        <ele>980.4</ele>
        <time>2018-06-03T08:28:16Z</time>
      </trkpt>
      <trkpt lat="45.13963" lon="5.58689">
        <ele>980.4</ele>
        <time>2018-06-03T08:28:18Z</time>
      </trkpt>
      <trkpt lat="45.13972" lon="5.58695">
        <ele>980.3</ele>
        <time>2018-06-03T08:28:20Z</time>
      </trkpt>
      <trkpt lat="45.13982" lon="5.58701">
        <ele>980.2</ele>
        <time>2018-06-03T08:28:22Z</time>
      </trkpt>
      <trkpt lat="45.13991" lon="5.58708">
        <ele>980.2</ele>
        <time>2018-06-03T08:28:24Z</time>
      </trkpt>
      <trkpt lat="45.14" lon="5.58714">
        <ele>980.3</ele>
        <time>2018-06-03T08:28:26Z</time>
      </trkpt>
      <trkpt lat="45.1401" lon="5.58721">
        <ele>980.4</ele>
        <time>2018-06-03T08:28:28Z</time>
      </trkpt>
      <trkpt lat="45.14024" lon="5.5873">
        <ele>980</ele>
        <time>2018-06-03T08:28:31Z</time>
      </trkpt>
      <trkpt lat="45.14037" lon="5.58739">
        <ele>980.4</ele>
        <time>2018-06-03T08:28:34Z</time>
      </trkpt>
      <trkpt lat="45.14049" lon="5.58748">
        <ele>980.7</ele>
        <time>2018-06-03T08:28:37Z</time>
      </trkpt>
      <trkpt lat="45.14061" lon="5.58754">
        <ele>981.1</ele>
        <time>2018-06-03T08:28:40Z</time>
      </trkpt>
      <trkpt lat="45.14069" lon="5.58762">
        <ele>981.7</ele>
        <time>2018-06-03T08:28:43Z</time>
      </trkpt>
      <trkpt lat="45.14077" lon="5.58768">
        <ele>982.4</ele>
        <time>2018-06-03T08:28:46Z</time>
      </trkpt>
      <trkpt lat="45.14086" lon="5.58778">
        <ele>983.2</ele>
        <time>2018-06-03T08:28:50Z</time>
      </trkpt>
      <trkpt lat="45.14094" lon="5.58785">
        <ele>983.7</ele>
        <time>2018-06-03T08:28:53Z</time>
      </trkpt>
      <trkpt lat="45.14101" lon="5.58793">
        <ele>984</ele>
        <time>2018-06-03T08:28:56Z</time>
      </trkpt>
      <trkpt lat="45.14109" lon="5.58801">
        <ele>984.4</ele>
        <time>2018-06-03T08:28:59Z</time>
      </trkpt>
      <trkpt lat="45.14118" lon="5.5881">
        <ele>985</ele>
        <time>2018-06-03T08:29:03Z</time>
      </trkpt>
      <trkpt lat="45.14126" lon="5.58817">
        <ele>985.2</ele>
        <time>2018-06-03T08:29:06Z</time>
      </trkpt>
      <trkpt lat="45.14134" lon="5.58823">
        <ele>985.6</ele>
        <time>2018-06-03T08:29:09Z</time>
      </trkpt>
      <trkpt lat="45.14143" lon="5.58832">
        <ele>986</ele>
        <time>2018-06-03T08:29:13Z</time>
      </trkpt>
      <trkpt lat="45.14154" lon="5.58839">
        <ele>986.4</ele>
        <time>2018-06-03T08:29:17Z</time>
      </trkpt>
      <trkpt lat="45.14163" lon="5.58843">
        <ele>986.9</ele>
        <time>2018-06-03T08:29:20Z</time>
      </trkpt>
      <trkpt lat="45.14174" lon="5.58849">
        <ele>987.4</ele>
        <time>2018-06-03T08:29:24Z</time>
      </trkpt>
      <trkpt lat="45.14184" lon="5.58853">
        <ele>988</ele>
        <time>2018-06-03T08:29:28Z</time>
      </trkpt>
      <trkpt lat="45.14194" lon="5.5886">
        <ele>988.7</ele>
        <time>2018-06-03T08:29:33Z</time>
      </trkpt>
      <trkpt lat="45.14207" lon="5.58866">
        <ele>989</ele>
        <time>2018-06-03T08:29:38Z</time>
      </trkpt>
      <trkpt lat="45.14218" lon="5.58876">
        <ele>990</ele>
        <time>2018-06-03T08:29:43Z</time>
      </trkpt>
      <trkpt lat="45.14229" lon="5.58886">
        <ele>991</ele>
        <time>2018-06-03T08:29:48Z</time>
      </trkpt>
      <trkpt lat="45.14239" lon="5.58894">
        <ele>992.2</ele>
        <time>2018-06-03T08:29:52Z</time>
      </trkpt>
      <trkpt lat="45.14246" lon="5.58904">
        <ele>993</ele>
        <time>2018-06-03T08:29:56Z</time>
      </trkpt>
      <trkpt lat="45.14253" lon="5.58914">
        <ele>993.8</ele>
        <time>2018-06-03T08:30:00Z</time>
      </trkpt>
      <trkpt lat="45.1426" lon="5.58924">
        <ele>994.6</ele>
        <time>2018-06-03T08:30:04Z</time>
      </trkpt>
      <trkpt lat="45.14273" lon="5.58935">
        <ele>995.9</ele>
        <time>2018-06-03T08:30:11Z</time>
      </trkpt>
      <trkpt lat="45.14284" lon="5.58944">
        <ele>996.8</ele>
        <time>2018-06-03T08:30:17Z</time>
      </trkpt>
      <trkpt lat="45.14293" lon="5.58952">
        <ele>997.7</ele>
        <time>2018-06-03T08:30:22Z</time>
      </trkpt>
      <trkpt lat="45.14302" lon="5.58959">
        <ele>998.7</ele>
        <time>2018-06-03T08:30:27Z</time>
      </trkpt>
      <trkpt lat="45.1431" lon="5.58965">
        <ele>999.7</ele>
        <time>2018-06-03T08:30:32Z</time>
      </trkpt>
      <trkpt lat="45.14318" lon="5.58972">
        <ele>1000.4</ele>
        <time>2018-06-03T08:30:37Z</time>
      </trkpt>
      <trkpt lat="45.14327" lon="5.58979">
        <ele>1001.7</ele>
        <time>2018-06-03T08:30:43Z</time>
      </trkpt>
      <trkpt lat="45.14335" lon="5.58985">
        <ele>1003.3</ele>
        <time>2018-06-03T08:30:49Z</time>
      </trkpt>
      <trkpt lat="45.14345" lon="5.5899">
        <ele>1004.5</ele>
        <time>2018-06-03T08:30:55Z</time>
      </trkpt>
      <trkpt lat="45.14354" lon="5.58995">
        <ele>1005.6</ele>
        <time>2018-06-03T08:31:01Z</time>
      </trkpt>
      <trkpt lat="45.14365" lon="5.58999">
        <ele>1006.7</ele>
        <time>2018-06-03T08:31:06Z</time>
      </trkpt>
      <trkpt lat="45.14373" lon="5.59003">
        <ele>1007.5</ele>
        <time>2018-06-03T08:31:11Z</time>
      </trkpt>
      <trkpt lat="45.14382" lon="5.59007">
        <ele>1008.3</ele>
        <time>2018-06-03T08:31:16Z</time>
      </trkpt>
      <trkpt lat="45.14391" lon="5.59011">
        <ele>1009.2</ele>
        <time>2018-06-03T08:31:22Z</time>
      </trkpt>
      <trkpt lat="45.14401" lon="5.59013">
        <ele>1010.2</ele>
        <time>2018-06-03T08:31:28Z</time>
      </trkpt>
      <trkpt lat="45.14411" lon="5.59014">
        <ele>1011.1</ele>
        <time>2018-06-03T08:31:33Z</time>
      </trkpt>
      <trkpt lat="45.14421" lon="5.59016">
        <ele>1012</ele>
        <time>2018-06-03T08:31:38Z</time>
      </trkpt>
      <trkpt lat="45.1443" lon="5.59018">
        <ele>1012.9</ele>
        <time>2018-06-03T08:31:43Z</time>
      </trkpt>
      <trkpt lat="45.14441" lon="5.59021">
        <ele>1013.6</ele>
        <time>2018-06-03T08:31:49Z</time>
      </trkpt>
      <trkpt lat="45.14451" lon="5.59026">
        <ele>1014.3</ele>
        <time>2018-06-03T08:31:54Z</time>
      </trkpt>
      <trkpt lat="45.14461" lon="5.5903">
        <ele>1015.4</ele>
        <time>2018-06-03T08:31:59Z</time>
      </trkpt>
      <trkpt lat="45.14471" lon="5.59038">
        <ele>1016.1</ele>
        <time>2018-06-03T08:32:04Z</time>
      </trkpt>
      <trkpt lat="45.14479" lon="5.59045">
        <ele>1016.9</ele>
        <time>2018-06-03T08:32:09Z</time>
      </trkpt>
      <trkpt lat="45.14487" lon="5.59052">
        <ele>1017.6</ele>
        <time>2018-06-03T08:32:14Z</time>
      </trkpt>
      <trkpt lat="45.14495" lon="5.59059">
        <ele>1018.4</ele>
        <time>2018-06-03T08:32:19Z</time>
      </trkpt>
      <trkpt lat="45.14502" lon="5.59068">
        <ele>1018.9</ele>
        <time>2018-06-03T08:32:24Z</time>
      </trkpt>
      <trkpt lat="45.1451" lon="5.59078">
        <ele>1020</ele>
        <time>2018-06-03T08:32:30Z</time>
      </trkpt>
      <trkpt lat="45.14516" lon="5.59087">
        <ele>1021.2</ele>
        <time>2018-06-03T08:32:35Z</time>
      </trkpt>
      <trkpt lat="45.14523" lon="5.59099">
        <ele>1022.4</ele>
        <time>2018-06-03T08:32:41Z</time>
      </trkpt>
      <trkpt lat="45.14531" lon="5.59109">
        <ele>1023.8</ele>
        <time>2018-06-03T08:32:47Z</time>
      </trkpt>
      <trkpt lat="45.1454" lon="5.59116">
        <ele>1025.2</ele>
        <time>2018-06-03T08:32:53Z</time>
      </trkpt>
      <trkpt lat="45.1455" lon="5.59119">
        <ele>1026.1</ele>
        <time>2018-06-03T08:32:58Z</time>
      </trkpt>
      <trkpt lat="45.1456" lon="5.59121">
        <ele>1026.8</ele>
        <time>2018-06-03T08:33:03Z</time>
      </trkpt>
      <trkpt lat="45.14569" lon="5.59121">
        <ele>1027.2</ele>
        <time>2018-06-03T08:33:07Z</time>
      </trkpt>
      <trkpt lat="45.14579" lon="5.59121">
        <ele>1027.5</ele>
        <time>2018-06-03T08:33:11Z</time>
      </trkpt>
      <trkpt lat="45.14588" lon="5.59124">
        <ele>1028</ele>
        <time>2018-06-03T08:33:15Z</time>
      </trkpt>
      <trkpt lat="45.14596" lon="5.5913">
        <ele>1028.4</ele>
        <time>2018-06-03T08:33:19Z</time>
      </trkpt>
      <trkpt lat="45.14604" lon="5.59138">
        <ele>1029</ele>
        <time>2018-06-03T08:33:23Z</time>
      </trkpt>
      <trkpt lat="45.14611" lon="5.59146">
        <ele>1029.7</ele>
        <time>2018-06-03T08:33:27Z</time>
      </trkpt>
      <trkpt lat="45.14618" lon="5.59154">
        <ele>1030.1</ele>
        <time>2018-06-03T08:33:31Z</time>
      </trkpt>
      <trkpt lat="45.14626" lon="5.59165">
        <ele>1030.7</ele>
        <time>2018-06-03T08:33:36Z</time>
      </trkpt>
      <trkpt lat="45.14634" lon="5.59173">
        <ele>1031.5</ele>
        <time>2018-06-03T08:33:41Z</time>
      </trkpt>
      <trkpt lat="45.14642" lon="5.59179">
        <ele>1032.1</ele>
        <time>2018-06-03T08:33:45Z</time>
      </trkpt>
      <trkpt lat="45.14653" lon="5.59183">
        <ele>1032.7</ele>
        <time>2018-06-03T08:33:49Z</time>
      </trkpt>
      <trkpt lat="45.14662" lon="5.59189">
        <ele>1033.6</ele>
        <time>2018-06-03T08:33:54Z</time>
      </trkpt>
      <trkpt lat="45.14672" lon="5.59196">
        <ele>1034.5</ele>
        <time>2018-06-03T08:33:59Z</time>
      </trkpt>
      <trkpt lat="45.14681" lon="5.59202">
        <ele>1035</ele>
        <time>2018-06-03T08:34:03Z</time>
      </trkpt>
      <trkpt lat="45.14689" lon="5.59208">
        <ele>1035.5</ele>
        <time>2018-06-03T08:34:07Z</time>
      </trkpt>
      <trkpt lat="45.14699" lon="5.59215">
        <ele>1036</ele>
        <time>2018-06-03T08:34:11Z</time>
      </trkpt>
      <trkpt lat="45.14707" lon="5.59221">
        <ele>1036.4</ele>
        <time>2018-06-03T08:34:15Z</time>
      </trkpt>
      <trkpt lat="45.14717" lon="5.59228">
        <ele>1037.1</ele>
        <time>2018-06-03T08:34:20Z</time>
      </trkpt>
      <trkpt lat="45.14725" lon="5.59235">
        <ele>1038</ele>
        <time>2018-06-03T08:34:24Z</time>
      </trkpt>
      <trkpt lat="45.14734" lon="5.59242">
        <ele>1038.6</ele>
        <time>2018-06-03T08:34:28Z</time>
      </trkpt>
      <trkpt lat="45.14743" lon="5.5925">
        <ele>1039.1</ele>
        <time>2018-06-03T08:34:32Z</time>
      </trkpt>
      <trkpt lat="45.14751" lon="5.59258">
        <ele>1039.2</ele>
        <time>2018-06-03T08:34:36Z</time>
      </trkpt>
      <trkpt lat="45.14759" lon="5.59265">
        <ele>1039.6</ele>
        <time>2018-06-03T08:34:40Z</time>
      </trkpt>
      <trkpt lat="45.14767" lon="5.59273">
        <ele>1040.1</ele>
        <time>2018-06-03T08:34:44Z</time>
      </trkpt>
      <trkpt lat="45.14776" lon="5.59282">
        <ele>1040.8</ele>
        <time>2018-06-03T08:34:49Z</time>
      </trkpt>
      <trkpt lat="45.14785" lon="5.59291">
        <ele>1041.5</ele>
        <time>2018-06-03T08:34:54Z</time>
      </trkpt>
      <trkpt lat="45.14794" lon="5.59299">
        <ele>1042.1</ele>
        <time>2018-06-03T08:34:59Z</time>
      </trkpt>
      <trkpt lat="45.14802" lon="5.59307">
        <ele>1042.6</ele>
        <time>2018-06-03T08:35:03Z</time>
      </trkpt>
      <trkpt lat="45.14811" lon="5.59315">
        <ele>1043.1</ele>
        <time>2018-06-03T08:35:08Z</time>
      </trkpt>
      <trkpt lat="45.14821" lon="5.59324">
        <ele>1043.8</ele>
        <time>2018-06-03T08:35:13Z</time>
      </trkpt>
      <trkpt lat="45.14829" lon="5.59332">
        <ele>1044.2</ele>
        <time>2018-06-03T08:35:17Z</time>
      </trkpt>
      <trkpt lat="45.14836" lon="5.59341">
        <ele>1044.6</ele>
        <time>2018-06-03T08:35:21Z</time>
      </trkpt>
      <trkpt lat="45.14844" lon="5.59351">
        <ele>1045.2</ele>
        <time>2018-06-03T08:35:26Z</time>
      </trkpt>
      <trkpt lat="45.14852" lon="5.59363">
        <ele>1046</ele>
        <time>2018-06-03T08:35:31Z</time>
      </trkpt>
      <trkpt lat="45.14861" lon="5.59369">
        <ele>1046.4</ele>
        <time>2018-06-03T08:35:34Z</time>
      </trkpt>
      <trkpt lat="45.14868" lon="5.59381">
        <ele>1047</ele>
        <time>2018-06-03T08:35:39Z</time>
      </trkpt>
      <trkpt lat="45.14874" lon="5.59391">
        <ele>1047.6</ele>
        <time>2018-06-03T08:35:43Z</time>
      </trkpt>
      <trkpt lat="45.14881" lon="5.594">
        <ele>1048.1</ele>
        <time>2018-06-03T08:35:47Z</time>
      </trkpt>
      <trkpt lat="45.14889" lon="5.5941">
        <ele>1048.7</ele>
        <time>2018-06-03T08:35:52Z</time>
      </trkpt>
      <trkpt lat="45.14896" lon="5.5942">
        <ele>1049.2</ele>
        <time>2018-06-03T08:35:56Z</time>
      </trkpt>
      <trkpt lat="45.14903" lon="5.5943">
        <ele>1049.6</ele>
        <time>2018-06-03T08:36:00Z</time>
      </trkpt>
      <trkpt lat="45.14911" lon="5.59439">
        <ele>1050</ele>
        <time>2018-06-03T08:36:04Z</time>
      </trkpt>
      <trkpt lat="45.14919" lon="5.59447">
        <ele>1050.4</ele>
        <time>2018-06-03T08:36:08Z</time>
      </trkpt>
      <trkpt lat="45.1493" lon="5.59453">
        <ele>1050.7</ele>
        <time>2018-06-03T08:36:12Z</time>
      </trkpt>
      <trkpt lat="45.14941" lon="5.59461">
        <ele>1050.8</ele>
        <time>2018-06-03T08:36:16Z</time>
      </trkpt>
      <trkpt lat="45.14952" lon="5.59468">
        <ele>1050.7</ele>
        <time>2018-06-03T08:36:20Z</time>
      </trkpt>
      <trkpt lat="45.14962" lon="5.59472">
        <ele>1050.6</ele>
        <time>2018-06-03T08:36:23Z</time>
      </trkpt>
      <trkpt lat="45.14971" lon="5.59474">
        <ele>1050.6</ele>
        <time>2018-06-03T08:36:26Z</time>
      </trkpt>
      <trkpt lat="45.14981" lon="5.59474">
        <ele>1050.6</ele>
        <time>2018-06-03T08:36:29Z</time>
      </trkpt>
      <trkpt lat="45.14992" lon="5.59472">
        <ele>1050.9</ele>
        <time>2018-06-03T08:36:33Z</time>
      </trkpt>
      <trkpt lat="45.15001" lon="5.5947">
        <ele>1051.8</ele>
        <time>2018-06-03T08:36:37Z</time>
      </trkpt>
      <trkpt lat="45.15012" lon="5.59467">
        <ele>1052.5</ele>
        <time>2018-06-03T08:36:42Z</time>
      </trkpt>
      <trkpt lat="45.15022" lon="5.59465">
        <ele>1053.6</ele>
        <time>2018-06-03T08:36:47Z</time>
      </trkpt>
      <trkpt lat="45.15032" lon="5.59463">
        <ele>1054.4</ele>
        <time>2018-06-03T08:36:52Z</time>
      </trkpt>
      <trkpt lat="45.15042" lon="5.5946">
        <ele>1055.3</ele>
        <time>2018-06-03T08:36:57Z</time>
      </trkpt>
      <trkpt lat="45.15052" lon="5.59457">
        <ele>1056.2</ele>
        <time>2018-06-03T08:37:02Z</time>
      </trkpt>
      <trkpt lat="45.15063" lon="5.59457">
        <ele>1057.3</ele>
        <time>2018-06-03T08:37:07Z</time>
      </trkpt>
      <trkpt lat="45.15073" lon="5.59459">
        <ele>1058.3</ele>
        <time>2018-06-03T08:37:12Z</time>
      </trkpt>
      <trkpt lat="45.15082" lon="5.59466">
        <ele>1059</ele>
        <time>2018-06-03T08:37:17Z</time>
      </trkpt>
      <trkpt lat="45.15091" lon="5.59475">
        <ele>1060.2</ele>
        <time>2018-06-03T08:37:22Z</time>
      </trkpt>
      <trkpt lat="45.15098" lon="5.59483">
        <ele>1061.2</ele>
        <time>2018-06-03T08:37:27Z</time>
      </trkpt>
      <trkpt lat="45.15106" lon="5.59491">
        <ele>1062.4</ele>
        <time>2018-06-03T08:37:32Z</time>
      </trkpt>
      <trkpt lat="45.15114" lon="5.59501">
        <ele>1063.2</ele>
        <time>2018-06-03T08:37:38Z</time>
      </trkpt>
      <trkpt lat="45.15122" lon="5.59508">
        <ele>1064.1</ele>
        <time>2018-06-03T08:37:44Z</time>
      </trkpt>
      <trkpt lat="45.15131" lon="5.59514">
        <ele>1064.8</ele>
        <time>2018-06-03T08:37:49Z</time>
      </trkpt>
      <trkpt lat="45.15141" lon="5.59519">
        <ele>1065.7</ele>
        <time>2018-06-03T08:37:54Z</time>
      </trkpt>
      <trkpt lat="45.1515" lon="5.59524">
        <ele>1066.8</ele>
        <time>2018-06-03T08:37:59Z</time>
      </trkpt>
      <trkpt lat="45.15159" lon="5.59528">
        <ele>1067.5</ele>
        <time>2018-06-03T08:38:04Z</time>
      </trkpt>
      <trkpt lat="45.15168" lon="5.59531">
        <ele>1068.1</ele>
        <time>2018-06-03T08:38:08Z</time>
      </trkpt>
      <trkpt lat="45.15177" lon="5.59535">
        <ele>1068.9</ele>
        <time>2018-06-03T08:38:13Z</time>
      </trkpt>
      <trkpt lat="45.15186" lon="5.59539">
        <ele>1069.8</ele>
        <time>2018-06-03T08:38:18Z</time>
      </trkpt>
      <trkpt lat="45.15195" lon="5.59542">
        <ele>1070.9</ele>
        <time>2018-06-03T08:38:23Z</time>
      </trkpt>
      <trkpt lat="45.15205" lon="5.59545">
        <ele>1071.8</ele>
        <time>2018-06-03T08:38:28Z</time>
      </trkpt>
      <trkpt lat="45.15215" lon="5.59546">
        <ele>1072.8</ele>
        <time>2018-06-03T08:38:33Z</time>
      </trkpt>
      <trkpt lat="45.15224" lon="5.59545">
        <ele>1073.9</ele>
        <time>2018-06-03T08:38:38Z</time>
      </trkpt>
      <trkpt lat="45.15233" lon="5.59544">
        <ele>1074.6</ele>
        <time>2018-06-03T08:38:43Z</time>
      </trkpt>
      <trkpt lat="45.15243" lon="5.59546">
        <ele>1075.5</ele>
        <time>2018-06-03T08:38:48Z</time>
      </trkpt>
      <trkpt lat="45.15251" lon="5.59555">
        <ele>1076.4</ele>
        <time>2018-06-03T08:38:53Z</time>
      </trkpt>
      <trkpt lat="45.15254" lon="5.59567">
        <ele>1077.1</ele>
        <time>2018-06-03T08:38:58Z</time>
      </trkpt>
      <trkpt lat="45.15258" lon="5.5958">
        <ele>1078.1</ele>
        <time>2018-06-03T08:39:03Z</time>
      </trkpt>
      <trkpt lat="45.15264" lon="5.59592">
        <ele>1078.8</ele>
        <time>2018-06-03T08:39:08Z</time>
      </trkpt>
      <trkpt lat="45.1527" lon="5.59603">
        <ele>1079.5</ele>
        <time>2018-06-03T08:39:13Z</time>
      </trkpt>
      <trkpt lat="45.15277" lon="5.59613">
        <ele>1080.3</ele>
        <time>2018-06-03T08:39:18Z</time>
      </trkpt>
      <trkpt lat="45.15283" lon="5.59622">
        <ele>1081</ele>
        <time>2018-06-03T08:39:23Z</time>
      </trkpt>
      <trkpt lat="45.15292" lon="5.59631">
        <ele>1081.8</ele>
        <time>2018-06-03T08:39:29Z</time>
      </trkpt>
      <trkpt lat="45.15301" lon="5.59639">
        <ele>1082.6</ele>
        <time>2018-06-03T08:39:34Z</time>
      </trkpt>
      <trkpt lat="45.15309" lon="5.59646">
        <ele>1083.4</ele>
        <time>2018-06-03T08:39:39Z</time>
      </trkpt>
      <trkpt lat="45.15317" lon="5.5965">
        <ele>1084.2</ele>
        <time>2018-06-03T08:39:44Z</time>
      </trkpt>
      <trkpt lat="45.15326" lon="5.59656">
        <ele>1085</ele>
        <time>2018-06-03T08:39:49Z</time>
      </trkpt>
      <trkpt lat="45.15334" lon="5.59661">
        <ele>1085.8</ele>
        <time>2018-06-03T08:39:54Z</time>
      </trkpt>
      <trkpt lat="45.15344" lon="5.59667">
        <ele>1086.9</ele>
        <time>2018-06-03T08:40:00Z</time>
      </trkpt>
      <trkpt lat="45.15353" lon="5.59671">
        <ele>1088</ele>
        <time>2018-06-03T08:40:05Z</time>
      </trkpt>
      <trkpt lat="45.15362" lon="5.59676">
        <ele>1088.6</ele>
        <time>2018-06-03T08:40:10Z</time>
      </trkpt>
      <trkpt lat="45.1537" lon="5.59681">
        <ele>1089.2</ele>
        <time>2018-06-03T08:40:15Z</time>
      </trkpt>
      <trkpt lat="45.1538" lon="5.59685">
        <ele>1090.2</ele>
        <time>2018-06-03T08:40:20Z</time>
      </trkpt>
      <trkpt lat="45.15389" lon="5.5969">
        <ele>1091.6</ele>
        <time>2018-06-03T08:40:26Z</time>
      </trkpt>
      <trkpt lat="45.15398" lon="5.59695">
        <ele>1092.4</ele>
        <time>2018-06-03T08:40:31Z</time>
      </trkpt>
      <trkpt lat="45.15408" lon="5.59697">
        <ele>1093.3</ele>
        <time>2018-06-03T08:40:36Z</time>
      </trkpt>
      <trkpt lat="45.15417" lon="5.59696">
        <ele>1094.2</ele>
        <time>2018-06-03T08:40:41Z</time>
      </trkpt>
      <trkpt lat="45.15425" lon="5.5969">
        <ele>1094.8</ele>
        <time>2018-06-03T08:40:45Z</time>
      </trkpt>
      <trkpt lat="45.15433" lon="5.59683">
        <ele>1095.5</ele>
        <time>2018-06-03T08:40:50Z</time>
      </trkpt>
      <trkpt lat="45.15444" lon="5.59677">
        <ele>1095.5</ele>
        <time>2018-06-03T08:40:55Z</time>
      </trkpt>
      <trkpt lat="45.15453" lon="5.59672">
        <ele>1094.9</ele>
        <time>2018-06-03T08:41:02Z</time>
      </trkpt>
      <trkpt lat="45.15464" lon="5.59677">
        <ele>1094.8</ele>
        <time>2018-06-03T08:41:06Z</time>
      </trkpt>
      <trkpt lat="45.15466" lon="5.59691">
        <ele>1095.1</ele>
        <time>2018-06-03T08:41:11Z</time>
      </trkpt>
      <trkpt lat="45.15463" lon="5.59705">
        <ele>1095.9</ele>
        <time>2018-06-03T08:41:16Z</time>
      </trkpt>
      <trkpt lat="45.15471" lon="5.59715">
        <ele>1096.5</ele>
        <time>2018-06-03T08:41:20Z</time>
      </trkpt>
      <trkpt lat="45.15471" lon="5.59728">
        <ele>1097.5</ele>
        <time>2018-06-03T08:41:25Z</time>
      </trkpt>
      <trkpt lat="45.1547" lon="5.59743">
        <ele>1098.9</ele>
        <time>2018-06-03T08:41:30Z</time>
      </trkpt>
      <trkpt lat="45.1547" lon="5.59757">
        <ele>1100</ele>
        <time>2018-06-03T08:41:35Z</time>
      </trkpt>
      <trkpt lat="45.15475" lon="5.5977">
        <ele>1101</ele>
        <time>2018-06-03T08:41:40Z</time>
      </trkpt>
      <trkpt lat="45.15479" lon="5.59782">
        <ele>1101.9</ele>
        <time>2018-06-03T08:41:45Z</time>
      </trkpt>
      <trkpt lat="45.15484" lon="5.59793">
        <ele>1102.7</ele>
        <time>2018-06-03T08:41:51Z</time>
      </trkpt>
      <trkpt lat="45.15491" lon="5.59803">
        <ele>1104.2</ele>
        <time>2018-06-03T08:41:59Z</time>
      </trkpt>
      <trkpt lat="45.15501" lon="5.59811">
        <ele>1105.5</ele>
        <time>2018-06-03T08:42:07Z</time>
      </trkpt>
      <trkpt lat="45.15509" lon="5.59818">
        <ele>1106.6</ele>
        <time>2018-06-03T08:42:12Z</time>
      </trkpt>
      <trkpt lat="45.1552" lon="5.59822">
        <ele>1107.6</ele>
        <time>2018-06-03T08:42:18Z</time>
      </trkpt>
      <trkpt lat="45.15527" lon="5.5981">
        <ele>1108.9</ele>
        <time>2018-06-03T08:42:24Z</time>
      </trkpt>
      <trkpt lat="45.15527" lon="5.59796">
        <ele>1109.7</ele>
        <time>2018-06-03T08:42:31Z</time>
      </trkpt>
      <trkpt lat="45.15523" lon="5.59783">
        <ele>1110.6</ele>
        <time>2018-06-03T08:42:38Z</time>
      </trkpt>
      <trkpt lat="45.15521" lon="5.59768">
        <ele>1111.7</ele>
        <time>2018-06-03T08:42:44Z</time>
      </trkpt>
      <trkpt lat="45.15521" lon="5.59753">
        <ele>1112.6</ele>
        <time>2018-06-03T08:42:50Z</time>
      </trkpt>
      <trkpt lat="45.1552" lon="5.5974">
        <ele>1113.4</ele>
        <time>2018-06-03T08:42:55Z</time>
      </trkpt>
      <trkpt lat="45.15522" lon="5.59727">
        <ele>1114.4</ele>
        <time>2018-06-03T08:43:00Z</time>
      </trkpt>
      <trkpt lat="45.15528" lon="5.59716">
        <ele>1115.4</ele>
        <time>2018-06-03T08:43:05Z</time>
      </trkpt>
      <trkpt lat="45.15536" lon="5.59722">
        <ele>1116.7</ele>
        <time>2018-06-03T08:43:11Z</time>
      </trkpt>
      <trkpt lat="45.15538" lon="5.59735">
        <ele>1117.9</ele>
        <time>2018-06-03T08:43:17Z</time>
      </trkpt>
      <trkpt lat="45.15542" lon="5.59748">
        <ele>1119</ele>
        <time>2018-06-03T08:43:23Z</time>
      </trkpt>
      <trkpt lat="45.15549" lon="5.59758">
        <ele>1120.1</ele>
        <time>2018-06-03T08:43:29Z</time>
      </trkpt>
      <trkpt lat="45.15557" lon="5.59766">
        <ele>1121.2</ele>
        <time>2018-06-03T08:43:36Z</time>
      </trkpt>
      <trkpt lat="45.15567" lon="5.59771">
        <ele>1122.3</ele>
        <time>2018-06-03T08:43:44Z</time>
      </trkpt>
      <trkpt lat="45.15576" lon="5.59773">
        <ele>1123.9</ele>
        <time>2018-06-03T08:43:52Z</time>
      </trkpt>
      <trkpt lat="45.15586" lon="5.59773">
        <ele>1125</ele>
        <time>2018-06-03T08:43:59Z</time>
      </trkpt>
      <trkpt lat="45.15595" lon="5.59771">
        <ele>1125.5</ele>
        <time>2018-06-03T08:44:02Z</time>
      </trkpt>
      <trkpt lat="45.15604" lon="5.59767">
        <ele>1126.2</ele>
        <time>2018-06-03T08:44:05Z</time>
      </trkpt>
      <trkpt lat="45.15613" lon="5.59759">
        <ele>1127.2</ele>
        <time>2018-06-03T08:44:10Z</time>
      </trkpt>
      <trkpt lat="45.1562" lon="5.59751">
        <ele>1127.9</ele>
        <time>2018-06-03T08:44:16Z</time>
      </trkpt>
      <trkpt lat="45.15628" lon="5.59745">
        <ele>1129.1</ele>
        <time>2018-06-03T08:44:22Z</time>
      </trkpt>
      <trkpt lat="45.15638" lon="5.59744">
        <ele>1130.1</ele>
        <time>2018-06-03T08:44:28Z</time>
      </trkpt>
      <trkpt lat="45.15648" lon="5.59746">
        <ele>1131.7</ele>
        <time>2018-06-03T08:44:36Z</time>
      </trkpt>
      <trkpt lat="45.15657" lon="5.5975">
        <ele>1132.7</ele>
        <time>2018-06-03T08:44:41Z</time>
      </trkpt>
      <trkpt lat="45.15666" lon="5.59755">
        <ele>1133.6</ele>
        <time>2018-06-03T08:44:46Z</time>
      </trkpt>
      <trkpt lat="45.15677" lon="5.59762">
        <ele>1135.1</ele>
        <time>2018-06-03T08:44:53Z</time>
      </trkpt>
      <trkpt lat="45.15684" lon="5.5977">
        <ele>1136</ele>
        <time>2018-06-03T08:44:58Z</time>
      </trkpt>
      <trkpt lat="45.15694" lon="5.59776">
        <ele>1136.6</ele>
        <time>2018-06-03T08:45:01Z</time>
      </trkpt>
      <trkpt lat="45.157" lon="5.59786">
        <ele>1137.8</ele>
        <time>2018-06-03T08:45:07Z</time>
      </trkpt>
      <trkpt lat="45.15701" lon="5.598">
        <ele>1139.2</ele>
        <time>2018-06-03T08:45:13Z</time>
      </trkpt>
      <trkpt lat="45.15693" lon="5.59807">
        <ele>1140.9</ele>
        <time>2018-06-03T08:45:22Z</time>
      </trkpt>
      <trkpt lat="45.15682" lon="5.59811">
        <ele>1141.9</ele>
        <time>2018-06-03T08:45:29Z</time>
      </trkpt>
      <trkpt lat="45.15681" lon="5.59825">
        <ele>1142.7</ele>
        <time>2018-06-03T08:45:35Z</time>
      </trkpt>
      <trkpt lat="45.15687" lon="5.59835">
        <ele>1143.7</ele>
        <time>2018-06-03T08:45:41Z</time>
      </trkpt>
      <trkpt lat="45.15695" lon="5.59843">
        <ele>1145</ele>
        <time>2018-06-03T08:45:48Z</time>
      </trkpt>
      <trkpt lat="45.15702" lon="5.59851">
        <ele>1146.1</ele>
        <time>2018-06-03T08:45:55Z</time>
      </trkpt>
      <trkpt lat="45.1571" lon="5.59858">
        <ele>1146.9</ele>
        <time>2018-06-03T08:46:00Z</time>
      </trkpt>
      <trkpt lat="45.15718" lon="5.59866">
        <ele>1147.9</ele>
        <time>2018-06-03T08:46:06Z</time>
      </trkpt>
      <trkpt lat="45.15726" lon="5.59873">
        <ele>1148.7</ele>
        <time>2018-06-03T08:46:11Z</time>
      </trkpt>
      <trkpt lat="45.15734" lon="5.59881">
        <ele>1150</ele>
        <time>2018-06-03T08:46:17Z</time>
      </trkpt>
      <trkpt lat="45.15742" lon="5.59889">
        <ele>1151.2</ele>
        <time>2018-06-03T08:46:23Z</time>
      </trkpt>
      <trkpt lat="45.15751" lon="5.59896">
        <ele>1152.5</ele>
        <time>2018-06-03T08:46:30Z</time>
      </trkpt>
      <trkpt lat="45.1576" lon="5.599">
        <ele>1153.7</ele>
        <time>2018-06-03T08:46:36Z</time>
      </trkpt>
      <trkpt lat="45.15769" lon="5.59905">
        <ele>1154.8</ele>
        <time>2018-06-03T08:46:42Z</time>
      </trkpt>
      <trkpt lat="45.15777" lon="5.59909">
        <ele>1156.1</ele>
        <time>2018-06-03T08:46:50Z</time>
      </trkpt>
      <trkpt lat="45.15787" lon="5.59914">
        <ele>1157</ele>
        <time>2018-06-03T08:46:56Z</time>
      </trkpt>
      <trkpt lat="45.15796" lon="5.5992">
        <ele>1158</ele>
        <time>2018-06-03T08:47:02Z</time>
      </trkpt>
      <trkpt lat="45.15805" lon="5.59925">
        <ele>1159.2</ele>
        <time>2018-06-03T08:47:09Z</time>
      </trkpt>
      <trkpt lat="45.15813" lon="5.5993">
        <ele>1159.9</ele>
        <time>2018-06-03T08:47:14Z</time>
      </trkpt>
      <trkpt lat="45.15822" lon="5.59936">
        <ele>1160.6</ele>
        <time>2018-06-03T08:47:19Z</time>
      </trkpt>
      <trkpt lat="45.15832" lon="5.59941">
        <ele>1161.7</ele>
        <time>2018-06-03T08:47:27Z</time>
      </trkpt>
      <trkpt lat="45.1584" lon="5.59945">
        <ele>1162.6</ele>
        <time>2018-06-03T08:47:32Z</time>
      </trkpt>
      <trkpt lat="45.15851" lon="5.5995">
        <ele>1163.4</ele>
        <time>2018-06-03T08:47:38Z</time>
      </trkpt>
      <trkpt lat="45.15859" lon="5.59953">
        <ele>1164.3</ele>
        <time>2018-06-03T08:47:43Z</time>
      </trkpt>
      <trkpt lat="45.15869" lon="5.59956">
        <ele>1165.6</ele>
        <time>2018-06-03T08:47:49Z</time>
      </trkpt>
      <trkpt lat="45.1588" lon="5.59958">
        <ele>1167.1</ele>
        <time>2018-06-03T08:47:55Z</time>
      </trkpt>
      <trkpt lat="45.1589" lon="5.59961">
        <ele>1168.5</ele>
        <time>2018-06-03T08:48:01Z</time>
      </trkpt>
      <trkpt lat="45.159" lon="5.59964">
        <ele>1169.9</ele>
        <time>2018-06-03T08:48:07Z</time>
      </trkpt>
      <trkpt lat="45.1591" lon="5.59967">
        <ele>1171.1</ele>
        <time>2018-06-03T08:48:13Z</time>
      </trkpt>
      <trkpt lat="45.15919" lon="5.59969">
        <ele>1172.2</ele>
        <time>2018-06-03T08:48:19Z</time>
      </trkpt>
      <trkpt lat="45.15929" lon="5.59971">
        <ele>1173.5</ele>
        <time>2018-06-03T08:48:25Z</time>
      </trkpt>
      <trkpt lat="45.15938" lon="5.59973">
        <ele>1174.5</ele>
        <time>2018-06-03T08:48:31Z</time>
      </trkpt>
      <trkpt lat="45.15948" lon="5.59975">
        <ele>1175.9</ele>
        <time>2018-06-03T08:48:37Z</time>
      </trkpt>
      <trkpt lat="45.15958" lon="5.59976">
        <ele>1176.9</ele>
        <time>2018-06-03T08:48:43Z</time>
      </trkpt>
      <trkpt lat="45.15967" lon="5.59977">
        <ele>1178</ele>
        <time>2018-06-03T08:48:49Z</time>
      </trkpt>
      <trkpt lat="45.15977" lon="5.59979">
        <ele>1179</ele>
        <time>2018-06-03T08:48:55Z</time>
      </trkpt>
      <trkpt lat="45.15985" lon="5.59984">
        <ele>1180.2</ele>
        <time>2018-06-03T08:49:01Z</time>
      </trkpt>
      <trkpt lat="45.15992" lon="5.59993">
        <ele>1181</ele>
        <time>2018-06-03T08:49:06Z</time>
      </trkpt>
      <trkpt lat="45.16001" lon="5.60002">
        <ele>1182.2</ele>
        <time>2018-06-03T08:49:12Z</time>
      </trkpt>
      <trkpt lat="45.16009" lon="5.6001">
        <ele>1183</ele>
        <time>2018-06-03T08:49:17Z</time>
      </trkpt>
      <trkpt lat="45.16019" lon="5.60015">
        <ele>1183.9</ele>
        <time>2018-06-03T08:49:23Z</time>
      </trkpt>
      <trkpt lat="45.16029" lon="5.60017">
        <ele>1184.8</ele>
        <time>2018-06-03T08:49:29Z</time>
      </trkpt>
      <trkpt lat="45.16038" lon="5.60016">
        <ele>1185.3</ele>
        <time>2018-06-03T08:49:34Z</time>
      </trkpt>
      <trkpt lat="45.16047" lon="5.60009">
        <ele>1186.1</ele>
        <time>2018-06-03T08:49:40Z</time>
      </trkpt>
      <trkpt lat="45.16055" lon="5.60002">
        <ele>1187.1</ele>
        <time>2018-06-03T08:49:46Z</time>
      </trkpt>
      <trkpt lat="45.16063" lon="5.59994">
        <ele>1188</ele>
        <time>2018-06-03T08:49:52Z</time>
      </trkpt>
      <trkpt lat="45.16072" lon="5.59986">
        <ele>1189.3</ele>
        <time>2018-06-03T08:49:59Z</time>
      </trkpt>
      <trkpt lat="45.16078" lon="5.59977">
        <ele>1190.7</ele>
        <time>2018-06-03T08:50:05Z</time>
      </trkpt>
      <trkpt lat="45.16083" lon="5.59966">
        <ele>1192.3</ele>
        <time>2018-06-03T08:50:12Z</time>
      </trkpt>
      <trkpt lat="45.16087" lon="5.59953">
        <ele>1194</ele>
        <time>2018-06-03T08:50:19Z</time>
      </trkpt>
      <trkpt lat="45.16091" lon="5.59941">
        <ele>1195.8</ele>
        <time>2018-06-03T08:50:26Z</time>
      </trkpt>
      <trkpt lat="45.16096" lon="5.59928">
        <ele>1197.2</ele>
        <time>2018-06-03T08:50:33Z</time>
      </trkpt>
      <trkpt lat="45.16102" lon="5.59917">
        <ele>1198.8</ele>
        <time>2018-06-03T08:50:40Z</time>
      </trkpt>
      <trkpt lat="45.1611" lon="5.59911">
        <ele>1199.9</ele>
        <time>2018-06-03T08:50:47Z</time>
      </trkpt>
      <trkpt lat="45.1612" lon="5.59908">
        <ele>1201.2</ele>
        <time>2018-06-03T08:50:54Z</time>
      </trkpt>
      <trkpt lat="45.16129" lon="5.59904">
        <ele>1202.2</ele>
        <time>2018-06-03T08:51:00Z</time>
      </trkpt>
      <trkpt lat="45.16138" lon="5.599">
        <ele>1203.1</ele>
        <time>2018-06-03T08:51:06Z</time>
      </trkpt>
      <trkpt lat="45.16147" lon="5.59895">
        <ele>1203.9</ele>
        <time>2018-06-03T08:51:12Z</time>
      </trkpt>
      <trkpt lat="45.16156" lon="5.5989">
        <ele>1204.9</ele>
        <time>2018-06-03T08:51:18Z</time>
      </trkpt>
      <trkpt lat="45.16164" lon="5.59884">
        <ele>1205.5</ele>
        <time>2018-06-03T08:51:24Z</time>
      </trkpt>
      <trkpt lat="45.16171" lon="5.59875">
        <ele>1206.3</ele>
        <time>2018-06-03T08:51:30Z</time>
      </trkpt>
      <trkpt lat="45.16171" lon="5.5986">
        <ele>1207.6</ele>
        <time>2018-06-03T08:51:37Z</time>
      </trkpt>
      <trkpt lat="45.16168" lon="5.59847">
        <ele>1209.2</ele>
        <time>2018-06-03T08:51:44Z</time>
      </trkpt>
      <trkpt lat="45.16165" lon="5.59834">
        <ele>1210.7</ele>
        <time>2018-06-03T08:51:51Z</time>
      </trkpt>
      <trkpt lat="45.16165" lon="5.5982">
        <ele>1211.6</ele>
        <time>2018-06-03T08:51:57Z</time>
      </trkpt>
      <trkpt lat="45.16167" lon="5.59806">
        <ele>1213.1</ele>
        <time>2018-06-03T08:52:04Z</time>
      </trkpt>
      <trkpt lat="45.16169" lon="5.59792">
        <ele>1214.9</ele>
        <time>2018-06-03T08:52:11Z</time>
      </trkpt>
      <trkpt lat="45.16173" lon="5.5978">
        <ele>1216</ele>
        <time>2018-06-03T08:52:17Z</time>
      </trkpt>
      <trkpt lat="45.1618" lon="5.59772">
        <ele>1217.4</ele>
        <time>2018-06-03T08:52:23Z</time>
      </trkpt>
      <trkpt lat="45.1619" lon="5.59767">
        <ele>1219.2</ele>
        <time>2018-06-03T08:52:30Z</time>
      </trkpt>
      <trkpt lat="45.162" lon="5.59768">
        <ele>1220.7</ele>
        <time>2018-06-03T08:52:37Z</time>
      </trkpt>
      <trkpt lat="45.16209" lon="5.59766">
        <ele>1221.6</ele>
        <time>2018-06-03T08:52:43Z</time>
      </trkpt>
      <trkpt lat="45.16219" lon="5.59762">
        <ele>1222.8</ele>
        <time>2018-06-03T08:52:50Z</time>
      </trkpt>
      <trkpt lat="45.16227" lon="5.59755">
        <ele>1223.9</ele>
        <time>2018-06-03T08:52:56Z</time>
      </trkpt>
      <trkpt lat="45.16234" lon="5.59747">
        <ele>1225.3</ele>
        <time>2018-06-03T08:53:05Z</time>
      </trkpt>
      <trkpt lat="45.16242" lon="5.59741">
        <ele>1226</ele>
        <time>2018-06-03T08:58:50Z</time>
      </trkpt>
      <trkpt lat="45.1625" lon="5.59733">
        <ele>1226.8</ele>
        <time>2018-06-03T08:58:58Z</time>
      </trkpt>
      <trkpt lat="45.16258" lon="5.59724">
        <ele>1227.7</ele>
        <time>2018-06-03T08:59:06Z</time>
      </trkpt>
      <trkpt lat="45.16265" lon="5.59717">
        <ele>1229</ele>
        <time>2018-06-03T08:59:13Z</time>
      </trkpt>
      <trkpt lat="45.16274" lon="5.59711">
        <ele>1229.8</ele>
        <time>2018-06-03T08:59:20Z</time>
      </trkpt>
      <trkpt lat="45.16283" lon="5.59713">
        <ele>1230.8</ele>
        <time>2018-06-03T08:59:28Z</time>
      </trkpt>
      <trkpt lat="45.16291" lon="5.59723">
        <ele>1232</ele>
        <time>2018-06-03T08:59:35Z</time>
      </trkpt>
      <trkpt lat="45.16299" lon="5.5973">
        <ele>1233.1</ele>
        <time>2018-06-03T08:59:42Z</time>
      </trkpt>
      <trkpt lat="45.16308" lon="5.59734">
        <ele>1234.7</ele>
        <time>2018-06-03T08:59:49Z</time>
      </trkpt>
      <trkpt lat="45.16318" lon="5.59739">
        <ele>1236.1</ele>
        <time>2018-06-03T08:59:56Z</time>
      </trkpt>
      <trkpt lat="45.16328" lon="5.59743">
        <ele>1237.9</ele>
        <time>2018-06-03T09:00:04Z</time>
      </trkpt>
      <trkpt lat="45.16337" lon="5.59744">
        <ele>1239.6</ele>
        <time>2018-06-03T09:00:12Z</time>
      </trkpt>
      <trkpt lat="45.16347" lon="5.59745">
        <ele>1241.5</ele>
        <time>2018-06-03T09:00:20Z</time>
      </trkpt>
      <trkpt lat="45.16356" lon="5.59746">
        <ele>1243</ele>
        <time>2018-06-03T09:00:27Z</time>
      </trkpt>
      <trkpt lat="45.16366" lon="5.59746">
        <ele>1244.5</ele>
        <time>2018-06-03T09:00:35Z</time>
      </trkpt>
      <trkpt lat="45.16375" lon="5.59743">
        <ele>1245.8</ele>
        <time>2018-06-03T09:00:42Z</time>
      </trkpt>
      <trkpt lat="45.16382" lon="5.59735">
        <ele>1247.1</ele>
        <time>2018-06-03T09:00:49Z</time>
      </trkpt>
      <trkpt lat="45.16382" lon="5.59722">
        <ele>1248.7</ele>
        <time>2018-06-03T09:00:59Z</time>
      </trkpt>
      <trkpt lat="45.16375" lon="5.59714">
        <ele>1250</ele>
        <time>2018-06-03T09:01:13Z</time>
      </trkpt>
      <trkpt lat="45.16369" lon="5.59703">
        <ele>1251.1</ele>
        <time>2018-06-03T09:01:26Z</time>
      </trkpt>
      <trkpt lat="45.16365" lon="5.59691">
        <ele>1252.1</ele>
        <time>2018-06-03T09:01:44Z</time>
      </trkpt>
      <trkpt lat="45.1636" lon="5.5968">
        <ele>1253.1</ele>
        <time>2018-06-03T09:01:51Z</time>
      </trkpt>
      <trkpt lat="45.16355" lon="5.59669">
        <ele>1254.1</ele>
        <time>2018-06-03T09:01:58Z</time>
      </trkpt>
      <trkpt lat="45.16349" lon="5.59658">
        <ele>1255</ele>
        <time>2018-06-03T09:02:06Z</time>
      </trkpt>
      <trkpt lat="45.16343" lon="5.59646">
        <ele>1256.4</ele>
        <time>2018-06-03T09:02:14Z</time>
      </trkpt>
      <trkpt lat="45.16337" lon="5.59636">
        <ele>1257.5</ele>
        <time>2018-06-03T09:02:21Z</time>
      </trkpt>
      <trkpt lat="45.1633" lon="5.59627">
        <ele>1258.5</ele>
        <time>2018-06-03T09:02:28Z</time>
      </trkpt>
      <trkpt lat="45.16323" lon="5.59617">
        <ele>1259.7</ele>
        <time>2018-06-03T09:02:35Z</time>
      </trkpt>
      <trkpt lat="45.16316" lon="5.59606">
        <ele>1260.7</ele>
        <time>2018-06-03T09:02:42Z</time>
      </trkpt>
      <trkpt lat="45.16309" lon="5.59597">
        <ele>1262</ele>
        <time>2018-06-03T09:02:49Z</time>
      </trkpt>
      <trkpt lat="45.16301" lon="5.59587">
        <ele>1263.1</ele>
        <time>2018-06-03T09:02:56Z</time>
      </trkpt>
      <trkpt lat="45.16295" lon="5.59578">
        <ele>1264.6</ele>
        <time>2018-06-03T09:03:02Z</time>
      </trkpt>
      <trkpt lat="45.16287" lon="5.59569">
        <ele>1265.5</ele>
        <time>2018-06-03T09:03:09Z</time>
      </trkpt>
      <trkpt lat="45.16278" lon="5.59562">
        <ele>1266.8</ele>
        <time>2018-06-03T09:03:16Z</time>
      </trkpt>
      <trkpt lat="45.16269" lon="5.59557">
        <ele>1268.1</ele>
        <time>2018-06-03T09:03:24Z</time>
      </trkpt>
      <trkpt lat="45.16261" lon="5.59552">
        <ele>1269.4</ele>
        <time>2018-06-03T09:03:31Z</time>
      </trkpt>
      <trkpt lat="45.16252" lon="5.59545">
        <ele>1270.4</ele>
        <time>2018-06-03T09:03:37Z</time>
      </trkpt>
      <trkpt lat="45.16243" lon="5.59538">
        <ele>1271.1</ele>
        <time>2018-06-03T09:03:43Z</time>
      </trkpt>
      <trkpt lat="45.16234" lon="5.5953">
        <ele>1272.7</ele>
        <time>2018-06-03T09:03:50Z</time>
      </trkpt>
      <trkpt lat="45.16226" lon="5.59521">
        <ele>1273.9</ele>
        <time>2018-06-03T09:03:57Z</time>
      </trkpt>
      <trkpt lat="45.16219" lon="5.59513">
        <ele>1274.8</ele>
        <time>2018-06-03T09:04:03Z</time>
      </trkpt>
      <trkpt lat="45.16212" lon="5.59503">
        <ele>1276.2</ele>
        <time>2018-06-03T09:04:10Z</time>
      </trkpt>
      <trkpt lat="45.16206" lon="5.59492">
        <ele>1277.3</ele>
        <time>2018-06-03T09:04:17Z</time>
      </trkpt>
      <trkpt lat="45.16201" lon="5.59481">
        <ele>1278.5</ele>
        <time>2018-06-03T09:04:24Z</time>
      </trkpt>
      <trkpt lat="45.16194" lon="5.5947">
        <ele>1279.8</ele>
        <time>2018-06-03T09:04:31Z</time>
      </trkpt>
      <trkpt lat="45.16188" lon="5.59457">
        <ele>1281.4</ele>
        <time>2018-06-03T09:04:40Z</time>
      </trkpt>
      <trkpt lat="45.16183" lon="5.59446">
        <ele>1282.8</ele>
        <time>2018-06-03T09:04:48Z</time>
      </trkpt>
      <trkpt lat="45.16179" lon="5.59435">
        <ele>1283.8</ele>
        <time>2018-06-03T09:04:54Z</time>
      </trkpt>
      <trkpt lat="45.16172" lon="5.59425">
        <ele>1285.1</ele>
        <time>2018-06-03T09:05:01Z</time>
      </trkpt>
      <trkpt lat="45.16166" lon="5.59415">
        <ele>1286.8</ele>
        <time>2018-06-03T09:05:09Z</time>
      </trkpt>
      <trkpt lat="45.1616" lon="5.59404">
        <ele>1288.1</ele>
        <time>2018-06-03T09:05:17Z</time>
      </trkpt>
      <trkpt lat="45.16153" lon="5.59392">
        <ele>1289</ele>
        <time>2018-06-03T09:05:23Z</time>
      </trkpt>
      <trkpt lat="45.16149" lon="5.59379">
        <ele>1289.9</ele>
        <time>2018-06-03T09:05:28Z</time>
      </trkpt>
      <trkpt lat="45.16145" lon="5.59366">
        <ele>1291.4</ele>
        <time>2018-06-03T09:05:36Z</time>
      </trkpt>
      <trkpt lat="45.1614" lon="5.59354">
        <ele>1292.5</ele>
        <time>2018-06-03T09:05:43Z</time>
      </trkpt>
      <trkpt lat="45.16135" lon="5.59342">
        <ele>1293.9</ele>
        <time>2018-06-03T09:05:51Z</time>
      </trkpt>
      <trkpt lat="45.16129" lon="5.59331">
        <ele>1294.5</ele>
        <time>2018-06-03T09:05:56Z</time>
      </trkpt>
      <trkpt lat="45.1612" lon="5.59324">
        <ele>1295.3</ele>
        <time>2018-06-03T09:06:00Z</time>
      </trkpt>
      <trkpt lat="45.16111" lon="5.59319">
        <ele>1296.4</ele>
        <time>2018-06-03T09:06:07Z</time>
      </trkpt>
      <trkpt lat="45.16102" lon="5.59315">
        <ele>1297.9</ele>
        <time>2018-06-03T09:06:14Z</time>
      </trkpt>
      <trkpt lat="45.16093" lon="5.5931">
        <ele>1299.7</ele>
        <time>2018-06-03T09:06:22Z</time>
      </trkpt>
      <trkpt lat="45.16084" lon="5.59306">
        <ele>1300.8</ele>
        <time>2018-06-03T09:06:28Z</time>
      </trkpt>
      <trkpt lat="45.16076" lon="5.593">
        <ele>1301.8</ele>
        <time>2018-06-03T09:06:34Z</time>
      </trkpt>
      <trkpt lat="45.16067" lon="5.59293">
        <ele>1303.6</ele>
        <time>2018-06-03T09:06:43Z</time>
      </trkpt>
      <trkpt lat="45.16059" lon="5.59285">
        <ele>1305</ele>
        <time>2018-06-03T09:06:50Z</time>
      </trkpt>
      <trkpt lat="45.16051" lon="5.59274">
        <ele>1305.8</ele>
        <time>2018-06-03T09:06:55Z</time>
      </trkpt>
      <trkpt lat="45.16043" lon="5.59265">
        <ele>1307.1</ele>
        <time>2018-06-03T09:07:01Z</time>
      </trkpt>
      <trkpt lat="45.16035" lon="5.59259">
        <ele>1308.2</ele>
        <time>2018-06-03T09:07:08Z</time>
      </trkpt>
      <trkpt lat="45.16028" lon="5.59249">
        <ele>1309.6</ele>
        <time>2018-06-03T09:07:15Z</time>
      </trkpt>
      <trkpt lat="45.1602" lon="5.5924">
        <ele>1311.2</ele>
        <time>2018-06-03T09:07:22Z</time>
      </trkpt>
      <trkpt lat="45.16013" lon="5.5923">
        <ele>1312.7</ele>
        <time>2018-06-03T09:07:29Z</time>
      </trkpt>
      <trkpt lat="45.16007" lon="5.59219">
        <ele>1313.8</ele>
        <time>2018-06-03T09:07:36Z</time>
      </trkpt>
      <trkpt lat="45.16016" lon="5.59213">
        <ele>1314.5</ele>
        <time>2018-06-03T09:07:45Z</time>
      </trkpt>
      <trkpt lat="45.16023" lon="5.59222">
        <ele>1315.6</ele>
        <time>2018-06-03T09:07:52Z</time>
      </trkpt>
      <trkpt lat="45.16032" lon="5.59229">
        <ele>1316.4</ele>
        <time>2018-06-03T09:07:59Z</time>
      </trkpt>
      <trkpt lat="45.1604" lon="5.59235">
        <ele>1317.8</ele>
        <time>2018-06-03T09:08:06Z</time>
      </trkpt>
      <trkpt lat="45.16049" lon="5.59237">
        <ele>1318.9</ele>
        <time>2018-06-03T09:08:13Z</time>
      </trkpt>
      <trkpt lat="45.16059" lon="5.59238">
        <ele>1320.2</ele>
        <time>2018-06-03T09:08:21Z</time>
      </trkpt>
      <trkpt lat="45.16069" lon="5.59236">
        <ele>1321.7</ele>
        <time>2018-06-03T09:08:30Z</time>
      </trkpt>
      <trkpt lat="45.16078" lon="5.59236">
        <ele>1323.6</ele>
        <time>2018-06-03T09:08:39Z</time>
      </trkpt>
      <trkpt lat="45.16087" lon="5.59233">
        <ele>1325.3</ele>
        <time>2018-06-03T09:08:47Z</time>
      </trkpt>
      <trkpt lat="45.16097" lon="5.59233">
        <ele>1326.6</ele>
        <time>2018-06-03T09:08:55Z</time>
      </trkpt>
      <trkpt lat="45.16106" lon="5.59232">
        <ele>1328.1</ele>
        <time>2018-06-03T09:09:03Z</time>
      </trkpt>
      <trkpt lat="45.16116" lon="5.59234">
        <ele>1330</ele>
        <time>2018-06-03T09:09:12Z</time>
      </trkpt>
      <trkpt lat="45.16125" lon="5.59233">
        <ele>1331.5</ele>
        <time>2018-06-03T09:09:20Z</time>
      </trkpt>
      <trkpt lat="45.16134" lon="5.59234">
        <ele>1332.5</ele>
        <time>2018-06-03T09:09:27Z</time>
      </trkpt>
      <trkpt lat="45.16144" lon="5.59231">
        <ele>1333.5</ele>
        <time>2018-06-03T09:09:34Z</time>
      </trkpt>
      <trkpt lat="45.16154" lon="5.59233">
        <ele>1335.2</ele>
        <time>2018-06-03T09:09:42Z</time>
      </trkpt>
      <trkpt lat="45.16164" lon="5.59237">
        <ele>1336.7</ele>
        <time>2018-06-03T09:09:50Z</time>
      </trkpt>
      <trkpt lat="45.16173" lon="5.59245">
        <ele>1338.1</ele>
        <time>2018-06-03T09:09:57Z</time>
      </trkpt>
      <trkpt lat="45.1618" lon="5.59254">
        <ele>1339</ele>
        <time>2018-06-03T09:10:03Z</time>
      </trkpt>
      <trkpt lat="45.16188" lon="5.59262">
        <ele>1340.7</ele>
        <time>2018-06-03T09:10:11Z</time>
      </trkpt>
      <trkpt lat="45.16197" lon="5.59268">
        <ele>1342.5</ele>
        <time>2018-06-03T09:10:20Z</time>
      </trkpt>
      <trkpt lat="45.16205" lon="5.59271">
        <ele>1344</ele>
        <time>2018-06-03T09:10:28Z</time>
      </trkpt>
      <trkpt lat="45.16214" lon="5.59274">
        <ele>1346.6</ele>
        <time>2018-06-03T09:10:39Z</time>
      </trkpt>
      <trkpt lat="45.16223" lon="5.59277">
        <ele>1347.6</ele>
        <time>2018-06-03T09:10:46Z</time>
      </trkpt>
      <trkpt lat="45.16233" lon="5.59279">
        <ele>1349.4</ele>
        <time>2018-06-03T09:10:55Z</time>
      </trkpt>
      <trkpt lat="45.16242" lon="5.59281">
        <ele>1351.2</ele>
        <time>2018-06-03T09:11:05Z</time>
      </trkpt>
      <trkpt lat="45.1625" lon="5.59285">
        <ele>1352.9</ele>
        <time>2018-06-03T09:11:13Z</time>
      </trkpt>
      <trkpt lat="45.1626" lon="5.5929">
        <ele>1354.4</ele>
        <time>2018-06-03T09:11:21Z</time>
      </trkpt>
      <trkpt lat="45.16269" lon="5.59292">
        <ele>1355.8</ele>
        <time>2018-06-03T09:11:29Z</time>
      </trkpt>
      <trkpt lat="45.16278" lon="5.59297">
        <ele>1357.6</ele>
        <time>2018-06-03T09:11:37Z</time>
      </trkpt>
      <trkpt lat="45.16287" lon="5.593">
        <ele>1359</ele>
        <time>2018-06-03T09:11:45Z</time>
      </trkpt>
      <trkpt lat="45.16296" lon="5.59303">
        <ele>1360.5</ele>
        <time>2018-06-03T09:11:52Z</time>
      </trkpt>
      <trkpt lat="45.16305" lon="5.59308">
        <ele>1361.6</ele>
        <time>2018-06-03T09:11:57Z</time>
      </trkpt>
      <trkpt lat="45.16314" lon="5.59313">
        <ele>1363</ele>
        <time>2018-06-03T09:12:04Z</time>
      </trkpt>
      <trkpt lat="45.16323" lon="5.59314">
        <ele>1364.3</ele>
        <time>2018-06-03T09:12:12Z</time>
      </trkpt>
      <trkpt lat="45.16333" lon="5.59316">
        <ele>1365.8</ele>
        <time>2018-06-03T09:12:19Z</time>
      </trkpt>
      <trkpt lat="45.16341" lon="5.59321">
        <ele>1367.2</ele>
        <time>2018-06-03T09:12:26Z</time>
      </trkpt>
      <trkpt lat="45.16351" lon="5.59323">
        <ele>1368.8</ele>
        <time>2018-06-03T09:12:33Z</time>
      </trkpt>
      <trkpt lat="45.1636" lon="5.59323">
        <ele>1370.3</ele>
        <time>2018-06-03T09:12:41Z</time>
      </trkpt>
      <trkpt lat="45.1637" lon="5.59324">
        <ele>1371.7</ele>
        <time>2018-06-03T09:12:49Z</time>
      </trkpt>
      <trkpt lat="45.16379" lon="5.59324">
        <ele>1373.3</ele>
        <time>2018-06-03T09:12:56Z</time>
      </trkpt>
      <trkpt lat="45.16389" lon="5.59322">
        <ele>1374.5</ele>
        <time>2018-06-03T09:13:03Z</time>
      </trkpt>
      <trkpt lat="45.16397" lon="5.59316">
        <ele>1375.7</ele>
        <time>2018-06-03T09:13:09Z</time>
      </trkpt>
      <trkpt lat="45.16404" lon="5.59307">
        <ele>1376.5</ele>
        <time>2018-06-03T09:13:15Z</time>
      </trkpt>
      <trkpt lat="45.16412" lon="5.59297">
        <ele>1377</ele>
        <time>2018-06-03T09:13:21Z</time>
      </trkpt>
      <trkpt lat="45.16419" lon="5.59289">
        <ele>1378.1</ele>
        <time>2018-06-03T09:13:28Z</time>
      </trkpt>
      <trkpt lat="45.16427" lon="5.5928">
        <ele>1379.2</ele>
        <time>2018-06-03T09:13:34Z</time>
      </trkpt>
      <trkpt lat="45.16434" lon="5.59271">
        <ele>1380.4</ele>
        <time>2018-06-03T09:13:41Z</time>
      </trkpt>
      <trkpt lat="45.16442" lon="5.59261">
        <ele>1381.5</ele>
        <time>2018-06-03T09:13:48Z</time>
      </trkpt>
      <trkpt lat="45.16449" lon="5.59251">
        <ele>1382.9</ele>
        <time>2018-06-03T09:13:55Z</time>
      </trkpt>
      <trkpt lat="45.16456" lon="5.59243">
        <ele>1383.9</ele>
        <time>2018-06-03T09:14:00Z</time>
      </trkpt>
      <trkpt lat="45.16461" lon="5.59232">
        <ele>1384.6</ele>
        <time>2018-06-03T09:14:05Z</time>
      </trkpt>
      <trkpt lat="45.16463" lon="5.5922">
        <ele>1385.3</ele>
        <time>2018-06-03T09:14:10Z</time>
      </trkpt>
      <trkpt lat="45.16466" lon="5.59206">
        <ele>1385.7</ele>
        <time>2018-06-03T09:14:15Z</time>
      </trkpt>
      <trkpt lat="45.16469" lon="5.59192">
        <ele>1386.3</ele>
        <time>2018-06-03T09:14:20Z</time>
      </trkpt>
      <trkpt lat="45.16472" lon="5.59179">
        <ele>1386.8</ele>
        <time>2018-06-03T09:14:25Z</time>
      </trkpt>
      <trkpt lat="45.16474" lon="5.59164">
        <ele>1387.6</ele>
        <time>2018-06-03T09:14:30Z</time>
      </trkpt>
      <trkpt lat="45.16479" lon="5.59151">
        <ele>1388.6</ele>
        <time>2018-06-03T09:14:36Z</time>
      </trkpt>
      <trkpt lat="45.16484" lon="5.59138">
        <ele>1389.9</ele>
        <time>2018-06-03T09:14:42Z</time>
      </trkpt>
      <trkpt lat="45.16488" lon="5.59125">
        <ele>1391.2</ele>
        <time>2018-06-03T09:14:48Z</time>
      </trkpt>
      <trkpt lat="45.16491" lon="5.59113">
        <ele>1392.2</ele>
        <time>2018-06-03T09:14:53Z</time>
      </trkpt>
      <trkpt lat="45.16492" lon="5.591">
        <ele>1393.2</ele>
        <time>2018-06-03T09:14:58Z</time>
      </trkpt>
      <trkpt lat="45.16492" lon="5.59086">
        <ele>1394.5</ele>
        <time>2018-06-03T09:15:05Z</time>
      </trkpt>
      <trkpt lat="45.16489" lon="5.59074">
        <ele>1395.8</ele>
        <time>2018-06-03T09:15:12Z</time>
      </trkpt>
      <trkpt lat="45.16481" lon="5.59064">
        <ele>1396.5</ele>
        <time>2018-06-03T09:15:17Z</time>
      </trkpt>
      <trkpt lat="45.16475" lon="5.59054">
        <ele>1397.4</ele>
        <time>2018-06-03T09:15:23Z</time>
      </trkpt>
      <trkpt lat="45.16468" lon="5.59045">
        <ele>1398.2</ele>
        <time>2018-06-03T09:15:29Z</time>
      </trkpt>
      <trkpt lat="45.16462" lon="5.59035">
        <ele>1399.5</ele>
        <time>2018-06-03T09:15:36Z</time>
      </trkpt>
      <trkpt lat="45.16456" lon="5.59024">
        <ele>1401.2</ele>
        <time>2018-06-03T09:15:44Z</time>
      </trkpt>
      <trkpt lat="45.1645" lon="5.59014">
        <ele>1402.1</ele>
        <time>2018-06-03T09:15:50Z</time>
      </trkpt>
      <trkpt lat="45.16444" lon="5.59004">
        <ele>1403</ele>
        <time>2018-06-03T09:15:55Z</time>
      </trkpt>
      <trkpt lat="45.16437" lon="5.58994">
        <ele>1404.2</ele>
        <time>2018-06-03T09:16:02Z</time>
      </trkpt>
      <trkpt lat="45.16431" lon="5.58983">
        <ele>1405.4</ele>
        <time>2018-06-03T09:16:09Z</time>
      </trkpt>
      <trkpt lat="45.16425" lon="5.58973">
        <ele>1406.8</ele>
        <time>2018-06-03T09:16:15Z</time>
      </trkpt>
      <trkpt lat="45.16418" lon="5.58963">
        <ele>1407.6</ele>
        <time>2018-06-03T09:16:21Z</time>
      </trkpt>
      <trkpt lat="45.16412" lon="5.58953">
        <ele>1408.6</ele>
        <time>2018-06-03T09:16:27Z</time>
      </trkpt>
      <trkpt lat="45.16406" lon="5.58943">
        <ele>1409.9</ele>
        <time>2018-06-03T09:16:34Z</time>
      </trkpt>
      <trkpt lat="45.16399" lon="5.58933">
        <ele>1410.9</ele>
        <time>2018-06-03T09:16:40Z</time>
      </trkpt>
      <trkpt lat="45.16394" lon="5.58922">
        <ele>1411.9</ele>
        <time>2018-06-03T09:16:46Z</time>
      </trkpt>
      <trkpt lat="45.16388" lon="5.58911">
        <ele>1413.1</ele>
        <time>2018-06-03T09:16:53Z</time>
      </trkpt>
      <trkpt lat="45.16382" lon="5.58899">
        <ele>1414.3</ele>
        <time>2018-06-03T09:17:00Z</time>
      </trkpt>
      <trkpt lat="45.16377" lon="5.58887">
        <ele>1415.8</ele>
        <time>2018-06-03T09:17:08Z</time>
      </trkpt>
      <trkpt lat="45.16371" lon="5.58876">
        <ele>1416.8</ele>
        <time>2018-06-03T09:17:15Z</time>
      </trkpt>
      <trkpt lat="45.16366" lon="5.58866">
        <ele>1417.8</ele>
        <time>2018-06-03T09:17:20Z</time>
      </trkpt>
      <trkpt lat="45.16361" lon="5.58855">
        <ele>1418.9</ele>
        <time>2018-06-03T09:17:26Z</time>
      </trkpt>
      <trkpt lat="45.16356" lon="5.58843">
        <ele>1420.2</ele>
        <time>2018-06-03T09:17:32Z</time>
      </trkpt>
      <trkpt lat="45.16351" lon="5.58831">
        <ele>1421.3</ele>
        <time>2018-06-03T09:17:38Z</time>
      </trkpt>
      <trkpt lat="45.16345" lon="5.58819">
        <ele>1422.6</ele>
        <time>2018-06-03T09:17:44Z</time>
      </trkpt>
      <trkpt lat="45.1634" lon="5.58808">
        <ele>1423.6</ele>
        <time>2018-06-03T09:17:50Z</time>
      </trkpt>
      <trkpt lat="45.16334" lon="5.58797">
        <ele>1424.6</ele>
        <time>2018-06-03T09:17:56Z</time>
      </trkpt>
      <trkpt lat="45.16326" lon="5.58789">
        <ele>1425.6</ele>
        <time>2018-06-03T09:18:02Z</time>
      </trkpt>
      <trkpt lat="45.16317" lon="5.58781">
        <ele>1426.5</ele>
        <time>2018-06-03T09:18:08Z</time>
      </trkpt>
      <trkpt lat="45.1631" lon="5.58772">
        <ele>1427.7</ele>
        <time>2018-06-03T09:18:15Z</time>
      </trkpt>
      <trkpt lat="45.16301" lon="5.58767">
        <ele>1428.7</ele>
        <time>2018-06-03T09:18:49Z</time>
      </trkpt>
      <trkpt lat="45.163" lon="5.58754">
        <ele>1429.5</ele>
        <time>2018-06-03T09:25:46Z</time>
      </trkpt>
      <trkpt lat="45.16299" lon="5.5874">
        <ele>1431.4</ele>
        <time>2018-06-03T09:26:00Z</time>
      </trkpt>
      <trkpt lat="45.16305" lon="5.58731">
        <ele>1433.3</ele>
        <time>2018-06-03T09:26:13Z</time>
      </trkpt>
      <trkpt lat="45.16313" lon="5.58724">
        <ele>1434.9</ele>
        <time>2018-06-03T09:26:24Z</time>
      </trkpt>
      <trkpt lat="45.16323" lon="5.58722">
        <ele>1436.4</ele>
        <time>2018-06-03T09:26:36Z</time>
      </trkpt>
      <trkpt lat="45.16332" lon="5.58722">
        <ele>1438</ele>
        <time>2018-06-03T09:26:46Z</time>
      </trkpt>
      <trkpt lat="45.16342" lon="5.58722">
        <ele>1440.5</ele>
        <time>2018-06-03T09:27:03Z</time>
      </trkpt>
      <trkpt lat="45.16351" lon="5.5872">
        <ele>1443.2</ele>
        <time>2018-06-03T09:27:21Z</time>
      </trkpt>
      <trkpt lat="45.1636" lon="5.58716">
        <ele>1445.7</ele>
        <time>2018-06-03T09:27:37Z</time>
      </trkpt>
      <trkpt lat="45.16369" lon="5.58714">
        <ele>1449.3</ele>
        <time>2018-06-03T09:28:01Z</time>
      </trkpt>
      <trkpt lat="45.16378" lon="5.58712">
        <ele>1451.8</ele>
        <time>2018-06-03T09:28:16Z</time>
      </trkpt>
      <trkpt lat="45.16387" lon="5.58708">
        <ele>1453.9</ele>
        <time>2018-06-03T09:28:33Z</time>
      </trkpt>
      <trkpt lat="45.16396" lon="5.58705">
        <ele>1457.5</ele>
        <time>2018-06-03T09:28:55Z</time>
      </trkpt>
      <trkpt lat="45.16405" lon="5.58701">
        <ele>1460.1</ele>
        <time>2018-06-03T09:29:11Z</time>
      </trkpt>
      <trkpt lat="45.16414" lon="5.58697">
        <ele>1462.3</ele>
        <time>2018-06-03T09:29:27Z</time>
      </trkpt>
      <trkpt lat="45.16424" lon="5.58696">
        <ele>1464.3</ele>
        <time>2018-06-03T09:29:43Z</time>
      </trkpt>
      <trkpt lat="45.16433" lon="5.58696">
        <ele>1465.6</ele>
        <time>2018-06-03T09:29:54Z</time>
      </trkpt>
      <trkpt lat="45.16443" lon="5.58695">
        <ele>1466.8</ele>
        <time>2018-06-03T09:30:05Z</time>
      </trkpt>
      <trkpt lat="45.16452" lon="5.58694">
        <ele>1469.8</ele>
        <time>2018-06-03T09:30:22Z</time>
      </trkpt>
      <trkpt lat="45.1646" lon="5.58689">
        <ele>1472.5</ele>
        <time>2018-06-03T09:30:38Z</time>
      </trkpt>
      <trkpt lat="45.16468" lon="5.58682">
        <ele>1474.9</ele>
        <time>2018-06-03T09:30:53Z</time>
      </trkpt>
      <trkpt lat="45.16476" lon="5.58676">
        <ele>1477.5</ele>
        <time>2018-06-03T09:31:11Z</time>
      </trkpt>
      <trkpt lat="45.16485" lon="5.58673">
        <ele>1479.7</ele>
        <time>2018-06-03T09:31:23Z</time>
      </trkpt>
      <trkpt lat="45.16494" lon="5.58672">
        <ele>1482.1</ele>
        <time>2018-06-03T09:31:37Z</time>
      </trkpt>
      <trkpt lat="45.16504" lon="5.58671">
        <ele>1484.2</ele>
        <time>2018-06-03T09:31:51Z</time>
      </trkpt>
      <trkpt lat="45.16513" lon="5.58668">
        <ele>1485.9</ele>
        <time>2018-06-03T09:32:09Z</time>
      </trkpt>
      <trkpt lat="45.16522" lon="5.58668">
        <ele>1486.4</ele>
        <time>2018-06-03T09:32:42Z</time>
      </trkpt>
      <trkpt lat="45.16532" lon="5.58667">
        <ele>1487.7</ele>
        <time>2018-06-03T09:32:51Z</time>
      </trkpt>
      <trkpt lat="45.16542" lon="5.58666">
        <ele>1489.7</ele>
        <time>2018-06-03T09:33:02Z</time>
      </trkpt>
      <trkpt lat="45.16551" lon="5.58663">
        <ele>1491.2</ele>
        <time>2018-06-03T09:33:09Z</time>
      </trkpt>
      <trkpt lat="45.16561" lon="5.58661">
        <ele>1492.6</ele>
        <time>2018-06-03T09:33:17Z</time>
      </trkpt>
      <trkpt lat="45.16571" lon="5.5866">
        <ele>1493.6</ele>
        <time>2018-06-03T09:33:24Z</time>
      </trkpt>
      <trkpt lat="45.1658" lon="5.58658">
        <ele>1494.6</ele>
        <time>2018-06-03T09:33:31Z</time>
      </trkpt>
      <trkpt lat="45.16589" lon="5.58657">
        <ele>1495.9</ele>
        <time>2018-06-03T09:33:39Z</time>
      </trkpt>
      <trkpt lat="45.16598" lon="5.58656">
        <ele>1496.8</ele>
        <time>2018-06-03T09:33:46Z</time>
      </trkpt>
      <trkpt lat="45.16608" lon="5.58653">
        <ele>1497.6</ele>
        <time>2018-06-03T09:33:52Z</time>
      </trkpt>
      <trkpt lat="45.16618" lon="5.58653">
        <ele>1498.7</ele>
        <time>2018-06-03T09:33:59Z</time>
      </trkpt>
      <trkpt lat="45.16627" lon="5.58653">
        <ele>1499.8</ele>
        <time>2018-06-03T09:34:06Z</time>
      </trkpt>
      <trkpt lat="45.16637" lon="5.58652">
        <ele>1500.8</ele>
        <time>2018-06-03T09:34:13Z</time>
      </trkpt>
      <trkpt lat="45.16647" lon="5.58651">
        <ele>1502.1</ele>
        <time>2018-06-03T09:34:21Z</time>
      </trkpt>
      <trkpt lat="45.16656" lon="5.58648">
        <ele>1503.4</ele>
        <time>2018-06-03T09:34:29Z</time>
      </trkpt>
      <trkpt lat="45.16666" lon="5.58648">
        <ele>1505.7</ele>
        <time>2018-06-03T09:34:37Z</time>
      </trkpt>
      <trkpt lat="45.16675" lon="5.58648">
        <ele>1507.5</ele>
        <time>2018-06-03T09:34:47Z</time>
      </trkpt>
      <trkpt lat="45.16684" lon="5.58651">
        <ele>1508.4</ele>
        <time>2018-06-03T09:34:57Z</time>
      </trkpt>
      <trkpt lat="45.16694" lon="5.5865">
        <ele>1509.7</ele>
        <time>2018-06-03T09:35:06Z</time>
      </trkpt>
      <trkpt lat="45.16703" lon="5.58646">
        <ele>1510.6</ele>
        <time>2018-06-03T09:35:13Z</time>
      </trkpt>
      <trkpt lat="45.16713" lon="5.58642">
        <ele>1511.8</ele>
        <time>2018-06-03T09:35:21Z</time>
      </trkpt>
      <trkpt lat="45.16722" lon="5.58641">
        <ele>1513.9</ele>
        <time>2018-06-03T09:35:30Z</time>
      </trkpt>
      <trkpt lat="45.16731" lon="5.5864">
        <ele>1515.6</ele>
        <time>2018-06-03T09:35:38Z</time>
      </trkpt>
      <trkpt lat="45.1674" lon="5.58641">
        <ele>1517.7</ele>
        <time>2018-06-03T09:35:47Z</time>
      </trkpt>
      <trkpt lat="45.1675" lon="5.58641">
        <ele>1519</ele>
        <time>2018-06-03T09:35:57Z</time>
      </trkpt>
      <trkpt lat="45.16759" lon="5.58641">
        <ele>1519.9</ele>
        <time>2018-06-03T09:36:03Z</time>
      </trkpt>
      <trkpt lat="45.16769" lon="5.58641">
        <ele>1520.8</ele>
        <time>2018-06-03T09:36:10Z</time>
      </trkpt>
      <trkpt lat="45.16778" lon="5.58644">
        <ele>1521.4</ele>
        <time>2018-06-03T09:36:15Z</time>
      </trkpt>
      <trkpt lat="45.16787" lon="5.58643">
        <ele>1522.4</ele>
        <time>2018-06-03T09:36:22Z</time>
      </trkpt>
      <trkpt lat="45.16796" lon="5.58643">
        <ele>1523.8</ele>
        <time>2018-06-03T09:36:29Z</time>
      </trkpt>
      <trkpt lat="45.16805" lon="5.58645">
        <ele>1524.9</ele>
        <time>2018-06-03T09:36:37Z</time>
      </trkpt>
      <trkpt lat="45.16814" lon="5.5865">
        <ele>1525.8</ele>
        <time>2018-06-03T09:36:44Z</time>
      </trkpt>
      <trkpt lat="45.16824" lon="5.58653">
        <ele>1526.7</ele>
        <time>2018-06-03T09:36:52Z</time>
      </trkpt>
      <trkpt lat="45.16833" lon="5.58655">
        <ele>1527.6</ele>
        <time>2018-06-03T09:37:01Z</time>
      </trkpt>
      <trkpt lat="45.16842" lon="5.58657">
        <ele>1528.7</ele>
        <time>2018-06-03T09:37:08Z</time>
      </trkpt>
      <trkpt lat="45.16852" lon="5.58663">
        <ele>1530.2</ele>
        <time>2018-06-03T09:37:16Z</time>
      </trkpt>
      <trkpt lat="45.16861" lon="5.58666">
        <ele>1531.7</ele>
        <time>2018-06-03T09:37:25Z</time>
      </trkpt>
      <trkpt lat="45.1687" lon="5.58668">
        <ele>1533.4</ele>
        <time>2018-06-03T09:37:35Z</time>
      </trkpt>
      <trkpt lat="45.1688" lon="5.58671">
        <ele>1535.1</ele>
        <time>2018-06-03T09:37:45Z</time>
      </trkpt>
      <trkpt lat="45.16889" lon="5.58673">
        <ele>1536.9</ele>
        <time>2018-06-03T09:37:51Z</time>
      </trkpt>
      <trkpt lat="45.16898" lon="5.58674">
        <ele>1538.6</ele>
        <time>2018-06-03T09:37:58Z</time>
      </trkpt>
      <trkpt lat="45.16907" lon="5.58673">
        <ele>1539.4</ele>
        <time>2018-06-03T09:38:04Z</time>
      </trkpt>
      <trkpt lat="45.16917" lon="5.58674">
        <ele>1540.3</ele>
        <time>2018-06-03T09:38:59Z</time>
      </trkpt>
      <trkpt lat="45.16926" lon="5.58672">
        <ele>1540.8</ele>
        <time>2018-06-03T09:39:05Z</time>
      </trkpt>
      <trkpt lat="45.16935" lon="5.5867">
        <ele>1541.7</ele>
        <time>2018-06-03T09:39:10Z</time>
      </trkpt>
      <trkpt lat="45.16944" lon="5.58671">
        <ele>1542.3</ele>
        <time>2018-06-03T09:39:15Z</time>
      </trkpt>
      <trkpt lat="45.16953" lon="5.58671">
        <ele>1542.7</ele>
        <time>2018-06-03T09:39:20Z</time>
      </trkpt>
      <trkpt lat="45.16963" lon="5.5867">
        <ele>1543.1</ele>
        <time>2018-06-03T09:39:25Z</time>
      </trkpt>
      <trkpt lat="45.16972" lon="5.58672">
        <ele>1543.8</ele>
        <time>2018-06-03T09:39:31Z</time>
      </trkpt>
      <trkpt lat="45.16982" lon="5.58674">
        <ele>1545.1</ele>
        <time>2018-06-03T09:39:38Z</time>
      </trkpt>
      <trkpt lat="45.16992" lon="5.58681">
        <ele>1546.5</ele>
        <time>2018-06-03T09:39:44Z</time>
      </trkpt>
      <trkpt lat="45.17" lon="5.58686">
        <ele>1547.8</ele>
        <time>2018-06-03T09:39:50Z</time>
      </trkpt>
      <trkpt lat="45.1701" lon="5.58691">
        <ele>1549</ele>
        <time>2018-06-03T09:39:57Z</time>
      </trkpt>
      <trkpt lat="45.17018" lon="5.58696">
        <ele>1549.3</ele>
        <time>2018-06-03T09:40:02Z</time>
      </trkpt>
      <trkpt lat="45.17027" lon="5.58696">
        <ele>1549.7</ele>
        <time>2018-06-03T09:40:08Z</time>
      </trkpt>
      <trkpt lat="45.17037" lon="5.58692">
        <ele>1550.8</ele>
        <time>2018-06-03T09:40:14Z</time>
      </trkpt>
      <trkpt lat="45.17046" lon="5.58689">
        <ele>1552</ele>
        <time>2018-06-03T09:40:20Z</time>
      </trkpt>
      <trkpt lat="45.17056" lon="5.58687">
        <ele>1553</ele>
        <time>2018-06-03T09:40:25Z</time>
      </trkpt>
      <trkpt lat="45.17065" lon="5.58683">
        <ele>1554.1</ele>
        <time>2018-06-03T09:40:31Z</time>
      </trkpt>
      <trkpt lat="45.17074" lon="5.58677">
        <ele>1555</ele>
        <time>2018-06-03T09:40:37Z</time>
      </trkpt>
      <trkpt lat="45.17083" lon="5.58672">
        <ele>1555.4</ele>
        <time>2018-06-03T09:40:42Z</time>
      </trkpt>
      <trkpt lat="45.17092" lon="5.58669">
        <ele>1555.5</ele>
        <time>2018-06-03T09:40:46Z</time>
      </trkpt>
      <trkpt lat="45.17102" lon="5.58667">
        <ele>1555.9</ele>
        <time>2018-06-03T09:40:51Z</time>
      </trkpt>
      <trkpt lat="45.17112" lon="5.58669">
        <ele>1556.3</ele>
        <time>2018-06-03T09:40:56Z</time>
      </trkpt>
      <trkpt lat="45.17122" lon="5.5867">
        <ele>1557</ele>
        <time>2018-06-03T09:41:02Z</time>
      </trkpt>
      <trkpt lat="45.17133" lon="5.58669">
        <ele>1558</ele>
        <time>2018-06-03T09:41:08Z</time>
      </trkpt>
      <trkpt lat="45.17142" lon="5.58668">
        <ele>1558.9</ele>
        <time>2018-06-03T09:41:14Z</time>
      </trkpt>
      <trkpt lat="45.17151" lon="5.58665">
        <ele>1559.9</ele>
        <time>2018-06-03T09:41:21Z</time>
      </trkpt>
      <trkpt lat="45.1716" lon="5.58662">
        <ele>1561.1</ele>
        <time>2018-06-03T09:41:27Z</time>
      </trkpt>
      <trkpt lat="45.17169" lon="5.5866">
        <ele>1562.4</ele>
        <time>2018-06-03T09:41:33Z</time>
      </trkpt>
      <trkpt lat="45.17179" lon="5.58664">
        <ele>1563.5</ele>
        <time>2018-06-03T09:41:40Z</time>
      </trkpt>
      <trkpt lat="45.17187" lon="5.58671">
        <ele>1564.4</ele>
        <time>2018-06-03T09:41:46Z</time>
      </trkpt>
      <trkpt lat="45.17196" lon="5.58679">
        <ele>1565.6</ele>
        <time>2018-06-03T09:41:53Z</time>
      </trkpt>
      <trkpt lat="45.17205" lon="5.58684">
        <ele>1566.9</ele>
        <time>2018-06-03T09:42:00Z</time>
      </trkpt>
      <trkpt lat="45.17212" lon="5.58693">
        <ele>1568.2</ele>
        <time>2018-06-03T09:42:07Z</time>
      </trkpt>
      <trkpt lat="45.1722" lon="5.58703">
        <ele>1569.3</ele>
        <time>2018-06-03T09:42:14Z</time>
      </trkpt>
      <trkpt lat="45.17227" lon="5.58711">
        <ele>1570.3</ele>
        <time>2018-06-03T09:42:21Z</time>
      </trkpt>
      <trkpt lat="45.17237" lon="5.58718">
        <ele>1570.7</ele>
        <time>2018-06-03T09:42:28Z</time>
      </trkpt>
      <trkpt lat="45.17247" lon="5.58727">
        <ele>1570.3</ele>
        <time>2018-06-03T09:42:32Z</time>
      </trkpt>
      <trkpt lat="45.17256" lon="5.58736">
        <ele>1570</ele>
        <time>2018-06-03T09:42:36Z</time>
      </trkpt>
      <trkpt lat="45.17267" lon="5.58742">
        <ele>1569.7</ele>
        <time>2018-06-03T09:42:40Z</time>
      </trkpt>
      <trkpt lat="45.17276" lon="5.58748">
        <ele>1569.8</ele>
        <time>2018-06-03T09:42:43Z</time>
      </trkpt>
      <trkpt lat="45.17285" lon="5.58753">
        <ele>1570</ele>
        <time>2018-06-03T09:42:46Z</time>
      </trkpt>
      <trkpt lat="45.17295" lon="5.58759">
        <ele>1570.7</ele>
        <time>2018-06-03T09:42:51Z</time>
      </trkpt>
      <trkpt lat="45.17304" lon="5.58761">
        <ele>1571</ele>
        <time>2018-06-03T09:42:55Z</time>
      </trkpt>
      <trkpt lat="45.17314" lon="5.58759">
        <ele>1571.1</ele>
        <time>2018-06-03T09:42:59Z</time>
      </trkpt>
      <trkpt lat="45.17325" lon="5.58759">
        <ele>1571.1</ele>
        <time>2018-06-03T09:43:03Z</time>
      </trkpt>
      <trkpt lat="45.17335" lon="5.58764">
        <ele>1571</ele>
        <time>2018-06-03T09:43:08Z</time>
      </trkpt>
      <trkpt lat="45.17343" lon="5.5877">
        <ele>1571</ele>
        <time>2018-06-03T09:43:12Z</time>
      </trkpt>
      <trkpt lat="45.17353" lon="5.58777">
        <ele>1570.8</ele>
        <time>2018-06-03T09:43:17Z</time>
      </trkpt>
      <trkpt lat="45.17364" lon="5.58783">
        <ele>1570.6</ele>
        <time>2018-06-03T09:43:21Z</time>
      </trkpt>
      <trkpt lat="45.17371" lon="5.58793">
        <ele>1570.4</ele>
        <time>2018-06-03T09:43:25Z</time>
      </trkpt>
      <trkpt lat="45.1738" lon="5.58802">
        <ele>1570.4</ele>
        <time>2018-06-03T09:43:29Z</time>
      </trkpt>
      <trkpt lat="45.1739" lon="5.58805">
        <ele>1570.3</ele>
        <time>2018-06-03T09:43:33Z</time>
      </trkpt>
      <trkpt lat="45.17401" lon="5.58806">
        <ele>1570.6</ele>
        <time>2018-06-03T09:43:37Z</time>
      </trkpt>
      <trkpt lat="45.1741" lon="5.58809">
        <ele>1571</ele>
        <time>2018-06-03T09:43:41Z</time>
      </trkpt>
      <trkpt lat="45.1742" lon="5.58813">
        <ele>1571.5</ele>
        <time>2018-06-03T09:43:45Z</time>
      </trkpt>
      <trkpt lat="45.17432" lon="5.58819">
        <ele>1571.4</ele>
        <time>2018-06-03T09:43:49Z</time>
      </trkpt>
      <trkpt lat="45.17441" lon="5.58825">
        <ele>1571.3</ele>
        <time>2018-06-03T09:43:52Z</time>
      </trkpt>
      <trkpt lat="45.1745" lon="5.58832">
        <ele>1571.8</ele>
        <time>2018-06-03T09:43:56Z</time>
      </trkpt>
      <trkpt lat="45.17459" lon="5.58838">
        <ele>1572.1</ele>
        <time>2018-06-03T09:44:00Z</time>
      </trkpt>
      <trkpt lat="45.17468" lon="5.58843">
        <ele>1572.6</ele>
        <time>2018-06-03T09:44:04Z</time>
      </trkpt>
      <trkpt lat="45.17477" lon="5.58848">
        <ele>1573</ele>
        <time>2018-06-03T09:44:08Z</time>
      </trkpt>
      <trkpt lat="45.17486" lon="5.58853">
        <ele>1573.4</ele>
        <time>2018-06-03T09:44:12Z</time>
      </trkpt>
      <trkpt lat="45.17496" lon="5.58856">
        <ele>1573.6</ele>
        <time>2018-06-03T09:44:15Z</time>
      </trkpt>
      <trkpt lat="45.17509" lon="5.5886">
        <ele>1573.4</ele>
        <time>2018-06-03T09:44:18Z</time>
      </trkpt>
      <trkpt lat="45.17519" lon="5.58866">
        <ele>1573</ele>
        <time>2018-06-03T09:44:21Z</time>
      </trkpt>
      <trkpt lat="45.17529" lon="5.58871">
        <ele>1572.7</ele>
        <time>2018-06-03T09:44:24Z</time>
      </trkpt>
      <trkpt lat="45.17541" lon="5.58878">
        <ele>1572.5</ele>
        <time>2018-06-03T09:44:27Z</time>
      </trkpt>
      <trkpt lat="45.17552" lon="5.58886">
        <ele>1572</ele>
        <time>2018-06-03T09:44:30Z</time>
      </trkpt>
      <trkpt lat="45.17563" lon="5.58895">
        <ele>1571.6</ele>
        <time>2018-06-03T09:44:33Z</time>
      </trkpt>
      <trkpt lat="45.17573" lon="5.58905">
        <ele>1571.7</ele>
        <time>2018-06-03T09:44:36Z</time>
      </trkpt>
      <trkpt lat="45.17582" lon="5.58914">
        <ele>1572.3</ele>
        <time>2018-06-03T09:44:39Z</time>
      </trkpt>
      <trkpt lat="45.17592" lon="5.58919">
        <ele>1573.3</ele>
        <time>2018-06-03T09:44:43Z</time>
      </trkpt>
      <trkpt lat="45.17601" lon="5.58923">
        <ele>1573.3</ele>
        <time>2018-06-03T09:44:46Z</time>
      </trkpt>
      <trkpt lat="45.17614" lon="5.58927">
        <ele>1573</ele>
        <time>2018-06-03T09:44:49Z</time>
      </trkpt>
      <trkpt lat="45.17626" lon="5.58931">
        <ele>1572.4</ele>
        <time>2018-06-03T09:44:52Z</time>
      </trkpt>
      <trkpt lat="45.17635" lon="5.58934">
        <ele>1572.1</ele>
        <time>2018-06-03T09:44:55Z</time>
      </trkpt>
      <trkpt lat="45.17644" lon="5.58939">
        <ele>1571.7</ele>
        <time>2018-06-03T09:44:58Z</time>
      </trkpt>
      <trkpt lat="45.17654" lon="5.58943">
        <ele>1571</ele>
        <time>2018-06-03T09:45:00Z</time>
      </trkpt>
      <trkpt lat="45.17665" lon="5.58949">
        <ele>1570.2</ele>
        <time>2018-06-03T09:45:02Z</time>
      </trkpt>
      <trkpt lat="45.17677" lon="5.58955">
        <ele>1569.5</ele>
        <time>2018-06-03T09:45:04Z</time>
      </trkpt>
      <trkpt lat="45.17689" lon="5.58964">
        <ele>1568.7</ele>
        <time>2018-06-03T09:45:06Z</time>
      </trkpt>
      <trkpt lat="45.17701" lon="5.58973">
        <ele>1567.5</ele>
        <time>2018-06-03T09:45:08Z</time>
      </trkpt>
      <trkpt lat="45.17714" lon="5.5898">
        <ele>1566.7</ele>
        <time>2018-06-03T09:45:10Z</time>
      </trkpt>
      <trkpt lat="45.17727" lon="5.58985">
        <ele>1566</ele>
        <time>2018-06-03T09:45:12Z</time>
      </trkpt>
      <trkpt lat="45.17739" lon="5.58989">
        <ele>1565.3</ele>
        <time>2018-06-03T09:45:14Z</time>
      </trkpt>
      <trkpt lat="45.17748" lon="5.58991">
        <ele>1564.8</ele>
        <time>2018-06-03T09:45:16Z</time>
      </trkpt>
      <trkpt lat="45.1776" lon="5.58994">
        <ele>1564.5</ele>
        <time>2018-06-03T09:45:19Z</time>
      </trkpt>
      <trkpt lat="45.17769" lon="5.58995">
        <ele>1563.4</ele>
        <time>2018-06-03T09:46:33Z</time>
      </trkpt>
      <trkpt lat="45.17779" lon="5.58994">
        <ele>1563.5</ele>
        <time>2018-06-03T09:51:42Z</time>
      </trkpt>
      <trkpt lat="45.17792" lon="5.58993">
        <ele>1562.9</ele>
        <time>2018-06-03T09:51:45Z</time>
      </trkpt>
      <trkpt lat="45.17802" lon="5.58991">
        <ele>1562.4</ele>
        <time>2018-06-03T09:51:47Z</time>
      </trkpt>
      <trkpt lat="45.17814" lon="5.58989">
        <ele>1561.8</ele>
        <time>2018-06-03T09:51:49Z</time>
      </trkpt>
      <trkpt lat="45.17825" lon="5.58988">
        <ele>1561.4</ele>
        <time>2018-06-03T09:51:51Z</time>
      </trkpt>
      <trkpt lat="45.17836" lon="5.58986">
        <ele>1561.1</ele>
        <time>2018-06-03T09:51:53Z</time>
      </trkpt>
      <trkpt lat="45.17847" lon="5.58984">
        <ele>1560.5</ele>
        <time>2018-06-03T09:51:55Z</time>
      </trkpt>
      <trkpt lat="45.17859" lon="5.58983">
        <ele>1559.9</ele>
        <time>2018-06-03T09:51:57Z</time>
      </trkpt>
      <trkpt lat="45.17872" lon="5.58983">
        <ele>1559.1</ele>
        <time>2018-06-03T09:51:59Z</time>
      </trkpt>
      <trkpt lat="45.17884" lon="5.58984">
        <ele>1558.4</ele>
        <time>2018-06-03T09:52:01Z</time>
      </trkpt>
      <trkpt lat="45.17893" lon="5.58988">
        <ele>1557.3</ele>
        <time>2018-06-03T09:52:03Z</time>
      </trkpt>
      <trkpt lat="45.17902" lon="5.58995">
        <ele>1556</ele>
        <time>2018-06-03T09:52:05Z</time>
      </trkpt>
      <trkpt lat="45.17914" lon="5.59002">
        <ele>1554.7</ele>
        <time>2018-06-03T09:52:07Z</time>
      </trkpt>
      <trkpt lat="45.17926" lon="5.59006">
        <ele>1553.4</ele>
        <time>2018-06-03T09:52:09Z</time>
      </trkpt>
      <trkpt lat="45.17938" lon="5.59009">
        <ele>1551.9</ele>
        <time>2018-06-03T09:52:11Z</time>
      </trkpt>
      <trkpt lat="45.17949" lon="5.59011">
        <ele>1550.4</ele>
        <time>2018-06-03T09:52:13Z</time>
      </trkpt>
      <trkpt lat="45.17958" lon="5.59013">
        <ele>1549.1</ele>
        <time>2018-06-03T09:52:15Z</time>
      </trkpt>
      <trkpt lat="45.17967" lon="5.59018">
        <ele>1544.7</ele>
        <time>2018-06-03T09:52:29Z</time>
      </trkpt>
      <trkpt lat="45.17976" lon="5.5902">
        <ele>1543.8</ele>
        <time>2018-06-03T09:52:38Z</time>
      </trkpt>
      <trkpt lat="45.17985" lon="5.59025">
        <ele>1543.4</ele>
        <time>2018-06-03T09:52:44Z</time>
      </trkpt>
      <trkpt lat="45.17995" lon="5.59031">
        <ele>1543.4</ele>
        <time>2018-06-03T09:52:49Z</time>
      </trkpt>
      <trkpt lat="45.18004" lon="5.59039">
        <ele>1543.4</ele>
        <time>2018-06-03T09:52:55Z</time>
      </trkpt>
      <trkpt lat="45.18012" lon="5.59049">
        <ele>1543.5</ele>
        <time>2018-06-03T09:53:00Z</time>
      </trkpt>
      <trkpt lat="45.18019" lon="5.59057">
        <ele>1544.2</ele>
        <time>2018-06-03T09:53:07Z</time>
      </trkpt>
      <trkpt lat="45.18028" lon="5.59063">
        <ele>1545</ele>
        <time>2018-06-03T09:53:18Z</time>
      </trkpt>
      <trkpt lat="45.18037" lon="5.59069">
        <ele>1546.2</ele>
        <time>2018-06-03T09:53:27Z</time>
      </trkpt>
      <trkpt lat="45.18046" lon="5.59071">
        <ele>1547.9</ele>
        <time>2018-06-03T09:53:52Z</time>
      </trkpt>
      <trkpt lat="45.18054" lon="5.59078">
        <ele>1547.8</ele>
        <time>2018-06-03T09:53:58Z</time>
      </trkpt>
      <trkpt lat="45.18062" lon="5.59085">
        <ele>1547.4</ele>
        <time>2018-06-03T09:54:28Z</time>
      </trkpt>
      <trkpt lat="45.1807" lon="5.59092">
        <ele>1547.8</ele>
        <time>2018-06-03T09:54:33Z</time>
      </trkpt>
      <trkpt lat="45.18079" lon="5.591">
        <ele>1548.1</ele>
        <time>2018-06-03T09:54:37Z</time>
      </trkpt>
      <trkpt lat="45.18086" lon="5.59107">
        <ele>1548</ele>
        <time>2018-06-03T09:54:40Z</time>
      </trkpt>
      <trkpt lat="45.18095" lon="5.59116">
        <ele>1548</ele>
        <time>2018-06-03T09:54:44Z</time>
      </trkpt>
      <trkpt lat="45.18102" lon="5.59124">
        <ele>1548.2</ele>
        <time>2018-06-03T09:54:47Z</time>
      </trkpt>
      <trkpt lat="45.18112" lon="5.59133">
        <ele>1548.5</ele>
        <time>2018-06-03T09:54:51Z</time>
      </trkpt>
      <trkpt lat="45.18121" lon="5.59136">
        <ele>1549.1</ele>
        <time>2018-06-03T09:54:55Z</time>
      </trkpt>
      <trkpt lat="45.18133" lon="5.59136">
        <ele>1549.4</ele>
        <time>2018-06-03T09:54:59Z</time>
      </trkpt>
      <trkpt lat="45.18145" lon="5.5914">
        <ele>1549.4</ele>
        <time>2018-06-03T09:55:02Z</time>
      </trkpt>
      <trkpt lat="45.18154" lon="5.59146">
        <ele>1549.3</ele>
        <time>2018-06-03T09:55:04Z</time>
      </trkpt>
      <trkpt lat="45.18162" lon="5.59152">
        <ele>1549.2</ele>
        <time>2018-06-03T09:55:06Z</time>
      </trkpt>
      <trkpt lat="45.1817" lon="5.59158">
        <ele>1548.9</ele>
        <time>2018-06-03T09:55:08Z</time>
      </trkpt>
      <trkpt lat="45.18182" lon="5.59164">
        <ele>1548.7</ele>
        <time>2018-06-03T09:55:11Z</time>
      </trkpt>
      <trkpt lat="45.18192" lon="5.59169">
        <ele>1548.7</ele>
        <time>2018-06-03T09:55:14Z</time>
      </trkpt>
      <trkpt lat="45.18201" lon="5.59173">
        <ele>1548.9</ele>
        <time>2018-06-03T09:55:17Z</time>
      </trkpt>
      <trkpt lat="45.18213" lon="5.59178">
        <ele>1548.9</ele>
        <time>2018-06-03T09:55:20Z</time>
      </trkpt>
      <trkpt lat="45.18224" lon="5.59184">
        <ele>1549.1</ele>
        <time>2018-06-03T09:55:23Z</time>
      </trkpt>
      <trkpt lat="45.18234" lon="5.59192">
        <ele>1549.3</ele>
        <time>2018-06-03T09:55:26Z</time>
      </trkpt>
      <trkpt lat="45.18243" lon="5.592">
        <ele>1549.4</ele>
        <time>2018-06-03T09:55:29Z</time>
      </trkpt>
      <trkpt lat="45.18251" lon="5.59208">
        <ele>1549.6</ele>
        <time>2018-06-03T09:55:32Z</time>
      </trkpt>
      <trkpt lat="45.18258" lon="5.59215">
        <ele>1549.7</ele>
        <time>2018-06-03T09:55:35Z</time>
      </trkpt>
      <trkpt lat="45.18267" lon="5.59225">
        <ele>1549.7</ele>
        <time>2018-06-03T09:55:38Z</time>
      </trkpt>
      <trkpt lat="45.18274" lon="5.59233">
        <ele>1549.8</ele>
        <time>2018-06-03T09:55:41Z</time>
      </trkpt>
      <trkpt lat="45.18285" lon="5.59244">
        <ele>1549.7</ele>
        <time>2018-06-03T09:55:44Z</time>
      </trkpt>
      <trkpt lat="45.18291" lon="5.59254">
        <ele>1549.5</ele>
        <time>2018-06-03T09:55:46Z</time>
      </trkpt>
      <trkpt lat="45.18297" lon="5.59268">
        <ele>1549.2</ele>
        <time>2018-06-03T09:55:49Z</time>
      </trkpt>
      <trkpt lat="45.18306" lon="5.59277">
        <ele>1550.1</ele>
        <time>2018-06-03T09:55:53Z</time>
      </trkpt>
      <trkpt lat="45.18317" lon="5.59283">
        <ele>1550.4</ele>
        <time>2018-06-03T09:55:56Z</time>
      </trkpt>
      <trkpt lat="45.18327" lon="5.59285">
        <ele>1550.3</ele>
        <time>2018-06-03T09:55:58Z</time>
      </trkpt>
      <trkpt lat="45.1834" lon="5.59286">
        <ele>1550.1</ele>
        <time>2018-06-03T09:56:01Z</time>
      </trkpt>
      <trkpt lat="45.18351" lon="5.59285">
        <ele>1550.2</ele>
        <time>2018-06-03T09:56:04Z</time>
      </trkpt>
      <trkpt lat="45.1836" lon="5.59288">
        <ele>1550.7</ele>
        <time>2018-06-03T09:56:07Z</time>
      </trkpt>
      <trkpt lat="45.18369" lon="5.59298">
        <ele>1551.6</ele>
        <time>2018-06-03T09:56:11Z</time>
      </trkpt>
      <trkpt lat="45.18377" lon="5.59309">
        <ele>1551.8</ele>
        <time>2018-06-03T09:56:14Z</time>
      </trkpt>
      <trkpt lat="45.18384" lon="5.59319">
        <ele>1551.7</ele>
        <time>2018-06-03T09:56:16Z</time>
      </trkpt>
      <trkpt lat="45.18393" lon="5.59332">
        <ele>1551.8</ele>
        <time>2018-06-03T09:56:19Z</time>
      </trkpt>
      <trkpt lat="45.18401" lon="5.59345">
        <ele>1551.7</ele>
        <time>2018-06-03T09:56:22Z</time>
      </trkpt>
      <trkpt lat="45.18408" lon="5.59356">
        <ele>1552.1</ele>
        <time>2018-06-03T09:56:25Z</time>
      </trkpt>
      <trkpt lat="45.18416" lon="5.59366">
        <ele>1552.4</ele>
        <time>2018-06-03T09:56:28Z</time>
      </trkpt>
      <trkpt lat="45.18422" lon="5.59375">
        <ele>1552.4</ele>
        <time>2018-06-03T09:56:30Z</time>
      </trkpt>
      <trkpt lat="45.1843" lon="5.59386">
        <ele>1552.1</ele>
        <time>2018-06-03T09:56:32Z</time>
      </trkpt>
      <trkpt lat="45.18439" lon="5.59397">
        <ele>1551.6</ele>
        <time>2018-06-03T09:56:34Z</time>
      </trkpt>
      <trkpt lat="45.18447" lon="5.59408">
        <ele>1551.2</ele>
        <time>2018-06-03T09:56:36Z</time>
      </trkpt>
      <trkpt lat="45.18454" lon="5.5942">
        <ele>1551</ele>
        <time>2018-06-03T09:56:38Z</time>
      </trkpt>
      <trkpt lat="45.1846" lon="5.5943">
        <ele>1550.7</ele>
        <time>2018-06-03T09:56:40Z</time>
      </trkpt>
      <trkpt lat="45.18466" lon="5.59439">
        <ele>1550.5</ele>
        <time>2018-06-03T09:56:42Z</time>
      </trkpt>
      <trkpt lat="45.18476" lon="5.5945">
        <ele>1550.1</ele>
        <time>2018-06-03T09:56:45Z</time>
      </trkpt>
      <trkpt lat="45.18484" lon="5.59461">
        <ele>1549.9</ele>
        <time>2018-06-03T09:56:48Z</time>
      </trkpt>
      <trkpt lat="45.18493" lon="5.5947">
        <ele>1549.9</ele>
        <time>2018-06-03T09:56:51Z</time>
      </trkpt>
      <trkpt lat="45.18503" lon="5.59479">
        <ele>1550.1</ele>
        <time>2018-06-03T09:56:54Z</time>
      </trkpt>
      <trkpt lat="45.18513" lon="5.59485">
        <ele>1550.5</ele>
        <time>2018-06-03T09:56:57Z</time>
      </trkpt>
      <trkpt lat="45.18522" lon="5.59494">
        <ele>1551.5</ele>
        <time>2018-06-03T09:57:01Z</time>
      </trkpt>
      <trkpt lat="45.18532" lon="5.59502">
        <ele>1551.8</ele>
        <time>2018-06-03T09:57:05Z</time>
      </trkpt>
      <trkpt lat="45.18541" lon="5.59508">
        <ele>1552.5</ele>
        <time>2018-06-03T09:57:09Z</time>
      </trkpt>
      <trkpt lat="45.1855" lon="5.59513">
        <ele>1553.5</ele>
        <time>2018-06-03T09:57:17Z</time>
      </trkpt>
      <trkpt lat="45.18559" lon="5.59515">
        <ele>1553.8</ele>
        <time>2018-06-03T09:57:22Z</time>
      </trkpt>
      <trkpt lat="45.18569" lon="5.59515">
        <ele>1554</ele>
        <time>2018-06-03T09:57:26Z</time>
      </trkpt>
      <trkpt lat="45.18581" lon="5.59517">
        <ele>1553.8</ele>
        <time>2018-06-03T09:57:30Z</time>
      </trkpt>
      <trkpt lat="45.18591" lon="5.59519">
        <ele>1553.9</ele>
        <time>2018-06-03T09:57:34Z</time>
      </trkpt>
      <trkpt lat="45.18602" lon="5.59523">
        <ele>1554</ele>
        <time>2018-06-03T09:57:38Z</time>
      </trkpt>
      <trkpt lat="45.18611" lon="5.59526">
        <ele>1554.2</ele>
        <time>2018-06-03T09:57:42Z</time>
      </trkpt>
      <trkpt lat="45.18621" lon="5.59528">
        <ele>1554.8</ele>
        <time>2018-06-03T09:57:46Z</time>
      </trkpt>
      <trkpt lat="45.18631" lon="5.59529">
        <ele>1555.1</ele>
        <time>2018-06-03T09:57:50Z</time>
      </trkpt>
      <trkpt lat="45.18642" lon="5.59529">
        <ele>1555.9</ele>
        <time>2018-06-03T09:57:55Z</time>
      </trkpt>
      <trkpt lat="45.18653" lon="5.59529">
        <ele>1556.5</ele>
        <time>2018-06-03T09:58:00Z</time>
      </trkpt>
      <trkpt lat="45.18663" lon="5.5953">
        <ele>1557</ele>
        <time>2018-06-03T09:58:04Z</time>
      </trkpt>
      <trkpt lat="45.18673" lon="5.59533">
        <ele>1557.5</ele>
        <time>2018-06-03T09:58:08Z</time>
      </trkpt>
      <trkpt lat="45.18684" lon="5.59535">
        <ele>1557.8</ele>
        <time>2018-06-03T09:58:12Z</time>
      </trkpt>
      <trkpt lat="45.18695" lon="5.59537">
        <ele>1558.2</ele>
        <time>2018-06-03T09:58:16Z</time>
      </trkpt>
      <trkpt lat="45.18704" lon="5.59539">
        <ele>1558.7</ele>
        <time>2018-06-03T09:58:20Z</time>
      </trkpt>
      <trkpt lat="45.18714" lon="5.5954">
        <ele>1559.3</ele>
        <time>2018-06-03T09:58:24Z</time>
      </trkpt>
      <trkpt lat="45.18725" lon="5.59541">
        <ele>1559.6</ele>
        <time>2018-06-03T09:58:28Z</time>
      </trkpt>
      <trkpt lat="45.18736" lon="5.59541">
        <ele>1560</ele>
        <time>2018-06-03T09:58:32Z</time>
      </trkpt>
      <trkpt lat="45.18747" lon="5.59542">
        <ele>1560.4</ele>
        <time>2018-06-03T09:58:36Z</time>
      </trkpt>
      <trkpt lat="45.18756" lon="5.59542">
        <ele>1561.2</ele>
        <time>2018-06-03T09:58:40Z</time>
      </trkpt>
      <trkpt lat="45.18767" lon="5.59542">
        <ele>1562.1</ele>
        <time>2018-06-03T09:58:45Z</time>
      </trkpt>
      <trkpt lat="45.18776" lon="5.5954">
        <ele>1563.3</ele>
        <time>2018-06-03T09:58:50Z</time>
      </trkpt>
      <trkpt lat="45.18786" lon="5.59537">
        <ele>1564.6</ele>
        <time>2018-06-03T09:58:56Z</time>
      </trkpt>
      <trkpt lat="45.18796" lon="5.59536">
        <ele>1566</ele>
        <time>2018-06-03T09:59:02Z</time>
      </trkpt>
      <trkpt lat="45.18807" lon="5.59537">
        <ele>1567.3</ele>
        <time>2018-06-03T09:59:08Z</time>
      </trkpt>
      <trkpt lat="45.18816" lon="5.59541">
        <ele>1567.9</ele>
        <time>2018-06-03T09:59:13Z</time>
      </trkpt>
      <trkpt lat="45.18826" lon="5.59543">
        <ele>1568.1</ele>
        <time>2018-06-03T09:59:17Z</time>
      </trkpt>
      <trkpt lat="45.18836" lon="5.59542">
        <ele>1568</ele>
        <time>2018-06-03T09:59:20Z</time>
      </trkpt>
      <trkpt lat="45.18845" lon="5.5953">
        <ele>1567.5</ele>
        <time>2018-06-03T09:59:23Z</time>
      </trkpt>
      <trkpt lat="45.18844" lon="5.59515">
        <ele>1567.3</ele>
        <time>2018-06-03T09:59:26Z</time>
      </trkpt>
      <trkpt lat="45.18843" lon="5.59502">
        <ele>1567.3</ele>
        <time>2018-06-03T09:59:29Z</time>
      </trkpt>
      <trkpt lat="45.18843" lon="5.59488">
        <ele>1567.2</ele>
        <time>2018-06-03T09:59:32Z</time>
      </trkpt>
      <trkpt lat="45.18847" lon="5.59473">
        <ele>1567.3</ele>
        <time>2018-06-03T09:59:36Z</time>
      </trkpt>
      <trkpt lat="45.18856" lon="5.59465">
        <ele>1567.3</ele>
        <time>2018-06-03T09:59:39Z</time>
      </trkpt>
      <trkpt lat="45.18867" lon="5.59461">
        <ele>1567.3</ele>
        <time>2018-06-03T09:59:42Z</time>
      </trkpt>
      <trkpt lat="45.18878" lon="5.59456">
        <ele>1567.4</ele>
        <time>2018-06-03T09:59:45Z</time>
      </trkpt>
      <trkpt lat="45.18889" lon="5.59454">
        <ele>1567.6</ele>
        <time>2018-06-03T09:59:48Z</time>
      </trkpt>
      <trkpt lat="45.18898" lon="5.59454">
        <ele>1567.5</ele>
        <time>2018-06-03T09:59:51Z</time>
      </trkpt>
      <trkpt lat="45.18907" lon="5.59452">
        <ele>1567.6</ele>
        <time>2018-06-03T09:59:54Z</time>
      </trkpt>
      <trkpt lat="45.18919" lon="5.59448">
        <ele>1567.9</ele>
        <time>2018-06-03T09:59:58Z</time>
      </trkpt>
      <trkpt lat="45.18927" lon="5.59443">
        <ele>1568.5</ele>
        <time>2018-06-03T10:00:02Z</time>
      </trkpt>
      <trkpt lat="45.18936" lon="5.59439">
        <ele>1569.3</ele>
        <time>2018-06-03T10:00:06Z</time>
      </trkpt>
      <trkpt lat="45.18945" lon="5.59435">
        <ele>1570.3</ele>
        <time>2018-06-03T10:00:10Z</time>
      </trkpt>
      <trkpt lat="45.18954" lon="5.59429">
        <ele>1571.5</ele>
        <time>2018-06-03T10:00:15Z</time>
      </trkpt>
      <trkpt lat="45.18962" lon="5.5942">
        <ele>1573</ele>
        <time>2018-06-03T10:00:21Z</time>
      </trkpt>
      <trkpt lat="45.1897" lon="5.59412">
        <ele>1574</ele>
        <time>2018-06-03T10:00:26Z</time>
      </trkpt>
      <trkpt lat="45.18979" lon="5.59404">
        <ele>1574.9</ele>
        <time>2018-06-03T10:00:32Z</time>
      </trkpt>
      <trkpt lat="45.18988" lon="5.59397">
        <ele>1575.9</ele>
        <time>2018-06-03T10:00:38Z</time>
      </trkpt>
      <trkpt lat="45.18997" lon="5.59393">
        <ele>1577.2</ele>
        <time>2018-06-03T10:00:44Z</time>
      </trkpt>
      <trkpt lat="45.19007" lon="5.5939">
        <ele>1578.5</ele>
        <time>2018-06-03T10:00:50Z</time>
      </trkpt>
      <trkpt lat="45.19017" lon="5.59389">
        <ele>1579.7</ele>
        <time>2018-06-03T10:00:56Z</time>
      </trkpt>
      <trkpt lat="45.19028" lon="5.59386">
        <ele>1580.7</ele>
        <time>2018-06-03T10:01:02Z</time>
      </trkpt>
      <trkpt lat="45.19038" lon="5.59384">
        <ele>1581.8</ele>
        <time>2018-06-03T10:01:08Z</time>
      </trkpt>
      <trkpt lat="45.19049" lon="5.59385">
        <ele>1582.6</ele>
        <time>2018-06-03T10:01:13Z</time>
      </trkpt>
      <trkpt lat="45.19058" lon="5.59388">
        <ele>1583</ele>
        <time>2018-06-03T10:01:17Z</time>
      </trkpt>
      <trkpt lat="45.19068" lon="5.59389">
        <ele>1583.2</ele>
        <time>2018-06-03T10:01:21Z</time>
      </trkpt>
      <trkpt lat="45.19078" lon="5.5939">
        <ele>1583.3</ele>
        <time>2018-06-03T10:01:25Z</time>
      </trkpt>
      <trkpt lat="45.19087" lon="5.59391">
        <ele>1583.6</ele>
        <time>2018-06-03T10:01:29Z</time>
      </trkpt>
      <trkpt lat="45.19097" lon="5.5939">
        <ele>1583.9</ele>
        <time>2018-06-03T10:01:34Z</time>
      </trkpt>
      <trkpt lat="45.19109" lon="5.59388">
        <ele>1583.9</ele>
        <time>2018-06-03T10:01:38Z</time>
      </trkpt>
      <trkpt lat="45.19121" lon="5.59385">
        <ele>1583.7</ele>
        <time>2018-06-03T10:01:41Z</time>
      </trkpt>
      <trkpt lat="45.19133" lon="5.59383">
        <ele>1583.6</ele>
        <time>2018-06-03T10:01:44Z</time>
      </trkpt>
      <trkpt lat="45.19143" lon="5.59381">
        <ele>1583.8</ele>
        <time>2018-06-03T10:01:47Z</time>
      </trkpt>
      <trkpt lat="45.19153" lon="5.5938">
        <ele>1584.3</ele>
        <time>2018-06-03T10:01:50Z</time>
      </trkpt>
      <trkpt lat="45.19163" lon="5.5938">
        <ele>1585.4</ele>
        <time>2018-06-03T10:01:54Z</time>
      </trkpt>
      <trkpt lat="45.19173" lon="5.59382">
        <ele>1586.5</ele>
        <time>2018-06-03T10:01:58Z</time>
      </trkpt>
      <trkpt lat="45.19184" lon="5.59382">
        <ele>1587.3</ele>
        <time>2018-06-03T10:02:02Z</time>
      </trkpt>
      <trkpt lat="45.19195" lon="5.59382">
        <ele>1587.7</ele>
        <time>2018-06-03T10:02:06Z</time>
      </trkpt>
      <trkpt lat="45.19204" lon="5.5938">
        <ele>1588.3</ele>
        <time>2018-06-03T10:02:10Z</time>
      </trkpt>
      <trkpt lat="45.19215" lon="5.59376">
        <ele>1589.1</ele>
        <time>2018-06-03T10:02:15Z</time>
      </trkpt>
      <trkpt lat="45.19224" lon="5.59371">
        <ele>1590</ele>
        <time>2018-06-03T10:02:20Z</time>
      </trkpt>
      <trkpt lat="45.19235" lon="5.5937">
        <ele>1590.9</ele>
        <time>2018-06-03T10:02:25Z</time>
      </trkpt>
      <trkpt lat="45.19244" lon="5.5937">
        <ele>1591.7</ele>
        <time>2018-06-03T10:02:30Z</time>
      </trkpt>
      <trkpt lat="45.19255" lon="5.59371">
        <ele>1592.6</ele>
        <time>2018-06-03T10:02:35Z</time>
      </trkpt>
      <trkpt lat="45.19265" lon="5.59373">
        <ele>1593.6</ele>
        <time>2018-06-03T10:02:40Z</time>
      </trkpt>
      <trkpt lat="45.19276" lon="5.59375">
        <ele>1594.4</ele>
        <time>2018-06-03T10:02:45Z</time>
      </trkpt>
      <trkpt lat="45.19285" lon="5.59375">
        <ele>1595.1</ele>
        <time>2018-06-03T10:02:49Z</time>
      </trkpt>
      <trkpt lat="45.19296" lon="5.59377">
        <ele>1595.6</ele>
        <time>2018-06-03T10:02:53Z</time>
      </trkpt>
      <trkpt lat="45.19306" lon="5.59377">
        <ele>1596.1</ele>
        <time>2018-06-03T10:02:57Z</time>
      </trkpt>
      <trkpt lat="45.19315" lon="5.59377">
        <ele>1596.8</ele>
        <time>2018-06-03T10:03:01Z</time>
      </trkpt>
      <trkpt lat="45.19326" lon="5.59378">
        <ele>1597.2</ele>
        <time>2018-06-03T10:03:05Z</time>
      </trkpt>
      <trkpt lat="45.19337" lon="5.5938">
        <ele>1597.3</ele>
        <time>2018-06-03T10:03:09Z</time>
      </trkpt>
      <trkpt lat="45.19348" lon="5.59382">
        <ele>1597.5</ele>
        <time>2018-06-03T10:03:13Z</time>
      </trkpt>
      <trkpt lat="45.19359" lon="5.59382">
        <ele>1598</ele>
        <time>2018-06-03T10:03:18Z</time>
      </trkpt>
      <trkpt lat="45.19368" lon="5.59382">
        <ele>1598.5</ele>
        <time>2018-06-03T10:03:22Z</time>
      </trkpt>
      <trkpt lat="45.19379" lon="5.59382">
        <ele>1599</ele>
        <time>2018-06-03T10:03:26Z</time>
      </trkpt>
      <trkpt lat="45.19391" lon="5.59381">
        <ele>1599.3</ele>
        <time>2018-06-03T10:03:30Z</time>
      </trkpt>
      <trkpt lat="45.19402" lon="5.5938">
        <ele>1599.8</ele>
        <time>2018-06-03T10:03:34Z</time>
      </trkpt>
      <trkpt lat="45.19414" lon="5.5938">
        <ele>1600.3</ele>
        <time>2018-06-03T10:03:38Z</time>
      </trkpt>
      <trkpt lat="45.19424" lon="5.5938">
        <ele>1601.1</ele>
        <time>2018-06-03T10:03:42Z</time>
      </trkpt>
      <trkpt lat="45.19435" lon="5.5938">
        <ele>1602</ele>
        <time>2018-06-03T10:03:46Z</time>
      </trkpt>
      <trkpt lat="45.19445" lon="5.5938">
        <ele>1602.6</ele>
        <time>2018-06-03T10:03:50Z</time>
      </trkpt>
      <trkpt lat="45.19456" lon="5.59381">
        <ele>1602.7</ele>
        <time>2018-06-03T10:03:55Z</time>
      </trkpt>
      <trkpt lat="45.19468" lon="5.59381">
        <ele>1602.5</ele>
        <time>2018-06-03T10:03:59Z</time>
      </trkpt>
      <trkpt lat="45.1948" lon="5.59381">
        <ele>1602.3</ele>
        <time>2018-06-03T10:04:03Z</time>
      </trkpt>
      <trkpt lat="45.1949" lon="5.59379">
        <ele>1602</ele>
        <time>2018-06-03T10:04:06Z</time>
      </trkpt>
      <trkpt lat="45.195" lon="5.59375">
        <ele>1601.9</ele>
        <time>2018-06-03T10:04:09Z</time>
      </trkpt>
      <trkpt lat="45.1951" lon="5.59371">
        <ele>1601.8</ele>
        <time>2018-06-03T10:04:12Z</time>
      </trkpt>
      <trkpt lat="45.1952" lon="5.59367">
        <ele>1601.7</ele>
        <time>2018-06-03T10:04:15Z</time>
      </trkpt>
      <trkpt lat="45.1953" lon="5.59361">
        <ele>1601.6</ele>
        <time>2018-06-03T10:04:18Z</time>
      </trkpt>
      <trkpt lat="45.1954" lon="5.59354">
        <ele>1601.5</ele>
        <time>2018-06-03T10:04:21Z</time>
      </trkpt>
      <trkpt lat="45.19549" lon="5.59346">
        <ele>1601.4</ele>
        <time>2018-06-03T10:04:24Z</time>
      </trkpt>
      <trkpt lat="45.19557" lon="5.59337">
        <ele>1601.6</ele>
        <time>2018-06-03T10:04:27Z</time>
      </trkpt>
      <trkpt lat="45.19566" lon="5.59331">
        <ele>1601.8</ele>
        <time>2018-06-03T10:04:30Z</time>
      </trkpt>
      <trkpt lat="45.19575" lon="5.59328">
        <ele>1602</ele>
        <time>2018-06-03T10:04:33Z</time>
      </trkpt>
      <trkpt lat="45.19587" lon="5.59327">
        <ele>1602.3</ele>
        <time>2018-06-03T10:04:37Z</time>
      </trkpt>
      <trkpt lat="45.19598" lon="5.59326">
        <ele>1602.8</ele>
        <time>2018-06-03T10:04:41Z</time>
      </trkpt>
      <trkpt lat="45.19609" lon="5.59322">
        <ele>1603.3</ele>
        <time>2018-06-03T10:04:45Z</time>
      </trkpt>
      <trkpt lat="45.19619" lon="5.59319">
        <ele>1603.9</ele>
        <time>2018-06-03T10:04:49Z</time>
      </trkpt>
      <trkpt lat="45.19627" lon="5.59316">
        <ele>1604.6</ele>
        <time>2018-06-03T10:04:54Z</time>
      </trkpt>
      <trkpt lat="45.19637" lon="5.59313">
        <ele>1605.3</ele>
        <time>2018-06-03T10:05:08Z</time>
      </trkpt>
      <trkpt lat="45.19648" lon="5.59311">
        <ele>1605.7</ele>
        <time>2018-06-03T10:05:13Z</time>
      </trkpt>
      <trkpt lat="45.19659" lon="5.59311">
        <ele>1606.3</ele>
        <time>2018-06-03T10:05:18Z</time>
      </trkpt>
      <trkpt lat="45.19669" lon="5.59316">
        <ele>1606.8</ele>
        <time>2018-06-03T10:05:23Z</time>
      </trkpt>
      <trkpt lat="45.1968" lon="5.5932">
        <ele>1607.1</ele>
        <time>2018-06-03T10:05:28Z</time>
      </trkpt>
      <trkpt lat="45.1969" lon="5.59324">
        <ele>1607.6</ele>
        <time>2018-06-03T10:05:33Z</time>
      </trkpt>
      <trkpt lat="45.19699" lon="5.59325">
        <ele>1608.2</ele>
        <time>2018-06-03T10:05:37Z</time>
      </trkpt>
      <trkpt lat="45.1971" lon="5.59325">
        <ele>1608.3</ele>
        <time>2018-06-03T10:05:41Z</time>
      </trkpt>
      <trkpt lat="45.1972" lon="5.59321">
        <ele>1608.7</ele>
        <time>2018-06-03T10:05:45Z</time>
      </trkpt>
      <trkpt lat="45.19729" lon="5.59317">
        <ele>1609.4</ele>
        <time>2018-06-03T10:05:49Z</time>
      </trkpt>
      <trkpt lat="45.19738" lon="5.59313">
        <ele>1610.3</ele>
        <time>2018-06-03T10:05:54Z</time>
      </trkpt>
      <trkpt lat="45.19747" lon="5.59307">
        <ele>1610.9</ele>
        <time>2018-06-03T10:05:59Z</time>
      </trkpt>
      <trkpt lat="45.19755" lon="5.593">
        <ele>1611.8</ele>
        <time>2018-06-03T10:06:04Z</time>
      </trkpt>
      <trkpt lat="45.19761" lon="5.59289">
        <ele>1612.9</ele>
        <time>2018-06-03T10:06:09Z</time>
      </trkpt>
      <trkpt lat="45.19767" lon="5.59277">
        <ele>1613.9</ele>
        <time>2018-06-03T10:06:14Z</time>
      </trkpt>
      <trkpt lat="45.19774" lon="5.59266">
        <ele>1614.8</ele>
        <time>2018-06-03T10:06:19Z</time>
      </trkpt>
      <trkpt lat="45.19782" lon="5.59257">
        <ele>1615.5</ele>
        <time>2018-06-03T10:06:24Z</time>
      </trkpt>
      <trkpt lat="45.1979" lon="5.59251">
        <ele>1616</ele>
        <time>2018-06-03T10:06:29Z</time>
      </trkpt>
      <trkpt lat="45.198" lon="5.59245">
        <ele>1616.6</ele>
        <time>2018-06-03T10:06:34Z</time>
      </trkpt>
      <trkpt lat="45.1981" lon="5.59239">
        <ele>1616.9</ele>
        <time>2018-06-03T10:06:40Z</time>
      </trkpt>
      <trkpt lat="45.19818" lon="5.59233">
        <ele>1617</ele>
        <time>2018-06-03T10:06:44Z</time>
      </trkpt>
      <trkpt lat="45.19826" lon="5.59226">
        <ele>1617.3</ele>
        <time>2018-06-03T10:06:48Z</time>
      </trkpt>
      <trkpt lat="45.19833" lon="5.59215">
        <ele>1617.5</ele>
        <time>2018-06-03T10:06:54Z</time>
      </trkpt>
      <trkpt lat="45.19838" lon="5.59202">
        <ele>1617.9</ele>
        <time>2018-06-03T10:07:01Z</time>
      </trkpt>
      <trkpt lat="45.19845" lon="5.59194">
        <ele>1618</ele>
        <time>2018-06-03T10:07:05Z</time>
      </trkpt>
      <trkpt lat="45.19854" lon="5.59189">
        <ele>1617.8</ele>
        <time>2018-06-03T10:07:08Z</time>
      </trkpt>
      <trkpt lat="45.19863" lon="5.59185">
        <ele>1617.9</ele>
        <time>2018-06-03T10:07:11Z</time>
      </trkpt>
      <trkpt lat="45.19875" lon="5.59183">
        <ele>1618</ele>
        <time>2018-06-03T10:07:15Z</time>
      </trkpt>
      <trkpt lat="45.19886" lon="5.59184">
        <ele>1618.1</ele>
        <time>2018-06-03T10:07:19Z</time>
      </trkpt>
      <trkpt lat="45.19897" lon="5.59185">
        <ele>1618.3</ele>
        <time>2018-06-03T10:07:23Z</time>
      </trkpt>
      <trkpt lat="45.19909" lon="5.59186">
        <ele>1618.1</ele>
        <time>2018-06-03T10:07:27Z</time>
      </trkpt>
      <trkpt lat="45.1992" lon="5.59186">
        <ele>1618.1</ele>
        <time>2018-06-03T10:07:30Z</time>
      </trkpt>
      <trkpt lat="45.19929" lon="5.59187">
        <ele>1618</ele>
        <time>2018-06-03T10:07:33Z</time>
      </trkpt>
      <trkpt lat="45.19941" lon="5.59188">
        <ele>1617.7</ele>
        <time>2018-06-03T10:07:37Z</time>
      </trkpt>
      <trkpt lat="45.1995" lon="5.59189">
        <ele>1617.7</ele>
        <time>2018-06-03T10:07:40Z</time>
      </trkpt>
      <trkpt lat="45.1996" lon="5.59189">
        <ele>1617.9</ele>
        <time>2018-06-03T10:07:43Z</time>
      </trkpt>
      <trkpt lat="45.19969" lon="5.5919">
        <ele>1618.2</ele>
        <time>2018-06-03T10:07:46Z</time>
      </trkpt>
      <trkpt lat="45.19979" lon="5.59191">
        <ele>1618.5</ele>
        <time>2018-06-03T10:07:49Z</time>
      </trkpt>
      <trkpt lat="45.19989" lon="5.59193">
        <ele>1618.6</ele>
        <time>2018-06-03T10:07:52Z</time>
      </trkpt>
      <trkpt lat="45.19999" lon="5.59196">
        <ele>1618.8</ele>
        <time>2018-06-03T10:07:55Z</time>
      </trkpt>
      <trkpt lat="45.20009" lon="5.59199">
        <ele>1619.2</ele>
        <time>2018-06-03T10:07:58Z</time>
      </trkpt>
      <trkpt lat="45.2002" lon="5.59204">
        <ele>1619.3</ele>
        <time>2018-06-03T10:08:01Z</time>
      </trkpt>
      <trkpt lat="45.20029" lon="5.59206">
        <ele>1619.4</ele>
        <time>2018-06-03T10:08:04Z</time>
      </trkpt>
      <trkpt lat="45.20039" lon="5.59209">
        <ele>1619.1</ele>
        <time>2018-06-03T10:08:07Z</time>
      </trkpt>
      <trkpt lat="45.20049" lon="5.59212">
        <ele>1619</ele>
        <time>2018-06-03T10:08:10Z</time>
      </trkpt>
      <trkpt lat="45.20061" lon="5.59216">
        <ele>1619</ele>
        <time>2018-06-03T10:08:13Z</time>
      </trkpt>
      <trkpt lat="45.20072" lon="5.5922">
        <ele>1618.8</ele>
        <time>2018-06-03T10:08:16Z</time>
      </trkpt>
      <trkpt lat="45.20084" lon="5.59222">
        <ele>1618.8</ele>
        <time>2018-06-03T10:08:19Z</time>
      </trkpt>
      <trkpt lat="45.20098" lon="5.59222">
        <ele>1618.7</ele>
        <time>2018-06-03T10:08:22Z</time>
      </trkpt>
      <trkpt lat="45.20111" lon="5.59223">
        <ele>1618.4</ele>
        <time>2018-06-03T10:08:25Z</time>
      </trkpt>
      <trkpt lat="45.20121" lon="5.59225">
        <ele>1618.3</ele>
        <time>2018-06-03T10:08:27Z</time>
      </trkpt>
      <trkpt lat="45.20131" lon="5.59227">
        <ele>1618.1</ele>
        <time>2018-06-03T10:08:29Z</time>
      </trkpt>
      <trkpt lat="45.20141" lon="5.59231">
        <ele>1617.9</ele>
        <time>2018-06-03T10:08:31Z</time>
      </trkpt>
      <trkpt lat="45.2015" lon="5.59234">
        <ele>1617.5</ele>
        <time>2018-06-03T10:08:33Z</time>
      </trkpt>
      <trkpt lat="45.20163" lon="5.59236">
        <ele>1617.3</ele>
        <time>2018-06-03T10:08:36Z</time>
      </trkpt>
      <trkpt lat="45.20172" lon="5.59236">
        <ele>1617.4</ele>
        <time>2018-06-03T10:08:39Z</time>
      </trkpt>
      <trkpt lat="45.20185" lon="5.59239">
        <ele>1617.7</ele>
        <time>2018-06-03T10:08:43Z</time>
      </trkpt>
      <trkpt lat="45.20195" lon="5.59242">
        <ele>1617.8</ele>
        <time>2018-06-03T10:08:46Z</time>
      </trkpt>
      <trkpt lat="45.20206" lon="5.59245">
        <ele>1617.9</ele>
        <time>2018-06-03T10:08:50Z</time>
      </trkpt>
      <trkpt lat="45.20214" lon="5.59253">
        <ele>1617.7</ele>
        <time>2018-06-03T10:08:56Z</time>
      </trkpt>
      <trkpt lat="45.20225" lon="5.59252">
        <ele>1617.9</ele>
        <time>2018-06-03T10:09:01Z</time>
      </trkpt>
      <trkpt lat="45.20236" lon="5.59257">
        <ele>1617.8</ele>
        <time>2018-06-03T10:09:05Z</time>
      </trkpt>
      <trkpt lat="45.20245" lon="5.59261">
        <ele>1617.6</ele>
        <time>2018-06-03T10:09:08Z</time>
      </trkpt>
      <trkpt lat="45.20254" lon="5.59264">
        <ele>1617.5</ele>
        <time>2018-06-03T10:09:11Z</time>
      </trkpt>
      <trkpt lat="45.20265" lon="5.59268">
        <ele>1617.3</ele>
        <time>2018-06-03T10:09:14Z</time>
      </trkpt>
      <trkpt lat="45.20276" lon="5.59271">
        <ele>1617.4</ele>
        <time>2018-06-03T10:09:17Z</time>
      </trkpt>
      <trkpt lat="45.20287" lon="5.59274">
        <ele>1617.2</ele>
        <time>2018-06-03T10:09:20Z</time>
      </trkpt>
      <trkpt lat="45.20297" lon="5.59275">
        <ele>1617.2</ele>
        <time>2018-06-03T10:09:23Z</time>
      </trkpt>
      <trkpt lat="45.20307" lon="5.59278">
        <ele>1617.4</ele>
        <time>2018-06-03T10:09:26Z</time>
      </trkpt>
      <trkpt lat="45.20317" lon="5.59281">
        <ele>1617.1</ele>
        <time>2018-06-03T10:09:29Z</time>
      </trkpt>
      <trkpt lat="45.20327" lon="5.59283">
        <ele>1617.2</ele>
        <time>2018-06-03T10:09:32Z</time>
      </trkpt>
      <trkpt lat="45.20338" lon="5.59285">
        <ele>1617.1</ele>
        <time>2018-06-03T10:09:35Z</time>
      </trkpt>
      <trkpt lat="45.2035" lon="5.5929">
        <ele>1616.6</ele>
        <time>2018-06-03T10:09:38Z</time>
      </trkpt>
      <trkpt lat="45.20362" lon="5.59295">
        <ele>1616</ele>
        <time>2018-06-03T10:09:41Z</time>
      </trkpt>
      <trkpt lat="45.20372" lon="5.59299">
        <ele>1615.6</ele>
        <time>2018-06-03T10:09:43Z</time>
      </trkpt>
      <trkpt lat="45.20383" lon="5.59302">
        <ele>1615</ele>
        <time>2018-06-03T10:09:45Z</time>
      </trkpt>
      <trkpt lat="45.20395" lon="5.59304">
        <ele>1614.3</ele>
        <time>2018-06-03T10:09:47Z</time>
      </trkpt>
      <trkpt lat="45.20408" lon="5.59306">
        <ele>1613.3</ele>
        <time>2018-06-03T10:09:49Z</time>
      </trkpt>
      <trkpt lat="45.2042" lon="5.59306">
        <ele>1612.9</ele>
        <time>2018-06-03T10:09:51Z</time>
      </trkpt>
      <trkpt lat="45.20432" lon="5.59306">
        <ele>1612.8</ele>
        <time>2018-06-03T10:09:53Z</time>
      </trkpt>
      <trkpt lat="45.20444" lon="5.59305">
        <ele>1612.2</ele>
        <time>2018-06-03T10:09:55Z</time>
      </trkpt>
      <trkpt lat="45.20457" lon="5.59309">
        <ele>1611.2</ele>
        <time>2018-06-03T10:09:57Z</time>
      </trkpt>
      <trkpt lat="45.20467" lon="5.59312">
        <ele>1609.8</ele>
        <time>2018-06-03T10:09:59Z</time>
      </trkpt>
      <trkpt lat="45.20476" lon="5.59315">
        <ele>1608.5</ele>
        <time>2018-06-03T10:10:02Z</time>
      </trkpt>
      <trkpt lat="45.20484" lon="5.59309">
        <ele>1606</ele>
        <time>2018-06-03T10:10:34Z</time>
      </trkpt>
      <trkpt lat="45.20494" lon="5.59299">
        <ele>1605.7</ele>
        <time>2018-06-03T10:10:38Z</time>
      </trkpt>
      <trkpt lat="45.20502" lon="5.59291">
        <ele>1605.5</ele>
        <time>2018-06-03T10:10:41Z</time>
      </trkpt>
      <trkpt lat="45.20512" lon="5.59282">
        <ele>1604.9</ele>
        <time>2018-06-03T10:10:44Z</time>
      </trkpt>
      <trkpt lat="45.2052" lon="5.59276">
        <ele>1604.6</ele>
        <time>2018-06-03T10:10:46Z</time>
      </trkpt>
      <trkpt lat="45.20532" lon="5.59272">
        <ele>1604.3</ele>
        <time>2018-06-03T10:10:49Z</time>
      </trkpt>
      <trkpt lat="45.20543" lon="5.59266">
        <ele>1604.3</ele>
        <time>2018-06-03T10:10:52Z</time>
      </trkpt>
      <trkpt lat="45.20552" lon="5.5926">
        <ele>1604.8</ele>
        <time>2018-06-03T10:10:55Z</time>
      </trkpt>
      <trkpt lat="45.2056" lon="5.59252">
        <ele>1604.9</ele>
        <time>2018-06-03T10:10:59Z</time>
      </trkpt>
      <trkpt lat="45.20569" lon="5.59244">
        <ele>1604.8</ele>
        <time>2018-06-03T10:11:02Z</time>
      </trkpt>
      <trkpt lat="45.20577" lon="5.59236">
        <ele>1604.2</ele>
        <time>2018-06-03T10:11:04Z</time>
      </trkpt>
      <trkpt lat="45.20585" lon="5.59231">
        <ele>1604</ele>
        <time>2018-06-03T10:11:06Z</time>
      </trkpt>
      <trkpt lat="45.20595" lon="5.59222">
        <ele>1603.9</ele>
        <time>2018-06-03T10:11:09Z</time>
      </trkpt>
      <trkpt lat="45.20604" lon="5.59217">
        <ele>1603.7</ele>
        <time>2018-06-03T10:11:12Z</time>
      </trkpt>
      <trkpt lat="45.20616" lon="5.59213">
        <ele>1603.2</ele>
        <time>2018-06-03T10:11:15Z</time>
      </trkpt>
      <trkpt lat="45.20626" lon="5.59213">
        <ele>1602.7</ele>
        <time>2018-06-03T10:11:17Z</time>
      </trkpt>
      <trkpt lat="45.20636" lon="5.59213">
        <ele>1602.3</ele>
        <time>2018-06-03T10:11:19Z</time>
      </trkpt>
      <trkpt lat="45.20649" lon="5.59215">
        <ele>1602</ele>
        <time>2018-06-03T10:11:21Z</time>
      </trkpt>
      <trkpt lat="45.2066" lon="5.59217">
        <ele>1601.5</ele>
        <time>2018-06-03T10:11:23Z</time>
      </trkpt>
      <trkpt lat="45.2067" lon="5.59222">
        <ele>1601.1</ele>
        <time>2018-06-03T10:11:25Z</time>
      </trkpt>
      <trkpt lat="45.20684" lon="5.59222">
        <ele>1600.1</ele>
        <time>2018-06-03T10:11:27Z</time>
      </trkpt>
      <trkpt lat="45.20697" lon="5.59217">
        <ele>1599.1</ele>
        <time>2018-06-03T10:11:29Z</time>
      </trkpt>
      <trkpt lat="45.20704" lon="5.59209">
        <ele>1598.2</ele>
        <time>2018-06-03T10:11:31Z</time>
      </trkpt>
      <trkpt lat="45.20708" lon="5.59193">
        <ele>1597.2</ele>
        <time>2018-06-03T10:11:34Z</time>
      </trkpt>
      <trkpt lat="45.20715" lon="5.59183">
        <ele>1596.8</ele>
        <time>2018-06-03T10:11:36Z</time>
      </trkpt>
      <trkpt lat="45.20723" lon="5.59172">
        <ele>1596.7</ele>
        <time>2018-06-03T10:11:39Z</time>
      </trkpt>
      <trkpt lat="45.20732" lon="5.59164">
        <ele>1597.4</ele>
        <time>2018-06-03T10:11:42Z</time>
      </trkpt>
      <trkpt lat="45.2074" lon="5.59156">
        <ele>1598.7</ele>
        <time>2018-06-03T10:11:46Z</time>
      </trkpt>
      <trkpt lat="45.20751" lon="5.59151">
        <ele>1600.1</ele>
        <time>2018-06-03T10:11:50Z</time>
      </trkpt>
      <trkpt lat="45.20761" lon="5.59146">
        <ele>1601.2</ele>
        <time>2018-06-03T10:11:55Z</time>
      </trkpt>
      <trkpt lat="45.20772" lon="5.59139">
        <ele>1601.4</ele>
        <time>2018-06-03T10:11:59Z</time>
      </trkpt>
      <trkpt lat="45.20782" lon="5.59132">
        <ele>1601.1</ele>
        <time>2018-06-03T10:12:02Z</time>
      </trkpt>
      <trkpt lat="45.20794" lon="5.59125">
        <ele>1600.5</ele>
        <time>2018-06-03T10:12:05Z</time>
      </trkpt>
      <trkpt lat="45.20805" lon="5.59119">
        <ele>1600.1</ele>
        <time>2018-06-03T10:12:08Z</time>
      </trkpt>
      <trkpt lat="45.20816" lon="5.59115">
        <ele>1599.7</ele>
        <time>2018-06-03T10:12:11Z</time>
      </trkpt>
      <trkpt lat="45.20825" lon="5.59114">
        <ele>1599.6</ele>
        <time>2018-06-03T10:12:14Z</time>
      </trkpt>
      <trkpt lat="45.20835" lon="5.5911">
        <ele>1599.9</ele>
        <time>2018-06-03T10:12:16Z</time>
      </trkpt>
      <trkpt lat="45.20846" lon="5.5911">
        <ele>1600.3</ele>
        <time>2018-06-03T10:12:19Z</time>
      </trkpt>
      <trkpt lat="45.20858" lon="5.59116">
        <ele>1600.7</ele>
        <time>2018-06-03T10:12:23Z</time>
      </trkpt>
      <trkpt lat="45.20869" lon="5.59119">
        <ele>1600.8</ele>
        <time>2018-06-03T10:12:26Z</time>
      </trkpt>
      <trkpt lat="45.20881" lon="5.59121">
        <ele>1600.8</ele>
        <time>2018-06-03T10:12:29Z</time>
      </trkpt>
      <trkpt lat="45.2089" lon="5.59126">
        <ele>1601</ele>
        <time>2018-06-03T10:12:31Z</time>
      </trkpt>
      <trkpt lat="45.20899" lon="5.59137">
        <ele>1601.5</ele>
        <time>2018-06-03T10:12:34Z</time>
      </trkpt>
      <trkpt lat="45.20907" lon="5.59146">
        <ele>1602.1</ele>
        <time>2018-06-03T10:12:37Z</time>
      </trkpt>
      <trkpt lat="45.20916" lon="5.59153">
        <ele>1602.7</ele>
        <time>2018-06-03T10:12:40Z</time>
      </trkpt>
      <trkpt lat="45.20923" lon="5.59162">
        <ele>1603.3</ele>
        <time>2018-06-03T10:12:43Z</time>
      </trkpt>
      <trkpt lat="45.2093" lon="5.59172">
        <ele>1603.8</ele>
        <time>2018-06-03T10:12:46Z</time>
      </trkpt>
      <trkpt lat="45.20939" lon="5.59179">
        <ele>1604.1</ele>
        <time>2018-06-03T10:12:49Z</time>
      </trkpt>
      <trkpt lat="45.20949" lon="5.59179">
        <ele>1604.5</ele>
        <time>2018-06-03T10:12:52Z</time>
      </trkpt>
      <trkpt lat="45.20959" lon="5.59177">
        <ele>1604.7</ele>
        <time>2018-06-03T10:12:55Z</time>
      </trkpt>
      <trkpt lat="45.20969" lon="5.59177">
        <ele>1604.8</ele>
        <time>2018-06-03T10:12:58Z</time>
      </trkpt>
      <trkpt lat="45.20978" lon="5.59178">
        <ele>1605.2</ele>
        <time>2018-06-03T10:13:01Z</time>
      </trkpt>
      <trkpt lat="45.20989" lon="5.59172">
        <ele>1605.5</ele>
        <time>2018-06-03T10:13:04Z</time>
      </trkpt>
      <trkpt lat="45.20993" lon="5.59158">
        <ele>1605.7</ele>
        <time>2018-06-03T10:13:07Z</time>
      </trkpt>
      <trkpt lat="45.20991" lon="5.59143">
        <ele>1605.7</ele>
        <time>2018-06-03T10:13:10Z</time>
      </trkpt>
      <trkpt lat="45.20993" lon="5.5913">
        <ele>1605.7</ele>
        <time>2018-06-03T10:13:12Z</time>
      </trkpt>
      <trkpt lat="45.20996" lon="5.59115">
        <ele>1605.4</ele>
        <time>2018-06-03T10:13:14Z</time>
      </trkpt>
      <trkpt lat="45.21001" lon="5.59103">
        <ele>1605.1</ele>
        <time>2018-06-03T10:13:16Z</time>
      </trkpt>
      <trkpt lat="45.21005" lon="5.59092">
        <ele>1604.8</ele>
        <time>2018-06-03T10:13:18Z</time>
      </trkpt>
      <trkpt lat="45.21012" lon="5.5908">
        <ele>1604.5</ele>
        <time>2018-06-03T10:13:20Z</time>
      </trkpt>
      <trkpt lat="45.21019" lon="5.5907">
        <ele>1604.3</ele>
        <time>2018-06-03T10:13:22Z</time>
      </trkpt>
      <trkpt lat="45.21029" lon="5.59062">
        <ele>1604</ele>
        <time>2018-06-03T10:13:25Z</time>
      </trkpt>
      <trkpt lat="45.2104" lon="5.5906">
        <ele>1604.1</ele>
        <time>2018-06-03T10:13:28Z</time>
      </trkpt>
      <trkpt lat="45.2105" lon="5.59062">
        <ele>1604.4</ele>
        <time>2018-06-03T10:13:31Z</time>
      </trkpt>
      <trkpt lat="45.21057" lon="5.59071">
        <ele>1604.8</ele>
        <time>2018-06-03T10:13:34Z</time>
      </trkpt>
      <trkpt lat="45.21065" lon="5.59081">
        <ele>1605.1</ele>
        <time>2018-06-03T10:13:37Z</time>
      </trkpt>
      <trkpt lat="45.21075" lon="5.59087">
        <ele>1605.1</ele>
        <time>2018-06-03T10:13:40Z</time>
      </trkpt>
      <trkpt lat="45.21086" lon="5.59092">
        <ele>1605.4</ele>
        <time>2018-06-03T10:13:43Z</time>
      </trkpt>
      <trkpt lat="45.21094" lon="5.59099">
        <ele>1605.9</ele>
        <time>2018-06-03T10:13:46Z</time>
      </trkpt>
      <trkpt lat="45.21102" lon="5.59105">
        <ele>1606.5</ele>
        <time>2018-06-03T10:13:49Z</time>
      </trkpt>
      <trkpt lat="45.21111" lon="5.59112">
        <ele>1607</ele>
        <time>2018-06-03T10:13:52Z</time>
      </trkpt>
      <trkpt lat="45.21119" lon="5.59122">
        <ele>1608</ele>
        <time>2018-06-03T10:13:56Z</time>
      </trkpt>
      <trkpt lat="45.21126" lon="5.59131">
        <ele>1609.6</ele>
        <time>2018-06-03T10:14:02Z</time>
      </trkpt>
      <trkpt lat="45.21117" lon="5.5912">
        <ele>1609.7</ele>
        <time>2018-06-03T10:19:02Z</time>
      </trkpt>
      <trkpt lat="45.21107" lon="5.59111">
        <ele>1609.4</ele>
        <time>2018-06-03T10:19:04Z</time>
      </trkpt>
      <trkpt lat="45.21098" lon="5.59103">
        <ele>1608.8</ele>
        <time>2018-06-03T10:19:06Z</time>
      </trkpt>
      <trkpt lat="45.21087" lon="5.59097">
        <ele>1608</ele>
        <time>2018-06-03T10:19:08Z</time>
      </trkpt>
      <trkpt lat="45.21077" lon="5.59088">
        <ele>1607.5</ele>
        <time>2018-06-03T10:19:10Z</time>
      </trkpt>
      <trkpt lat="45.21067" lon="5.59079">
        <ele>1607</ele>
        <time>2018-06-03T10:19:12Z</time>
      </trkpt>
      <trkpt lat="45.21059" lon="5.59068">
        <ele>1606.7</ele>
        <time>2018-06-03T10:19:14Z</time>
      </trkpt>
      <trkpt lat="45.2105" lon="5.5906">
        <ele>1606.3</ele>
        <time>2018-06-03T10:19:16Z</time>
      </trkpt>
      <trkpt lat="45.21038" lon="5.59057">
        <ele>1605.7</ele>
        <time>2018-06-03T10:19:18Z</time>
      </trkpt>
      <trkpt lat="45.21027" lon="5.5906">
        <ele>1605.1</ele>
        <time>2018-06-03T10:19:20Z</time>
      </trkpt>
      <trkpt lat="45.2102" lon="5.59069">
        <ele>1604.8</ele>
        <time>2018-06-03T10:19:22Z</time>
      </trkpt>
      <trkpt lat="45.21013" lon="5.59081">
        <ele>1604.4</ele>
        <time>2018-06-03T10:19:24Z</time>
      </trkpt>
      <trkpt lat="45.21008" lon="5.59092">
        <ele>1604.4</ele>
        <time>2018-06-03T10:19:26Z</time>
      </trkpt>
      <trkpt lat="45.21003" lon="5.59108">
        <ele>1604.2</ele>
        <time>2018-06-03T10:19:29Z</time>
      </trkpt>
      <trkpt lat="45.21" lon="5.59122">
        <ele>1604.3</ele>
        <time>2018-06-03T10:19:32Z</time>
      </trkpt>
      <trkpt lat="45.20998" lon="5.59139">
        <ele>1604.7</ele>
        <time>2018-06-03T10:19:35Z</time>
      </trkpt>
      <trkpt lat="45.20999" lon="5.59153">
        <ele>1605.6</ele>
        <time>2018-06-03T10:19:39Z</time>
      </trkpt>
      <trkpt lat="45.20996" lon="5.59168">
        <ele>1605.9</ele>
        <time>2018-06-03T10:19:43Z</time>
      </trkpt>
      <trkpt lat="45.20988" lon="5.59175">
        <ele>1605.8</ele>
        <time>2018-06-03T10:19:46Z</time>
      </trkpt>
      <trkpt lat="45.20978" lon="5.59176">
        <ele>1606</ele>
        <time>2018-06-03T10:19:49Z</time>
      </trkpt>
      <trkpt lat="45.20966" lon="5.59176">
        <ele>1605.7</ele>
        <time>2018-06-03T10:19:52Z</time>
      </trkpt>
      <trkpt lat="45.20954" lon="5.5918">
        <ele>1605.5</ele>
        <time>2018-06-03T10:19:55Z</time>
      </trkpt>
      <trkpt lat="45.20941" lon="5.59177">
        <ele>1605.1</ele>
        <time>2018-06-03T10:19:58Z</time>
      </trkpt>
      <trkpt lat="45.20932" lon="5.59167">
        <ele>1604.8</ele>
        <time>2018-06-03T10:20:01Z</time>
      </trkpt>
      <trkpt lat="45.20923" lon="5.59157">
        <ele>1604.5</ele>
        <time>2018-06-03T10:20:04Z</time>
      </trkpt>
      <trkpt lat="45.20915" lon="5.59149">
        <ele>1604.3</ele>
        <time>2018-06-03T10:20:06Z</time>
      </trkpt>
      <trkpt lat="45.20907" lon="5.59138">
        <ele>1604.1</ele>
        <time>2018-06-03T10:20:08Z</time>
      </trkpt>
      <trkpt lat="45.20897" lon="5.59127">
        <ele>1603.4</ele>
        <time>2018-06-03T10:20:10Z</time>
      </trkpt>
      <trkpt lat="45.20886" lon="5.59124">
        <ele>1602.5</ele>
        <time>2018-06-03T10:20:12Z</time>
      </trkpt>
      <trkpt lat="45.20875" lon="5.5912">
        <ele>1602.2</ele>
        <time>2018-06-03T10:20:14Z</time>
      </trkpt>
      <trkpt lat="45.20864" lon="5.59116">
        <ele>1601.9</ele>
        <time>2018-06-03T10:20:16Z</time>
      </trkpt>
      <trkpt lat="45.20853" lon="5.59114">
        <ele>1601.7</ele>
        <time>2018-06-03T10:20:18Z</time>
      </trkpt>
      <trkpt lat="45.20843" lon="5.59114">
        <ele>1601.5</ele>
        <time>2018-06-03T10:20:20Z</time>
      </trkpt>
      <trkpt lat="45.20833" lon="5.59114">
        <ele>1601.2</ele>
        <time>2018-06-03T10:20:22Z</time>
      </trkpt>
      <trkpt lat="45.20822" lon="5.59117">
        <ele>1600.8</ele>
        <time>2018-06-03T10:20:24Z</time>
      </trkpt>
      <trkpt lat="45.20812" lon="5.59121">
        <ele>1600.5</ele>
        <time>2018-06-03T10:20:26Z</time>
      </trkpt>
      <trkpt lat="45.20801" lon="5.59127">
        <ele>1600.4</ele>
        <time>2018-06-03T10:20:28Z</time>
      </trkpt>
      <trkpt lat="45.20791" lon="5.59131">
        <ele>1600.5</ele>
        <time>2018-06-03T10:20:30Z</time>
      </trkpt>
      <trkpt lat="45.20779" lon="5.59138">
        <ele>1601</ele>
        <time>2018-06-03T10:20:33Z</time>
      </trkpt>
      <trkpt lat="45.20769" lon="5.59144">
        <ele>1601.8</ele>
        <time>2018-06-03T10:20:36Z</time>
      </trkpt>
      <trkpt lat="45.20757" lon="5.5915">
        <ele>1602.3</ele>
        <time>2018-06-03T10:20:39Z</time>
      </trkpt>
      <trkpt lat="45.20748" lon="5.59155">
        <ele>1602.1</ele>
        <time>2018-06-03T10:20:41Z</time>
      </trkpt>
      <trkpt lat="45.20737" lon="5.59163">
        <ele>1601.6</ele>
        <time>2018-06-03T10:20:43Z</time>
      </trkpt>
      <trkpt lat="45.20726" lon="5.59177">
        <ele>1600.6</ele>
        <time>2018-06-03T10:20:45Z</time>
      </trkpt>
      <trkpt lat="45.2072" lon="5.59191">
        <ele>1599.5</ele>
        <time>2018-06-03T10:20:47Z</time>
      </trkpt>
      <trkpt lat="45.20712" lon="5.59208">
        <ele>1598.8</ele>
        <time>2018-06-03T10:20:49Z</time>
      </trkpt>
      <trkpt lat="45.20702" lon="5.59216">
        <ele>1598.4</ele>
        <time>2018-06-03T10:20:51Z</time>
      </trkpt>
      <trkpt lat="45.20693" lon="5.59219">
        <ele>1598.5</ele>
        <time>2018-06-03T10:20:53Z</time>
      </trkpt>
      <trkpt lat="45.20682" lon="5.5922">
        <ele>1598.7</ele>
        <time>2018-06-03T10:20:56Z</time>
      </trkpt>
      <trkpt lat="45.20671" lon="5.59219">
        <ele>1599.5</ele>
        <time>2018-06-03T10:21:00Z</time>
      </trkpt>
      <trkpt lat="45.2066" lon="5.59217">
        <ele>1600.5</ele>
        <time>2018-06-03T10:21:04Z</time>
      </trkpt>
      <trkpt lat="45.20648" lon="5.59214">
        <ele>1601.4</ele>
        <time>2018-06-03T10:21:08Z</time>
      </trkpt>
      <trkpt lat="45.20637" lon="5.59211">
        <ele>1602.1</ele>
        <time>2018-06-03T10:21:12Z</time>
      </trkpt>
      <trkpt lat="45.20627" lon="5.59213">
        <ele>1602.5</ele>
        <time>2018-06-03T10:21:16Z</time>
      </trkpt>
      <trkpt lat="45.20617" lon="5.59217">
        <ele>1602.9</ele>
        <time>2018-06-03T10:21:19Z</time>
      </trkpt>
      <trkpt lat="45.20607" lon="5.59223">
        <ele>1603.9</ele>
        <time>2018-06-03T10:21:23Z</time>
      </trkpt>
      <trkpt lat="45.20597" lon="5.59227">
        <ele>1604.1</ele>
        <time>2018-06-03T10:21:26Z</time>
      </trkpt>
      <trkpt lat="45.20586" lon="5.59233">
        <ele>1604.1</ele>
        <time>2018-06-03T10:21:29Z</time>
      </trkpt>
      <trkpt lat="45.20577" lon="5.59241">
        <ele>1604.3</ele>
        <time>2018-06-03T10:21:32Z</time>
      </trkpt>
      <trkpt lat="45.20568" lon="5.59249">
        <ele>1604.8</ele>
        <time>2018-06-03T10:21:35Z</time>
      </trkpt>
      <trkpt lat="45.20559" lon="5.59255">
        <ele>1605.3</ele>
        <time>2018-06-03T10:21:38Z</time>
      </trkpt>
      <trkpt lat="45.20551" lon="5.59261">
        <ele>1605.7</ele>
        <time>2018-06-03T10:21:41Z</time>
      </trkpt>
      <trkpt lat="45.20539" lon="5.59268">
        <ele>1605.6</ele>
        <time>2018-06-03T10:21:44Z</time>
      </trkpt>
      <trkpt lat="45.2053" lon="5.59272">
        <ele>1605.3</ele>
        <time>2018-06-03T10:21:46Z</time>
      </trkpt>
      <trkpt lat="45.20521" lon="5.59277">
        <ele>1605.1</ele>
        <time>2018-06-03T10:21:48Z</time>
      </trkpt>
      <trkpt lat="45.20513" lon="5.59284">
        <ele>1605</ele>
        <time>2018-06-03T10:21:50Z</time>
      </trkpt>
      <trkpt lat="45.20504" lon="5.59292">
        <ele>1605.7</ele>
        <time>2018-06-03T10:21:53Z</time>
      </trkpt>
      <trkpt lat="45.20495" lon="5.593">
        <ele>1606.1</ele>
        <time>2018-06-03T10:21:57Z</time>
      </trkpt>
      <trkpt lat="45.20487" lon="5.59308">
        <ele>1606.5</ele>
        <time>2018-06-03T10:22:02Z</time>
      </trkpt>
      <trkpt lat="45.20479" lon="5.59316">
        <ele>1607.2</ele>
        <time>2018-06-03T10:22:14Z</time>
      </trkpt>
      <trkpt lat="45.2047" lon="5.59315">
        <ele>1608</ele>
        <time>2018-06-03T10:22:26Z</time>
      </trkpt>
      <trkpt lat="45.20461" lon="5.59313">
        <ele>1608.6</ele>
        <time>2018-06-03T10:22:30Z</time>
      </trkpt>
      <trkpt lat="45.20451" lon="5.59309">
        <ele>1609</ele>
        <time>2018-06-03T10:22:34Z</time>
      </trkpt>
      <trkpt lat="45.20442" lon="5.59308">
        <ele>1610.1</ele>
        <time>2018-06-03T10:22:38Z</time>
      </trkpt>
      <trkpt lat="45.20432" lon="5.59309">
        <ele>1611.5</ele>
        <time>2018-06-03T10:22:43Z</time>
      </trkpt>
      <trkpt lat="45.20421" lon="5.59309">
        <ele>1612.6</ele>
        <time>2018-06-03T10:22:48Z</time>
      </trkpt>
      <trkpt lat="45.20411" lon="5.5931">
        <ele>1612.9</ele>
        <time>2018-06-03T10:22:52Z</time>
      </trkpt>
      <trkpt lat="45.20399" lon="5.59309">
        <ele>1613.2</ele>
        <time>2018-06-03T10:22:56Z</time>
      </trkpt>
      <trkpt lat="45.2039" lon="5.59307">
        <ele>1613.8</ele>
        <time>2018-06-03T10:23:00Z</time>
      </trkpt>
      <trkpt lat="45.2038" lon="5.59305">
        <ele>1614.2</ele>
        <time>2018-06-03T10:23:04Z</time>
      </trkpt>
      <trkpt lat="45.20371" lon="5.59302">
        <ele>1615</ele>
        <time>2018-06-03T10:23:09Z</time>
      </trkpt>
      <trkpt lat="45.20362" lon="5.59298">
        <ele>1615.7</ele>
        <time>2018-06-03T10:23:14Z</time>
      </trkpt>
      <trkpt lat="45.20352" lon="5.59294">
        <ele>1616.5</ele>
        <time>2018-06-03T10:23:19Z</time>
      </trkpt>
      <trkpt lat="45.20342" lon="5.5929">
        <ele>1617</ele>
        <time>2018-06-03T10:23:23Z</time>
      </trkpt>
      <trkpt lat="45.20333" lon="5.59287">
        <ele>1617.4</ele>
        <time>2018-06-03T10:23:27Z</time>
      </trkpt>
      <trkpt lat="45.20324" lon="5.59285">
        <ele>1617.8</ele>
        <time>2018-06-03T10:23:31Z</time>
      </trkpt>
      <trkpt lat="45.20314" lon="5.59284">
        <ele>1618.3</ele>
        <time>2018-06-03T10:23:35Z</time>
      </trkpt>
      <trkpt lat="45.20304" lon="5.59282">
        <ele>1618.4</ele>
        <time>2018-06-03T10:23:38Z</time>
      </trkpt>
      <trkpt lat="45.20295" lon="5.5928">
        <ele>1618.4</ele>
        <time>2018-06-03T10:23:41Z</time>
      </trkpt>
      <trkpt lat="45.20286" lon="5.59276">
        <ele>1618.3</ele>
        <time>2018-06-03T10:23:44Z</time>
      </trkpt>
      <trkpt lat="45.20275" lon="5.59274">
        <ele>1618.3</ele>
        <time>2018-06-03T10:23:48Z</time>
      </trkpt>
      <trkpt lat="45.20266" lon="5.59271">
        <ele>1618.2</ele>
        <time>2018-06-03T10:23:52Z</time>
      </trkpt>
      <trkpt lat="45.20257" lon="5.59268">
        <ele>1618.3</ele>
        <time>2018-06-03T10:23:56Z</time>
      </trkpt>
      <trkpt lat="45.20247" lon="5.59265">
        <ele>1618.5</ele>
        <time>2018-06-03T10:24:01Z</time>
      </trkpt>
      <trkpt lat="45.20239" lon="5.59258">
        <ele>1618.6</ele>
        <time>2018-06-03T10:26:32Z</time>
      </trkpt>
      <trkpt lat="45.2023" lon="5.59255">
        <ele>1618.6</ele>
        <time>2018-06-03T10:27:26Z</time>
      </trkpt>
      <trkpt lat="45.2022" lon="5.59257">
        <ele>1618.6</ele>
        <time>2018-06-03T10:27:30Z</time>
      </trkpt>
      <trkpt lat="45.20211" lon="5.59252">
        <ele>1618.5</ele>
        <time>2018-06-03T10:27:35Z</time>
      </trkpt>
      <trkpt lat="45.20202" lon="5.59246">
        <ele>1618.9</ele>
        <time>2018-06-03T10:27:40Z</time>
      </trkpt>
      <trkpt lat="45.20192" lon="5.59243">
        <ele>1619.1</ele>
        <time>2018-06-03T10:27:44Z</time>
      </trkpt>
      <trkpt lat="45.20183" lon="5.59241">
        <ele>1619.2</ele>
        <time>2018-06-03T10:27:47Z</time>
      </trkpt>
      <trkpt lat="45.20173" lon="5.5924">
        <ele>1619.3</ele>
        <time>2018-06-03T10:27:50Z</time>
      </trkpt>
      <trkpt lat="45.2016" lon="5.59237">
        <ele>1619.3</ele>
        <time>2018-06-03T10:27:53Z</time>
      </trkpt>
      <trkpt lat="45.2015" lon="5.59236">
        <ele>1619</ele>
        <time>2018-06-03T10:27:55Z</time>
      </trkpt>
      <trkpt lat="45.20141" lon="5.59233">
        <ele>1618.7</ele>
        <time>2018-06-03T10:27:57Z</time>
      </trkpt>
      <trkpt lat="45.2013" lon="5.59228">
        <ele>1618.4</ele>
        <time>2018-06-03T10:28:00Z</time>
      </trkpt>
      <trkpt lat="45.20119" lon="5.59225">
        <ele>1618.4</ele>
        <time>2018-06-03T10:28:03Z</time>
      </trkpt>
      <trkpt lat="45.20109" lon="5.59224">
        <ele>1618.7</ele>
        <time>2018-06-03T10:28:06Z</time>
      </trkpt>
      <trkpt lat="45.20099" lon="5.59223">
        <ele>1618.9</ele>
        <time>2018-06-03T10:28:09Z</time>
      </trkpt>
      <trkpt lat="45.20089" lon="5.59223">
        <ele>1619.2</ele>
        <time>2018-06-03T10:28:12Z</time>
      </trkpt>
      <trkpt lat="45.20078" lon="5.59222">
        <ele>1619.7</ele>
        <time>2018-06-03T10:28:15Z</time>
      </trkpt>
      <trkpt lat="45.20067" lon="5.59219">
        <ele>1619.7</ele>
        <time>2018-06-03T10:28:18Z</time>
      </trkpt>
      <trkpt lat="45.20057" lon="5.59214">
        <ele>1619.9</ele>
        <time>2018-06-03T10:28:21Z</time>
      </trkpt>
      <trkpt lat="45.20047" lon="5.59211">
        <ele>1620.1</ele>
        <time>2018-06-03T10:28:24Z</time>
      </trkpt>
      <trkpt lat="45.20036" lon="5.59209">
        <ele>1620.3</ele>
        <time>2018-06-03T10:28:27Z</time>
      </trkpt>
      <trkpt lat="45.20026" lon="5.59205">
        <ele>1620.4</ele>
        <time>2018-06-03T10:28:30Z</time>
      </trkpt>
      <trkpt lat="45.20015" lon="5.59202">
        <ele>1620.6</ele>
        <time>2018-06-03T10:28:33Z</time>
      </trkpt>
      <trkpt lat="45.20003" lon="5.59199">
        <ele>1620.5</ele>
        <time>2018-06-03T10:28:36Z</time>
      </trkpt>
      <trkpt lat="45.19991" lon="5.59195">
        <ele>1620.4</ele>
        <time>2018-06-03T10:28:39Z</time>
      </trkpt>
      <trkpt lat="45.19978" lon="5.59193">
        <ele>1620.3</ele>
        <time>2018-06-03T10:28:42Z</time>
      </trkpt>
      <trkpt lat="45.19967" lon="5.59192">
        <ele>1620.1</ele>
        <time>2018-06-03T10:28:45Z</time>
      </trkpt>
      <trkpt lat="45.19954" lon="5.59191">
        <ele>1619.7</ele>
        <time>2018-06-03T10:28:48Z</time>
      </trkpt>
      <trkpt lat="45.19945" lon="5.59189">
        <ele>1619.7</ele>
        <time>2018-06-03T10:28:50Z</time>
      </trkpt>
      <trkpt lat="45.19932" lon="5.59188">
        <ele>1619.5</ele>
        <time>2018-06-03T10:28:53Z</time>
      </trkpt>
      <trkpt lat="45.19923" lon="5.59187">
        <ele>1619.4</ele>
        <time>2018-06-03T10:28:55Z</time>
      </trkpt>
      <trkpt lat="45.1991" lon="5.59187">
        <ele>1619.5</ele>
        <time>2018-06-03T10:28:58Z</time>
      </trkpt>
      <trkpt lat="45.19898" lon="5.59185">
        <ele>1619.4</ele>
        <time>2018-06-03T10:29:01Z</time>
      </trkpt>
      <trkpt lat="45.19887" lon="5.59183">
        <ele>1619.5</ele>
        <time>2018-06-03T10:29:04Z</time>
      </trkpt>
      <trkpt lat="45.19874" lon="5.59184">
        <ele>1619.5</ele>
        <time>2018-06-03T10:29:07Z</time>
      </trkpt>
      <trkpt lat="45.19863" lon="5.59189">
        <ele>1619.5</ele>
        <time>2018-06-03T10:29:10Z</time>
      </trkpt>
      <trkpt lat="45.19851" lon="5.59193">
        <ele>1619.4</ele>
        <time>2018-06-03T10:29:13Z</time>
      </trkpt>
      <trkpt lat="45.1984" lon="5.59194">
        <ele>1619.5</ele>
        <time>2018-06-03T10:29:16Z</time>
      </trkpt>
      <trkpt lat="45.1983" lon="5.59191">
        <ele>1619.8</ele>
        <time>2018-06-03T10:29:19Z</time>
      </trkpt>
      <trkpt lat="45.19821" lon="5.59187">
        <ele>1619.8</ele>
        <time>2018-06-03T10:29:22Z</time>
      </trkpt>
      <trkpt lat="45.19811" lon="5.59185">
        <ele>1619.9</ele>
        <time>2018-06-03T10:29:25Z</time>
      </trkpt>
      <trkpt lat="45.19801" lon="5.59188">
        <ele>1620</ele>
        <time>2018-06-03T10:29:28Z</time>
      </trkpt>
      <trkpt lat="45.19791" lon="5.59194">
        <ele>1620.3</ele>
        <time>2018-06-03T10:29:31Z</time>
      </trkpt>
      <trkpt lat="45.19782" lon="5.59198">
        <ele>1620.5</ele>
        <time>2018-06-03T10:29:34Z</time>
      </trkpt>
      <trkpt lat="45.19773" lon="5.592">
        <ele>1620.7</ele>
        <time>2018-06-03T10:29:37Z</time>
      </trkpt>
      <trkpt lat="45.19762" lon="5.59197">
        <ele>1621.3</ele>
        <time>2018-06-03T10:29:41Z</time>
      </trkpt>
      <trkpt lat="45.19753" lon="5.59195">
        <ele>1622</ele>
        <time>2018-06-03T10:29:45Z</time>
      </trkpt>
      <trkpt lat="45.19745" lon="5.59186">
        <ele>1622.9</ele>
        <time>2018-06-03T10:29:49Z</time>
      </trkpt>
      <trkpt lat="45.1974" lon="5.59175">
        <ele>1623.8</ele>
        <time>2018-06-03T10:29:54Z</time>
      </trkpt>
      <trkpt lat="45.19737" lon="5.59163">
        <ele>1624.9</ele>
        <time>2018-06-03T10:30:11Z</time>
      </trkpt>
      <trkpt lat="45.19733" lon="5.59174">
        <ele>1625.4</ele>
        <time>2018-06-03T10:30:52Z</time>
      </trkpt>
      <trkpt lat="45.19729" lon="5.59186">
        <ele>1625.5</ele>
        <time>2018-06-03T10:30:59Z</time>
      </trkpt>
      <trkpt lat="45.19723" lon="5.59196">
        <ele>1625.4</ele>
        <time>2018-06-03T10:31:13Z</time>
      </trkpt>
      <trkpt lat="45.19717" lon="5.59186">
        <ele>1641.7</ele>
        <time>2018-06-03T11:16:33Z</time>
      </trkpt>
      <trkpt lat="45.19708" lon="5.59181">
        <ele>1644</ele>
        <time>2018-06-03T11:16:51Z</time>
      </trkpt>
      <trkpt lat="45.19699" lon="5.59177">
        <ele>1646.3</ele>
        <time>2018-06-03T11:17:07Z</time>
      </trkpt>
      <trkpt lat="45.1969" lon="5.59174">
        <ele>1648.3</ele>
        <time>2018-06-03T11:17:22Z</time>
      </trkpt>
      <trkpt lat="45.19682" lon="5.59168">
        <ele>1651.5</ele>
        <time>2018-06-03T11:17:40Z</time>
      </trkpt>
      <trkpt lat="45.19673" lon="5.59165">
        <ele>1653</ele>
        <time>2018-06-03T11:17:53Z</time>
      </trkpt>
      <trkpt lat="45.19664" lon="5.59161">
        <ele>1654.9</ele>
        <time>2018-06-03T11:18:49Z</time>
      </trkpt>
      <trkpt lat="45.19655" lon="5.5916">
        <ele>1654.9</ele>
        <time>2018-06-03T11:18:55Z</time>
      </trkpt>
      <trkpt lat="45.19645" lon="5.5916">
        <ele>1654.7</ele>
        <time>2018-06-03T11:18:59Z</time>
      </trkpt>
      <trkpt lat="45.19635" lon="5.59164">
        <ele>1654.9</ele>
        <time>2018-06-03T11:19:03Z</time>
      </trkpt>
      <trkpt lat="45.19626" lon="5.59166">
        <ele>1655</ele>
        <time>2018-06-03T11:19:06Z</time>
      </trkpt>
      <trkpt lat="45.19616" lon="5.59169">
        <ele>1655.4</ele>
        <time>2018-06-03T11:19:10Z</time>
      </trkpt>
      <trkpt lat="45.19606" lon="5.5917">
        <ele>1655.9</ele>
        <time>2018-06-03T11:19:14Z</time>
      </trkpt>
      <trkpt lat="45.19597" lon="5.59174">
        <ele>1656.1</ele>
        <time>2018-06-03T11:19:17Z</time>
      </trkpt>
      <trkpt lat="45.19588" lon="5.59179">
        <ele>1656.4</ele>
        <time>2018-06-03T11:19:21Z</time>
      </trkpt>
      <trkpt lat="45.19578" lon="5.59182">
        <ele>1656.7</ele>
        <time>2018-06-03T11:19:25Z</time>
      </trkpt>
      <trkpt lat="45.19567" lon="5.59184">
        <ele>1656.9</ele>
        <time>2018-06-03T11:19:29Z</time>
      </trkpt>
      <trkpt lat="45.19556" lon="5.59184">
        <ele>1657.1</ele>
        <time>2018-06-03T11:19:33Z</time>
      </trkpt>
      <trkpt lat="45.19546" lon="5.59187">
        <ele>1657.2</ele>
        <time>2018-06-03T11:19:37Z</time>
      </trkpt>
      <trkpt lat="45.19536" lon="5.59191">
        <ele>1657.6</ele>
        <time>2018-06-03T11:19:41Z</time>
      </trkpt>
      <trkpt lat="45.19525" lon="5.59195">
        <ele>1657.8</ele>
        <time>2018-06-03T11:19:45Z</time>
      </trkpt>
      <trkpt lat="45.19516" lon="5.59203">
        <ele>1657.9</ele>
        <time>2018-06-03T11:19:49Z</time>
      </trkpt>
      <trkpt lat="45.19506" lon="5.59204">
        <ele>1658</ele>
        <time>2018-06-03T11:19:53Z</time>
      </trkpt>
      <trkpt lat="45.19495" lon="5.59207">
        <ele>1658.1</ele>
        <time>2018-06-03T11:19:57Z</time>
      </trkpt>
      <trkpt lat="45.19486" lon="5.59209">
        <ele>1658</ele>
        <time>2018-06-03T11:20:00Z</time>
      </trkpt>
      <trkpt lat="45.19476" lon="5.59212">
        <ele>1658</ele>
        <time>2018-06-03T11:20:03Z</time>
      </trkpt>
      <trkpt lat="45.19466" lon="5.59214">
        <ele>1658.1</ele>
        <time>2018-06-03T11:20:06Z</time>
      </trkpt>
      <trkpt lat="45.19457" lon="5.59219">
        <ele>1658.2</ele>
        <time>2018-06-03T11:20:09Z</time>
      </trkpt>
      <trkpt lat="45.19449" lon="5.59226">
        <ele>1658.1</ele>
        <time>2018-06-03T11:20:12Z</time>
      </trkpt>
      <trkpt lat="45.19442" lon="5.59235">
        <ele>1658.2</ele>
        <time>2018-06-03T11:20:15Z</time>
      </trkpt>
      <trkpt lat="45.19433" lon="5.59241">
        <ele>1658.5</ele>
        <time>2018-06-03T11:20:19Z</time>
      </trkpt>
      <trkpt lat="45.19424" lon="5.59242">
        <ele>1658.7</ele>
        <time>2018-06-03T11:20:22Z</time>
      </trkpt>
      <trkpt lat="45.19414" lon="5.59243">
        <ele>1658.9</ele>
        <time>2018-06-03T11:20:25Z</time>
      </trkpt>
      <trkpt lat="45.19402" lon="5.59245">
        <ele>1659</ele>
        <time>2018-06-03T11:20:28Z</time>
      </trkpt>
      <trkpt lat="45.19393" lon="5.59247">
        <ele>1658.7</ele>
        <time>2018-06-03T11:20:31Z</time>
      </trkpt>
      <trkpt lat="45.19384" lon="5.5925">
        <ele>1658.8</ele>
        <time>2018-06-03T11:20:35Z</time>
      </trkpt>
      <trkpt lat="45.19374" lon="5.59246">
        <ele>1660.4</ele>
        <time>2018-06-03T11:23:04Z</time>
      </trkpt>
      <trkpt lat="45.19362" lon="5.59245">
        <ele>1659.9</ele>
        <time>2018-06-03T11:23:07Z</time>
      </trkpt>
      <trkpt lat="45.1935" lon="5.59241">
        <ele>1659.4</ele>
        <time>2018-06-03T11:23:10Z</time>
      </trkpt>
      <trkpt lat="45.19339" lon="5.59238">
        <ele>1659.4</ele>
        <time>2018-06-03T11:23:13Z</time>
      </trkpt>
      <trkpt lat="45.19329" lon="5.59236">
        <ele>1659.2</ele>
        <time>2018-06-03T11:23:15Z</time>
      </trkpt>
      <trkpt lat="45.1932" lon="5.59234">
        <ele>1659.3</ele>
        <time>2018-06-03T11:23:17Z</time>
      </trkpt>
      <trkpt lat="45.1931" lon="5.59232">
        <ele>1659.1</ele>
        <time>2018-06-03T11:23:19Z</time>
      </trkpt>
      <trkpt lat="45.193" lon="5.5923">
        <ele>1659</ele>
        <time>2018-06-03T11:23:21Z</time>
      </trkpt>
      <trkpt lat="45.19289" lon="5.59228">
        <ele>1658.7</ele>
        <time>2018-06-03T11:23:23Z</time>
      </trkpt>
      <trkpt lat="45.19279" lon="5.59225">
        <ele>1658.3</ele>
        <time>2018-06-03T11:23:25Z</time>
      </trkpt>
      <trkpt lat="45.19269" lon="5.59221">
        <ele>1657.6</ele>
        <time>2018-06-03T11:23:27Z</time>
      </trkpt>
      <trkpt lat="45.19257" lon="5.59218">
        <ele>1656.8</ele>
        <time>2018-06-03T11:23:29Z</time>
      </trkpt>
      <trkpt lat="45.19243" lon="5.59214">
        <ele>1656</ele>
        <time>2018-06-03T11:23:31Z</time>
      </trkpt>
      <trkpt lat="45.19231" lon="5.59212">
        <ele>1655.5</ele>
        <time>2018-06-03T11:23:33Z</time>
      </trkpt>
      <trkpt lat="45.19221" lon="5.59208">
        <ele>1655.3</ele>
        <time>2018-06-03T11:23:36Z</time>
      </trkpt>
      <trkpt lat="45.19212" lon="5.59204">
        <ele>1656.2</ele>
        <time>2018-06-03T11:23:42Z</time>
      </trkpt>
      <trkpt lat="45.19202" lon="5.59202">
        <ele>1658.2</ele>
        <time>2018-06-03T11:23:48Z</time>
      </trkpt>
      <trkpt lat="45.19192" lon="5.59198">
        <ele>1660.9</ele>
        <time>2018-06-03T11:23:55Z</time>
      </trkpt>
      <trkpt lat="45.19183" lon="5.59196">
        <ele>1663</ele>
        <time>2018-06-03T11:24:02Z</time>
      </trkpt>
      <trkpt lat="45.19174" lon="5.59194">
        <ele>1664.8</ele>
        <time>2018-06-03T11:24:11Z</time>
      </trkpt>
      <trkpt lat="45.19165" lon="5.59192">
        <ele>1666.5</ele>
        <time>2018-06-03T11:24:21Z</time>
      </trkpt>
      <trkpt lat="45.19156" lon="5.5919">
        <ele>1667.8</ele>
        <time>2018-06-03T11:24:29Z</time>
      </trkpt>
      <trkpt lat="45.19147" lon="5.59187">
        <ele>1669.2</ele>
        <time>2018-06-03T11:24:37Z</time>
      </trkpt>
      <trkpt lat="45.19138" lon="5.59183">
        <ele>1671</ele>
        <time>2018-06-03T11:24:47Z</time>
      </trkpt>
      <trkpt lat="45.19129" lon="5.59179">
        <ele>1672.7</ele>
        <time>2018-06-03T11:24:55Z</time>
      </trkpt>
      <trkpt lat="45.1912" lon="5.59176">
        <ele>1674</ele>
        <time>2018-06-03T11:25:02Z</time>
      </trkpt>
      <trkpt lat="45.19111" lon="5.59168">
        <ele>1675.3</ele>
        <time>2018-06-03T11:25:09Z</time>
      </trkpt>
      <trkpt lat="45.19101" lon="5.59167">
        <ele>1677.1</ele>
        <time>2018-06-03T11:25:18Z</time>
      </trkpt>
      <trkpt lat="45.19092" lon="5.59167">
        <ele>1678.9</ele>
        <time>2018-06-03T11:25:26Z</time>
      </trkpt>
      <trkpt lat="45.19083" lon="5.59163">
        <ele>1680.1</ele>
        <time>2018-06-03T11:25:34Z</time>
      </trkpt>
      <trkpt lat="45.19074" lon="5.59159">
        <ele>1681.2</ele>
        <time>2018-06-03T11:25:42Z</time>
      </trkpt>
      <trkpt lat="45.19065" lon="5.59152">
        <ele>1682.3</ele>
        <time>2018-06-03T11:25:54Z</time>
      </trkpt>
      <trkpt lat="45.19057" lon="5.59148">
        <ele>1683.2</ele>
        <time>2018-06-03T11:26:00Z</time>
      </trkpt>
      <trkpt lat="45.19047" lon="5.59146">
        <ele>1684.7</ele>
        <time>2018-06-03T11:26:07Z</time>
      </trkpt>
      <trkpt lat="45.19037" lon="5.59143">
        <ele>1686.1</ele>
        <time>2018-06-03T11:26:15Z</time>
      </trkpt>
      <trkpt lat="45.19027" lon="5.59139">
        <ele>1687.2</ele>
        <time>2018-06-03T11:26:22Z</time>
      </trkpt>
      <trkpt lat="45.19018" lon="5.59137">
        <ele>1688.6</ele>
        <time>2018-06-03T11:26:28Z</time>
      </trkpt>
      <trkpt lat="45.19008" lon="5.59136">
        <ele>1689.8</ele>
        <time>2018-06-03T11:26:34Z</time>
      </trkpt>
      <trkpt lat="45.18998" lon="5.59137">
        <ele>1691.1</ele>
        <time>2018-06-03T11:26:41Z</time>
      </trkpt>
      <trkpt lat="45.18988" lon="5.59139">
        <ele>1692.1</ele>
        <time>2018-06-03T11:26:47Z</time>
      </trkpt>
      <trkpt lat="45.18978" lon="5.59136">
        <ele>1693</ele>
        <time>2018-06-03T11:26:53Z</time>
      </trkpt>
      <trkpt lat="45.18968" lon="5.59135">
        <ele>1693.6</ele>
        <time>2018-06-03T11:26:58Z</time>
      </trkpt>
      <trkpt lat="45.18959" lon="5.59137">
        <ele>1694.5</ele>
        <time>2018-06-03T11:27:04Z</time>
      </trkpt>
      <trkpt lat="45.18948" lon="5.59138">
        <ele>1695.3</ele>
        <time>2018-06-03T11:27:10Z</time>
      </trkpt>
      <trkpt lat="45.18938" lon="5.59136">
        <ele>1696.4</ele>
        <time>2018-06-03T11:27:16Z</time>
      </trkpt>
      <trkpt lat="45.18928" lon="5.59136">
        <ele>1697.2</ele>
        <time>2018-06-03T11:27:22Z</time>
      </trkpt>
      <trkpt lat="45.18918" lon="5.59139">
        <ele>1699.1</ele>
        <time>2018-06-03T11:27:30Z</time>
      </trkpt>
      <trkpt lat="45.18909" lon="5.59142">
        <ele>1699.9</ele>
        <time>2018-06-03T11:27:35Z</time>
      </trkpt>
      <trkpt lat="45.18898" lon="5.59141">
        <ele>1700.3</ele>
        <time>2018-06-03T11:27:40Z</time>
      </trkpt>
      <trkpt lat="45.18889" lon="5.59142">
        <ele>1701.1</ele>
        <time>2018-06-03T11:27:45Z</time>
      </trkpt>
      <trkpt lat="45.18878" lon="5.59142">
        <ele>1702</ele>
        <time>2018-06-03T11:27:50Z</time>
      </trkpt>
      <trkpt lat="45.18869" lon="5.59139">
        <ele>1703.2</ele>
        <time>2018-06-03T11:27:55Z</time>
      </trkpt>
      <trkpt lat="45.18859" lon="5.59139">
        <ele>1704.4</ele>
        <time>2018-06-03T11:28:01Z</time>
      </trkpt>
      <trkpt lat="45.1885" lon="5.59143">
        <ele>1705.2</ele>
        <time>2018-06-03T11:28:06Z</time>
      </trkpt>
      <trkpt lat="45.18841" lon="5.59145">
        <ele>1706.3</ele>
        <time>2018-06-03T11:28:12Z</time>
      </trkpt>
      <trkpt lat="45.18831" lon="5.5915">
        <ele>1706.7</ele>
        <time>2018-06-03T11:28:18Z</time>
      </trkpt>
      <trkpt lat="45.18821" lon="5.59146">
        <ele>1707.1</ele>
        <time>2018-06-03T11:29:39Z</time>
      </trkpt>
      <trkpt lat="45.18812" lon="5.59151">
        <ele>1707.1</ele>
        <time>2018-06-03T11:29:44Z</time>
      </trkpt>
      <trkpt lat="45.18805" lon="5.5916">
        <ele>1707.3</ele>
        <time>2018-06-03T11:29:48Z</time>
      </trkpt>
      <trkpt lat="45.18797" lon="5.5917">
        <ele>1707.7</ele>
        <time>2018-06-03T11:29:53Z</time>
      </trkpt>
      <trkpt lat="45.18791" lon="5.5918">
        <ele>1707.9</ele>
        <time>2018-06-03T11:29:58Z</time>
      </trkpt>
      <trkpt lat="45.18782" lon="5.59186">
        <ele>1707.9</ele>
        <time>2018-06-03T11:30:02Z</time>
      </trkpt>
      <trkpt lat="45.18774" lon="5.5919">
        <ele>1708.1</ele>
        <time>2018-06-03T11:30:06Z</time>
      </trkpt>
      <trkpt lat="45.18763" lon="5.59192">
        <ele>1708.3</ele>
        <time>2018-06-03T11:30:11Z</time>
      </trkpt>
      <trkpt lat="45.18753" lon="5.59196">
        <ele>1708.5</ele>
        <time>2018-06-03T11:30:16Z</time>
      </trkpt>
      <trkpt lat="45.18746" lon="5.59203">
        <ele>1708.2</ele>
        <time>2018-06-03T11:30:21Z</time>
      </trkpt>
      <trkpt lat="45.18739" lon="5.59212">
        <ele>1708.7</ele>
        <time>2018-06-03T11:30:27Z</time>
      </trkpt>
      <trkpt lat="45.18729" lon="5.59218">
        <ele>1709.1</ele>
        <time>2018-06-03T11:30:34Z</time>
      </trkpt>
      <trkpt lat="45.18721" lon="5.59226">
        <ele>1709.6</ele>
        <time>2018-06-03T11:30:40Z</time>
      </trkpt>
      <trkpt lat="45.18712" lon="5.59233">
        <ele>1710.1</ele>
        <time>2018-06-03T11:30:44Z</time>
      </trkpt>
      <trkpt lat="45.18704" lon="5.59241">
        <ele>1710.4</ele>
        <time>2018-06-03T11:30:49Z</time>
      </trkpt>
      <trkpt lat="45.18698" lon="5.5925">
        <ele>1710.4</ele>
        <time>2018-06-03T11:30:54Z</time>
      </trkpt>
      <trkpt lat="45.18688" lon="5.59258">
        <ele>1710.3</ele>
        <time>2018-06-03T11:31:00Z</time>
      </trkpt>
      <trkpt lat="45.18679" lon="5.59257">
        <ele>1710</ele>
        <time>2018-06-03T11:31:05Z</time>
      </trkpt>
      <trkpt lat="45.18667" lon="5.59256">
        <ele>1711.5</ele>
        <time>2018-06-03T11:31:11Z</time>
      </trkpt>
      <trkpt lat="45.18658" lon="5.59252">
        <ele>1712.6</ele>
        <time>2018-06-03T11:31:16Z</time>
      </trkpt>
      <trkpt lat="45.18649" lon="5.59248">
        <ele>1713.2</ele>
        <time>2018-06-03T11:31:21Z</time>
      </trkpt>
      <trkpt lat="45.18641" lon="5.59239">
        <ele>1713.6</ele>
        <time>2018-06-03T11:31:26Z</time>
      </trkpt>
      <trkpt lat="45.18632" lon="5.59228">
        <ele>1713.7</ele>
        <time>2018-06-03T11:31:31Z</time>
      </trkpt>
      <trkpt lat="45.18625" lon="5.59214">
        <ele>1713.4</ele>
        <time>2018-06-03T11:31:35Z</time>
      </trkpt>
      <trkpt lat="45.18619" lon="5.59204">
        <ele>1713.2</ele>
        <time>2018-06-03T11:31:39Z</time>
      </trkpt>
      <trkpt lat="45.18612" lon="5.5919">
        <ele>1712.9</ele>
        <time>2018-06-03T11:31:43Z</time>
      </trkpt>
      <trkpt lat="45.18608" lon="5.59179">
        <ele>1712.6</ele>
        <time>2018-06-03T11:31:47Z</time>
      </trkpt>
      <trkpt lat="45.18599" lon="5.59169">
        <ele>1712.5</ele>
        <time>2018-06-03T11:31:53Z</time>
      </trkpt>
      <trkpt lat="45.18589" lon="5.59164">
        <ele>1712.3</ele>
        <time>2018-06-03T11:31:55Z</time>
      </trkpt>
      <trkpt lat="45.1858" lon="5.59154">
        <ele>1712.2</ele>
        <time>2018-06-03T11:31:58Z</time>
      </trkpt>
      <trkpt lat="45.18573" lon="5.59146">
        <ele>1712.3</ele>
        <time>2018-06-03T11:32:01Z</time>
      </trkpt>
      <trkpt lat="45.18573" lon="5.59132">
        <ele>1712.7</ele>
        <time>2018-06-03T11:32:05Z</time>
      </trkpt>
      <trkpt lat="45.18567" lon="5.59121">
        <ele>1713</ele>
        <time>2018-06-03T11:32:09Z</time>
      </trkpt>
      <trkpt lat="45.18558" lon="5.59116">
        <ele>1713.3</ele>
        <time>2018-06-03T11:32:13Z</time>
      </trkpt>
      <trkpt lat="45.1855" lon="5.59109">
        <ele>1713.2</ele>
        <time>2018-06-03T11:32:18Z</time>
      </trkpt>
      <trkpt lat="45.1854" lon="5.59101">
        <ele>1713.2</ele>
        <time>2018-06-03T11:32:23Z</time>
      </trkpt>
      <trkpt lat="45.18534" lon="5.59091">
        <ele>1713</ele>
        <time>2018-06-03T11:32:27Z</time>
      </trkpt>
      <trkpt lat="45.18525" lon="5.5908">
        <ele>1712.9</ele>
        <time>2018-06-03T11:32:31Z</time>
      </trkpt>
      <trkpt lat="45.18518" lon="5.59072">
        <ele>1712.7</ele>
        <time>2018-06-03T11:32:35Z</time>
      </trkpt>
      <trkpt lat="45.18511" lon="5.59063">
        <ele>1712.1</ele>
        <time>2018-06-03T11:32:39Z</time>
      </trkpt>
      <trkpt lat="45.18504" lon="5.59054">
        <ele>1711.4</ele>
        <time>2018-06-03T11:32:44Z</time>
      </trkpt>
      <trkpt lat="45.18496" lon="5.59044">
        <ele>1710.8</ele>
        <time>2018-06-03T11:32:48Z</time>
      </trkpt>
      <trkpt lat="45.18488" lon="5.59036">
        <ele>1709.7</ele>
        <time>2018-06-03T11:32:52Z</time>
      </trkpt>
      <trkpt lat="45.18485" lon="5.59022">
        <ele>1708.7</ele>
        <time>2018-06-03T11:32:56Z</time>
      </trkpt>
      <trkpt lat="45.18484" lon="5.59008">
        <ele>1707.9</ele>
        <time>2018-06-03T11:32:59Z</time>
      </trkpt>
      <trkpt lat="45.18476" lon="5.58996">
        <ele>1706.7</ele>
        <time>2018-06-03T11:33:03Z</time>
      </trkpt>
      <trkpt lat="45.18468" lon="5.58986">
        <ele>1705.9</ele>
        <time>2018-06-03T11:33:06Z</time>
      </trkpt>
      <trkpt lat="45.18459" lon="5.58975">
        <ele>1704.7</ele>
        <time>2018-06-03T11:33:09Z</time>
      </trkpt>
      <trkpt lat="45.18452" lon="5.58967">
        <ele>1704.1</ele>
        <time>2018-06-03T11:33:11Z</time>
      </trkpt>
      <trkpt lat="45.18444" lon="5.58959">
        <ele>1703.3</ele>
        <time>2018-06-03T11:33:13Z</time>
      </trkpt>
      <trkpt lat="45.18434" lon="5.58947">
        <ele>1701.9</ele>
        <time>2018-06-03T11:33:16Z</time>
      </trkpt>
      <trkpt lat="45.18426" lon="5.5894">
        <ele>1700.2</ele>
        <time>2018-06-03T11:33:19Z</time>
      </trkpt>
      <trkpt lat="45.18416" lon="5.58938">
        <ele>1698.9</ele>
        <time>2018-06-03T11:33:22Z</time>
      </trkpt>
      <trkpt lat="45.18405" lon="5.58925">
        <ele>1697.4</ele>
        <time>2018-06-03T11:33:25Z</time>
      </trkpt>
      <trkpt lat="45.18399" lon="5.58915">
        <ele>1696</ele>
        <time>2018-06-03T11:33:28Z</time>
      </trkpt>
      <trkpt lat="45.18393" lon="5.58904">
        <ele>1694.5</ele>
        <time>2018-06-03T11:33:31Z</time>
      </trkpt>
      <trkpt lat="45.18383" lon="5.58896">
        <ele>1693.1</ele>
        <time>2018-06-03T11:33:34Z</time>
      </trkpt>
      <trkpt lat="45.18375" lon="5.58888">
        <ele>1692.3</ele>
        <time>2018-06-03T11:33:36Z</time>
      </trkpt>
      <trkpt lat="45.18367" lon="5.58872">
        <ele>1691.1</ele>
        <time>2018-06-03T11:33:39Z</time>
      </trkpt>
      <trkpt lat="45.18356" lon="5.58858">
        <ele>1689.6</ele>
        <time>2018-06-03T11:33:42Z</time>
      </trkpt>
      <trkpt lat="45.18348" lon="5.58851">
        <ele>1688.6</ele>
        <time>2018-06-03T11:33:44Z</time>
      </trkpt>
      <trkpt lat="45.18342" lon="5.5884">
        <ele>1687.8</ele>
        <time>2018-06-03T11:33:46Z</time>
      </trkpt>
      <trkpt lat="45.18333" lon="5.58826">
        <ele>1686.6</ele>
        <time>2018-06-03T11:33:49Z</time>
      </trkpt>
      <trkpt lat="45.18325" lon="5.58816">
        <ele>1685.4</ele>
        <time>2018-06-03T11:33:52Z</time>
      </trkpt>
      <trkpt lat="45.18317" lon="5.58808">
        <ele>1683.6</ele>
        <time>2018-06-03T11:34:52Z</time>
      </trkpt>
      <trkpt lat="45.18307" lon="5.58808">
        <ele>1683.3</ele>
        <time>2018-06-03T11:34:58Z</time>
      </trkpt>
      <trkpt lat="45.18298" lon="5.58806">
        <ele>1682.8</ele>
        <time>2018-06-03T11:35:03Z</time>
      </trkpt>
      <trkpt lat="45.18287" lon="5.58803">
        <ele>1682.4</ele>
        <time>2018-06-03T11:35:06Z</time>
      </trkpt>
      <trkpt lat="45.18276" lon="5.58798">
        <ele>1681.9</ele>
        <time>2018-06-03T11:35:09Z</time>
      </trkpt>
      <trkpt lat="45.18265" lon="5.58794">
        <ele>1681.4</ele>
        <time>2018-06-03T11:35:12Z</time>
      </trkpt>
      <trkpt lat="45.18257" lon="5.58786">
        <ele>1680.1</ele>
        <time>2018-06-03T11:35:16Z</time>
      </trkpt>
      <trkpt lat="45.18251" lon="5.58774">
        <ele>1678.8</ele>
        <time>2018-06-03T11:35:20Z</time>
      </trkpt>
      <trkpt lat="45.18244" lon="5.58761">
        <ele>1677.4</ele>
        <time>2018-06-03T11:35:23Z</time>
      </trkpt>
      <trkpt lat="45.18232" lon="5.58755">
        <ele>1676.2</ele>
        <time>2018-06-03T11:35:25Z</time>
      </trkpt>
      <trkpt lat="45.18218" lon="5.5875">
        <ele>1675.2</ele>
        <time>2018-06-03T11:35:27Z</time>
      </trkpt>
      <trkpt lat="45.18205" lon="5.58744">
        <ele>1674.2</ele>
        <time>2018-06-03T11:35:29Z</time>
      </trkpt>
      <trkpt lat="45.18192" lon="5.58734">
        <ele>1673.2</ele>
        <time>2018-06-03T11:35:31Z</time>
      </trkpt>
      <trkpt lat="45.18178" lon="5.58724">
        <ele>1672.1</ele>
        <time>2018-06-03T11:35:33Z</time>
      </trkpt>
      <trkpt lat="45.18166" lon="5.58717">
        <ele>1671.4</ele>
        <time>2018-06-03T11:35:35Z</time>
      </trkpt>
      <trkpt lat="45.18155" lon="5.58708">
        <ele>1671</ele>
        <time>2018-06-03T11:35:37Z</time>
      </trkpt>
      <trkpt lat="45.18145" lon="5.587">
        <ele>1670.6</ele>
        <time>2018-06-03T11:35:39Z</time>
      </trkpt>
      <trkpt lat="45.18135" lon="5.58694">
        <ele>1670.3</ele>
        <time>2018-06-03T11:35:41Z</time>
      </trkpt>
      <trkpt lat="45.18125" lon="5.58689">
        <ele>1670.1</ele>
        <time>2018-06-03T11:35:43Z</time>
      </trkpt>
      <trkpt lat="45.18115" lon="5.58683">
        <ele>1669.9</ele>
        <time>2018-06-03T11:35:45Z</time>
      </trkpt>
      <trkpt lat="45.18107" lon="5.58675">
        <ele>1669.8</ele>
        <time>2018-06-03T11:35:47Z</time>
      </trkpt>
      <trkpt lat="45.18097" lon="5.58668">
        <ele>1669.7</ele>
        <time>2018-06-03T11:35:49Z</time>
      </trkpt>
      <trkpt lat="45.18089" lon="5.58662">
        <ele>1669.2</ele>
        <time>2018-06-03T11:35:51Z</time>
      </trkpt>
      <trkpt lat="45.18079" lon="5.58653">
        <ele>1668.4</ele>
        <time>2018-06-03T11:35:54Z</time>
      </trkpt>
      <trkpt lat="45.18069" lon="5.58648">
        <ele>1667.6</ele>
        <time>2018-06-03T11:35:56Z</time>
      </trkpt>
      <trkpt lat="45.18059" lon="5.58641">
        <ele>1667.2</ele>
        <time>2018-06-03T11:35:58Z</time>
      </trkpt>
      <trkpt lat="45.1805" lon="5.58634">
        <ele>1666.5</ele>
        <time>2018-06-03T11:36:00Z</time>
      </trkpt>
      <trkpt lat="45.18038" lon="5.58626">
        <ele>1665.8</ele>
        <time>2018-06-03T11:36:02Z</time>
      </trkpt>
      <trkpt lat="45.18026" lon="5.58619">
        <ele>1664.9</ele>
        <time>2018-06-03T11:36:04Z</time>
      </trkpt>
      <trkpt lat="45.18013" lon="5.58612">
        <ele>1663.8</ele>
        <time>2018-06-03T11:36:06Z</time>
      </trkpt>
      <trkpt lat="45.18" lon="5.58602">
        <ele>1662.4</ele>
        <time>2018-06-03T11:36:08Z</time>
      </trkpt>
      <trkpt lat="45.17984" lon="5.58594">
        <ele>1660.9</ele>
        <time>2018-06-03T11:36:10Z</time>
      </trkpt>
      <trkpt lat="45.17971" lon="5.58592">
        <ele>1659.9</ele>
        <time>2018-06-03T11:36:12Z</time>
      </trkpt>
      <trkpt lat="45.17961" lon="5.58592">
        <ele>1659.5</ele>
        <time>2018-06-03T11:36:14Z</time>
      </trkpt>
      <trkpt lat="45.1795" lon="5.58589">
        <ele>1659.7</ele>
        <time>2018-06-03T11:36:17Z</time>
      </trkpt>
      <trkpt lat="45.17937" lon="5.58587">
        <ele>1660.6</ele>
        <time>2018-06-03T11:36:21Z</time>
      </trkpt>
      <trkpt lat="45.17927" lon="5.58582">
        <ele>1661.7</ele>
        <time>2018-06-03T11:36:25Z</time>
      </trkpt>
      <trkpt lat="45.17917" lon="5.5858">
        <ele>1663.1</ele>
        <time>2018-06-03T11:36:29Z</time>
      </trkpt>
      <trkpt lat="45.17908" lon="5.58578">
        <ele>1664</ele>
        <time>2018-06-03T11:36:33Z</time>
      </trkpt>
      <trkpt lat="45.17898" lon="5.58576">
        <ele>1665.1</ele>
        <time>2018-06-03T11:36:39Z</time>
      </trkpt>
      <trkpt lat="45.17888" lon="5.58577">
        <ele>1666.2</ele>
        <time>2018-06-03T11:36:47Z</time>
      </trkpt>
      <trkpt lat="45.17878" lon="5.58581">
        <ele>1667.4</ele>
        <time>2018-06-03T11:36:54Z</time>
      </trkpt>
      <trkpt lat="45.17869" lon="5.58586">
        <ele>1668.5</ele>
        <time>2018-06-03T11:37:01Z</time>
      </trkpt>
      <trkpt lat="45.1786" lon="5.58592">
        <ele>1669.7</ele>
        <time>2018-06-03T11:37:08Z</time>
      </trkpt>
      <trkpt lat="45.17852" lon="5.58603">
        <ele>1671.4</ele>
        <time>2018-06-03T11:37:17Z</time>
      </trkpt>
      <trkpt lat="45.17843" lon="5.58607">
        <ele>1673</ele>
        <time>2018-06-03T11:37:26Z</time>
      </trkpt>
      <trkpt lat="45.17834" lon="5.58613">
        <ele>1674.2</ele>
        <time>2018-06-03T11:37:33Z</time>
      </trkpt>
      <trkpt lat="45.17824" lon="5.58615">
        <ele>1675.3</ele>
        <time>2018-06-03T11:37:40Z</time>
      </trkpt>
      <trkpt lat="45.17814" lon="5.58618">
        <ele>1676.2</ele>
        <time>2018-06-03T11:37:47Z</time>
      </trkpt>
      <trkpt lat="45.17805" lon="5.58622">
        <ele>1677.3</ele>
        <time>2018-06-03T11:37:53Z</time>
      </trkpt>
      <trkpt lat="45.17795" lon="5.58628">
        <ele>1678.2</ele>
        <time>2018-06-03T11:38:01Z</time>
      </trkpt>
      <trkpt lat="45.17786" lon="5.58636">
        <ele>1678.8</ele>
        <time>2018-06-03T11:38:08Z</time>
      </trkpt>
      <trkpt lat="45.17777" lon="5.58639">
        <ele>1679.7</ele>
        <time>2018-06-03T11:38:13Z</time>
      </trkpt>
      <trkpt lat="45.17767" lon="5.58638">
        <ele>1679.9</ele>
        <time>2018-06-03T11:38:17Z</time>
      </trkpt>
      <trkpt lat="45.17757" lon="5.58638">
        <ele>1680</ele>
        <time>2018-06-03T11:38:21Z</time>
      </trkpt>
      <trkpt lat="45.17748" lon="5.5864">
        <ele>1680.3</ele>
        <time>2018-06-03T11:38:24Z</time>
      </trkpt>
      <trkpt lat="45.17738" lon="5.58643">
        <ele>1680.7</ele>
        <time>2018-06-03T11:38:29Z</time>
      </trkpt>
      <trkpt lat="45.17728" lon="5.58646">
        <ele>1681</ele>
        <time>2018-06-03T11:38:32Z</time>
      </trkpt>
      <trkpt lat="45.17719" lon="5.5865">
        <ele>1681.3</ele>
        <time>2018-06-03T11:38:36Z</time>
      </trkpt>
      <trkpt lat="45.1771" lon="5.58653">
        <ele>1682</ele>
        <time>2018-06-03T11:38:41Z</time>
      </trkpt>
      <trkpt lat="45.17701" lon="5.58661">
        <ele>1683.3</ele>
        <time>2018-06-03T11:38:47Z</time>
      </trkpt>
      <trkpt lat="45.17692" lon="5.58659">
        <ele>1684.6</ele>
        <time>2018-06-03T11:38:53Z</time>
      </trkpt>
      <trkpt lat="45.17687" lon="5.5867">
        <ele>1685.4</ele>
        <time>2018-06-03T11:39:01Z</time>
      </trkpt>
      <trkpt lat="45.17679" lon="5.58661">
        <ele>1686</ele>
        <time>2018-06-03T11:41:40Z</time>
      </trkpt>
      <trkpt lat="45.17671" lon="5.58652">
        <ele>1686</ele>
        <time>2018-06-03T11:41:45Z</time>
      </trkpt>
      <trkpt lat="45.17662" lon="5.58645">
        <ele>1686.8</ele>
        <time>2018-06-03T11:41:51Z</time>
      </trkpt>
      <trkpt lat="45.17654" lon="5.58638">
        <ele>1687.9</ele>
        <time>2018-06-03T11:41:56Z</time>
      </trkpt>
      <trkpt lat="45.17645" lon="5.58634">
        <ele>1689</ele>
        <time>2018-06-03T11:42:01Z</time>
      </trkpt>
      <trkpt lat="45.17637" lon="5.58627">
        <ele>1690.7</ele>
        <time>2018-06-03T11:42:07Z</time>
      </trkpt>
      <trkpt lat="45.17627" lon="5.58623">
        <ele>1692.3</ele>
        <time>2018-06-03T11:42:15Z</time>
      </trkpt>
      <trkpt lat="45.17617" lon="5.58618">
        <ele>1693.3</ele>
        <time>2018-06-03T11:42:21Z</time>
      </trkpt>
      <trkpt lat="45.17607" lon="5.58608">
        <ele>1693.5</ele>
        <time>2018-06-03T11:42:26Z</time>
      </trkpt>
      <trkpt lat="45.17599" lon="5.58601">
        <ele>1693.5</ele>
        <time>2018-06-03T11:42:29Z</time>
      </trkpt>
      <trkpt lat="45.1759" lon="5.58595">
        <ele>1693.5</ele>
        <time>2018-06-03T11:42:33Z</time>
      </trkpt>
      <trkpt lat="45.1758" lon="5.58592">
        <ele>1693.7</ele>
        <time>2018-06-03T11:42:36Z</time>
      </trkpt>
      <trkpt lat="45.1757" lon="5.58586">
        <ele>1693.9</ele>
        <time>2018-06-03T11:42:39Z</time>
      </trkpt>
      <trkpt lat="45.1756" lon="5.58582">
        <ele>1693.8</ele>
        <time>2018-06-03T11:42:42Z</time>
      </trkpt>
      <trkpt lat="45.17551" lon="5.5858">
        <ele>1693.6</ele>
        <time>2018-06-03T11:42:44Z</time>
      </trkpt>
      <trkpt lat="45.17539" lon="5.58577">
        <ele>1693.7</ele>
        <time>2018-06-03T11:42:47Z</time>
      </trkpt>
      <trkpt lat="45.1753" lon="5.58569">
        <ele>1693.6</ele>
        <time>2018-06-03T11:42:50Z</time>
      </trkpt>
      <trkpt lat="45.1752" lon="5.58558">
        <ele>1693.2</ele>
        <time>2018-06-03T11:42:53Z</time>
      </trkpt>
      <trkpt lat="45.17509" lon="5.5855">
        <ele>1692.5</ele>
        <time>2018-06-03T11:42:56Z</time>
      </trkpt>
      <trkpt lat="45.17499" lon="5.58549">
        <ele>1691.7</ele>
        <time>2018-06-03T11:42:58Z</time>
      </trkpt>
      <trkpt lat="45.17489" lon="5.58548">
        <ele>1690.7</ele>
        <time>2018-06-03T11:43:01Z</time>
      </trkpt>
      <trkpt lat="45.17477" lon="5.58551">
        <ele>1690.5</ele>
        <time>2018-06-03T11:43:04Z</time>
      </trkpt>
      <trkpt lat="45.17466" lon="5.58548">
        <ele>1690.4</ele>
        <time>2018-06-03T11:43:07Z</time>
      </trkpt>
      <trkpt lat="45.17456" lon="5.58546">
        <ele>1690.2</ele>
        <time>2018-06-03T11:43:09Z</time>
      </trkpt>
      <trkpt lat="45.17447" lon="5.58539">
        <ele>1689.7</ele>
        <time>2018-06-03T11:43:12Z</time>
      </trkpt>
      <trkpt lat="45.17437" lon="5.58533">
        <ele>1688.9</ele>
        <time>2018-06-03T11:43:15Z</time>
      </trkpt>
      <trkpt lat="45.17429" lon="5.58526">
        <ele>1688.1</ele>
        <time>2018-06-03T11:43:18Z</time>
      </trkpt>
      <trkpt lat="45.17421" lon="5.58517">
        <ele>1686.8</ele>
        <time>2018-06-03T11:43:21Z</time>
      </trkpt>
      <trkpt lat="45.17411" lon="5.58508">
        <ele>1686.3</ele>
        <time>2018-06-03T11:43:24Z</time>
      </trkpt>
      <trkpt lat="45.17401" lon="5.58502">
        <ele>1685.9</ele>
        <time>2018-06-03T11:43:26Z</time>
      </trkpt>
      <trkpt lat="45.17393" lon="5.58495">
        <ele>1685.3</ele>
        <time>2018-06-03T11:43:28Z</time>
      </trkpt>
      <trkpt lat="45.17384" lon="5.58488">
        <ele>1684.4</ele>
        <time>2018-06-03T11:43:30Z</time>
      </trkpt>
      <trkpt lat="45.17376" lon="5.58482">
        <ele>1683.2</ele>
        <time>2018-06-03T11:43:33Z</time>
      </trkpt>
      <trkpt lat="45.17369" lon="5.58473">
        <ele>1680.8</ele>
        <time>2018-06-03T11:43:39Z</time>
      </trkpt>
      <trkpt lat="45.17358" lon="5.5847">
        <ele>1678.6</ele>
        <time>2018-06-03T11:43:44Z</time>
      </trkpt>
      <trkpt lat="45.17349" lon="5.58465">
        <ele>1674.1</ele>
        <time>2018-06-03T11:43:54Z</time>
      </trkpt>
      <trkpt lat="45.17338" lon="5.58462">
        <ele>1672.4</ele>
        <time>2018-06-03T11:43:59Z</time>
      </trkpt>
      <trkpt lat="45.17329" lon="5.58457">
        <ele>1671.2</ele>
        <time>2018-06-03T11:44:02Z</time>
      </trkpt>
      <trkpt lat="45.17322" lon="5.58446">
        <ele>1669</ele>
        <time>2018-06-03T11:44:06Z</time>
      </trkpt>
      <trkpt lat="45.17314" lon="5.58436">
        <ele>1666.5</ele>
        <time>2018-06-03T11:44:12Z</time>
      </trkpt>
      <trkpt lat="45.17306" lon="5.58427">
        <ele>1664.8</ele>
        <time>2018-06-03T11:44:17Z</time>
      </trkpt>
      <trkpt lat="45.17298" lon="5.58418">
        <ele>1663.4</ele>
        <time>2018-06-03T11:44:20Z</time>
      </trkpt>
      <trkpt lat="45.1729" lon="5.58407">
        <ele>1661.3</ele>
        <time>2018-06-03T11:44:24Z</time>
      </trkpt>
      <trkpt lat="45.1728" lon="5.58405">
        <ele>1660.1</ele>
        <time>2018-06-03T11:44:26Z</time>
      </trkpt>
      <trkpt lat="45.17269" lon="5.58403">
        <ele>1659.2</ele>
        <time>2018-06-03T11:44:28Z</time>
      </trkpt>
      <trkpt lat="45.17258" lon="5.58398">
        <ele>1658.6</ele>
        <time>2018-06-03T11:44:30Z</time>
      </trkpt>
      <trkpt lat="45.17249" lon="5.58393">
        <ele>1657.9</ele>
        <time>2018-06-03T11:44:32Z</time>
      </trkpt>
      <trkpt lat="45.1724" lon="5.58391">
        <ele>1657.2</ele>
        <time>2018-06-03T11:44:34Z</time>
      </trkpt>
      <trkpt lat="45.1723" lon="5.58387">
        <ele>1656.2</ele>
        <time>2018-06-03T11:44:36Z</time>
      </trkpt>
      <trkpt lat="45.17218" lon="5.58386">
        <ele>1655.2</ele>
        <time>2018-06-03T11:44:38Z</time>
      </trkpt>
      <trkpt lat="45.17207" lon="5.58389">
        <ele>1654.2</ele>
        <time>2018-06-03T11:44:40Z</time>
      </trkpt>
      <trkpt lat="45.17198" lon="5.58394">
        <ele>1653.1</ele>
        <time>2018-06-03T11:44:42Z</time>
      </trkpt>
      <trkpt lat="45.17186" lon="5.58395">
        <ele>1651.3</ele>
        <time>2018-06-03T11:44:46Z</time>
      </trkpt>
      <trkpt lat="45.17175" lon="5.58396">
        <ele>1649.9</ele>
        <time>2018-06-03T11:44:49Z</time>
      </trkpt>
      <trkpt lat="45.17165" lon="5.58397">
        <ele>1648</ele>
        <time>2018-06-03T11:44:53Z</time>
      </trkpt>
      <trkpt lat="45.17155" lon="5.58389">
        <ele>1645.9</ele>
        <time>2018-06-03T11:44:59Z</time>
      </trkpt>
      <trkpt lat="45.17142" lon="5.58382">
        <ele>1644.7</ele>
        <time>2018-06-03T11:45:02Z</time>
      </trkpt>
      <trkpt lat="45.17132" lon="5.5838">
        <ele>1643.9</ele>
        <time>2018-06-03T11:45:04Z</time>
      </trkpt>
      <trkpt lat="45.17123" lon="5.58376">
        <ele>1643.4</ele>
        <time>2018-06-03T11:45:06Z</time>
      </trkpt>
      <trkpt lat="45.17113" lon="5.58373">
        <ele>1643</ele>
        <time>2018-06-03T11:45:09Z</time>
      </trkpt>
      <trkpt lat="45.17103" lon="5.58371">
        <ele>1642.8</ele>
        <time>2018-06-03T11:45:13Z</time>
      </trkpt>
      <trkpt lat="45.17093" lon="5.58366">
        <ele>1643.1</ele>
        <time>2018-06-03T11:45:17Z</time>
      </trkpt>
      <trkpt lat="45.17082" lon="5.58364">
        <ele>1645.2</ele>
        <time>2018-06-03T11:45:23Z</time>
      </trkpt>
      <trkpt lat="45.17073" lon="5.58359">
        <ele>1647.1</ele>
        <time>2018-06-03T11:45:29Z</time>
      </trkpt>
      <trkpt lat="45.17064" lon="5.58356">
        <ele>1649.3</ele>
        <time>2018-06-03T11:45:35Z</time>
      </trkpt>
      <trkpt lat="45.17055" lon="5.58352">
        <ele>1651.3</ele>
        <time>2018-06-03T11:45:43Z</time>
      </trkpt>
      <trkpt lat="45.17046" lon="5.58351">
        <ele>1653.8</ele>
        <time>2018-06-03T11:45:55Z</time>
      </trkpt>
      <trkpt lat="45.17036" lon="5.58351">
        <ele>1656.3</ele>
        <time>2018-06-03T11:46:08Z</time>
      </trkpt>
      <trkpt lat="45.17027" lon="5.58354">
        <ele>1658.8</ele>
        <time>2018-06-03T11:46:22Z</time>
      </trkpt>
      <trkpt lat="45.17018" lon="5.58353">
        <ele>1661.2</ele>
        <time>2018-06-03T11:46:36Z</time>
      </trkpt>
      <trkpt lat="45.17008" lon="5.58355">
        <ele>1663.6</ele>
        <time>2018-06-03T11:46:50Z</time>
      </trkpt>
      <trkpt lat="45.16999" lon="5.5836">
        <ele>1666.3</ele>
        <time>2018-06-03T11:47:04Z</time>
      </trkpt>
      <trkpt lat="45.16992" lon="5.58368">
        <ele>1668</ele>
        <time>2018-06-03T11:47:15Z</time>
      </trkpt>
      <trkpt lat="45.16984" lon="5.58375">
        <ele>1669.7</ele>
        <time>2018-06-03T11:47:26Z</time>
      </trkpt>
      <trkpt lat="45.16975" lon="5.58377">
        <ele>1670.9</ele>
        <time>2018-06-03T11:47:35Z</time>
      </trkpt>
      <trkpt lat="45.16964" lon="5.58377">
        <ele>1671.7</ele>
        <time>2018-06-03T11:48:38Z</time>
      </trkpt>
      <trkpt lat="45.16954" lon="5.58375">
        <ele>1671.9</ele>
        <time>2018-06-03T11:48:42Z</time>
      </trkpt>
      <trkpt lat="45.16945" lon="5.58373">
        <ele>1671.9</ele>
        <time>2018-06-03T11:48:45Z</time>
      </trkpt>
      <trkpt lat="45.16936" lon="5.58371">
        <ele>1672</ele>
        <time>2018-06-03T11:48:48Z</time>
      </trkpt>
      <trkpt lat="45.16924" lon="5.58366">
        <ele>1671.8</ele>
        <time>2018-06-03T11:48:51Z</time>
      </trkpt>
      <trkpt lat="45.16915" lon="5.58365">
        <ele>1671.6</ele>
        <time>2018-06-03T11:48:53Z</time>
      </trkpt>
      <trkpt lat="45.16902" lon="5.58361">
        <ele>1670.8</ele>
        <time>2018-06-03T11:48:56Z</time>
      </trkpt>
      <trkpt lat="45.16892" lon="5.58356">
        <ele>1670.1</ele>
        <time>2018-06-03T11:48:59Z</time>
      </trkpt>
      <trkpt lat="45.16883" lon="5.58354">
        <ele>1669.5</ele>
        <time>2018-06-03T11:49:01Z</time>
      </trkpt>
      <trkpt lat="45.16871" lon="5.5835">
        <ele>1668.7</ele>
        <time>2018-06-03T11:49:04Z</time>
      </trkpt>
      <trkpt lat="45.16861" lon="5.58348">
        <ele>1668.2</ele>
        <time>2018-06-03T11:49:06Z</time>
      </trkpt>
      <trkpt lat="45.1685" lon="5.58346">
        <ele>1666.9</ele>
        <time>2018-06-03T11:49:09Z</time>
      </trkpt>
      <trkpt lat="45.16841" lon="5.58342">
        <ele>1665.8</ele>
        <time>2018-06-03T11:49:12Z</time>
      </trkpt>
      <trkpt lat="45.16827" lon="5.58339">
        <ele>1664.1</ele>
        <time>2018-06-03T11:49:15Z</time>
      </trkpt>
      <trkpt lat="45.16818" lon="5.58341">
        <ele>1663.5</ele>
        <time>2018-06-03T11:49:17Z</time>
      </trkpt>
      <trkpt lat="45.16808" lon="5.58341">
        <ele>1663</ele>
        <time>2018-06-03T11:49:19Z</time>
      </trkpt>
      <trkpt lat="45.16798" lon="5.58338">
        <ele>1662.6</ele>
        <time>2018-06-03T11:49:21Z</time>
      </trkpt>
      <trkpt lat="45.16788" lon="5.58334">
        <ele>1661.7</ele>
        <time>2018-06-03T11:49:23Z</time>
      </trkpt>
      <trkpt lat="45.16775" lon="5.5833">
        <ele>1660.7</ele>
        <time>2018-06-03T11:49:25Z</time>
      </trkpt>
      <trkpt lat="45.16763" lon="5.58324">
        <ele>1659.7</ele>
        <time>2018-06-03T11:49:27Z</time>
      </trkpt>
      <trkpt lat="45.16749" lon="5.58319">
        <ele>1658.5</ele>
        <time>2018-06-03T11:49:29Z</time>
      </trkpt>
      <trkpt lat="45.16737" lon="5.58318">
        <ele>1657.6</ele>
        <time>2018-06-03T11:49:31Z</time>
      </trkpt>
      <trkpt lat="45.16726" lon="5.58317">
        <ele>1657</ele>
        <time>2018-06-03T11:49:33Z</time>
      </trkpt>
      <trkpt lat="45.16717" lon="5.58315">
        <ele>1656.8</ele>
        <time>2018-06-03T11:49:35Z</time>
      </trkpt>
      <trkpt lat="45.16708" lon="5.58313">
        <ele>1656.7</ele>
        <time>2018-06-03T11:49:37Z</time>
      </trkpt>
      <trkpt lat="45.16699" lon="5.58311">
        <ele>1656.8</ele>
        <time>2018-06-03T11:49:39Z</time>
      </trkpt>
      <trkpt lat="45.16688" lon="5.5831">
        <ele>1657.1</ele>
        <time>2018-06-03T11:49:42Z</time>
      </trkpt>
      <trkpt lat="45.16679" lon="5.58306">
        <ele>1657.7</ele>
        <time>2018-06-03T11:49:45Z</time>
      </trkpt>
      <trkpt lat="45.1667" lon="5.58302">
        <ele>1658.8</ele>
        <time>2018-06-03T11:49:49Z</time>
      </trkpt>
      <trkpt lat="45.1666" lon="5.58297">
        <ele>1660.3</ele>
        <time>2018-06-03T11:49:53Z</time>
      </trkpt>
      <trkpt lat="45.16651" lon="5.58295">
        <ele>1661.8</ele>
        <time>2018-06-03T11:49:57Z</time>
      </trkpt>
      <trkpt lat="45.1664" lon="5.58295">
        <ele>1663.3</ele>
        <time>2018-06-03T11:50:03Z</time>
      </trkpt>
      <trkpt lat="45.1663" lon="5.58293">
        <ele>1664.6</ele>
        <time>2018-06-03T11:50:09Z</time>
      </trkpt>
      <trkpt lat="45.16622" lon="5.58288">
        <ele>1665.4</ele>
        <time>2018-06-03T11:50:14Z</time>
      </trkpt>
      <trkpt lat="45.16611" lon="5.58286">
        <ele>1665.9</ele>
        <time>2018-06-03T11:50:19Z</time>
      </trkpt>
      <trkpt lat="45.16602" lon="5.58284">
        <ele>1666.2</ele>
        <time>2018-06-03T11:50:23Z</time>
      </trkpt>
      <trkpt lat="45.16591" lon="5.58281">
        <ele>1666.5</ele>
        <time>2018-06-03T11:50:27Z</time>
      </trkpt>
      <trkpt lat="45.16581" lon="5.58279">
        <ele>1666.8</ele>
        <time>2018-06-03T11:50:31Z</time>
      </trkpt>
      <trkpt lat="45.1657" lon="5.58274">
        <ele>1666.9</ele>
        <time>2018-06-03T11:50:35Z</time>
      </trkpt>
      <trkpt lat="45.16561" lon="5.5827">
        <ele>1666.8</ele>
        <time>2018-06-03T11:50:38Z</time>
      </trkpt>
      <trkpt lat="45.16551" lon="5.58266">
        <ele>1666.4</ele>
        <time>2018-06-03T11:50:41Z</time>
      </trkpt>
      <trkpt lat="45.16538" lon="5.58262">
        <ele>1665.6</ele>
        <time>2018-06-03T11:50:44Z</time>
      </trkpt>
      <trkpt lat="45.16527" lon="5.58261">
        <ele>1665.2</ele>
        <time>2018-06-03T11:50:46Z</time>
      </trkpt>
      <trkpt lat="45.16516" lon="5.58258">
        <ele>1664.7</ele>
        <time>2018-06-03T11:50:48Z</time>
      </trkpt>
      <trkpt lat="45.16505" lon="5.58253">
        <ele>1664.4</ele>
        <time>2018-06-03T11:50:50Z</time>
      </trkpt>
      <trkpt lat="45.16495" lon="5.58249">
        <ele>1664</ele>
        <time>2018-06-03T11:50:52Z</time>
      </trkpt>
      <trkpt lat="45.16485" lon="5.58243">
        <ele>1663.8</ele>
        <time>2018-06-03T11:50:54Z</time>
      </trkpt>
      <trkpt lat="45.16475" lon="5.58236">
        <ele>1663.3</ele>
        <time>2018-06-03T11:50:56Z</time>
      </trkpt>
      <trkpt lat="45.16464" lon="5.58229">
        <ele>1662.7</ele>
        <time>2018-06-03T11:50:58Z</time>
      </trkpt>
      <trkpt lat="45.16453" lon="5.58221">
        <ele>1662.4</ele>
        <time>2018-06-03T11:51:00Z</time>
      </trkpt>
      <trkpt lat="45.16444" lon="5.58211">
        <ele>1662.1</ele>
        <time>2018-06-03T11:51:02Z</time>
      </trkpt>
      <trkpt lat="45.16435" lon="5.58199">
        <ele>1661.8</ele>
        <time>2018-06-03T11:51:04Z</time>
      </trkpt>
      <trkpt lat="45.16426" lon="5.58188">
        <ele>1661.8</ele>
        <time>2018-06-03T11:51:06Z</time>
      </trkpt>
      <trkpt lat="45.16418" lon="5.58177">
        <ele>1661.5</ele>
        <time>2018-06-03T11:51:08Z</time>
      </trkpt>
      <trkpt lat="45.16409" lon="5.58166">
        <ele>1661.1</ele>
        <time>2018-06-03T11:51:11Z</time>
      </trkpt>
      <trkpt lat="45.16402" lon="5.58157">
        <ele>1660.9</ele>
        <time>2018-06-03T11:51:14Z</time>
      </trkpt>
      <trkpt lat="45.16395" lon="5.58148">
        <ele>1660.5</ele>
        <time>2018-06-03T11:51:17Z</time>
      </trkpt>
      <trkpt lat="45.1639" lon="5.58135">
        <ele>1660</ele>
        <time>2018-06-03T11:51:20Z</time>
      </trkpt>
      <trkpt lat="45.16385" lon="5.58124">
        <ele>1660.1</ele>
        <time>2018-06-03T11:51:23Z</time>
      </trkpt>
      <trkpt lat="45.16379" lon="5.58113">
        <ele>1661.8</ele>
        <time>2018-06-03T11:51:32Z</time>
      </trkpt>
      <trkpt lat="45.16371" lon="5.58104">
        <ele>1663.2</ele>
        <time>2018-06-03T11:51:45Z</time>
      </trkpt>
      <trkpt lat="45.16362" lon="5.58096">
        <ele>1663.9</ele>
        <time>2018-06-03T11:51:50Z</time>
      </trkpt>
      <trkpt lat="45.16353" lon="5.58091">
        <ele>1664.3</ele>
        <time>2018-06-03T11:51:53Z</time>
      </trkpt>
      <trkpt lat="45.16343" lon="5.58085">
        <ele>1664.7</ele>
        <time>2018-06-03T11:51:57Z</time>
      </trkpt>
      <trkpt lat="45.16332" lon="5.58082">
        <ele>1665</ele>
        <time>2018-06-03T11:52:01Z</time>
      </trkpt>
      <trkpt lat="45.16323" lon="5.58077">
        <ele>1665.3</ele>
        <time>2018-06-03T11:52:04Z</time>
      </trkpt>
      <trkpt lat="45.16312" lon="5.58076">
        <ele>1665.3</ele>
        <time>2018-06-03T11:52:08Z</time>
      </trkpt>
      <trkpt lat="45.16302" lon="5.58073">
        <ele>1665</ele>
        <time>2018-06-03T11:52:11Z</time>
      </trkpt>
      <trkpt lat="45.16293" lon="5.58072">
        <ele>1664.9</ele>
        <time>2018-06-03T11:52:13Z</time>
      </trkpt>
      <trkpt lat="45.16282" lon="5.58068">
        <ele>1664.3</ele>
        <time>2018-06-03T11:52:16Z</time>
      </trkpt>
      <trkpt lat="45.16271" lon="5.58068">
        <ele>1664</ele>
        <time>2018-06-03T11:52:18Z</time>
      </trkpt>
      <trkpt lat="45.1626" lon="5.58065">
        <ele>1663.5</ele>
        <time>2018-06-03T11:52:21Z</time>
      </trkpt>
      <trkpt lat="45.16248" lon="5.58063">
        <ele>1663</ele>
        <time>2018-06-03T11:52:24Z</time>
      </trkpt>
      <trkpt lat="45.16238" lon="5.58058">
        <ele>1662.6</ele>
        <time>2018-06-03T11:52:28Z</time>
      </trkpt>
      <trkpt lat="45.16228" lon="5.58057">
        <ele>1662.5</ele>
        <time>2018-06-03T11:52:30Z</time>
      </trkpt>
      <trkpt lat="45.16218" lon="5.58055">
        <ele>1662.1</ele>
        <time>2018-06-03T11:52:32Z</time>
      </trkpt>
      <trkpt lat="45.16203" lon="5.58052">
        <ele>1661</ele>
        <time>2018-06-03T11:52:36Z</time>
      </trkpt>
      <trkpt lat="45.16187" lon="5.58046">
        <ele>1661.7</ele>
        <time>2018-06-03T11:52:39Z</time>
      </trkpt>
      <trkpt lat="45.16178" lon="5.58039">
        <ele>1661.6</ele>
        <time>2018-06-03T11:52:41Z</time>
      </trkpt>
      <trkpt lat="45.16167" lon="5.58036">
        <ele>1661.2</ele>
        <time>2018-06-03T11:52:44Z</time>
      </trkpt>
      <trkpt lat="45.16158" lon="5.58035">
        <ele>1660.9</ele>
        <time>2018-06-03T11:52:46Z</time>
      </trkpt>
      <trkpt lat="45.16144" lon="5.58036">
        <ele>1660.4</ele>
        <time>2018-06-03T11:52:49Z</time>
      </trkpt>
      <trkpt lat="45.16135" lon="5.58039">
        <ele>1659.7</ele>
        <time>2018-06-03T11:52:51Z</time>
      </trkpt>
      <trkpt lat="45.16125" lon="5.5804">
        <ele>1659.2</ele>
        <time>2018-06-03T11:52:53Z</time>
      </trkpt>
      <trkpt lat="45.16115" lon="5.58043">
        <ele>1658.8</ele>
        <time>2018-06-03T11:52:55Z</time>
      </trkpt>
      <trkpt lat="45.16104" lon="5.5804">
        <ele>1657.8</ele>
        <time>2018-06-03T11:52:58Z</time>
      </trkpt>
      <trkpt lat="45.1609" lon="5.58036">
        <ele>1657.1</ele>
        <time>2018-06-03T11:53:00Z</time>
      </trkpt>
      <trkpt lat="45.16076" lon="5.58035">
        <ele>1656.4</ele>
        <time>2018-06-03T11:53:02Z</time>
      </trkpt>
      <trkpt lat="45.16064" lon="5.58034">
        <ele>1655.5</ele>
        <time>2018-06-03T11:53:04Z</time>
      </trkpt>
      <trkpt lat="45.16054" lon="5.58031">
        <ele>1654.7</ele>
        <time>2018-06-03T11:53:06Z</time>
      </trkpt>
      <trkpt lat="45.16043" lon="5.58029">
        <ele>1654</ele>
        <time>2018-06-03T11:53:08Z</time>
      </trkpt>
      <trkpt lat="45.16033" lon="5.58027">
        <ele>1653.3</ele>
        <time>2018-06-03T11:53:10Z</time>
      </trkpt>
      <trkpt lat="45.16023" lon="5.5803">
        <ele>1652.8</ele>
        <time>2018-06-03T11:53:12Z</time>
      </trkpt>
      <trkpt lat="45.16014" lon="5.58025">
        <ele>1652.3</ele>
        <time>2018-06-03T11:53:15Z</time>
      </trkpt>
      <trkpt lat="45.16003" lon="5.5802">
        <ele>1652.2</ele>
        <time>2018-06-03T11:53:17Z</time>
      </trkpt>
      <trkpt lat="45.15993" lon="5.58014">
        <ele>1652.4</ele>
        <time>2018-06-03T11:53:19Z</time>
      </trkpt>
      <trkpt lat="45.15983" lon="5.58008">
        <ele>1652.9</ele>
        <time>2018-06-03T11:53:21Z</time>
      </trkpt>
      <trkpt lat="45.15972" lon="5.58005">
        <ele>1653.2</ele>
        <time>2018-06-03T11:53:23Z</time>
      </trkpt>
      <trkpt lat="45.15958" lon="5.57999">
        <ele>1653.6</ele>
        <time>2018-06-03T11:53:26Z</time>
      </trkpt>
      <trkpt lat="45.15947" lon="5.57993">
        <ele>1653.6</ele>
        <time>2018-06-03T11:53:28Z</time>
      </trkpt>
      <trkpt lat="45.1594" lon="5.57985">
        <ele>1653.3</ele>
        <time>2018-06-03T11:53:30Z</time>
      </trkpt>
      <trkpt lat="45.15932" lon="5.57976">
        <ele>1652.9</ele>
        <time>2018-06-03T11:53:32Z</time>
      </trkpt>
      <trkpt lat="45.15925" lon="5.57966">
        <ele>1652.5</ele>
        <time>2018-06-03T11:53:34Z</time>
      </trkpt>
      <trkpt lat="45.15916" lon="5.57951">
        <ele>1651.7</ele>
        <time>2018-06-03T11:53:37Z</time>
      </trkpt>
      <trkpt lat="45.15907" lon="5.5794">
        <ele>1650.8</ele>
        <time>2018-06-03T11:53:39Z</time>
      </trkpt>
      <trkpt lat="45.15899" lon="5.5793">
        <ele>1649.7</ele>
        <time>2018-06-03T11:53:42Z</time>
      </trkpt>
      <trkpt lat="45.15891" lon="5.57925">
        <ele>1649.4</ele>
        <time>2018-06-03T11:53:44Z</time>
      </trkpt>
      <trkpt lat="45.15877" lon="5.57921">
        <ele>1648.9</ele>
        <time>2018-06-03T11:53:46Z</time>
      </trkpt>
      <trkpt lat="45.15869" lon="5.57913">
        <ele>1648.8</ele>
        <time>2018-06-03T11:53:49Z</time>
      </trkpt>
      <trkpt lat="45.15861" lon="5.57905">
        <ele>1648.9</ele>
        <time>2018-06-03T11:53:53Z</time>
      </trkpt>
      <trkpt lat="45.1585" lon="5.57905">
        <ele>1649.2</ele>
        <time>2018-06-03T11:53:56Z</time>
      </trkpt>
      <trkpt lat="45.1584" lon="5.57903">
        <ele>1649.2</ele>
        <time>2018-06-03T11:53:59Z</time>
      </trkpt>
      <trkpt lat="45.15832" lon="5.57896">
        <ele>1648.9</ele>
        <time>2018-06-03T11:54:03Z</time>
      </trkpt>
      <trkpt lat="45.1582" lon="5.57891">
        <ele>1648.5</ele>
        <time>2018-06-03T11:54:06Z</time>
      </trkpt>
      <trkpt lat="45.15808" lon="5.57888">
        <ele>1648</ele>
        <time>2018-06-03T11:54:09Z</time>
      </trkpt>
      <trkpt lat="45.15797" lon="5.57883">
        <ele>1647</ele>
        <time>2018-06-03T11:54:13Z</time>
      </trkpt>
      <trkpt lat="45.15785" lon="5.57875">
        <ele>1646.1</ele>
        <time>2018-06-03T11:54:16Z</time>
      </trkpt>
      <trkpt lat="45.15774" lon="5.57871">
        <ele>1645.3</ele>
        <time>2018-06-03T11:54:18Z</time>
      </trkpt>
      <trkpt lat="45.15762" lon="5.57868">
        <ele>1644.1</ele>
        <time>2018-06-03T11:54:20Z</time>
      </trkpt>
      <trkpt lat="45.15748" lon="5.57865">
        <ele>1642.9</ele>
        <time>2018-06-03T11:54:22Z</time>
      </trkpt>
      <trkpt lat="45.15731" lon="5.57863">
        <ele>1641.6</ele>
        <time>2018-06-03T11:54:24Z</time>
      </trkpt>
      <trkpt lat="45.15716" lon="5.57863">
        <ele>1640.2</ele>
        <time>2018-06-03T11:54:26Z</time>
      </trkpt>
      <trkpt lat="45.15702" lon="5.57864">
        <ele>1639</ele>
        <time>2018-06-03T11:54:28Z</time>
      </trkpt>
      <trkpt lat="45.1569" lon="5.57866">
        <ele>1637.9</ele>
        <time>2018-06-03T11:54:30Z</time>
      </trkpt>
      <trkpt lat="45.15679" lon="5.57867">
        <ele>1636.3</ele>
        <time>2018-06-03T11:54:34Z</time>
      </trkpt>
      <trkpt lat="45.1567" lon="5.57871">
        <ele>1635.5</ele>
        <time>2018-06-03T11:54:38Z</time>
      </trkpt>
      <trkpt lat="45.15659" lon="5.57871">
        <ele>1635.2</ele>
        <time>2018-06-03T11:54:42Z</time>
      </trkpt>
      <trkpt lat="45.15647" lon="5.57872">
        <ele>1635.3</ele>
        <time>2018-06-03T11:54:45Z</time>
      </trkpt>
      <trkpt lat="45.15634" lon="5.57874">
        <ele>1635.3</ele>
        <time>2018-06-03T11:54:48Z</time>
      </trkpt>
      <trkpt lat="45.15625" lon="5.57875">
        <ele>1634.5</ele>
        <time>2018-06-03T11:54:52Z</time>
      </trkpt>
      <trkpt lat="45.15612" lon="5.57877">
        <ele>1632.8</ele>
        <time>2018-06-03T11:54:56Z</time>
      </trkpt>
      <trkpt lat="45.15599" lon="5.57878">
        <ele>1631.5</ele>
        <time>2018-06-03T11:54:58Z</time>
      </trkpt>
      <trkpt lat="45.15589" lon="5.57871">
        <ele>1630.2</ele>
        <time>2018-06-03T11:55:01Z</time>
      </trkpt>
      <trkpt lat="45.15578" lon="5.57868">
        <ele>1629.3</ele>
        <time>2018-06-03T11:55:04Z</time>
      </trkpt>
      <trkpt lat="45.15569" lon="5.57862">
        <ele>1628.7</ele>
        <time>2018-06-03T11:55:07Z</time>
      </trkpt>
      <trkpt lat="45.15559" lon="5.57853">
        <ele>1628.5</ele>
        <time>2018-06-03T11:55:10Z</time>
      </trkpt>
      <trkpt lat="45.15552" lon="5.57844">
        <ele>1628.5</ele>
        <time>2018-06-03T11:55:13Z</time>
      </trkpt>
      <trkpt lat="45.15544" lon="5.57836">
        <ele>1628.6</ele>
        <time>2018-06-03T11:55:16Z</time>
      </trkpt>
      <trkpt lat="45.15536" lon="5.57832">
        <ele>1629.3</ele>
        <time>2018-06-03T11:55:19Z</time>
      </trkpt>
      <trkpt lat="45.15526" lon="5.57825">
        <ele>1630.2</ele>
        <time>2018-06-03T11:55:22Z</time>
      </trkpt>
      <trkpt lat="45.15517" lon="5.57817">
        <ele>1631.1</ele>
        <time>2018-06-03T11:55:26Z</time>
      </trkpt>
      <trkpt lat="45.15508" lon="5.57807">
        <ele>1631.8</ele>
        <time>2018-06-03T11:55:30Z</time>
      </trkpt>
      <trkpt lat="45.155" lon="5.57797">
        <ele>1632.4</ele>
        <time>2018-06-03T11:55:34Z</time>
      </trkpt>
      <trkpt lat="45.15491" lon="5.57791">
        <ele>1632.8</ele>
        <time>2018-06-03T11:55:38Z</time>
      </trkpt>
      <trkpt lat="45.15483" lon="5.57787">
        <ele>1633</ele>
        <time>2018-06-03T11:55:42Z</time>
      </trkpt>
      <trkpt lat="45.15472" lon="5.57784">
        <ele>1633.5</ele>
        <time>2018-06-03T11:55:47Z</time>
      </trkpt>
      <trkpt lat="45.15463" lon="5.57783">
        <ele>1633.7</ele>
        <time>2018-06-03T11:55:51Z</time>
      </trkpt>
      <trkpt lat="45.15454" lon="5.57782">
        <ele>1633.8</ele>
        <time>2018-06-03T11:55:55Z</time>
      </trkpt>
      <trkpt lat="45.15445" lon="5.57785">
        <ele>1634.1</ele>
        <time>2018-06-03T11:56:00Z</time>
      </trkpt>
      <trkpt lat="45.15434" lon="5.57786">
        <ele>1634</ele>
        <time>2018-06-03T11:56:05Z</time>
      </trkpt>
      <trkpt lat="45.15424" lon="5.57789">
        <ele>1633.6</ele>
        <time>2018-06-03T11:56:09Z</time>
      </trkpt>
      <trkpt lat="45.15414" lon="5.57793">
        <ele>1633.3</ele>
        <time>2018-06-03T11:56:12Z</time>
      </trkpt>
      <trkpt lat="45.15401" lon="5.57794">
        <ele>1632.3</ele>
        <time>2018-06-03T11:56:15Z</time>
      </trkpt>
      <trkpt lat="45.15388" lon="5.57794">
        <ele>1631.2</ele>
        <time>2018-06-03T11:56:18Z</time>
      </trkpt>
      <trkpt lat="45.15375" lon="5.5779">
        <ele>1630.2</ele>
        <time>2018-06-03T11:56:21Z</time>
      </trkpt>
      <trkpt lat="45.15362" lon="5.57787">
        <ele>1628.9</ele>
        <time>2018-06-03T11:56:23Z</time>
      </trkpt>
      <trkpt lat="45.1535" lon="5.57782">
        <ele>1627.5</ele>
        <time>2018-06-03T11:56:25Z</time>
      </trkpt>
      <trkpt lat="45.15337" lon="5.57777">
        <ele>1626.4</ele>
        <time>2018-06-03T11:56:27Z</time>
      </trkpt>
      <trkpt lat="45.15324" lon="5.57771">
        <ele>1625.4</ele>
        <time>2018-06-03T11:56:29Z</time>
      </trkpt>
      <trkpt lat="45.15312" lon="5.57764">
        <ele>1624.3</ele>
        <time>2018-06-03T11:56:31Z</time>
      </trkpt>
      <trkpt lat="45.15299" lon="5.5776">
        <ele>1623.1</ele>
        <time>2018-06-03T11:56:33Z</time>
      </trkpt>
      <trkpt lat="45.15289" lon="5.57757">
        <ele>1622</ele>
        <time>2018-06-03T11:56:35Z</time>
      </trkpt>
      <trkpt lat="45.15277" lon="5.57758">
        <ele>1620.2</ele>
        <time>2018-06-03T11:56:37Z</time>
      </trkpt>
      <trkpt lat="45.15267" lon="5.57758">
        <ele>1618.8</ele>
        <time>2018-06-03T11:56:39Z</time>
      </trkpt>
      <trkpt lat="45.15254" lon="5.57753">
        <ele>1617.4</ele>
        <time>2018-06-03T11:56:41Z</time>
      </trkpt>
      <trkpt lat="45.15245" lon="5.57745">
        <ele>1615.6</ele>
        <time>2018-06-03T11:56:43Z</time>
      </trkpt>
      <trkpt lat="45.15231" lon="5.5774">
        <ele>1613.9</ele>
        <time>2018-06-03T11:56:45Z</time>
      </trkpt>
      <trkpt lat="45.15216" lon="5.57735">
        <ele>1612.7</ele>
        <time>2018-06-03T11:56:47Z</time>
      </trkpt>
      <trkpt lat="45.15201" lon="5.57729">
        <ele>1611.2</ele>
        <time>2018-06-03T11:56:49Z</time>
      </trkpt>
      <trkpt lat="45.15188" lon="5.57723">
        <ele>1610.1</ele>
        <time>2018-06-03T11:56:51Z</time>
      </trkpt>
      <trkpt lat="45.15177" lon="5.57713">
        <ele>1608.9</ele>
        <time>2018-06-03T11:56:53Z</time>
      </trkpt>
      <trkpt lat="45.15165" lon="5.57704">
        <ele>1608</ele>
        <time>2018-06-03T11:56:55Z</time>
      </trkpt>
      <trkpt lat="45.15153" lon="5.57696">
        <ele>1607.2</ele>
        <time>2018-06-03T11:56:57Z</time>
      </trkpt>
      <trkpt lat="45.15141" lon="5.5769">
        <ele>1606.5</ele>
        <time>2018-06-03T11:56:59Z</time>
      </trkpt>
      <trkpt lat="45.15128" lon="5.57684">
        <ele>1605.4</ele>
        <time>2018-06-03T11:57:01Z</time>
      </trkpt>
      <trkpt lat="45.15115" lon="5.57679">
        <ele>1604</ele>
        <time>2018-06-03T11:57:03Z</time>
      </trkpt>
      <trkpt lat="45.15103" lon="5.57677">
        <ele>1602.7</ele>
        <time>2018-06-03T11:57:05Z</time>
      </trkpt>
      <trkpt lat="45.15091" lon="5.57677">
        <ele>1601.3</ele>
        <time>2018-06-03T11:57:07Z</time>
      </trkpt>
      <trkpt lat="45.15078" lon="5.57679">
        <ele>1600.2</ele>
        <time>2018-06-03T11:57:09Z</time>
      </trkpt>
      <trkpt lat="45.15065" lon="5.57682">
        <ele>1598.3</ele>
        <time>2018-06-03T11:57:11Z</time>
      </trkpt>
      <trkpt lat="45.15054" lon="5.57687">
        <ele>1596.4</ele>
        <time>2018-06-03T11:57:14Z</time>
      </trkpt>
      <trkpt lat="45.15043" lon="5.57689">
        <ele>1594.4</ele>
        <time>2018-06-03T11:57:17Z</time>
      </trkpt>
      <trkpt lat="45.15031" lon="5.57685">
        <ele>1592.2</ele>
        <time>2018-06-03T11:57:20Z</time>
      </trkpt>
      <trkpt lat="45.15018" lon="5.57686">
        <ele>1590.1</ele>
        <time>2018-06-03T11:57:23Z</time>
      </trkpt>
      <trkpt lat="45.15007" lon="5.57689">
        <ele>1588.6</ele>
        <time>2018-06-03T11:57:25Z</time>
      </trkpt>
      <trkpt lat="45.14996" lon="5.57688">
        <ele>1587.6</ele>
        <time>2018-06-03T11:57:27Z</time>
      </trkpt>
      <trkpt lat="45.14985" lon="5.57689">
        <ele>1586.7</ele>
        <time>2018-06-03T11:57:29Z</time>
      </trkpt>
      <trkpt lat="45.14973" lon="5.57685">
        <ele>1585.7</ele>
        <time>2018-06-03T11:57:32Z</time>
      </trkpt>
      <trkpt lat="45.14964" lon="5.57677">
        <ele>1585.1</ele>
        <time>2018-06-03T11:57:34Z</time>
      </trkpt>
      <trkpt lat="45.14954" lon="5.57672">
        <ele>1584.8</ele>
        <time>2018-06-03T11:57:36Z</time>
      </trkpt>
      <trkpt lat="45.14943" lon="5.57666">
        <ele>1584.7</ele>
        <time>2018-06-03T11:57:38Z</time>
      </trkpt>
      <trkpt lat="45.14933" lon="5.57663">
        <ele>1584.6</ele>
        <time>2018-06-03T11:57:40Z</time>
      </trkpt>
      <trkpt lat="45.14921" lon="5.57659">
        <ele>1584.4</ele>
        <time>2018-06-03T11:57:42Z</time>
      </trkpt>
      <trkpt lat="45.14909" lon="5.57656">
        <ele>1584</ele>
        <time>2018-06-03T11:57:44Z</time>
      </trkpt>
      <trkpt lat="45.14896" lon="5.57651">
        <ele>1583.4</ele>
        <time>2018-06-03T11:57:46Z</time>
      </trkpt>
      <trkpt lat="45.14883" lon="5.57646">
        <ele>1582.1</ele>
        <time>2018-06-03T11:57:48Z</time>
      </trkpt>
      <trkpt lat="45.14871" lon="5.57638">
        <ele>1581.4</ele>
        <time>2018-06-03T11:57:50Z</time>
      </trkpt>
      <trkpt lat="45.14861" lon="5.57629">
        <ele>1580.7</ele>
        <time>2018-06-03T11:57:52Z</time>
      </trkpt>
      <trkpt lat="45.14855" lon="5.57617">
        <ele>1579.9</ele>
        <time>2018-06-03T11:57:54Z</time>
      </trkpt>
      <trkpt lat="45.1485" lon="5.57604">
        <ele>1578.9</ele>
        <time>2018-06-03T11:57:56Z</time>
      </trkpt>
      <trkpt lat="45.14841" lon="5.57594">
        <ele>1577.7</ele>
        <time>2018-06-03T11:57:58Z</time>
      </trkpt>
      <trkpt lat="45.14829" lon="5.57591">
        <ele>1575.6</ele>
        <time>2018-06-03T11:58:01Z</time>
      </trkpt>
      <trkpt lat="45.1482" lon="5.57594">
        <ele>1574.2</ele>
        <time>2018-06-03T11:58:03Z</time>
      </trkpt>
      <trkpt lat="45.14807" lon="5.57592">
        <ele>1572.9</ele>
        <time>2018-06-03T11:58:05Z</time>
      </trkpt>
      <trkpt lat="45.14793" lon="5.57587">
        <ele>1571.3</ele>
        <time>2018-06-03T11:58:07Z</time>
      </trkpt>
      <trkpt lat="45.14779" lon="5.57583">
        <ele>1570</ele>
        <time>2018-06-03T11:58:09Z</time>
      </trkpt>
      <trkpt lat="45.14765" lon="5.57579">
        <ele>1568.9</ele>
        <time>2018-06-03T11:58:11Z</time>
      </trkpt>
      <trkpt lat="45.1475" lon="5.57575">
        <ele>1567.6</ele>
        <time>2018-06-03T11:58:13Z</time>
      </trkpt>
      <trkpt lat="45.14734" lon="5.57573">
        <ele>1566.5</ele>
        <time>2018-06-03T11:58:15Z</time>
      </trkpt>
      <trkpt lat="45.14717" lon="5.57574">
        <ele>1565.3</ele>
        <time>2018-06-03T11:58:17Z</time>
      </trkpt>
      <trkpt lat="45.147" lon="5.57574">
        <ele>1564.4</ele>
        <time>2018-06-03T11:58:19Z</time>
      </trkpt>
      <trkpt lat="45.14686" lon="5.57573">
        <ele>1563.4</ele>
        <time>2018-06-03T11:58:21Z</time>
      </trkpt>
      <trkpt lat="45.14676" lon="5.57573">
        <ele>1562.4</ele>
        <time>2018-06-03T11:58:23Z</time>
      </trkpt>
      <trkpt lat="45.14667" lon="5.57569">
        <ele>1561.2</ele>
        <time>2018-06-03T11:58:25Z</time>
      </trkpt>
      <trkpt lat="45.14655" lon="5.57567">
        <ele>1560.1</ele>
        <time>2018-06-03T11:58:27Z</time>
      </trkpt>
      <trkpt lat="45.14642" lon="5.57568">
        <ele>1558.4</ele>
        <time>2018-06-03T11:58:29Z</time>
      </trkpt>
      <trkpt lat="45.14631" lon="5.57569">
        <ele>1557.5</ele>
        <time>2018-06-03T11:58:30Z</time>
      </trkpt>
      <trkpt lat="45.14621" lon="5.57568">
        <ele>1556.6</ele>
        <time>2018-06-03T11:58:31Z</time>
      </trkpt>
      <trkpt lat="45.14604" lon="5.57567">
        <ele>1554.2</ele>
        <time>2018-06-03T11:58:33Z</time>
      </trkpt>
      <trkpt lat="45.1459" lon="5.57564">
        <ele>1552.3</ele>
        <time>2018-06-03T11:58:35Z</time>
      </trkpt>
      <trkpt lat="45.14578" lon="5.57553">
        <ele>1550.4</ele>
        <time>2018-06-03T11:58:37Z</time>
      </trkpt>
      <trkpt lat="45.14569" lon="5.57542">
        <ele>1548.1</ele>
        <time>2018-06-03T11:58:39Z</time>
      </trkpt>
      <trkpt lat="45.14557" lon="5.57537">
        <ele>1546.5</ele>
        <time>2018-06-03T11:58:41Z</time>
      </trkpt>
      <trkpt lat="45.14545" lon="5.57535">
        <ele>1544.4</ele>
        <time>2018-06-03T11:58:44Z</time>
      </trkpt>
      <trkpt lat="45.14534" lon="5.57535">
        <ele>1542.9</ele>
        <time>2018-06-03T11:58:46Z</time>
      </trkpt>
      <trkpt lat="45.14525" lon="5.57534">
        <ele>1541.8</ele>
        <time>2018-06-03T11:58:48Z</time>
      </trkpt>
      <trkpt lat="45.14515" lon="5.57531">
        <ele>1540.7</ele>
        <time>2018-06-03T11:58:50Z</time>
      </trkpt>
      <trkpt lat="45.14503" lon="5.57531">
        <ele>1539.8</ele>
        <time>2018-06-03T11:58:52Z</time>
      </trkpt>
      <trkpt lat="45.14491" lon="5.57531">
        <ele>1539.1</ele>
        <time>2018-06-03T11:58:54Z</time>
      </trkpt>
      <trkpt lat="45.14479" lon="5.57531">
        <ele>1538.5</ele>
        <time>2018-06-03T11:58:56Z</time>
      </trkpt>
      <trkpt lat="45.14465" lon="5.57527">
        <ele>1537.1</ele>
        <time>2018-06-03T11:58:59Z</time>
      </trkpt>
      <trkpt lat="45.14451" lon="5.5753">
        <ele>1535.9</ele>
        <time>2018-06-03T11:59:02Z</time>
      </trkpt>
      <trkpt lat="45.14438" lon="5.57535">
        <ele>1534.5</ele>
        <time>2018-06-03T11:59:04Z</time>
      </trkpt>
      <trkpt lat="45.14421" lon="5.57541">
        <ele>1533.6</ele>
        <time>2018-06-03T11:59:06Z</time>
      </trkpt>
      <trkpt lat="45.1441" lon="5.57546">
        <ele>1532.6</ele>
        <time>2018-06-03T11:59:08Z</time>
      </trkpt>
      <trkpt lat="45.14397" lon="5.57548">
        <ele>1531.5</ele>
        <time>2018-06-03T11:59:10Z</time>
      </trkpt>
      <trkpt lat="45.14385" lon="5.5755">
        <ele>1530.1</ele>
        <time>2018-06-03T11:59:13Z</time>
      </trkpt>
      <trkpt lat="45.14373" lon="5.57552">
        <ele>1529.3</ele>
        <time>2018-06-03T11:59:16Z</time>
      </trkpt>
      <trkpt lat="45.1436" lon="5.57555">
        <ele>1529.2</ele>
        <time>2018-06-03T11:59:19Z</time>
      </trkpt>
      <trkpt lat="45.14351" lon="5.57559">
        <ele>1529.1</ele>
        <time>2018-06-03T11:59:22Z</time>
      </trkpt>
      <trkpt lat="45.14342" lon="5.57564">
        <ele>1528.8</ele>
        <time>2018-06-03T11:59:34Z</time>
      </trkpt>
      <trkpt lat="45.14333" lon="5.57567">
        <ele>1528.9</ele>
        <time>2018-06-03T12:00:05Z</time>
      </trkpt>
      <trkpt lat="45.14324" lon="5.57569">
        <ele>1528.9</ele>
        <time>2018-06-03T12:00:42Z</time>
      </trkpt>
      <trkpt lat="45.14314" lon="5.57565">
        <ele>1528.7</ele>
        <time>2018-06-03T12:01:01Z</time>
      </trkpt>
      <trkpt lat="45.14301" lon="5.57562">
        <ele>1528.1</ele>
        <time>2018-06-03T12:01:05Z</time>
      </trkpt>
      <trkpt lat="45.1429" lon="5.5756">
        <ele>1527.6</ele>
        <time>2018-06-03T12:01:08Z</time>
      </trkpt>
      <trkpt lat="45.14278" lon="5.57555">
        <ele>1526.6</ele>
        <time>2018-06-03T12:01:12Z</time>
      </trkpt>
      <trkpt lat="45.14267" lon="5.57552">
        <ele>1525.5</ele>
        <time>2018-06-03T12:01:16Z</time>
      </trkpt>
      <trkpt lat="45.14256" lon="5.57544">
        <ele>1524.6</ele>
        <time>2018-06-03T12:01:19Z</time>
      </trkpt>
      <trkpt lat="45.14247" lon="5.57537">
        <ele>1523.4</ele>
        <time>2018-06-03T12:01:22Z</time>
      </trkpt>
      <trkpt lat="45.14239" lon="5.57528">
        <ele>1522</ele>
        <time>2018-06-03T12:01:26Z</time>
      </trkpt>
      <trkpt lat="45.1423" lon="5.57518">
        <ele>1520.3</ele>
        <time>2018-06-03T12:01:30Z</time>
      </trkpt>
      <trkpt lat="45.14223" lon="5.5751">
        <ele>1519.3</ele>
        <time>2018-06-03T12:01:34Z</time>
      </trkpt>
      <trkpt lat="45.14216" lon="5.57502">
        <ele>1517.3</ele>
        <time>2018-06-03T12:01:40Z</time>
      </trkpt>
      <trkpt lat="45.14206" lon="5.57499">
        <ele>1516.4</ele>
        <time>2018-06-03T12:01:43Z</time>
      </trkpt>
      <trkpt lat="45.14196" lon="5.57495">
        <ele>1515.5</ele>
        <time>2018-06-03T12:01:46Z</time>
      </trkpt>
      <trkpt lat="45.14185" lon="5.57491">
        <ele>1514</ele>
        <time>2018-06-03T12:01:50Z</time>
      </trkpt>
      <trkpt lat="45.14175" lon="5.5749">
        <ele>1512.9</ele>
        <time>2018-06-03T12:01:53Z</time>
      </trkpt>
      <trkpt lat="45.14166" lon="5.5749">
        <ele>1512</ele>
        <time>2018-06-03T12:01:55Z</time>
      </trkpt>
      <trkpt lat="45.14154" lon="5.57489">
        <ele>1511.2</ele>
        <time>2018-06-03T12:01:57Z</time>
      </trkpt>
      <trkpt lat="45.14142" lon="5.57487">
        <ele>1510.8</ele>
        <time>2018-06-03T12:01:59Z</time>
      </trkpt>
      <trkpt lat="45.14133" lon="5.57483">
        <ele>1510.5</ele>
        <time>2018-06-03T12:02:02Z</time>
      </trkpt>
      <trkpt lat="45.14123" lon="5.57482">
        <ele>1510.3</ele>
        <time>2018-06-03T12:02:04Z</time>
      </trkpt>
      <trkpt lat="45.14112" lon="5.5748">
        <ele>1510.4</ele>
        <time>2018-06-03T12:02:07Z</time>
      </trkpt>
      <trkpt lat="45.14103" lon="5.57482">
        <ele>1510.1</ele>
        <time>2018-06-03T12:02:16Z</time>
      </trkpt>
      <trkpt lat="45.14093" lon="5.57482">
        <ele>1510.2</ele>
        <time>2018-06-03T12:02:33Z</time>
      </trkpt>
      <trkpt lat="45.14085" lon="5.57475">
        <ele>1510</ele>
        <time>2018-06-03T12:02:37Z</time>
      </trkpt>
      <trkpt lat="45.14077" lon="5.57468">
        <ele>1509.2</ele>
        <time>2018-06-03T12:02:40Z</time>
      </trkpt>
      <trkpt lat="45.14067" lon="5.57463">
        <ele>1508.3</ele>
        <time>2018-06-03T12:02:43Z</time>
      </trkpt>
      <trkpt lat="45.14056" lon="5.57465">
        <ele>1507.2</ele>
        <time>2018-06-03T12:02:46Z</time>
      </trkpt>
      <trkpt lat="45.14046" lon="5.57466">
        <ele>1505</ele>
        <time>2018-06-03T12:02:51Z</time>
      </trkpt>
      <trkpt lat="45.14043" lon="5.57454">
        <ele>1503.7</ele>
        <time>2018-06-03T12:02:55Z</time>
      </trkpt>
      <trkpt lat="45.14034" lon="5.57444">
        <ele>1502.1</ele>
        <time>2018-06-03T12:02:59Z</time>
      </trkpt>
      <trkpt lat="45.14022" lon="5.5744">
        <ele>1501.1</ele>
        <time>2018-06-03T12:03:02Z</time>
      </trkpt>
      <trkpt lat="45.14013" lon="5.57437">
        <ele>1499.3</ele>
        <time>2018-06-03T12:03:16Z</time>
      </trkpt>
      <trkpt lat="45.14004" lon="5.57436">
        <ele>1498.9</ele>
        <time>2018-06-03T12:03:20Z</time>
      </trkpt>
      <trkpt lat="45.13995" lon="5.57435">
        <ele>1498.2</ele>
        <time>2018-06-03T12:03:24Z</time>
      </trkpt>
      <trkpt lat="45.13984" lon="5.57432">
        <ele>1497</ele>
        <time>2018-06-03T12:03:27Z</time>
      </trkpt>
      <trkpt lat="45.13975" lon="5.57431">
        <ele>1495.9</ele>
        <time>2018-06-03T12:03:29Z</time>
      </trkpt>
      <trkpt lat="45.13964" lon="5.57431">
        <ele>1494.2</ele>
        <time>2018-06-03T12:03:32Z</time>
      </trkpt>
      <trkpt lat="45.13954" lon="5.57435">
        <ele>1491.8</ele>
        <time>2018-06-03T12:03:37Z</time>
      </trkpt>
      <trkpt lat="45.13944" lon="5.57431">
        <ele>1489.4</ele>
        <time>2018-06-03T12:03:42Z</time>
      </trkpt>
      <trkpt lat="45.13934" lon="5.5743">
        <ele>1486.7</ele>
        <time>2018-06-03T12:03:47Z</time>
      </trkpt>
      <trkpt lat="45.13923" lon="5.57427">
        <ele>1484.1</ele>
        <time>2018-06-03T12:03:52Z</time>
      </trkpt>
      <trkpt lat="45.13913" lon="5.57425">
        <ele>1482.3</ele>
        <time>2018-06-03T12:03:55Z</time>
      </trkpt>
      <trkpt lat="45.13902" lon="5.57423">
        <ele>1480</ele>
        <time>2018-06-03T12:03:59Z</time>
      </trkpt>
      <trkpt lat="45.13891" lon="5.5742">
        <ele>1478.3</ele>
        <time>2018-06-03T12:04:02Z</time>
      </trkpt>
      <trkpt lat="45.1388" lon="5.57417">
        <ele>1476.5</ele>
        <time>2018-06-03T12:04:05Z</time>
      </trkpt>
      <trkpt lat="45.13872" lon="5.5741">
        <ele>1474.6</ele>
        <time>2018-06-03T12:04:08Z</time>
      </trkpt>
      <trkpt lat="45.13863" lon="5.57405">
        <ele>1472.8</ele>
        <time>2018-06-03T12:04:11Z</time>
      </trkpt>
      <trkpt lat="45.13854" lon="5.57404">
        <ele>1470.8</ele>
        <time>2018-06-03T12:04:14Z</time>
      </trkpt>
      <trkpt lat="45.13844" lon="5.57404">
        <ele>1469.3</ele>
        <time>2018-06-03T12:04:16Z</time>
      </trkpt>
      <trkpt lat="45.13834" lon="5.57406">
        <ele>1466.7</ele>
        <time>2018-06-03T12:04:19Z</time>
      </trkpt>
      <trkpt lat="45.13825" lon="5.57408">
        <ele>1465</ele>
        <time>2018-06-03T12:04:21Z</time>
      </trkpt>
      <trkpt lat="45.13814" lon="5.57414">
        <ele>1462.9</ele>
        <time>2018-06-03T12:04:23Z</time>
      </trkpt>
      <trkpt lat="45.13804" lon="5.5742">
        <ele>1460.5</ele>
        <time>2018-06-03T12:04:25Z</time>
      </trkpt>
      <trkpt lat="45.13794" lon="5.57421">
        <ele>1458.8</ele>
        <time>2018-06-03T12:04:27Z</time>
      </trkpt>
      <trkpt lat="45.13779" lon="5.57423">
        <ele>1457</ele>
        <time>2018-06-03T12:04:29Z</time>
      </trkpt>
      <trkpt lat="45.13767" lon="5.57422">
        <ele>1455.5</ele>
        <time>2018-06-03T12:04:31Z</time>
      </trkpt>
      <trkpt lat="45.13756" lon="5.57416">
        <ele>1453.4</ele>
        <time>2018-06-03T12:04:34Z</time>
      </trkpt>
      <trkpt lat="45.13747" lon="5.57413">
        <ele>1449.3</ele>
        <time>2018-06-03T12:04:51Z</time>
      </trkpt>
      <trkpt lat="45.13745" lon="5.574">
        <ele>1449.3</ele>
        <time>2018-06-03T12:06:56Z</time>
      </trkpt>
      <trkpt lat="45.13747" lon="5.57388">
        <ele>1448</ele>
        <time>2018-06-03T12:07:00Z</time>
      </trkpt>
      <trkpt lat="45.13746" lon="5.57373">
        <ele>1446.5</ele>
        <time>2018-06-03T12:07:04Z</time>
      </trkpt>
      <trkpt lat="45.13738" lon="5.57358">
        <ele>1445</ele>
        <time>2018-06-03T12:07:07Z</time>
      </trkpt>
      <trkpt lat="45.13727" lon="5.57345">
        <ele>1443.3</ele>
        <time>2018-06-03T12:07:10Z</time>
      </trkpt>
      <trkpt lat="45.13719" lon="5.57337">
        <ele>1441.4</ele>
        <time>2018-06-03T12:07:12Z</time>
      </trkpt>
      <trkpt lat="45.13713" lon="5.57324">
        <ele>1439.9</ele>
        <time>2018-06-03T12:07:14Z</time>
      </trkpt>
      <trkpt lat="45.13707" lon="5.57313">
        <ele>1438.2</ele>
        <time>2018-06-03T12:07:16Z</time>
      </trkpt>
      <trkpt lat="45.137" lon="5.57301">
        <ele>1436.2</ele>
        <time>2018-06-03T12:07:18Z</time>
      </trkpt>
      <trkpt lat="45.13692" lon="5.5729">
        <ele>1433.4</ele>
        <time>2018-06-03T12:07:21Z</time>
      </trkpt>
      <trkpt lat="45.13682" lon="5.57282">
        <ele>1431.5</ele>
        <time>2018-06-03T12:07:23Z</time>
      </trkpt>
      <trkpt lat="45.13671" lon="5.57271">
        <ele>1429.2</ele>
        <time>2018-06-03T12:07:25Z</time>
      </trkpt>
      <trkpt lat="45.13659" lon="5.5726">
        <ele>1427.1</ele>
        <time>2018-06-03T12:07:27Z</time>
      </trkpt>
      <trkpt lat="45.13649" lon="5.57248">
        <ele>1425</ele>
        <time>2018-06-03T12:07:29Z</time>
      </trkpt>
      <trkpt lat="45.13643" lon="5.57237">
        <ele>1422.9</ele>
        <time>2018-06-03T12:07:31Z</time>
      </trkpt>
      <trkpt lat="45.13633" lon="5.57224">
        <ele>1420.6</ele>
        <time>2018-06-03T12:07:33Z</time>
      </trkpt>
      <trkpt lat="45.13624" lon="5.57217">
        <ele>1418.6</ele>
        <time>2018-06-03T12:07:35Z</time>
      </trkpt>
      <trkpt lat="45.13615" lon="5.57211">
        <ele>1416.5</ele>
        <time>2018-06-03T12:07:37Z</time>
      </trkpt>
      <trkpt lat="45.13605" lon="5.57198">
        <ele>1413.9</ele>
        <time>2018-06-03T12:07:40Z</time>
      </trkpt>
      <trkpt lat="45.13599" lon="5.57188">
        <ele>1412.4</ele>
        <time>2018-06-03T12:07:42Z</time>
      </trkpt>
      <trkpt lat="45.1359" lon="5.57182">
        <ele>1410.7</ele>
        <time>2018-06-03T12:07:44Z</time>
      </trkpt>
      <trkpt lat="45.13583" lon="5.57172">
        <ele>1408.5</ele>
        <time>2018-06-03T12:07:47Z</time>
      </trkpt>
      <trkpt lat="45.13572" lon="5.57165">
        <ele>1407.1</ele>
        <time>2018-06-03T12:07:49Z</time>
      </trkpt>
      <trkpt lat="45.13564" lon="5.57159">
        <ele>1405.1</ele>
        <time>2018-06-03T12:07:52Z</time>
      </trkpt>
      <trkpt lat="45.13554" lon="5.57149">
        <ele>1402.6</ele>
        <time>2018-06-03T12:07:56Z</time>
      </trkpt>
      <trkpt lat="45.13546" lon="5.57143">
        <ele>1401.2</ele>
        <time>2018-06-03T12:07:58Z</time>
      </trkpt>
      <trkpt lat="45.13537" lon="5.57135">
        <ele>1399.7</ele>
        <time>2018-06-03T12:08:01Z</time>
      </trkpt>
      <trkpt lat="45.13523" lon="5.57126">
        <ele>1397.8</ele>
        <time>2018-06-03T12:08:04Z</time>
      </trkpt>
      <trkpt lat="45.13511" lon="5.5712">
        <ele>1395.6</ele>
        <time>2018-06-03T12:08:08Z</time>
      </trkpt>
      <trkpt lat="45.13502" lon="5.57111">
        <ele>1394</ele>
        <time>2018-06-03T12:08:11Z</time>
      </trkpt>
      <trkpt lat="45.13492" lon="5.57103">
        <ele>1392.8</ele>
        <time>2018-06-03T12:08:14Z</time>
      </trkpt>
      <trkpt lat="45.13482" lon="5.57095">
        <ele>1391.2</ele>
        <time>2018-06-03T12:08:17Z</time>
      </trkpt>
      <trkpt lat="45.13472" lon="5.57087">
        <ele>1389.8</ele>
        <time>2018-06-03T12:08:20Z</time>
      </trkpt>
      <trkpt lat="45.13464" lon="5.5708">
        <ele>1388</ele>
        <time>2018-06-03T12:08:24Z</time>
      </trkpt>
      <trkpt lat="45.13453" lon="5.57077">
        <ele>1386.1</ele>
        <time>2018-06-03T12:08:28Z</time>
      </trkpt>
      <trkpt lat="45.13443" lon="5.57067">
        <ele>1384.6</ele>
        <time>2018-06-03T12:08:31Z</time>
      </trkpt>
      <trkpt lat="45.13433" lon="5.57061">
        <ele>1382.5</ele>
        <time>2018-06-03T12:08:34Z</time>
      </trkpt>
      <trkpt lat="45.13427" lon="5.57051">
        <ele>1381.4</ele>
        <time>2018-06-03T12:08:36Z</time>
      </trkpt>
      <trkpt lat="45.13423" lon="5.5704">
        <ele>1379.5</ele>
        <time>2018-06-03T12:08:39Z</time>
      </trkpt>
      <trkpt lat="45.13419" lon="5.57026">
        <ele>1377.2</ele>
        <time>2018-06-03T12:08:42Z</time>
      </trkpt>
      <trkpt lat="45.13412" lon="5.57016">
        <ele>1375.6</ele>
        <time>2018-06-03T12:08:45Z</time>
      </trkpt>
      <trkpt lat="45.13403" lon="5.57005">
        <ele>1373.7</ele>
        <time>2018-06-03T12:08:49Z</time>
      </trkpt>
      <trkpt lat="45.13397" lon="5.56996">
        <ele>1372.6</ele>
        <time>2018-06-03T12:08:51Z</time>
      </trkpt>
      <trkpt lat="45.13389" lon="5.56985">
        <ele>1370.7</ele>
        <time>2018-06-03T12:08:54Z</time>
      </trkpt>
      <trkpt lat="45.13382" lon="5.56973">
        <ele>1367.2</ele>
        <time>2018-06-03T12:09:00Z</time>
      </trkpt>
      <trkpt lat="45.13374" lon="5.56967">
        <ele>1366</ele>
        <time>2018-06-03T12:09:03Z</time>
      </trkpt>
      <trkpt lat="45.13365" lon="5.56955">
        <ele>1364.1</ele>
        <time>2018-06-03T12:09:07Z</time>
      </trkpt>
      <trkpt lat="45.13361" lon="5.56944">
        <ele>1362.1</ele>
        <time>2018-06-03T12:09:11Z</time>
      </trkpt>
      <trkpt lat="45.13352" lon="5.56934">
        <ele>1359.8</ele>
        <time>2018-06-03T12:09:16Z</time>
      </trkpt>
      <trkpt lat="45.13344" lon="5.56925">
        <ele>1358.1</ele>
        <time>2018-06-03T12:09:20Z</time>
      </trkpt>
      <trkpt lat="45.13335" lon="5.56914">
        <ele>1356</ele>
        <time>2018-06-03T12:09:25Z</time>
      </trkpt>
      <trkpt lat="45.13329" lon="5.56903">
        <ele>1354</ele>
        <time>2018-06-03T12:09:29Z</time>
      </trkpt>
      <trkpt lat="45.13325" lon="5.56891">
        <ele>1352.5</ele>
        <time>2018-06-03T12:09:33Z</time>
      </trkpt>
      <trkpt lat="45.13318" lon="5.56877">
        <ele>1351</ele>
        <time>2018-06-03T12:09:37Z</time>
      </trkpt>
      <trkpt lat="45.13313" lon="5.56867">
        <ele>1349</ele>
        <time>2018-06-03T12:09:40Z</time>
      </trkpt>
      <trkpt lat="45.13309" lon="5.56848">
        <ele>1347.2</ele>
        <time>2018-06-03T12:09:43Z</time>
      </trkpt>
      <trkpt lat="45.13309" lon="5.56831">
        <ele>1345.5</ele>
        <time>2018-06-03T12:09:46Z</time>
      </trkpt>
      <trkpt lat="45.13307" lon="5.56817">
        <ele>1341.1</ele>
        <time>2018-06-03T12:10:30Z</time>
      </trkpt>
      <trkpt lat="45.13299" lon="5.56811">
        <ele>1341.2</ele>
        <time>2018-06-03T12:10:58Z</time>
      </trkpt>
      <trkpt lat="45.13305" lon="5.56824">
        <ele>1341.2</ele>
        <time>2018-06-03T12:11:28Z</time>
      </trkpt>
      <trkpt lat="45.13302" lon="5.56808">
        <ele>1341.3</ele>
        <time>2018-06-03T12:12:28Z</time>
      </trkpt>
      <trkpt lat="45.13298" lon="5.56791">
        <ele>1340.2</ele>
        <time>2018-06-03T12:12:31Z</time>
      </trkpt>
      <trkpt lat="45.13292" lon="5.5678">
        <ele>1339.5</ele>
        <time>2018-06-03T12:12:33Z</time>
      </trkpt>
      <trkpt lat="45.13285" lon="5.56771">
        <ele>1338.3</ele>
        <time>2018-06-03T12:12:35Z</time>
      </trkpt>
      <trkpt lat="45.13278" lon="5.56756">
        <ele>1336.1</ele>
        <time>2018-06-03T12:12:38Z</time>
      </trkpt>
      <trkpt lat="45.13272" lon="5.56745">
        <ele>1334.5</ele>
        <time>2018-06-03T12:12:40Z</time>
      </trkpt>
      <trkpt lat="45.13266" lon="5.56735">
        <ele>1332.7</ele>
        <time>2018-06-03T12:12:42Z</time>
      </trkpt>
      <trkpt lat="45.13259" lon="5.56721">
        <ele>1331.1</ele>
        <time>2018-06-03T12:12:44Z</time>
      </trkpt>
      <trkpt lat="45.13253" lon="5.56708">
        <ele>1329.3</ele>
        <time>2018-06-03T12:12:47Z</time>
      </trkpt>
      <trkpt lat="45.13244" lon="5.56697">
        <ele>1327.9</ele>
        <time>2018-06-03T12:12:49Z</time>
      </trkpt>
      <trkpt lat="45.13233" lon="5.56689">
        <ele>1326.8</ele>
        <time>2018-06-03T12:12:51Z</time>
      </trkpt>
      <trkpt lat="45.1322" lon="5.56683">
        <ele>1325.7</ele>
        <time>2018-06-03T12:12:53Z</time>
      </trkpt>
      <trkpt lat="45.13206" lon="5.56679">
        <ele>1324.5</ele>
        <time>2018-06-03T12:12:55Z</time>
      </trkpt>
      <trkpt lat="45.13193" lon="5.56672">
        <ele>1323.4</ele>
        <time>2018-06-03T12:12:57Z</time>
      </trkpt>
      <trkpt lat="45.13179" lon="5.56668">
        <ele>1322.3</ele>
        <time>2018-06-03T12:12:59Z</time>
      </trkpt>
      <trkpt lat="45.13162" lon="5.5666">
        <ele>1321.3</ele>
        <time>2018-06-03T12:13:01Z</time>
      </trkpt>
      <trkpt lat="45.13147" lon="5.56655">
        <ele>1320.4</ele>
        <time>2018-06-03T12:13:03Z</time>
      </trkpt>
      <trkpt lat="45.13132" lon="5.56655">
        <ele>1319.7</ele>
        <time>2018-06-03T12:13:05Z</time>
      </trkpt>
      <trkpt lat="45.13121" lon="5.56657">
        <ele>1318.2</ele>
        <time>2018-06-03T12:13:07Z</time>
      </trkpt>
      <trkpt lat="45.1311" lon="5.56652">
        <ele>1317.7</ele>
        <time>2018-06-03T12:13:09Z</time>
      </trkpt>
      <trkpt lat="45.13096" lon="5.56641">
        <ele>1317.1</ele>
        <time>2018-06-03T12:13:11Z</time>
      </trkpt>
      <trkpt lat="45.13085" lon="5.56632">
        <ele>1317.3</ele>
        <time>2018-06-03T12:13:13Z</time>
      </trkpt>
      <trkpt lat="45.13076" lon="5.56624">
        <ele>1317.6</ele>
        <time>2018-06-03T12:13:15Z</time>
      </trkpt>
      <trkpt lat="45.13068" lon="5.56616">
        <ele>1318</ele>
        <time>2018-06-03T12:13:17Z</time>
      </trkpt>
      <trkpt lat="45.13058" lon="5.56607">
        <ele>1318.3</ele>
        <time>2018-06-03T12:13:21Z</time>
      </trkpt>
      <trkpt lat="45.1305" lon="5.56598">
        <ele>1317.8</ele>
        <time>2018-06-03T12:13:24Z</time>
      </trkpt>
      <trkpt lat="45.13043" lon="5.56584">
        <ele>1317.1</ele>
        <time>2018-06-03T12:13:27Z</time>
      </trkpt>
      <trkpt lat="45.13041" lon="5.56569">
        <ele>1315.6</ele>
        <time>2018-06-03T12:13:30Z</time>
      </trkpt>
      <trkpt lat="45.1304" lon="5.5655">
        <ele>1314.3</ele>
        <time>2018-06-03T12:13:33Z</time>
      </trkpt>
      <trkpt lat="45.13039" lon="5.56535">
        <ele>1313</ele>
        <time>2018-06-03T12:13:35Z</time>
      </trkpt>
      <trkpt lat="45.13033" lon="5.56521">
        <ele>1311.6</ele>
        <time>2018-06-03T12:13:37Z</time>
      </trkpt>
      <trkpt lat="45.13029" lon="5.56509">
        <ele>1310</ele>
        <time>2018-06-03T12:13:39Z</time>
      </trkpt>
      <trkpt lat="45.13025" lon="5.56495">
        <ele>1308.2</ele>
        <time>2018-06-03T12:13:41Z</time>
      </trkpt>
      <trkpt lat="45.13019" lon="5.56483">
        <ele>1306.3</ele>
        <time>2018-06-03T12:13:43Z</time>
      </trkpt>
      <trkpt lat="45.13015" lon="5.56468">
        <ele>1304.3</ele>
        <time>2018-06-03T12:13:45Z</time>
      </trkpt>
      <trkpt lat="45.13015" lon="5.56451">
        <ele>1301.3</ele>
        <time>2018-06-03T12:13:48Z</time>
      </trkpt>
      <trkpt lat="45.13016" lon="5.56437">
        <ele>1298.7</ele>
        <time>2018-06-03T12:13:51Z</time>
      </trkpt>
      <trkpt lat="45.13017" lon="5.56417">
        <ele>1295.6</ele>
        <time>2018-06-03T12:13:54Z</time>
      </trkpt>
      <trkpt lat="45.13017" lon="5.56402">
        <ele>1294.1</ele>
        <time>2018-06-03T12:13:56Z</time>
      </trkpt>
      <trkpt lat="45.13012" lon="5.56388">
        <ele>1292.3</ele>
        <time>2018-06-03T12:13:59Z</time>
      </trkpt>
      <trkpt lat="45.13008" lon="5.56375">
        <ele>1290.2</ele>
        <time>2018-06-03T12:14:02Z</time>
      </trkpt>
      <trkpt lat="45.13003" lon="5.56359">
        <ele>1288.6</ele>
        <time>2018-06-03T12:14:05Z</time>
      </trkpt>
      <trkpt lat="45.13001" lon="5.56344">
        <ele>1286.2</ele>
        <time>2018-06-03T12:14:09Z</time>
      </trkpt>
      <trkpt lat="45.13001" lon="5.5633">
        <ele>1284.2</ele>
        <time>2018-06-03T12:14:13Z</time>
      </trkpt>
      <trkpt lat="45.13004" lon="5.56316">
        <ele>1282.9</ele>
        <time>2018-06-03T12:14:16Z</time>
      </trkpt>
      <trkpt lat="45.13008" lon="5.56302">
        <ele>1281.2</ele>
        <time>2018-06-03T12:14:19Z</time>
      </trkpt>
      <trkpt lat="45.13014" lon="5.56292">
        <ele>1278.6</ele>
        <time>2018-06-03T12:14:25Z</time>
      </trkpt>
      <trkpt lat="45.13016" lon="5.56278">
        <ele>1275.6</ele>
        <time>2018-06-03T12:14:38Z</time>
      </trkpt>
      <trkpt lat="45.13021" lon="5.56265">
        <ele>1273.9</ele>
        <time>2018-06-03T12:14:45Z</time>
      </trkpt>
      <trkpt lat="45.13026" lon="5.56246">
        <ele>1272.7</ele>
        <time>2018-06-03T12:14:48Z</time>
      </trkpt>
      <trkpt lat="45.13026" lon="5.5623">
        <ele>1271.5</ele>
        <time>2018-06-03T12:14:50Z</time>
      </trkpt>
      <trkpt lat="45.13029" lon="5.56217">
        <ele>1270.1</ele>
        <time>2018-06-03T12:14:52Z</time>
      </trkpt>
      <trkpt lat="45.13027" lon="5.56202">
        <ele>1268.1</ele>
        <time>2018-06-03T12:14:55Z</time>
      </trkpt>
      <trkpt lat="45.13031" lon="5.56186">
        <ele>1266.5</ele>
        <time>2018-06-03T12:14:58Z</time>
      </trkpt>
      <trkpt lat="45.13032" lon="5.56169">
        <ele>1264.9</ele>
        <time>2018-06-03T12:15:01Z</time>
      </trkpt>
      <trkpt lat="45.13027" lon="5.56152">
        <ele>1263.5</ele>
        <time>2018-06-03T12:15:03Z</time>
      </trkpt>
      <trkpt lat="45.13028" lon="5.56131">
        <ele>1261.6</ele>
        <time>2018-06-03T12:15:05Z</time>
      </trkpt>
      <trkpt lat="45.13035" lon="5.56114">
        <ele>1260.1</ele>
        <time>2018-06-03T12:15:07Z</time>
      </trkpt>
      <trkpt lat="45.1304" lon="5.56097">
        <ele>1258.4</ele>
        <time>2018-06-03T12:15:09Z</time>
      </trkpt>
      <trkpt lat="45.13043" lon="5.56081">
        <ele>1256.7</ele>
        <time>2018-06-03T12:15:11Z</time>
      </trkpt>
      <trkpt lat="45.13041" lon="5.56063">
        <ele>1255.3</ele>
        <time>2018-06-03T12:15:13Z</time>
      </trkpt>
      <trkpt lat="45.13043" lon="5.56048">
        <ele>1253.8</ele>
        <time>2018-06-03T12:15:15Z</time>
      </trkpt>
      <trkpt lat="45.13048" lon="5.56036">
        <ele>1252.5</ele>
        <time>2018-06-03T12:15:17Z</time>
      </trkpt>
      <trkpt lat="45.13051" lon="5.56023">
        <ele>1251.4</ele>
        <time>2018-06-03T12:15:19Z</time>
      </trkpt>
      <trkpt lat="45.13051" lon="5.56008">
        <ele>1249.9</ele>
        <time>2018-06-03T12:15:22Z</time>
      </trkpt>
      <trkpt lat="45.13045" lon="5.55997">
        <ele>1247.3</ele>
        <time>2018-06-03T12:17:00Z</time>
      </trkpt>
      <trkpt lat="45.13039" lon="5.55987">
        <ele>1247.1</ele>
        <time>2018-06-03T12:17:05Z</time>
      </trkpt>
      <trkpt lat="45.13028" lon="5.55985">
        <ele>1247</ele>
        <time>2018-06-03T12:17:11Z</time>
      </trkpt>
      <trkpt lat="45.13022" lon="5.55974">
        <ele>1247.1</ele>
        <time>2018-06-03T12:17:17Z</time>
      </trkpt>
      <trkpt lat="45.13022" lon="5.55961">
        <ele>1247.1</ele>
        <time>2018-06-03T12:17:21Z</time>
      </trkpt>
      <trkpt lat="45.13017" lon="5.55948">
        <ele>1247.1</ele>
        <time>2018-06-03T12:17:26Z</time>
      </trkpt>
      <trkpt lat="45.13008" lon="5.55941">
        <ele>1247.4</ele>
        <time>2018-06-03T12:17:31Z</time>
      </trkpt>
      <trkpt lat="45.12998" lon="5.55936">
        <ele>1247.7</ele>
        <time>2018-06-03T12:17:36Z</time>
      </trkpt>
      <trkpt lat="45.12987" lon="5.5593">
        <ele>1247.8</ele>
        <time>2018-06-03T12:17:41Z</time>
      </trkpt>
      <trkpt lat="45.12979" lon="5.55922">
        <ele>1247.8</ele>
        <time>2018-06-03T12:17:45Z</time>
      </trkpt>
      <trkpt lat="45.12968" lon="5.55915">
        <ele>1247.7</ele>
        <time>2018-06-03T12:17:49Z</time>
      </trkpt>
      <trkpt lat="45.12959" lon="5.55908">
        <ele>1247.6</ele>
        <time>2018-06-03T12:17:52Z</time>
      </trkpt>
      <trkpt lat="45.12948" lon="5.55899">
        <ele>1247.3</ele>
        <time>2018-06-03T12:17:55Z</time>
      </trkpt>
      <trkpt lat="45.12936" lon="5.55891">
        <ele>1246.6</ele>
        <time>2018-06-03T12:17:58Z</time>
      </trkpt>
      <trkpt lat="45.12927" lon="5.55888">
        <ele>1246.2</ele>
        <time>2018-06-03T12:18:00Z</time>
      </trkpt>
      <trkpt lat="45.12917" lon="5.55889">
        <ele>1245.9</ele>
        <time>2018-06-03T12:18:03Z</time>
      </trkpt>
      <trkpt lat="45.12908" lon="5.5589">
        <ele>1245.6</ele>
        <time>2018-06-03T12:18:06Z</time>
      </trkpt>
      <trkpt lat="45.12897" lon="5.5589">
        <ele>1245.7</ele>
        <time>2018-06-03T12:18:09Z</time>
      </trkpt>
      <trkpt lat="45.12888" lon="5.55888">
        <ele>1245.7</ele>
        <time>2018-06-03T12:18:13Z</time>
      </trkpt>
      <trkpt lat="45.12877" lon="5.55887">
        <ele>1245.5</ele>
        <time>2018-06-03T12:18:17Z</time>
      </trkpt>
      <trkpt lat="45.12868" lon="5.55885">
        <ele>1245.3</ele>
        <time>2018-06-03T12:18:20Z</time>
      </trkpt>
      <trkpt lat="45.12858" lon="5.55881">
        <ele>1245.1</ele>
        <time>2018-06-03T12:18:24Z</time>
      </trkpt>
      <trkpt lat="45.12847" lon="5.55874">
        <ele>1244.6</ele>
        <time>2018-06-03T12:18:28Z</time>
      </trkpt>
      <trkpt lat="45.12838" lon="5.55863">
        <ele>1244.2</ele>
        <time>2018-06-03T12:18:31Z</time>
      </trkpt>
      <trkpt lat="45.12826" lon="5.55862">
        <ele>1243.8</ele>
        <time>2018-06-03T12:18:34Z</time>
      </trkpt>
      <trkpt lat="45.12815" lon="5.55859">
        <ele>1243.4</ele>
        <time>2018-06-03T12:18:38Z</time>
      </trkpt>
      <trkpt lat="45.12804" lon="5.55852">
        <ele>1242.9</ele>
        <time>2018-06-03T12:18:42Z</time>
      </trkpt>
      <trkpt lat="45.12793" lon="5.55846">
        <ele>1242.5</ele>
        <time>2018-06-03T12:18:45Z</time>
      </trkpt>
      <trkpt lat="45.12783" lon="5.5584">
        <ele>1241.9</ele>
        <time>2018-06-03T12:18:48Z</time>
      </trkpt>
      <trkpt lat="45.12771" lon="5.55838">
        <ele>1241.6</ele>
        <time>2018-06-03T12:18:51Z</time>
      </trkpt>
      <trkpt lat="45.1276" lon="5.55832">
        <ele>1241.2</ele>
        <time>2018-06-03T12:18:54Z</time>
      </trkpt>
      <trkpt lat="45.12748" lon="5.55828">
        <ele>1241.1</ele>
        <time>2018-06-03T12:18:56Z</time>
      </trkpt>
      <trkpt lat="45.12738" lon="5.55821">
        <ele>1240.9</ele>
        <time>2018-06-03T12:18:59Z</time>
      </trkpt>
      <trkpt lat="45.12725" lon="5.55812">
        <ele>1240.8</ele>
        <time>2018-06-03T12:19:03Z</time>
      </trkpt>
      <trkpt lat="45.12716" lon="5.55806">
        <ele>1240.4</ele>
        <time>2018-06-03T12:19:05Z</time>
      </trkpt>
      <trkpt lat="45.12707" lon="5.55798">
        <ele>1239.9</ele>
        <time>2018-06-03T12:19:07Z</time>
      </trkpt>
      <trkpt lat="45.12699" lon="5.55786">
        <ele>1239.4</ele>
        <time>2018-06-03T12:19:09Z</time>
      </trkpt>
      <trkpt lat="45.12685" lon="5.55777">
        <ele>1239</ele>
        <time>2018-06-03T12:19:11Z</time>
      </trkpt>
      <trkpt lat="45.12674" lon="5.55774">
        <ele>1238.8</ele>
        <time>2018-06-03T12:19:13Z</time>
      </trkpt>
      <trkpt lat="45.1266" lon="5.55777">
        <ele>1238.6</ele>
        <time>2018-06-03T12:19:15Z</time>
      </trkpt>
      <trkpt lat="45.12651" lon="5.55781">
        <ele>1238.7</ele>
        <time>2018-06-03T12:19:17Z</time>
      </trkpt>
      <trkpt lat="45.12642" lon="5.55791">
        <ele>1239.4</ele>
        <time>2018-06-03T12:19:20Z</time>
      </trkpt>
      <trkpt lat="45.12634" lon="5.558">
        <ele>1239.9</ele>
        <time>2018-06-03T12:19:23Z</time>
      </trkpt>
      <trkpt lat="45.12626" lon="5.55809">
        <ele>1240.7</ele>
        <time>2018-06-03T12:19:26Z</time>
      </trkpt>
      <trkpt lat="45.12617" lon="5.55816">
        <ele>1241.9</ele>
        <time>2018-06-03T12:19:29Z</time>
      </trkpt>
      <trkpt lat="45.12609" lon="5.55823">
        <ele>1242.6</ele>
        <time>2018-06-03T12:19:32Z</time>
      </trkpt>
      <trkpt lat="45.12598" lon="5.55828">
        <ele>1242.6</ele>
        <time>2018-06-03T12:19:35Z</time>
      </trkpt>
      <trkpt lat="45.12588" lon="5.55831">
        <ele>1242.7</ele>
        <time>2018-06-03T12:19:38Z</time>
      </trkpt>
      <trkpt lat="45.12578" lon="5.55833">
        <ele>1242.7</ele>
        <time>2018-06-03T12:19:41Z</time>
      </trkpt>
      <trkpt lat="45.12567" lon="5.55833">
        <ele>1242.6</ele>
        <time>2018-06-03T12:19:44Z</time>
      </trkpt>
      <trkpt lat="45.12557" lon="5.55833">
        <ele>1242.6</ele>
        <time>2018-06-03T12:19:47Z</time>
      </trkpt>
      <trkpt lat="45.12548" lon="5.55833">
        <ele>1242.7</ele>
        <time>2018-06-03T12:19:50Z</time>
      </trkpt>
      <trkpt lat="45.12538" lon="5.5583">
        <ele>1243</ele>
        <time>2018-06-03T12:19:53Z</time>
      </trkpt>
      <trkpt lat="45.12526" lon="5.55825">
        <ele>1242.8</ele>
        <time>2018-06-03T12:19:56Z</time>
      </trkpt>
      <trkpt lat="45.12516" lon="5.55819">
        <ele>1242.6</ele>
        <time>2018-06-03T12:19:59Z</time>
      </trkpt>
      <trkpt lat="45.12507" lon="5.5581">
        <ele>1242.4</ele>
        <time>2018-06-03T12:20:02Z</time>
      </trkpt>
      <trkpt lat="45.12499" lon="5.558">
        <ele>1242.1</ele>
        <time>2018-06-03T12:20:05Z</time>
      </trkpt>
      <trkpt lat="45.12491" lon="5.5579">
        <ele>1241.9</ele>
        <time>2018-06-03T12:20:08Z</time>
      </trkpt>
      <trkpt lat="45.12485" lon="5.55778">
        <ele>1241.6</ele>
        <time>2018-06-03T12:20:11Z</time>
      </trkpt>
      <trkpt lat="45.12476" lon="5.55768">
        <ele>1240.4</ele>
        <time>2018-06-03T12:20:15Z</time>
      </trkpt>
      <trkpt lat="45.12467" lon="5.55765">
        <ele>1239.3</ele>
        <time>2018-06-03T12:20:18Z</time>
      </trkpt>
      <trkpt lat="45.12459" lon="5.55758">
        <ele>1237.8</ele>
        <time>2018-06-03T12:20:21Z</time>
      </trkpt>
      <trkpt lat="45.12448" lon="5.55752">
        <ele>1236</ele>
        <time>2018-06-03T12:20:26Z</time>
      </trkpt>
      <trkpt lat="45.12439" lon="5.5575">
        <ele>1235.3</ele>
        <time>2018-06-03T12:20:29Z</time>
      </trkpt>
      <trkpt lat="45.12429" lon="5.55745">
        <ele>1234.6</ele>
        <time>2018-06-03T12:20:32Z</time>
      </trkpt>
      <trkpt lat="45.12415" lon="5.55743">
        <ele>1234</ele>
        <time>2018-06-03T12:20:36Z</time>
      </trkpt>
      <trkpt lat="45.12404" lon="5.55743">
        <ele>1233.5</ele>
        <time>2018-06-03T12:20:39Z</time>
      </trkpt>
      <trkpt lat="45.12394" lon="5.55748">
        <ele>1233</ele>
        <time>2018-06-03T12:20:43Z</time>
      </trkpt>
      <trkpt lat="45.12385" lon="5.5575">
        <ele>1232.9</ele>
        <time>2018-06-03T12:20:46Z</time>
      </trkpt>
      <trkpt lat="45.12374" lon="5.55757">
        <ele>1232.9</ele>
        <time>2018-06-03T12:20:49Z</time>
      </trkpt>
      <trkpt lat="45.12364" lon="5.55762">
        <ele>1233.1</ele>
        <time>2018-06-03T12:20:52Z</time>
      </trkpt>
      <trkpt lat="45.12355" lon="5.55765">
        <ele>1233.5</ele>
        <time>2018-06-03T12:20:54Z</time>
      </trkpt>
      <trkpt lat="45.12346" lon="5.55763">
        <ele>1234.2</ele>
        <time>2018-06-03T12:20:57Z</time>
      </trkpt>
      <trkpt lat="45.12334" lon="5.55762">
        <ele>1234.9</ele>
        <time>2018-06-03T12:21:00Z</time>
      </trkpt>
      <trkpt lat="45.12324" lon="5.55759">
        <ele>1235.5</ele>
        <time>2018-06-03T12:21:03Z</time>
      </trkpt>
      <trkpt lat="45.12315" lon="5.55756">
        <ele>1236.3</ele>
        <time>2018-06-03T12:21:06Z</time>
      </trkpt>
      <trkpt lat="45.12305" lon="5.5575">
        <ele>1236.8</ele>
        <time>2018-06-03T12:21:10Z</time>
      </trkpt>
      <trkpt lat="45.12297" lon="5.55747">
        <ele>1237</ele>
        <time>2018-06-03T12:21:14Z</time>
      </trkpt>
      <trkpt lat="45.12286" lon="5.55742">
        <ele>1236.8</ele>
        <time>2018-06-03T12:21:18Z</time>
      </trkpt>
      <trkpt lat="45.12276" lon="5.55735">
        <ele>1236.6</ele>
        <time>2018-06-03T12:21:21Z</time>
      </trkpt>
      <trkpt lat="45.12268" lon="5.55729">
        <ele>1236</ele>
        <time>2018-06-03T12:21:23Z</time>
      </trkpt>
      <trkpt lat="45.12259" lon="5.55719">
        <ele>1235.3</ele>
        <time>2018-06-03T12:21:26Z</time>
      </trkpt>
      <trkpt lat="45.12254" lon="5.55704">
        <ele>1234.3</ele>
        <time>2018-06-03T12:21:29Z</time>
      </trkpt>
      <trkpt lat="45.12253" lon="5.55691">
        <ele>1233.1</ele>
        <time>2018-06-03T12:21:32Z</time>
      </trkpt>
      <trkpt lat="45.12254" lon="5.55675">
        <ele>1231.6</ele>
        <time>2018-06-03T12:21:35Z</time>
      </trkpt>
      <trkpt lat="45.12259" lon="5.55658">
        <ele>1230.2</ele>
        <time>2018-06-03T12:21:38Z</time>
      </trkpt>
      <trkpt lat="45.12262" lon="5.55644">
        <ele>1228.4</ele>
        <time>2018-06-03T12:21:41Z</time>
      </trkpt>
      <trkpt lat="45.12266" lon="5.55628">
        <ele>1226</ele>
        <time>2018-06-03T12:21:44Z</time>
      </trkpt>
      <trkpt lat="45.12255" lon="5.55618">
        <ele>1224.4</ele>
        <time>2018-06-03T12:21:47Z</time>
      </trkpt>
      <trkpt lat="45.12244" lon="5.5561">
        <ele>1223.1</ele>
        <time>2018-06-03T12:21:50Z</time>
      </trkpt>
      <trkpt lat="45.12235" lon="5.55609">
        <ele>1221.4</ele>
        <time>2018-06-03T12:21:56Z</time>
      </trkpt>
      <trkpt lat="45.12226" lon="5.55614">
        <ele>1221.1</ele>
        <time>2018-06-03T12:22:01Z</time>
      </trkpt>
      <trkpt lat="45.12215" lon="5.5562">
        <ele>1220.8</ele>
        <time>2018-06-03T12:22:06Z</time>
      </trkpt>
      <trkpt lat="45.12209" lon="5.55629">
        <ele>1220.6</ele>
        <time>2018-06-03T12:22:10Z</time>
      </trkpt>
      <trkpt lat="45.12199" lon="5.55637">
        <ele>1220.5</ele>
        <time>2018-06-03T12:22:14Z</time>
      </trkpt>
      <trkpt lat="45.12192" lon="5.55645">
        <ele>1220.8</ele>
        <time>2018-06-03T12:22:18Z</time>
      </trkpt>
      <trkpt lat="45.12184" lon="5.55655">
        <ele>1221.3</ele>
        <time>2018-06-03T12:22:23Z</time>
      </trkpt>
      <trkpt lat="45.12178" lon="5.55666">
        <ele>1221.9</ele>
        <time>2018-06-03T12:22:29Z</time>
      </trkpt>
      <trkpt lat="45.12169" lon="5.55678">
        <ele>1222.6</ele>
        <time>2018-06-03T12:22:33Z</time>
      </trkpt>
      <trkpt lat="45.12161" lon="5.55684">
        <ele>1223.3</ele>
        <time>2018-06-03T12:22:37Z</time>
      </trkpt>
      <trkpt lat="45.1215" lon="5.55689">
        <ele>1224.4</ele>
        <time>2018-06-03T12:22:42Z</time>
      </trkpt>
      <trkpt lat="45.12141" lon="5.55694">
        <ele>1224.5</ele>
        <time>2018-06-03T12:22:45Z</time>
      </trkpt>
      <trkpt lat="45.12134" lon="5.55702">
        <ele>1224.4</ele>
        <time>2018-06-03T12:22:48Z</time>
      </trkpt>
      <trkpt lat="45.12127" lon="5.55715">
        <ele>1224.1</ele>
        <time>2018-06-03T12:22:52Z</time>
      </trkpt>
      <trkpt lat="45.12121" lon="5.5573">
        <ele>1224.5</ele>
        <time>2018-06-03T12:22:56Z</time>
      </trkpt>
      <trkpt lat="45.12115" lon="5.5574">
        <ele>1224.9</ele>
        <time>2018-06-03T12:22:59Z</time>
      </trkpt>
      <trkpt lat="45.12106" lon="5.55751">
        <ele>1225.4</ele>
        <time>2018-06-03T12:23:03Z</time>
      </trkpt>
      <trkpt lat="45.12098" lon="5.55757">
        <ele>1225.7</ele>
        <time>2018-06-03T12:23:06Z</time>
      </trkpt>
      <trkpt lat="45.1209" lon="5.55766">
        <ele>1226.3</ele>
        <time>2018-06-03T12:23:10Z</time>
      </trkpt>
      <trkpt lat="45.1208" lon="5.55772">
        <ele>1226.6</ele>
        <time>2018-06-03T12:23:13Z</time>
      </trkpt>
      <trkpt lat="45.12073" lon="5.5578">
        <ele>1226.5</ele>
        <time>2018-06-03T12:23:16Z</time>
      </trkpt>
      <trkpt lat="45.12063" lon="5.55785">
        <ele>1226.2</ele>
        <time>2018-06-03T12:23:19Z</time>
      </trkpt>
      <trkpt lat="45.12053" lon="5.55781">
        <ele>1226</ele>
        <time>2018-06-03T12:23:22Z</time>
      </trkpt>
      <trkpt lat="45.12046" lon="5.55773">
        <ele>1226.5</ele>
        <time>2018-06-03T12:23:26Z</time>
      </trkpt>
      <trkpt lat="45.12036" lon="5.55765">
        <ele>1227</ele>
        <time>2018-06-03T12:23:30Z</time>
      </trkpt>
      <trkpt lat="45.12028" lon="5.55758">
        <ele>1227.3</ele>
        <time>2018-06-03T12:23:34Z</time>
      </trkpt>
      <trkpt lat="45.12019" lon="5.55748">
        <ele>1228</ele>
        <time>2018-06-03T12:23:39Z</time>
      </trkpt>
      <trkpt lat="45.12011" lon="5.55737">
        <ele>1228.6</ele>
        <time>2018-06-03T12:23:44Z</time>
      </trkpt>
      <trkpt lat="45.12003" lon="5.55729">
        <ele>1229.1</ele>
        <time>2018-06-03T12:23:49Z</time>
      </trkpt>
      <trkpt lat="45.11994" lon="5.55722">
        <ele>1229.8</ele>
        <time>2018-06-03T12:23:54Z</time>
      </trkpt>
      <trkpt lat="45.11985" lon="5.55716">
        <ele>1230.7</ele>
        <time>2018-06-03T12:23:59Z</time>
      </trkpt>
      <trkpt lat="45.11975" lon="5.55708">
        <ele>1231.3</ele>
        <time>2018-06-03T12:24:04Z</time>
      </trkpt>
      <trkpt lat="45.11968" lon="5.55699">
        <ele>1231.7</ele>
        <time>2018-06-03T12:24:08Z</time>
      </trkpt>
      <trkpt lat="45.11964" lon="5.55685">
        <ele>1232.4</ele>
        <time>2018-06-03T12:24:13Z</time>
      </trkpt>
      <trkpt lat="45.11962" lon="5.55671">
        <ele>1233.9</ele>
        <time>2018-06-03T12:24:19Z</time>
      </trkpt>
      <trkpt lat="45.11957" lon="5.5566">
        <ele>1234.6</ele>
        <time>2018-06-03T12:24:23Z</time>
      </trkpt>
      <trkpt lat="45.11951" lon="5.55649">
        <ele>1235.2</ele>
        <time>2018-06-03T12:24:27Z</time>
      </trkpt>
      <trkpt lat="45.11948" lon="5.55636">
        <ele>1235.7</ele>
        <time>2018-06-03T12:24:31Z</time>
      </trkpt>
      <trkpt lat="45.11942" lon="5.55627">
        <ele>1236.3</ele>
        <time>2018-06-03T12:24:35Z</time>
      </trkpt>
      <trkpt lat="45.11935" lon="5.55615">
        <ele>1236.8</ele>
        <time>2018-06-03T12:24:40Z</time>
      </trkpt>
      <trkpt lat="45.11931" lon="5.55602">
        <ele>1237.4</ele>
        <time>2018-06-03T12:24:44Z</time>
      </trkpt>
      <trkpt lat="45.11926" lon="5.55588">
        <ele>1238.2</ele>
        <time>2018-06-03T12:24:49Z</time>
      </trkpt>
      <trkpt lat="45.11921" lon="5.55575">
        <ele>1239</ele>
        <time>2018-06-03T12:24:54Z</time>
      </trkpt>
      <trkpt lat="45.11915" lon="5.55564">
        <ele>1239.5</ele>
        <time>2018-06-03T12:24:58Z</time>
      </trkpt>
      <trkpt lat="45.1191" lon="5.55553">
        <ele>1240.3</ele>
        <time>2018-06-03T12:25:03Z</time>
      </trkpt>
      <trkpt lat="45.11906" lon="5.55539">
        <ele>1241.4</ele>
        <time>2018-06-03T12:25:09Z</time>
      </trkpt>
      <trkpt lat="45.11901" lon="5.55526">
        <ele>1242.5</ele>
        <time>2018-06-03T12:25:14Z</time>
      </trkpt>
      <trkpt lat="45.11897" lon="5.55513">
        <ele>1243.8</ele>
        <time>2018-06-03T12:25:20Z</time>
      </trkpt>
      <trkpt lat="45.11894" lon="5.55498">
        <ele>1244.8</ele>
        <time>2018-06-03T12:25:25Z</time>
      </trkpt>
      <trkpt lat="45.11891" lon="5.55485">
        <ele>1246.6</ele>
        <time>2018-06-03T12:25:31Z</time>
      </trkpt>
      <trkpt lat="45.11885" lon="5.55472">
        <ele>1247.9</ele>
        <time>2018-06-03T12:25:36Z</time>
      </trkpt>
      <trkpt lat="45.1188" lon="5.55461">
        <ele>1248.8</ele>
        <time>2018-06-03T12:25:40Z</time>
      </trkpt>
      <trkpt lat="45.11875" lon="5.5545">
        <ele>1249.5</ele>
        <time>2018-06-03T12:25:44Z</time>
      </trkpt>
      <trkpt lat="45.11869" lon="5.55439">
        <ele>1250.3</ele>
        <time>2018-06-03T12:25:48Z</time>
      </trkpt>
      <trkpt lat="45.11861" lon="5.55429">
        <ele>1251.2</ele>
        <time>2018-06-03T12:25:53Z</time>
      </trkpt>
      <trkpt lat="45.11855" lon="5.55418">
        <ele>1251.7</ele>
        <time>2018-06-03T12:25:57Z</time>
      </trkpt>
      <trkpt lat="45.11848" lon="5.55408">
        <ele>1252.2</ele>
        <time>2018-06-03T12:26:01Z</time>
      </trkpt>
      <trkpt lat="45.1184" lon="5.554">
        <ele>1252.6</ele>
        <time>2018-06-03T12:26:05Z</time>
      </trkpt>
      <trkpt lat="45.11833" lon="5.55389">
        <ele>1253</ele>
        <time>2018-06-03T12:26:09Z</time>
      </trkpt>
      <trkpt lat="45.11826" lon="5.55379">
        <ele>1253.3</ele>
        <time>2018-06-03T12:26:13Z</time>
      </trkpt>
      <trkpt lat="45.11821" lon="5.55367">
        <ele>1253.6</ele>
        <time>2018-06-03T12:26:18Z</time>
      </trkpt>
      <trkpt lat="45.11816" lon="5.55355">
        <ele>1253.7</ele>
        <time>2018-06-03T12:26:22Z</time>
      </trkpt>
      <trkpt lat="45.11814" lon="5.55341">
        <ele>1253.6</ele>
        <time>2018-06-03T12:26:25Z</time>
      </trkpt>
      <trkpt lat="45.11814" lon="5.55326">
        <ele>1253.6</ele>
        <time>2018-06-03T12:26:30Z</time>
      </trkpt>
      <trkpt lat="45.11812" lon="5.55311">
        <ele>1253.7</ele>
        <time>2018-06-03T12:26:35Z</time>
      </trkpt>
      <trkpt lat="45.1181" lon="5.55296">
        <ele>1253</ele>
        <time>2018-06-03T12:26:38Z</time>
      </trkpt>
      <trkpt lat="45.11804" lon="5.55281">
        <ele>1252.7</ele>
        <time>2018-06-03T12:26:40Z</time>
      </trkpt>
      <trkpt lat="45.11802" lon="5.55265">
        <ele>1252.3</ele>
        <time>2018-06-03T12:26:42Z</time>
      </trkpt>
      <trkpt lat="45.11798" lon="5.55253">
        <ele>1252.5</ele>
        <time>2018-06-03T12:26:44Z</time>
      </trkpt>
      <trkpt lat="45.11788" lon="5.55248">
        <ele>1253.2</ele>
        <time>2018-06-03T12:26:48Z</time>
      </trkpt>
      <trkpt lat="45.11778" lon="5.55249">
        <ele>1255.1</ele>
        <time>2018-06-03T12:26:56Z</time>
      </trkpt>
      <trkpt lat="45.11769" lon="5.55255">
        <ele>1256</ele>
        <time>2018-06-03T12:27:02Z</time>
      </trkpt>
      <trkpt lat="45.11761" lon="5.55262">
        <ele>1257</ele>
        <time>2018-06-03T12:27:10Z</time>
      </trkpt>
      <trkpt lat="45.11753" lon="5.55269">
        <ele>1259</ele>
        <time>2018-06-03T12:27:21Z</time>
      </trkpt>
      <trkpt lat="45.11744" lon="5.55268">
        <ele>1259.8</ele>
        <time>2018-06-03T12:27:54Z</time>
      </trkpt>
      <trkpt lat="45.11734" lon="5.5527">
        <ele>1259.7</ele>
        <time>2018-06-03T12:27:59Z</time>
      </trkpt>
      <trkpt lat="45.11723" lon="5.55269">
        <ele>1259.4</ele>
        <time>2018-06-03T12:28:02Z</time>
      </trkpt>
      <trkpt lat="45.11712" lon="5.55269">
        <ele>1259</ele>
        <time>2018-06-03T12:28:05Z</time>
      </trkpt>
      <trkpt lat="45.11701" lon="5.55267">
        <ele>1258.5</ele>
        <time>2018-06-03T12:28:08Z</time>
      </trkpt>
      <trkpt lat="45.11689" lon="5.55265">
        <ele>1258.1</ele>
        <time>2018-06-03T12:28:11Z</time>
      </trkpt>
      <trkpt lat="45.11679" lon="5.55256">
        <ele>1257.6</ele>
        <time>2018-06-03T12:28:14Z</time>
      </trkpt>
      <trkpt lat="45.11672" lon="5.55247">
        <ele>1257.2</ele>
        <time>2018-06-03T12:28:17Z</time>
      </trkpt>
      <trkpt lat="45.11666" lon="5.55234">
        <ele>1257.5</ele>
        <time>2018-06-03T12:28:22Z</time>
      </trkpt>
      <trkpt lat="45.1166" lon="5.55222">
        <ele>1258.3</ele>
        <time>2018-06-03T12:28:28Z</time>
      </trkpt>
      <trkpt lat="45.11655" lon="5.5521">
        <ele>1259.4</ele>
        <time>2018-06-03T12:28:33Z</time>
      </trkpt>
      <trkpt lat="45.1165" lon="5.55199">
        <ele>1260.8</ele>
        <time>2018-06-03T12:28:38Z</time>
      </trkpt>
      <trkpt lat="45.11647" lon="5.55185">
        <ele>1262.9</ele>
        <time>2018-06-03T12:28:44Z</time>
      </trkpt>
      <trkpt lat="45.11642" lon="5.55174">
        <ele>1264.9</ele>
        <time>2018-06-03T12:28:50Z</time>
      </trkpt>
      <trkpt lat="45.11637" lon="5.55163">
        <ele>1266.7</ele>
        <time>2018-06-03T12:28:57Z</time>
      </trkpt>
      <trkpt lat="45.11634" lon="5.55149">
        <ele>1268.5</ele>
        <time>2018-06-03T12:29:07Z</time>
      </trkpt>
      <trkpt lat="45.1163" lon="5.55137">
        <ele>1269.4</ele>
        <time>2018-06-03T12:29:14Z</time>
      </trkpt>
      <trkpt lat="45.11625" lon="5.55125">
        <ele>1270.9</ele>
        <time>2018-06-03T12:29:21Z</time>
      </trkpt>
      <trkpt lat="45.11624" lon="5.55111">
        <ele>1271.7</ele>
        <time>2018-06-03T12:29:28Z</time>
      </trkpt>
      <trkpt lat="45.11622" lon="5.55097">
        <ele>1272.7</ele>
        <time>2018-06-03T12:29:34Z</time>
      </trkpt>
      <trkpt lat="45.1162" lon="5.55084">
        <ele>1273.5</ele>
        <time>2018-06-03T12:29:39Z</time>
      </trkpt>
      <trkpt lat="45.11616" lon="5.55071">
        <ele>1274.1</ele>
        <time>2018-06-03T12:29:44Z</time>
      </trkpt>
      <trkpt lat="45.11615" lon="5.55058">
        <ele>1274.8</ele>
        <time>2018-06-03T12:29:49Z</time>
      </trkpt>
      <trkpt lat="45.11614" lon="5.55043">
        <ele>1275.9</ele>
        <time>2018-06-03T12:29:55Z</time>
      </trkpt>
      <trkpt lat="45.11612" lon="5.5503">
        <ele>1276.6</ele>
        <time>2018-06-03T12:30:00Z</time>
      </trkpt>
      <trkpt lat="45.11609" lon="5.55016">
        <ele>1277</ele>
        <time>2018-06-03T12:30:05Z</time>
      </trkpt>
      <trkpt lat="45.11605" lon="5.55004">
        <ele>1277.7</ele>
        <time>2018-06-03T12:30:10Z</time>
      </trkpt>
      <trkpt lat="45.11603" lon="5.54991">
        <ele>1278.6</ele>
        <time>2018-06-03T12:30:15Z</time>
      </trkpt>
      <trkpt lat="45.11598" lon="5.54978">
        <ele>1279.7</ele>
        <time>2018-06-03T12:30:20Z</time>
      </trkpt>
      <trkpt lat="45.11596" lon="5.54965">
        <ele>1281</ele>
        <time>2018-06-03T12:30:26Z</time>
      </trkpt>
      <trkpt lat="45.11596" lon="5.5495">
        <ele>1282.5</ele>
        <time>2018-06-03T12:30:33Z</time>
      </trkpt>
      <trkpt lat="45.11601" lon="5.54938">
        <ele>1284</ele>
        <time>2018-06-03T12:30:39Z</time>
      </trkpt>
      <trkpt lat="45.11603" lon="5.54924">
        <ele>1285</ele>
        <time>2018-06-03T12:30:45Z</time>
      </trkpt>
      <trkpt lat="45.11601" lon="5.54911">
        <ele>1285.8</ele>
        <time>2018-06-03T12:30:51Z</time>
      </trkpt>
      <trkpt lat="45.11596" lon="5.54901">
        <ele>1285.8</ele>
        <time>2018-06-03T12:30:57Z</time>
      </trkpt>
      <trkpt lat="45.11588" lon="5.54893">
        <ele>1285.8</ele>
        <time>2018-06-03T12:31:12Z</time>
      </trkpt>
      <trkpt lat="45.11593" lon="5.54882">
        <ele>1286.4</ele>
        <time>2018-06-03T12:33:21Z</time>
      </trkpt>
      <trkpt lat="45.11583" lon="5.54883">
        <ele>1286.4</ele>
        <time>2018-06-03T12:37:29Z</time>
      </trkpt>
      <trkpt lat="45.11574" lon="5.54877">
        <ele>1287</ele>
        <time>2018-06-03T12:37:35Z</time>
      </trkpt>
      <trkpt lat="45.11565" lon="5.54874">
        <ele>1287.7</ele>
        <time>2018-06-03T12:37:41Z</time>
      </trkpt>
      <trkpt lat="45.11556" lon="5.54869">
        <ele>1288.3</ele>
        <time>2018-06-03T12:37:45Z</time>
      </trkpt>
      <trkpt lat="45.11548" lon="5.54862">
        <ele>1289.3</ele>
        <time>2018-06-03T12:37:51Z</time>
      </trkpt>
      <trkpt lat="45.11537" lon="5.54858">
        <ele>1290.3</ele>
        <time>2018-06-03T12:37:57Z</time>
      </trkpt>
      <trkpt lat="45.11528" lon="5.54851">
        <ele>1291.3</ele>
        <time>2018-06-03T12:38:03Z</time>
      </trkpt>
      <trkpt lat="45.11519" lon="5.54845">
        <ele>1292.1</ele>
        <time>2018-06-03T12:38:09Z</time>
      </trkpt>
      <trkpt lat="45.11509" lon="5.5484">
        <ele>1292.9</ele>
        <time>2018-06-03T12:38:15Z</time>
      </trkpt>
      <trkpt lat="45.11499" lon="5.54833">
        <ele>1293.6</ele>
        <time>2018-06-03T12:38:20Z</time>
      </trkpt>
      <trkpt lat="45.1149" lon="5.54827">
        <ele>1294.3</ele>
        <time>2018-06-03T12:38:25Z</time>
      </trkpt>
      <trkpt lat="45.11481" lon="5.54823">
        <ele>1294.8</ele>
        <time>2018-06-03T12:38:29Z</time>
      </trkpt>
      <trkpt lat="45.1147" lon="5.5482">
        <ele>1295</ele>
        <time>2018-06-03T12:38:33Z</time>
      </trkpt>
      <trkpt lat="45.11461" lon="5.54816">
        <ele>1295.4</ele>
        <time>2018-06-03T12:38:37Z</time>
      </trkpt>
      <trkpt lat="45.11451" lon="5.54813">
        <ele>1295.7</ele>
        <time>2018-06-03T12:38:41Z</time>
      </trkpt>
      <trkpt lat="45.1144" lon="5.5481">
        <ele>1296</ele>
        <time>2018-06-03T12:38:45Z</time>
      </trkpt>
      <trkpt lat="45.1143" lon="5.54806">
        <ele>1296.2</ele>
        <time>2018-06-03T12:38:49Z</time>
      </trkpt>
      <trkpt lat="45.1142" lon="5.54806">
        <ele>1296.5</ele>
        <time>2018-06-03T12:38:52Z</time>
      </trkpt>
      <trkpt lat="45.1141" lon="5.54802">
        <ele>1296.7</ele>
        <time>2018-06-03T12:38:56Z</time>
      </trkpt>
      <trkpt lat="45.11401" lon="5.54801">
        <ele>1296.8</ele>
        <time>2018-06-03T12:38:59Z</time>
      </trkpt>
      <trkpt lat="45.1139" lon="5.54801">
        <ele>1297</ele>
        <time>2018-06-03T12:39:03Z</time>
      </trkpt>
      <trkpt lat="45.1138" lon="5.54799">
        <ele>1297.1</ele>
        <time>2018-06-03T12:39:06Z</time>
      </trkpt>
      <trkpt lat="45.1137" lon="5.54798">
        <ele>1297.2</ele>
        <time>2018-06-03T12:39:09Z</time>
      </trkpt>
      <trkpt lat="45.11359" lon="5.54798">
        <ele>1297.3</ele>
        <time>2018-06-03T12:39:13Z</time>
      </trkpt>
      <trkpt lat="45.11347" lon="5.54797">
        <ele>1297.2</ele>
        <time>2018-06-03T12:39:17Z</time>
      </trkpt>
      <trkpt lat="45.11338" lon="5.54797">
        <ele>1297</ele>
        <time>2018-06-03T12:39:20Z</time>
      </trkpt>
      <trkpt lat="45.11328" lon="5.54797">
        <ele>1296.7</ele>
        <time>2018-06-03T12:39:23Z</time>
      </trkpt>
      <trkpt lat="45.11315" lon="5.54797">
        <ele>1296.4</ele>
        <time>2018-06-03T12:39:26Z</time>
      </trkpt>
      <trkpt lat="45.11302" lon="5.54797">
        <ele>1296</ele>
        <time>2018-06-03T12:39:29Z</time>
      </trkpt>
      <trkpt lat="45.11292" lon="5.54797">
        <ele>1295.7</ele>
        <time>2018-06-03T12:39:31Z</time>
      </trkpt>
      <trkpt lat="45.11282" lon="5.54798">
        <ele>1295.3</ele>
        <time>2018-06-03T12:39:33Z</time>
      </trkpt>
      <trkpt lat="45.11271" lon="5.54799">
        <ele>1294.9</ele>
        <time>2018-06-03T12:39:35Z</time>
      </trkpt>
      <trkpt lat="45.1126" lon="5.54802">
        <ele>1294.2</ele>
        <time>2018-06-03T12:39:37Z</time>
      </trkpt>
      <trkpt lat="45.11247" lon="5.54804">
        <ele>1293.8</ele>
        <time>2018-06-03T12:39:39Z</time>
      </trkpt>
      <trkpt lat="45.11234" lon="5.54803">
        <ele>1293.3</ele>
        <time>2018-06-03T12:39:41Z</time>
      </trkpt>
      <trkpt lat="45.11222" lon="5.54802">
        <ele>1292.3</ele>
        <time>2018-06-03T12:39:43Z</time>
      </trkpt>
      <trkpt lat="45.11207" lon="5.54801">
        <ele>1291.7</ele>
        <time>2018-06-03T12:39:45Z</time>
      </trkpt>
      <trkpt lat="45.11192" lon="5.548">
        <ele>1291</ele>
        <time>2018-06-03T12:39:47Z</time>
      </trkpt>
      <trkpt lat="45.11176" lon="5.54797">
        <ele>1290.1</ele>
        <time>2018-06-03T12:39:49Z</time>
      </trkpt>
      <trkpt lat="45.11161" lon="5.54793">
        <ele>1289.3</ele>
        <time>2018-06-03T12:39:51Z</time>
      </trkpt>
      <trkpt lat="45.11146" lon="5.5479">
        <ele>1288.5</ele>
        <time>2018-06-03T12:39:53Z</time>
      </trkpt>
      <trkpt lat="45.11133" lon="5.54786">
        <ele>1288.2</ele>
        <time>2018-06-03T12:39:55Z</time>
      </trkpt>
      <trkpt lat="45.11121" lon="5.54782">
        <ele>1287.9</ele>
        <time>2018-06-03T12:39:57Z</time>
      </trkpt>
      <trkpt lat="45.11109" lon="5.54777">
        <ele>1287.4</ele>
        <time>2018-06-03T12:39:59Z</time>
      </trkpt>
      <trkpt lat="45.11098" lon="5.54775">
        <ele>1286.9</ele>
        <time>2018-06-03T12:40:01Z</time>
      </trkpt>
      <trkpt lat="45.11085" lon="5.54776">
        <ele>1286.1</ele>
        <time>2018-06-03T12:40:03Z</time>
      </trkpt>
      <trkpt lat="45.11073" lon="5.5478">
        <ele>1285.7</ele>
        <time>2018-06-03T12:40:05Z</time>
      </trkpt>
      <trkpt lat="45.11061" lon="5.54785">
        <ele>1284.9</ele>
        <time>2018-06-03T12:40:07Z</time>
      </trkpt>
      <trkpt lat="45.11048" lon="5.54788">
        <ele>1284.2</ele>
        <time>2018-06-03T12:40:09Z</time>
      </trkpt>
      <trkpt lat="45.11034" lon="5.54787">
        <ele>1283.5</ele>
        <time>2018-06-03T12:40:11Z</time>
      </trkpt>
      <trkpt lat="45.11018" lon="5.54784">
        <ele>1282.4</ele>
        <time>2018-06-03T12:40:13Z</time>
      </trkpt>
      <trkpt lat="45.11" lon="5.54781">
        <ele>1281.3</ele>
        <time>2018-06-03T12:40:15Z</time>
      </trkpt>
      <trkpt lat="45.10989" lon="5.5478">
        <ele>1280.6</ele>
        <time>2018-06-03T12:40:16Z</time>
      </trkpt>
      <trkpt lat="45.1097" lon="5.54778">
        <ele>1279.6</ele>
        <time>2018-06-03T12:40:18Z</time>
      </trkpt>
      <trkpt lat="45.1096" lon="5.54778">
        <ele>1279.1</ele>
        <time>2018-06-03T12:40:19Z</time>
      </trkpt>
      <trkpt lat="45.1095" lon="5.54779">
        <ele>1278.4</ele>
        <time>2018-06-03T12:40:20Z</time>
      </trkpt>
      <trkpt lat="45.10941" lon="5.54778">
        <ele>1277.8</ele>
        <time>2018-06-03T12:40:21Z</time>
      </trkpt>
      <trkpt lat="45.10924" lon="5.54777">
        <ele>1276.8</ele>
        <time>2018-06-03T12:40:23Z</time>
      </trkpt>
      <trkpt lat="45.10908" lon="5.54777">
        <ele>1275.8</ele>
        <time>2018-06-03T12:40:25Z</time>
      </trkpt>
      <trkpt lat="45.10893" lon="5.54775">
        <ele>1274.9</ele>
        <time>2018-06-03T12:40:27Z</time>
      </trkpt>
      <trkpt lat="45.10881" lon="5.54773">
        <ele>1273.9</ele>
        <time>2018-06-03T12:40:29Z</time>
      </trkpt>
      <trkpt lat="45.10868" lon="5.5477">
        <ele>1273.2</ele>
        <time>2018-06-03T12:40:31Z</time>
      </trkpt>
      <trkpt lat="45.10855" lon="5.54767">
        <ele>1272.4</ele>
        <time>2018-06-03T12:40:33Z</time>
      </trkpt>
      <trkpt lat="45.10844" lon="5.54764">
        <ele>1271.5</ele>
        <time>2018-06-03T12:40:35Z</time>
      </trkpt>
      <trkpt lat="45.10834" lon="5.54761">
        <ele>1269.5</ele>
        <time>2018-06-03T12:40:40Z</time>
      </trkpt>
      <trkpt lat="45.10825" lon="5.54758">
        <ele>1268.6</ele>
        <time>2018-06-03T12:40:43Z</time>
      </trkpt>
      <trkpt lat="45.10816" lon="5.54754">
        <ele>1267.9</ele>
        <time>2018-06-03T12:40:45Z</time>
      </trkpt>
      <trkpt lat="45.10805" lon="5.5475">
        <ele>1266.9</ele>
        <time>2018-06-03T12:40:47Z</time>
      </trkpt>
      <trkpt lat="45.10794" lon="5.54748">
        <ele>1265.7</ele>
        <time>2018-06-03T12:40:49Z</time>
      </trkpt>
      <trkpt lat="45.1078" lon="5.54745">
        <ele>1264.6</ele>
        <time>2018-06-03T12:40:51Z</time>
      </trkpt>
      <trkpt lat="45.10764" lon="5.54743">
        <ele>1262.9</ele>
        <time>2018-06-03T12:40:53Z</time>
      </trkpt>
      <trkpt lat="45.10755" lon="5.54739">
        <ele>1262.1</ele>
        <time>2018-06-03T12:40:54Z</time>
      </trkpt>
      <trkpt lat="45.10743" lon="5.54737">
        <ele>1260.7</ele>
        <time>2018-06-03T12:40:56Z</time>
      </trkpt>
      <trkpt lat="45.10734" lon="5.54732">
        <ele>1257.7</ele>
        <time>2018-06-03T12:41:04Z</time>
      </trkpt>
      <trkpt lat="45.10732" lon="5.54745">
        <ele>1257.2</ele>
        <time>2018-06-03T12:41:17Z</time>
      </trkpt>
      <trkpt lat="45.10738" lon="5.54755">
        <ele>1259.3</ele>
        <time>2018-06-03T12:41:25Z</time>
      </trkpt>
      <trkpt lat="45.10739" lon="5.54768">
        <ele>1260.6</ele>
        <time>2018-06-03T12:41:32Z</time>
      </trkpt>
      <trkpt lat="45.1074" lon="5.54783">
        <ele>1260.9</ele>
        <time>2018-06-03T12:41:39Z</time>
      </trkpt>
      <trkpt lat="45.10746" lon="5.54797">
        <ele>1260.1</ele>
        <time>2018-06-03T12:41:43Z</time>
      </trkpt>
      <trkpt lat="45.10751" lon="5.54808">
        <ele>1259.3</ele>
        <time>2018-06-03T12:41:45Z</time>
      </trkpt>
      <trkpt lat="45.10757" lon="5.54819">
        <ele>1258.7</ele>
        <time>2018-06-03T12:41:47Z</time>
      </trkpt>
      <trkpt lat="45.10765" lon="5.5483">
        <ele>1257.6</ele>
        <time>2018-06-03T12:41:50Z</time>
      </trkpt>
      <trkpt lat="45.10771" lon="5.54839">
        <ele>1256.6</ele>
        <time>2018-06-03T12:41:53Z</time>
      </trkpt>
      <trkpt lat="45.10778" lon="5.5485">
        <ele>1255.7</ele>
        <time>2018-06-03T12:41:56Z</time>
      </trkpt>
      <trkpt lat="45.10787" lon="5.54865">
        <ele>1254.7</ele>
        <time>2018-06-03T12:41:59Z</time>
      </trkpt>
      <trkpt lat="45.10794" lon="5.54877">
        <ele>1253.8</ele>
        <time>2018-06-03T12:42:01Z</time>
      </trkpt>
      <trkpt lat="45.10803" lon="5.54886">
        <ele>1253</ele>
        <time>2018-06-03T12:42:03Z</time>
      </trkpt>
      <trkpt lat="45.10811" lon="5.54895">
        <ele>1252.3</ele>
        <time>2018-06-03T12:42:05Z</time>
      </trkpt>
      <trkpt lat="45.10817" lon="5.54905">
        <ele>1251.6</ele>
        <time>2018-06-03T12:42:07Z</time>
      </trkpt>
      <trkpt lat="45.1082" lon="5.54918">
        <ele>1250</ele>
        <time>2018-06-03T12:42:10Z</time>
      </trkpt>
      <trkpt lat="45.10829" lon="5.5493">
        <ele>1248.9</ele>
        <time>2018-06-03T12:42:12Z</time>
      </trkpt>
      <trkpt lat="45.10838" lon="5.54939">
        <ele>1247.9</ele>
        <time>2018-06-03T12:42:14Z</time>
      </trkpt>
      <trkpt lat="45.10848" lon="5.5495">
        <ele>1246.1</ele>
        <time>2018-06-03T12:42:17Z</time>
      </trkpt>
      <trkpt lat="45.10858" lon="5.54961">
        <ele>1244.2</ele>
        <time>2018-06-03T12:42:20Z</time>
      </trkpt>
      <trkpt lat="45.10865" lon="5.54972">
        <ele>1242.8</ele>
        <time>2018-06-03T12:42:22Z</time>
      </trkpt>
      <trkpt lat="45.10871" lon="5.54982">
        <ele>1241.3</ele>
        <time>2018-06-03T12:42:24Z</time>
      </trkpt>
      <trkpt lat="45.10878" lon="5.54997">
        <ele>1239.6</ele>
        <time>2018-06-03T12:42:26Z</time>
      </trkpt>
      <trkpt lat="45.10883" lon="5.55009">
        <ele>1237.6</ele>
        <time>2018-06-03T12:42:28Z</time>
      </trkpt>
      <trkpt lat="45.10893" lon="5.55016">
        <ele>1236</ele>
        <time>2018-06-03T12:42:30Z</time>
      </trkpt>
      <trkpt lat="45.10904" lon="5.55026">
        <ele>1234.4</ele>
        <time>2018-06-03T12:42:32Z</time>
      </trkpt>
      <trkpt lat="45.10918" lon="5.55039">
        <ele>1233</ele>
        <time>2018-06-03T12:42:34Z</time>
      </trkpt>
      <trkpt lat="45.10928" lon="5.55052">
        <ele>1231.5</ele>
        <time>2018-06-03T12:42:36Z</time>
      </trkpt>
      <trkpt lat="45.10942" lon="5.55065">
        <ele>1230.1</ele>
        <time>2018-06-03T12:42:38Z</time>
      </trkpt>
      <trkpt lat="45.1095" lon="5.55072">
        <ele>1229.4</ele>
        <time>2018-06-03T12:42:39Z</time>
      </trkpt>
      <trkpt lat="45.10957" lon="5.5508">
        <ele>1228.9</ele>
        <time>2018-06-03T12:42:40Z</time>
      </trkpt>
      <trkpt lat="45.10967" lon="5.5509">
        <ele>1227.1</ele>
        <time>2018-06-03T12:42:42Z</time>
      </trkpt>
      <trkpt lat="45.10979" lon="5.55101">
        <ele>1225.7</ele>
        <time>2018-06-03T12:42:44Z</time>
      </trkpt>
      <trkpt lat="45.10988" lon="5.5511">
        <ele>1224.2</ele>
        <time>2018-06-03T12:42:46Z</time>
      </trkpt>
      <trkpt lat="45.10998" lon="5.55118">
        <ele>1222.8</ele>
        <time>2018-06-03T12:42:48Z</time>
      </trkpt>
      <trkpt lat="45.11007" lon="5.55128">
        <ele>1221.4</ele>
        <time>2018-06-03T12:42:50Z</time>
      </trkpt>
      <trkpt lat="45.11016" lon="5.5514">
        <ele>1219.9</ele>
        <time>2018-06-03T12:42:52Z</time>
      </trkpt>
      <trkpt lat="45.11025" lon="5.55148">
        <ele>1218.8</ele>
        <time>2018-06-03T12:42:54Z</time>
      </trkpt>
      <trkpt lat="45.11035" lon="5.55157">
        <ele>1216.9</ele>
        <time>2018-06-03T12:42:57Z</time>
      </trkpt>
      <trkpt lat="45.11044" lon="5.55168">
        <ele>1215.8</ele>
        <time>2018-06-03T12:42:59Z</time>
      </trkpt>
      <trkpt lat="45.1105" lon="5.5518">
        <ele>1214.4</ele>
        <time>2018-06-03T12:43:01Z</time>
      </trkpt>
      <trkpt lat="45.11057" lon="5.55189">
        <ele>1212.6</ele>
        <time>2018-06-03T12:43:03Z</time>
      </trkpt>
      <trkpt lat="45.11067" lon="5.55201">
        <ele>1211.4</ele>
        <time>2018-06-03T12:43:05Z</time>
      </trkpt>
      <trkpt lat="45.11074" lon="5.55215">
        <ele>1209.8</ele>
        <time>2018-06-03T12:43:07Z</time>
      </trkpt>
      <trkpt lat="45.11084" lon="5.55228">
        <ele>1208.3</ele>
        <time>2018-06-03T12:43:09Z</time>
      </trkpt>
      <trkpt lat="45.11093" lon="5.5524">
        <ele>1206.5</ele>
        <time>2018-06-03T12:43:11Z</time>
      </trkpt>
      <trkpt lat="45.111" lon="5.55256">
        <ele>1205</ele>
        <time>2018-06-03T12:43:13Z</time>
      </trkpt>
      <trkpt lat="45.11107" lon="5.55273">
        <ele>1203.7</ele>
        <time>2018-06-03T12:43:15Z</time>
      </trkpt>
      <trkpt lat="45.11115" lon="5.55289">
        <ele>1202.3</ele>
        <time>2018-06-03T12:43:17Z</time>
      </trkpt>
      <trkpt lat="45.11129" lon="5.55303">
        <ele>1200.9</ele>
        <time>2018-06-03T12:43:19Z</time>
      </trkpt>
      <trkpt lat="45.11137" lon="5.55319">
        <ele>1199.5</ele>
        <time>2018-06-03T12:43:21Z</time>
      </trkpt>
      <trkpt lat="45.11151" lon="5.55335">
        <ele>1198.2</ele>
        <time>2018-06-03T12:43:23Z</time>
      </trkpt>
      <trkpt lat="45.11163" lon="5.55346">
        <ele>1196.6</ele>
        <time>2018-06-03T12:43:25Z</time>
      </trkpt>
      <trkpt lat="45.11168" lon="5.55361">
        <ele>1195.9</ele>
        <time>2018-06-03T12:43:26Z</time>
      </trkpt>
      <trkpt lat="45.11177" lon="5.55371">
        <ele>1194.4</ele>
        <time>2018-06-03T12:43:28Z</time>
      </trkpt>
      <trkpt lat="45.1119" lon="5.55381">
        <ele>1192.5</ele>
        <time>2018-06-03T12:43:30Z</time>
      </trkpt>
      <trkpt lat="45.11201" lon="5.55391">
        <ele>1190.7</ele>
        <time>2018-06-03T12:43:32Z</time>
      </trkpt>
      <trkpt lat="45.11207" lon="5.55401">
        <ele>1189.5</ele>
        <time>2018-06-03T12:43:33Z</time>
      </trkpt>
      <trkpt lat="45.1122" lon="5.55413">
        <ele>1187.7</ele>
        <time>2018-06-03T12:43:35Z</time>
      </trkpt>
      <trkpt lat="45.11231" lon="5.5543">
        <ele>1186.2</ele>
        <time>2018-06-03T12:43:37Z</time>
      </trkpt>
      <trkpt lat="45.11241" lon="5.55445">
        <ele>1184.7</ele>
        <time>2018-06-03T12:43:39Z</time>
      </trkpt>
      <trkpt lat="45.11247" lon="5.55459">
        <ele>1183</ele>
        <time>2018-06-03T12:43:41Z</time>
      </trkpt>
      <trkpt lat="45.11243" lon="5.55477">
        <ele>1181.1</ele>
        <time>2018-06-03T12:43:43Z</time>
      </trkpt>
      <trkpt lat="45.11237" lon="5.55492">
        <ele>1179.6</ele>
        <time>2018-06-03T12:43:45Z</time>
      </trkpt>
      <trkpt lat="45.11231" lon="5.55505">
        <ele>1178.3</ele>
        <time>2018-06-03T12:43:47Z</time>
      </trkpt>
      <trkpt lat="45.11222" lon="5.55518">
        <ele>1176.8</ele>
        <time>2018-06-03T12:43:49Z</time>
      </trkpt>
      <trkpt lat="45.11213" lon="5.55529">
        <ele>1175.1</ele>
        <time>2018-06-03T12:43:51Z</time>
      </trkpt>
      <trkpt lat="45.11205" lon="5.55538">
        <ele>1173.5</ele>
        <time>2018-06-03T12:43:53Z</time>
      </trkpt>
      <trkpt lat="45.11194" lon="5.55546">
        <ele>1171.1</ele>
        <time>2018-06-03T12:43:56Z</time>
      </trkpt>
      <trkpt lat="45.11185" lon="5.55555">
        <ele>1169.6</ele>
        <time>2018-06-03T12:43:58Z</time>
      </trkpt>
      <trkpt lat="45.11179" lon="5.55565">
        <ele>1167.5</ele>
        <time>2018-06-03T12:44:01Z</time>
      </trkpt>
      <trkpt lat="45.11183" lon="5.55579">
        <ele>1164.8</ele>
        <time>2018-06-03T12:45:40Z</time>
      </trkpt>
      <trkpt lat="45.11194" lon="5.55588">
        <ele>1164.5</ele>
        <time>2018-06-03T12:45:43Z</time>
      </trkpt>
      <trkpt lat="45.11204" lon="5.55597">
        <ele>1163.6</ele>
        <time>2018-06-03T12:45:46Z</time>
      </trkpt>
      <trkpt lat="45.11213" lon="5.55603">
        <ele>1163.2</ele>
        <time>2018-06-03T12:45:49Z</time>
      </trkpt>
      <trkpt lat="45.11221" lon="5.55609">
        <ele>1162.6</ele>
        <time>2018-06-03T12:45:52Z</time>
      </trkpt>
      <trkpt lat="45.11229" lon="5.55618">
        <ele>1161.9</ele>
        <time>2018-06-03T12:45:55Z</time>
      </trkpt>
      <trkpt lat="45.11236" lon="5.5563">
        <ele>1160.4</ele>
        <time>2018-06-03T12:45:58Z</time>
      </trkpt>
      <trkpt lat="45.11242" lon="5.55644">
        <ele>1158.5</ele>
        <time>2018-06-03T12:46:01Z</time>
      </trkpt>
      <trkpt lat="45.11251" lon="5.55652">
        <ele>1156.2</ele>
        <time>2018-06-03T12:46:04Z</time>
      </trkpt>
      <trkpt lat="45.11261" lon="5.55645">
        <ele>1154.1</ele>
        <time>2018-06-03T12:46:07Z</time>
      </trkpt>
      <trkpt lat="45.11273" lon="5.55642">
        <ele>1152.6</ele>
        <time>2018-06-03T12:46:10Z</time>
      </trkpt>
      <trkpt lat="45.11281" lon="5.55651">
        <ele>1151.9</ele>
        <time>2018-06-03T12:46:13Z</time>
      </trkpt>
      <trkpt lat="45.11288" lon="5.5566">
        <ele>1151.5</ele>
        <time>2018-06-03T12:46:16Z</time>
      </trkpt>
      <trkpt lat="45.11296" lon="5.55671">
        <ele>1152.1</ele>
        <time>2018-06-03T12:46:20Z</time>
      </trkpt>
      <trkpt lat="45.113" lon="5.55684">
        <ele>1153.3</ele>
        <time>2018-06-03T12:46:25Z</time>
      </trkpt>
      <trkpt lat="45.11304" lon="5.55696">
        <ele>1154.6</ele>
        <time>2018-06-03T12:46:30Z</time>
      </trkpt>
      <trkpt lat="45.11308" lon="5.55708">
        <ele>1155.6</ele>
        <time>2018-06-03T12:46:35Z</time>
      </trkpt>
      <trkpt lat="45.11312" lon="5.5572">
        <ele>1156.8</ele>
        <time>2018-06-03T12:46:40Z</time>
      </trkpt>
      <trkpt lat="45.11316" lon="5.55732">
        <ele>1157.7</ele>
        <time>2018-06-03T12:46:45Z</time>
      </trkpt>
      <trkpt lat="45.11321" lon="5.55743">
        <ele>1158.5</ele>
        <time>2018-06-03T12:46:50Z</time>
      </trkpt>
      <trkpt lat="45.11326" lon="5.55755">
        <ele>1159.3</ele>
        <time>2018-06-03T12:46:55Z</time>
      </trkpt>
      <trkpt lat="45.11333" lon="5.55764">
        <ele>1160.3</ele>
        <time>2018-06-03T12:47:00Z</time>
      </trkpt>
      <trkpt lat="45.11341" lon="5.55772">
        <ele>1161.4</ele>
        <time>2018-06-03T12:47:06Z</time>
      </trkpt>
      <trkpt lat="45.11348" lon="5.55781">
        <ele>1162</ele>
        <time>2018-06-03T12:47:11Z</time>
      </trkpt>
      <trkpt lat="45.11356" lon="5.5579">
        <ele>1162.7</ele>
        <time>2018-06-03T12:47:16Z</time>
      </trkpt>
      <trkpt lat="45.11364" lon="5.55799">
        <ele>1163.3</ele>
        <time>2018-06-03T12:47:22Z</time>
      </trkpt>
      <trkpt lat="45.11373" lon="5.55805">
        <ele>1163.5</ele>
        <time>2018-06-03T12:47:30Z</time>
      </trkpt>
      <trkpt lat="45.11382" lon="5.55812">
        <ele>1163.2</ele>
        <time>2018-06-03T12:47:36Z</time>
      </trkpt>
      <trkpt lat="45.11391" lon="5.55817">
        <ele>1162.6</ele>
        <time>2018-06-03T12:47:39Z</time>
      </trkpt>
      <trkpt lat="45.11402" lon="5.55821">
        <ele>1161.4</ele>
        <time>2018-06-03T12:47:43Z</time>
      </trkpt>
      <trkpt lat="45.11412" lon="5.55828">
        <ele>1160.1</ele>
        <time>2018-06-03T12:47:46Z</time>
      </trkpt>
      <trkpt lat="45.1142" lon="5.55837">
        <ele>1157.8</ele>
        <time>2018-06-03T12:47:49Z</time>
      </trkpt>
      <trkpt lat="45.11423" lon="5.55851">
        <ele>1155.6</ele>
        <time>2018-06-03T12:47:52Z</time>
      </trkpt>
      <trkpt lat="45.11419" lon="5.55866">
        <ele>1153.4</ele>
        <time>2018-06-03T12:47:55Z</time>
      </trkpt>
      <trkpt lat="45.1142" lon="5.55879">
        <ele>1151</ele>
        <time>2018-06-03T12:47:58Z</time>
      </trkpt>
      <trkpt lat="45.11419" lon="5.55896">
        <ele>1148.9</ele>
        <time>2018-06-03T12:48:02Z</time>
      </trkpt>
      <trkpt lat="45.11413" lon="5.55909">
        <ele>1147.4</ele>
        <time>2018-06-03T12:48:05Z</time>
      </trkpt>
      <trkpt lat="45.11407" lon="5.55926">
        <ele>1146</ele>
        <time>2018-06-03T12:48:08Z</time>
      </trkpt>
      <trkpt lat="45.11402" lon="5.55938">
        <ele>1144.9</ele>
        <time>2018-06-03T12:48:10Z</time>
      </trkpt>
      <trkpt lat="45.11397" lon="5.55952">
        <ele>1142.2</ele>
        <time>2018-06-03T12:48:14Z</time>
      </trkpt>
      <trkpt lat="45.1139" lon="5.55962">
        <ele>1142</ele>
        <time>2018-06-03T12:48:17Z</time>
      </trkpt>
      <trkpt lat="45.11383" lon="5.55972">
        <ele>1142</ele>
        <time>2018-06-03T12:48:19Z</time>
      </trkpt>
      <trkpt lat="45.11373" lon="5.55976">
        <ele>1142.3</ele>
        <time>2018-06-03T12:48:22Z</time>
      </trkpt>
      <trkpt lat="45.11363" lon="5.55979">
        <ele>1142.5</ele>
        <time>2018-06-03T12:48:25Z</time>
      </trkpt>
      <trkpt lat="45.11351" lon="5.55981">
        <ele>1142.9</ele>
        <time>2018-06-03T12:48:28Z</time>
      </trkpt>
      <trkpt lat="45.11342" lon="5.55984">
        <ele>1143.6</ele>
        <time>2018-06-03T12:48:31Z</time>
      </trkpt>
      <trkpt lat="45.11332" lon="5.55987">
        <ele>1144.7</ele>
        <time>2018-06-03T12:48:36Z</time>
      </trkpt>
      <trkpt lat="45.11323" lon="5.5599">
        <ele>1145.8</ele>
        <time>2018-06-03T12:48:42Z</time>
      </trkpt>
      <trkpt lat="45.11319" lon="5.56001">
        <ele>1147.8</ele>
        <time>2018-06-03T12:48:48Z</time>
      </trkpt>
      <trkpt lat="45.11327" lon="5.5601">
        <ele>1149.2</ele>
        <time>2018-06-03T12:48:54Z</time>
      </trkpt>
      <trkpt lat="45.11334" lon="5.56019">
        <ele>1150.2</ele>
        <time>2018-06-03T12:49:01Z</time>
      </trkpt>
      <trkpt lat="45.11334" lon="5.56034">
        <ele>1151.3</ele>
        <time>2018-06-03T12:49:08Z</time>
      </trkpt>
      <trkpt lat="45.11328" lon="5.56046">
        <ele>1151.2</ele>
        <time>2018-06-03T12:49:14Z</time>
      </trkpt>
      <trkpt lat="45.11323" lon="5.56059">
        <ele>1150.9</ele>
        <time>2018-06-03T12:49:18Z</time>
      </trkpt>
      <trkpt lat="45.11318" lon="5.5607">
        <ele>1150.5</ele>
        <time>2018-06-03T12:49:21Z</time>
      </trkpt>
      <trkpt lat="45.11314" lon="5.56086">
        <ele>1150.2</ele>
        <time>2018-06-03T12:49:25Z</time>
      </trkpt>
      <trkpt lat="45.1131" lon="5.56099">
        <ele>1149.6</ele>
        <time>2018-06-03T12:49:28Z</time>
      </trkpt>
      <trkpt lat="45.11309" lon="5.56114">
        <ele>1148.9</ele>
        <time>2018-06-03T12:49:32Z</time>
      </trkpt>
      <trkpt lat="45.11309" lon="5.56129">
        <ele>1148.1</ele>
        <time>2018-06-03T12:49:35Z</time>
      </trkpt>
      <trkpt lat="45.11309" lon="5.56143">
        <ele>1147.2</ele>
        <time>2018-06-03T12:49:37Z</time>
      </trkpt>
      <trkpt lat="45.11307" lon="5.56156">
        <ele>1146.7</ele>
        <time>2018-06-03T12:49:38Z</time>
      </trkpt>
      <trkpt lat="45.1131" lon="5.56173">
        <ele>1145.5</ele>
        <time>2018-06-03T12:49:40Z</time>
      </trkpt>
      <trkpt lat="45.11313" lon="5.56192">
        <ele>1144.6</ele>
        <time>2018-06-03T12:49:42Z</time>
      </trkpt>
      <trkpt lat="45.11317" lon="5.56208">
        <ele>1143.1</ele>
        <time>2018-06-03T12:49:44Z</time>
      </trkpt>
      <trkpt lat="45.11321" lon="5.56226">
        <ele>1141.8</ele>
        <time>2018-06-03T12:49:46Z</time>
      </trkpt>
      <trkpt lat="45.11327" lon="5.56245">
        <ele>1140.7</ele>
        <time>2018-06-03T12:49:48Z</time>
      </trkpt>
      <trkpt lat="45.11329" lon="5.56259">
        <ele>1140.1</ele>
        <time>2018-06-03T12:49:49Z</time>
      </trkpt>
      <trkpt lat="45.11331" lon="5.56282">
        <ele>1138.7</ele>
        <time>2018-06-03T12:49:51Z</time>
      </trkpt>
      <trkpt lat="45.11335" lon="5.563">
        <ele>1136.7</ele>
        <time>2018-06-03T12:49:53Z</time>
      </trkpt>
      <trkpt lat="45.11335" lon="5.56322">
        <ele>1134.3</ele>
        <time>2018-06-03T12:49:55Z</time>
      </trkpt>
      <trkpt lat="45.11332" lon="5.56346">
        <ele>1132.4</ele>
        <time>2018-06-03T12:49:57Z</time>
      </trkpt>
      <trkpt lat="45.11329" lon="5.5636">
        <ele>1131.5</ele>
        <time>2018-06-03T12:49:58Z</time>
      </trkpt>
      <trkpt lat="45.11328" lon="5.56377">
        <ele>1129.4</ele>
        <time>2018-06-03T12:50:00Z</time>
      </trkpt>
      <trkpt lat="45.11329" lon="5.56404">
        <ele>1127.5</ele>
        <time>2018-06-03T12:50:02Z</time>
      </trkpt>
      <trkpt lat="45.1133" lon="5.56418">
        <ele>1125</ele>
        <time>2018-06-03T12:50:04Z</time>
      </trkpt>
      <trkpt lat="45.11328" lon="5.56431">
        <ele>1122.8</ele>
        <time>2018-06-03T12:50:06Z</time>
      </trkpt>
      <trkpt lat="45.11319" lon="5.56439">
        <ele>1119.9</ele>
        <time>2018-06-03T12:50:09Z</time>
      </trkpt>
      <trkpt lat="45.1131" lon="5.56436">
        <ele>1118.2</ele>
        <time>2018-06-03T12:50:11Z</time>
      </trkpt>
      <trkpt lat="45.113" lon="5.56433">
        <ele>1116.8</ele>
        <time>2018-06-03T12:50:13Z</time>
      </trkpt>
      <trkpt lat="45.11287" lon="5.56429">
        <ele>1115.4</ele>
        <time>2018-06-03T12:50:15Z</time>
      </trkpt>
      <trkpt lat="45.11272" lon="5.56427">
        <ele>1113.6</ele>
        <time>2018-06-03T12:50:17Z</time>
      </trkpt>
      <trkpt lat="45.11262" lon="5.56425">
        <ele>1111.5</ele>
        <time>2018-06-03T12:50:19Z</time>
      </trkpt>
      <trkpt lat="45.11251" lon="5.56423">
        <ele>1109.4</ele>
        <time>2018-06-03T12:50:21Z</time>
      </trkpt>
      <trkpt lat="45.11241" lon="5.56412">
        <ele>1107.2</ele>
        <time>2018-06-03T12:50:23Z</time>
      </trkpt>
      <trkpt lat="45.11232" lon="5.56403">
        <ele>1105.2</ele>
        <time>2018-06-03T12:50:25Z</time>
      </trkpt>
      <trkpt lat="45.1122" lon="5.56396">
        <ele>1103.4</ele>
        <time>2018-06-03T12:50:27Z</time>
      </trkpt>
      <trkpt lat="45.11209" lon="5.56397">
        <ele>1101.8</ele>
        <time>2018-06-03T12:50:29Z</time>
      </trkpt>
      <trkpt lat="45.11197" lon="5.56401">
        <ele>1100</ele>
        <time>2018-06-03T12:50:31Z</time>
      </trkpt>
      <trkpt lat="45.11185" lon="5.56404">
        <ele>1098.8</ele>
        <time>2018-06-03T12:50:33Z</time>
      </trkpt>
      <trkpt lat="45.11174" lon="5.56405">
        <ele>1098.1</ele>
        <time>2018-06-03T12:50:34Z</time>
      </trkpt>
      <trkpt lat="45.1116" lon="5.56407">
        <ele>1095.9</ele>
        <time>2018-06-03T12:50:36Z</time>
      </trkpt>
      <trkpt lat="45.11147" lon="5.56411">
        <ele>1094.3</ele>
        <time>2018-06-03T12:50:38Z</time>
      </trkpt>
      <trkpt lat="45.11138" lon="5.56424">
        <ele>1091.8</ele>
        <time>2018-06-03T12:50:42Z</time>
      </trkpt>
      <trkpt lat="45.11133" lon="5.56437">
        <ele>1090.4</ele>
        <time>2018-06-03T12:50:45Z</time>
      </trkpt>
      <trkpt lat="45.11131" lon="5.56451">
        <ele>1088.6</ele>
        <time>2018-06-03T12:50:51Z</time>
      </trkpt>
      <trkpt lat="45.11142" lon="5.5645">
        <ele>1087.5</ele>
        <time>2018-06-03T12:51:18Z</time>
      </trkpt>
      <trkpt lat="45.11152" lon="5.56445">
        <ele>1086.8</ele>
        <time>2018-06-03T12:51:25Z</time>
      </trkpt>
      <trkpt lat="45.11163" lon="5.56446">
        <ele>1086.6</ele>
        <time>2018-06-03T12:51:29Z</time>
      </trkpt>
      <trkpt lat="45.11172" lon="5.56455">
        <ele>1085.5</ele>
        <time>2018-06-03T12:51:33Z</time>
      </trkpt>
      <trkpt lat="45.1118" lon="5.56466">
        <ele>1084.7</ele>
        <time>2018-06-03T12:51:36Z</time>
      </trkpt>
      <trkpt lat="45.11186" lon="5.56478">
        <ele>1083.8</ele>
        <time>2018-06-03T12:51:38Z</time>
      </trkpt>
      <trkpt lat="45.11195" lon="5.5649">
        <ele>1083</ele>
        <time>2018-06-03T12:51:40Z</time>
      </trkpt>
      <trkpt lat="45.112" lon="5.56503">
        <ele>1082.1</ele>
        <time>2018-06-03T12:51:42Z</time>
      </trkpt>
      <trkpt lat="45.11206" lon="5.5652">
        <ele>1080.8</ele>
        <time>2018-06-03T12:51:44Z</time>
      </trkpt>
      <trkpt lat="45.11215" lon="5.56534">
        <ele>1079.7</ele>
        <time>2018-06-03T12:51:46Z</time>
      </trkpt>
      <trkpt lat="45.11222" lon="5.56553">
        <ele>1078.1</ele>
        <time>2018-06-03T12:51:48Z</time>
      </trkpt>
      <trkpt lat="45.11229" lon="5.56566">
        <ele>1077.2</ele>
        <time>2018-06-03T12:51:49Z</time>
      </trkpt>
      <trkpt lat="45.11238" lon="5.56587">
        <ele>1075.4</ele>
        <time>2018-06-03T12:51:51Z</time>
      </trkpt>
      <trkpt lat="45.11243" lon="5.56598">
        <ele>1074.4</ele>
        <time>2018-06-03T12:51:52Z</time>
      </trkpt>
      <trkpt lat="45.11252" lon="5.56619">
        <ele>1072.3</ele>
        <time>2018-06-03T12:51:54Z</time>
      </trkpt>
      <trkpt lat="45.11261" lon="5.56636">
        <ele>1070.4</ele>
        <time>2018-06-03T12:51:56Z</time>
      </trkpt>
      <trkpt lat="45.11267" lon="5.56655">
        <ele>1068.5</ele>
        <time>2018-06-03T12:51:58Z</time>
      </trkpt>
      <trkpt lat="45.11274" lon="5.56665">
        <ele>1067.5</ele>
        <time>2018-06-03T12:51:59Z</time>
      </trkpt>
      <trkpt lat="45.11286" lon="5.56678">
        <ele>1065.8</ele>
        <time>2018-06-03T12:52:01Z</time>
      </trkpt>
      <trkpt lat="45.11294" lon="5.5669">
        <ele>1064</ele>
        <time>2018-06-03T12:52:03Z</time>
      </trkpt>
      <trkpt lat="45.11291" lon="5.56708">
        <ele>1062.5</ele>
        <time>2018-06-03T12:52:05Z</time>
      </trkpt>
      <trkpt lat="45.11283" lon="5.56722">
        <ele>1061.1</ele>
        <time>2018-06-03T12:52:07Z</time>
      </trkpt>
      <trkpt lat="45.11273" lon="5.56743">
        <ele>1059.5</ele>
        <time>2018-06-03T12:52:09Z</time>
      </trkpt>
      <trkpt lat="45.11269" lon="5.56754">
        <ele>1058.3</ele>
        <time>2018-06-03T12:52:10Z</time>
      </trkpt>
      <trkpt lat="45.11261" lon="5.56776">
        <ele>1056.2</ele>
        <time>2018-06-03T12:52:12Z</time>
      </trkpt>
      <trkpt lat="45.11257" lon="5.56799">
        <ele>1053.8</ele>
        <time>2018-06-03T12:52:14Z</time>
      </trkpt>
      <trkpt lat="45.11251" lon="5.5682">
        <ele>1051.3</ele>
        <time>2018-06-03T12:52:16Z</time>
      </trkpt>
      <trkpt lat="45.11247" lon="5.56835">
        <ele>1049.1</ele>
        <time>2018-06-03T12:52:18Z</time>
      </trkpt>
      <trkpt lat="45.11242" lon="5.56847">
        <ele>1046.3</ele>
        <time>2018-06-03T12:52:21Z</time>
      </trkpt>
      <trkpt lat="45.1124" lon="5.56863">
        <ele>1042.4</ele>
        <time>2018-06-03T12:53:13Z</time>
      </trkpt>
      <trkpt lat="45.11233" lon="5.56876">
        <ele>1042.3</ele>
        <time>2018-06-03T12:54:03Z</time>
      </trkpt>
      <trkpt lat="45.11226" lon="5.56889">
        <ele>1041.6</ele>
        <time>2018-06-03T12:54:06Z</time>
      </trkpt>
      <trkpt lat="45.11219" lon="5.56901">
        <ele>1040.4</ele>
        <time>2018-06-03T12:54:10Z</time>
      </trkpt>
      <trkpt lat="45.11212" lon="5.56912">
        <ele>1039.6</ele>
        <time>2018-06-03T12:54:13Z</time>
      </trkpt>
      <trkpt lat="45.11205" lon="5.56925">
        <ele>1039.1</ele>
        <time>2018-06-03T12:54:16Z</time>
      </trkpt>
      <trkpt lat="45.11195" lon="5.56937">
        <ele>1038.7</ele>
        <time>2018-06-03T12:54:19Z</time>
      </trkpt>
      <trkpt lat="45.11187" lon="5.56942">
        <ele>1038.4</ele>
        <time>2018-06-03T12:54:21Z</time>
      </trkpt>
      <trkpt lat="45.11177" lon="5.56946">
        <ele>1038.2</ele>
        <time>2018-06-03T12:54:23Z</time>
      </trkpt>
      <trkpt lat="45.11167" lon="5.56949">
        <ele>1037.9</ele>
        <time>2018-06-03T12:54:25Z</time>
      </trkpt>
      <trkpt lat="45.11157" lon="5.56952">
        <ele>1037.7</ele>
        <time>2018-06-03T12:54:27Z</time>
      </trkpt>
      <trkpt lat="45.11147" lon="5.56955">
        <ele>1037.5</ele>
        <time>2018-06-03T12:54:29Z</time>
      </trkpt>
      <trkpt lat="45.11136" lon="5.56958">
        <ele>1037.2</ele>
        <time>2018-06-03T12:54:31Z</time>
      </trkpt>
      <trkpt lat="45.11126" lon="5.56963">
        <ele>1036.9</ele>
        <time>2018-06-03T12:54:33Z</time>
      </trkpt>
      <trkpt lat="45.11115" lon="5.56969">
        <ele>1036.7</ele>
        <time>2018-06-03T12:54:35Z</time>
      </trkpt>
      <trkpt lat="45.11105" lon="5.56974">
        <ele>1036.4</ele>
        <time>2018-06-03T12:54:37Z</time>
      </trkpt>
      <trkpt lat="45.11094" lon="5.56981">
        <ele>1036.2</ele>
        <time>2018-06-03T12:54:39Z</time>
      </trkpt>
      <trkpt lat="45.11083" lon="5.56989">
        <ele>1036</ele>
        <time>2018-06-03T12:54:41Z</time>
      </trkpt>
      <trkpt lat="45.11072" lon="5.56997">
        <ele>1035.8</ele>
        <time>2018-06-03T12:54:43Z</time>
      </trkpt>
      <trkpt lat="45.11062" lon="5.57006">
        <ele>1035.7</ele>
        <time>2018-06-03T12:54:45Z</time>
      </trkpt>
      <trkpt lat="45.11051" lon="5.57014">
        <ele>1035.5</ele>
        <time>2018-06-03T12:54:47Z</time>
      </trkpt>
      <trkpt lat="45.1104" lon="5.57021">
        <ele>1035.3</ele>
        <time>2018-06-03T12:54:49Z</time>
      </trkpt>
      <trkpt lat="45.11029" lon="5.57027">
        <ele>1035</ele>
        <time>2018-06-03T12:54:51Z</time>
      </trkpt>
      <trkpt lat="45.11018" lon="5.57033">
        <ele>1034.8</ele>
        <time>2018-06-03T12:54:53Z</time>
      </trkpt>
      <trkpt lat="45.11007" lon="5.57037">
        <ele>1034.7</ele>
        <time>2018-06-03T12:54:55Z</time>
      </trkpt>
      <trkpt lat="45.10997" lon="5.57042">
        <ele>1034.6</ele>
        <time>2018-06-03T12:54:57Z</time>
      </trkpt>
      <trkpt lat="45.10987" lon="5.57049">
        <ele>1034.2</ele>
        <time>2018-06-03T12:54:59Z</time>
      </trkpt>
      <trkpt lat="45.10977" lon="5.57057">
        <ele>1034.3</ele>
        <time>2018-06-03T12:55:01Z</time>
      </trkpt>
      <trkpt lat="45.10968" lon="5.57067">
        <ele>1034.2</ele>
        <time>2018-06-03T12:55:03Z</time>
      </trkpt>
      <trkpt lat="45.1096" lon="5.57077">
        <ele>1034.2</ele>
        <time>2018-06-03T12:55:05Z</time>
      </trkpt>
      <trkpt lat="45.10952" lon="5.57088">
        <ele>1034.1</ele>
        <time>2018-06-03T12:55:07Z</time>
      </trkpt>
      <trkpt lat="45.10945" lon="5.57098">
        <ele>1034.1</ele>
        <time>2018-06-03T12:55:09Z</time>
      </trkpt>
      <trkpt lat="45.10939" lon="5.57107">
        <ele>1034</ele>
        <time>2018-06-03T12:55:11Z</time>
      </trkpt>
      <trkpt lat="45.1093" lon="5.57118">
        <ele>1034</ele>
        <time>2018-06-03T12:55:14Z</time>
      </trkpt>
      <trkpt lat="45.10922" lon="5.57129">
        <ele>1033.9</ele>
        <time>2018-06-03T12:55:17Z</time>
      </trkpt>
      <trkpt lat="45.10915" lon="5.57139">
        <ele>1033.7</ele>
        <time>2018-06-03T12:55:20Z</time>
      </trkpt>
      <trkpt lat="45.10905" lon="5.5714">
        <ele>1033.5</ele>
        <time>2018-06-03T12:55:23Z</time>
      </trkpt>
      <trkpt lat="45.10894" lon="5.57129">
        <ele>1033.3</ele>
        <time>2018-06-03T12:55:26Z</time>
      </trkpt>
      <trkpt lat="45.10887" lon="5.57121">
        <ele>1033.2</ele>
        <time>2018-06-03T12:55:28Z</time>
      </trkpt>
      <trkpt lat="45.10877" lon="5.5711">
        <ele>1033.1</ele>
        <time>2018-06-03T12:55:31Z</time>
      </trkpt>
      <trkpt lat="45.10867" lon="5.57098">
        <ele>1033.2</ele>
        <time>2018-06-03T12:55:34Z</time>
      </trkpt>
      <trkpt lat="45.10857" lon="5.57086">
        <ele>1032.9</ele>
        <time>2018-06-03T12:55:37Z</time>
      </trkpt>
      <trkpt lat="45.10847" lon="5.57073">
        <ele>1032.7</ele>
        <time>2018-06-03T12:55:40Z</time>
      </trkpt>
      <trkpt lat="45.10837" lon="5.57062">
        <ele>1032.8</ele>
        <time>2018-06-03T12:55:43Z</time>
      </trkpt>
      <trkpt lat="45.1083" lon="5.57054">
        <ele>1032.7</ele>
        <time>2018-06-03T12:55:45Z</time>
      </trkpt>
      <trkpt lat="45.10822" lon="5.57045">
        <ele>1032.6</ele>
        <time>2018-06-03T12:55:47Z</time>
      </trkpt>
      <trkpt lat="45.10815" lon="5.57037">
        <ele>1032.5</ele>
        <time>2018-06-03T12:55:49Z</time>
      </trkpt>
      <trkpt lat="45.10808" lon="5.57029">
        <ele>1032.6</ele>
        <time>2018-06-03T12:55:51Z</time>
      </trkpt>
      <trkpt lat="45.108" lon="5.5702">
        <ele>1032.6</ele>
        <time>2018-06-03T12:55:53Z</time>
      </trkpt>
      <trkpt lat="45.10793" lon="5.57012">
        <ele>1032.5</ele>
        <time>2018-06-03T12:55:55Z</time>
      </trkpt>
      <trkpt lat="45.10786" lon="5.57004">
        <ele>1032.3</ele>
        <time>2018-06-03T12:55:57Z</time>
      </trkpt>
      <trkpt lat="45.10779" lon="5.56996">
        <ele>1032.2</ele>
        <time>2018-06-03T12:55:59Z</time>
      </trkpt>
      <trkpt lat="45.10772" lon="5.56988">
        <ele>1032.2</ele>
        <time>2018-06-03T12:56:01Z</time>
      </trkpt>
      <trkpt lat="45.10765" lon="5.5698">
        <ele>1032.3</ele>
        <time>2018-06-03T12:56:03Z</time>
      </trkpt>
      <trkpt lat="45.10757" lon="5.56972">
        <ele>1032.2</ele>
        <time>2018-06-03T12:56:05Z</time>
      </trkpt>
      <trkpt lat="45.1075" lon="5.56964">
        <ele>1032.2</ele>
        <time>2018-06-03T12:56:07Z</time>
      </trkpt>
      <trkpt lat="45.10743" lon="5.56956">
        <ele>1032.1</ele>
        <time>2018-06-03T12:56:09Z</time>
      </trkpt>
      <trkpt lat="45.10736" lon="5.56948">
        <ele>1032.1</ele>
        <time>2018-06-03T12:56:11Z</time>
      </trkpt>
      <trkpt lat="45.10729" lon="5.56939">
        <ele>1032.1</ele>
        <time>2018-06-03T12:56:13Z</time>
      </trkpt>
      <trkpt lat="45.10722" lon="5.56931">
        <ele>1032.1</ele>
        <time>2018-06-03T12:56:15Z</time>
      </trkpt>
      <trkpt lat="45.10715" lon="5.56923">
        <ele>1032</ele>
        <time>2018-06-03T12:56:17Z</time>
      </trkpt>
      <trkpt lat="45.10708" lon="5.56915">
        <ele>1031.9</ele>
        <time>2018-06-03T12:56:19Z</time>
      </trkpt>
      <trkpt lat="45.107" lon="5.56907">
        <ele>1031.9</ele>
        <time>2018-06-03T12:56:21Z</time>
      </trkpt>
      <trkpt lat="45.10693" lon="5.56899">
        <ele>1032</ele>
        <time>2018-06-03T12:56:23Z</time>
      </trkpt>
      <trkpt lat="45.10686" lon="5.5689">
        <ele>1031.8</ele>
        <time>2018-06-03T12:56:25Z</time>
      </trkpt>
      <trkpt lat="45.10679" lon="5.56882">
        <ele>1031.7</ele>
        <time>2018-06-03T12:56:27Z</time>
      </trkpt>
      <trkpt lat="45.10672" lon="5.56874">
        <ele>1031.7</ele>
        <time>2018-06-03T12:56:29Z</time>
      </trkpt>
      <trkpt lat="45.10664" lon="5.56866">
        <ele>1031.8</ele>
        <time>2018-06-03T12:56:31Z</time>
      </trkpt>
      <trkpt lat="45.10656" lon="5.56858">
        <ele>1031.8</ele>
        <time>2018-06-03T12:56:33Z</time>
      </trkpt>
      <trkpt lat="45.10649" lon="5.5685">
        <ele>1031.7</ele>
        <time>2018-06-03T12:56:35Z</time>
      </trkpt>
      <trkpt lat="45.10639" lon="5.56837">
        <ele>1031.7</ele>
        <time>2018-06-03T12:56:38Z</time>
      </trkpt>
      <trkpt lat="45.10632" lon="5.56829">
        <ele>1031.8</ele>
        <time>2018-06-03T12:56:40Z</time>
      </trkpt>
      <trkpt lat="45.10624" lon="5.56821">
        <ele>1032</ele>
        <time>2018-06-03T12:56:42Z</time>
      </trkpt>
      <trkpt lat="45.10617" lon="5.56812">
        <ele>1032.1</ele>
        <time>2018-06-03T12:56:44Z</time>
      </trkpt>
      <trkpt lat="45.1061" lon="5.56804">
        <ele>1032</ele>
        <time>2018-06-03T12:56:46Z</time>
      </trkpt>
      <trkpt lat="45.10602" lon="5.56795">
        <ele>1031.8</ele>
        <time>2018-06-03T12:56:48Z</time>
      </trkpt>
      <trkpt lat="45.10594" lon="5.56786">
        <ele>1031.7</ele>
        <time>2018-06-03T12:56:50Z</time>
      </trkpt>
      <trkpt lat="45.10587" lon="5.56778">
        <ele>1031.7</ele>
        <time>2018-06-03T12:56:52Z</time>
      </trkpt>
      <trkpt lat="45.10579" lon="5.56769">
        <ele>1031.7</ele>
        <time>2018-06-03T12:56:54Z</time>
      </trkpt>
      <trkpt lat="45.10571" lon="5.5676">
        <ele>1031.6</ele>
        <time>2018-06-03T12:56:56Z</time>
      </trkpt>
      <trkpt lat="45.10564" lon="5.56751">
        <ele>1031.5</ele>
        <time>2018-06-03T12:56:58Z</time>
      </trkpt>
      <trkpt lat="45.10556" lon="5.56743">
        <ele>1031.5</ele>
        <time>2018-06-03T12:57:00Z</time>
      </trkpt>
      <trkpt lat="45.10549" lon="5.56734">
        <ele>1031.5</ele>
        <time>2018-06-03T12:57:02Z</time>
      </trkpt>
      <trkpt lat="45.10541" lon="5.56725">
        <ele>1031.6</ele>
        <time>2018-06-03T12:57:04Z</time>
      </trkpt>
      <trkpt lat="45.10533" lon="5.56717">
        <ele>1031.6</ele>
        <time>2018-06-03T12:57:06Z</time>
      </trkpt>
      <trkpt lat="45.10525" lon="5.56708">
        <ele>1031.5</ele>
        <time>2018-06-03T12:57:08Z</time>
      </trkpt>
      <trkpt lat="45.10517" lon="5.567">
        <ele>1031.5</ele>
        <time>2018-06-03T12:57:10Z</time>
      </trkpt>
      <trkpt lat="45.1051" lon="5.56691">
        <ele>1031.5</ele>
        <time>2018-06-03T12:57:12Z</time>
      </trkpt>
      <trkpt lat="45.10502" lon="5.56682">
        <ele>1031.5</ele>
        <time>2018-06-03T12:57:14Z</time>
      </trkpt>
      <trkpt lat="45.10495" lon="5.56674">
        <ele>1031.5</ele>
        <time>2018-06-03T12:57:16Z</time>
      </trkpt>
      <trkpt lat="45.10488" lon="5.56665">
        <ele>1031.4</ele>
        <time>2018-06-03T12:57:18Z</time>
      </trkpt>
      <trkpt lat="45.1048" lon="5.56656">
        <ele>1031.3</ele>
        <time>2018-06-03T12:57:20Z</time>
      </trkpt>
      <trkpt lat="45.10473" lon="5.56648">
        <ele>1031.2</ele>
        <time>2018-06-03T12:57:22Z</time>
      </trkpt>
      <trkpt lat="45.10463" lon="5.56637">
        <ele>1031.2</ele>
        <time>2018-06-03T12:57:25Z</time>
      </trkpt>
      <trkpt lat="45.10455" lon="5.5663">
        <ele>1031.4</ele>
        <time>2018-06-03T12:57:27Z</time>
      </trkpt>
      <trkpt lat="45.10447" lon="5.56623">
        <ele>1031.5</ele>
        <time>2018-06-03T12:57:29Z</time>
      </trkpt>
      <trkpt lat="45.10439" lon="5.56615">
        <ele>1031.6</ele>
        <time>2018-06-03T12:57:31Z</time>
      </trkpt>
      <trkpt lat="45.10429" lon="5.56606">
        <ele>1031.7</ele>
        <time>2018-06-03T12:57:34Z</time>
      </trkpt>
      <trkpt lat="45.10421" lon="5.56599">
        <ele>1031.7</ele>
        <time>2018-06-03T12:57:36Z</time>
      </trkpt>
      <trkpt lat="45.10412" lon="5.56594">
        <ele>1031.8</ele>
        <time>2018-06-03T12:57:38Z</time>
      </trkpt>
      <trkpt lat="45.10402" lon="5.56586">
        <ele>1031.9</ele>
        <time>2018-06-03T12:57:40Z</time>
      </trkpt>
      <trkpt lat="45.10394" lon="5.56577">
        <ele>1031.9</ele>
        <time>2018-06-03T12:57:42Z</time>
      </trkpt>
      <trkpt lat="45.10386" lon="5.56568">
        <ele>1031.9</ele>
        <time>2018-06-03T12:57:44Z</time>
      </trkpt>
      <trkpt lat="45.10377" lon="5.5656">
        <ele>1031.8</ele>
        <time>2018-06-03T12:57:46Z</time>
      </trkpt>
      <trkpt lat="45.10368" lon="5.56552">
        <ele>1031.8</ele>
        <time>2018-06-03T12:57:48Z</time>
      </trkpt>
      <trkpt lat="45.1036" lon="5.56543">
        <ele>1031.9</ele>
        <time>2018-06-03T12:57:50Z</time>
      </trkpt>
      <trkpt lat="45.10351" lon="5.56534">
        <ele>1032</ele>
        <time>2018-06-03T12:57:52Z</time>
      </trkpt>
      <trkpt lat="45.10342" lon="5.56527">
        <ele>1032</ele>
        <time>2018-06-03T12:57:54Z</time>
      </trkpt>
      <trkpt lat="45.10334" lon="5.56519">
        <ele>1032</ele>
        <time>2018-06-03T12:57:56Z</time>
      </trkpt>
      <trkpt lat="45.10326" lon="5.56511">
        <ele>1032</ele>
        <time>2018-06-03T12:57:58Z</time>
      </trkpt>
      <trkpt lat="45.10317" lon="5.56503">
        <ele>1032.3</ele>
        <time>2018-06-03T12:58:00Z</time>
      </trkpt>
      <trkpt lat="45.10309" lon="5.56495">
        <ele>1032.5</ele>
        <time>2018-06-03T12:58:02Z</time>
      </trkpt>
      <trkpt lat="45.103" lon="5.56488">
        <ele>1032.7</ele>
        <time>2018-06-03T12:58:04Z</time>
      </trkpt>
      <trkpt lat="45.10292" lon="5.56481">
        <ele>1033</ele>
        <time>2018-06-03T12:58:06Z</time>
      </trkpt>
      <trkpt lat="45.10284" lon="5.56474">
        <ele>1033.2</ele>
        <time>2018-06-03T12:58:08Z</time>
      </trkpt>
      <trkpt lat="45.10276" lon="5.56467">
        <ele>1033.4</ele>
        <time>2018-06-03T12:58:10Z</time>
      </trkpt>
      <trkpt lat="45.10267" lon="5.5646">
        <ele>1033.5</ele>
        <time>2018-06-03T12:58:12Z</time>
      </trkpt>
      <trkpt lat="45.10259" lon="5.56453">
        <ele>1033.6</ele>
        <time>2018-06-03T12:58:14Z</time>
      </trkpt>
      <trkpt lat="45.1025" lon="5.56446">
        <ele>1033.7</ele>
        <time>2018-06-03T12:58:16Z</time>
      </trkpt>
      <trkpt lat="45.10242" lon="5.56438">
        <ele>1033.7</ele>
        <time>2018-06-03T12:58:18Z</time>
      </trkpt>
      <trkpt lat="45.10233" lon="5.56431">
        <ele>1033.8</ele>
        <time>2018-06-03T12:58:20Z</time>
      </trkpt>
      <trkpt lat="45.10225" lon="5.56423">
        <ele>1033.9</ele>
        <time>2018-06-03T12:58:22Z</time>
      </trkpt>
      <trkpt lat="45.10215" lon="5.56415">
        <ele>1033.9</ele>
        <time>2018-06-03T12:58:24Z</time>
      </trkpt>
      <trkpt lat="45.10206" lon="5.56407">
        <ele>1034</ele>
        <time>2018-06-03T12:58:26Z</time>
      </trkpt>
      <trkpt lat="45.10197" lon="5.564">
        <ele>1034.1</ele>
        <time>2018-06-03T12:58:28Z</time>
      </trkpt>
      <trkpt lat="45.10188" lon="5.56391">
        <ele>1034.2</ele>
        <time>2018-06-03T12:58:30Z</time>
      </trkpt>
      <trkpt lat="45.10178" lon="5.56383">
        <ele>1033.9</ele>
        <time>2018-06-03T12:58:32Z</time>
      </trkpt>
      <trkpt lat="45.10168" lon="5.56375">
        <ele>1033.7</ele>
        <time>2018-06-03T12:58:34Z</time>
      </trkpt>
      <trkpt lat="45.10157" lon="5.56366">
        <ele>1033.4</ele>
        <time>2018-06-03T12:58:36Z</time>
      </trkpt>
      <trkpt lat="45.10147" lon="5.56355">
        <ele>1033</ele>
        <time>2018-06-03T12:58:38Z</time>
      </trkpt>
      <trkpt lat="45.10136" lon="5.56345">
        <ele>1032.6</ele>
        <time>2018-06-03T12:58:40Z</time>
      </trkpt>
      <trkpt lat="45.10125" lon="5.56335">
        <ele>1032.2</ele>
        <time>2018-06-03T12:58:42Z</time>
      </trkpt>
      <trkpt lat="45.10114" lon="5.56326">
        <ele>1032</ele>
        <time>2018-06-03T12:58:44Z</time>
      </trkpt>
      <trkpt lat="45.10103" lon="5.56316">
        <ele>1031.6</ele>
        <time>2018-06-03T12:58:46Z</time>
      </trkpt>
      <trkpt lat="45.10092" lon="5.56307">
        <ele>1031.1</ele>
        <time>2018-06-03T12:58:48Z</time>
      </trkpt>
      <trkpt lat="45.10081" lon="5.56296">
        <ele>1030.9</ele>
        <time>2018-06-03T12:58:50Z</time>
      </trkpt>
      <trkpt lat="45.10069" lon="5.56286">
        <ele>1030.8</ele>
        <time>2018-06-03T12:58:52Z</time>
      </trkpt>
      <trkpt lat="45.10059" lon="5.56276">
        <ele>1030.5</ele>
        <time>2018-06-03T12:58:54Z</time>
      </trkpt>
      <trkpt lat="45.10049" lon="5.56266">
        <ele>1030.3</ele>
        <time>2018-06-03T12:58:56Z</time>
      </trkpt>
      <trkpt lat="45.10038" lon="5.56257">
        <ele>1030</ele>
        <time>2018-06-03T12:58:58Z</time>
      </trkpt>
      <trkpt lat="45.10028" lon="5.56248">
        <ele>1029.9</ele>
        <time>2018-06-03T12:59:00Z</time>
      </trkpt>
      <trkpt lat="45.10018" lon="5.56239">
        <ele>1029.9</ele>
        <time>2018-06-03T12:59:02Z</time>
      </trkpt>
      <trkpt lat="45.10008" lon="5.56231">
        <ele>1029.8</ele>
        <time>2018-06-03T12:59:04Z</time>
      </trkpt>
      <trkpt lat="45.09999" lon="5.56223">
        <ele>1029.8</ele>
        <time>2018-06-03T12:59:06Z</time>
      </trkpt>
      <trkpt lat="45.0999" lon="5.56215">
        <ele>1029.8</ele>
        <time>2018-06-03T12:59:08Z</time>
      </trkpt>
      <trkpt lat="45.0998" lon="5.56207">
        <ele>1029.7</ele>
        <time>2018-06-03T12:59:10Z</time>
      </trkpt>
      <trkpt lat="45.09972" lon="5.56199">
        <ele>1029.6</ele>
        <time>2018-06-03T12:59:12Z</time>
      </trkpt>
      <trkpt lat="45.09963" lon="5.56191">
        <ele>1029.5</ele>
        <time>2018-06-03T12:59:14Z</time>
      </trkpt>
      <trkpt lat="45.09954" lon="5.56183">
        <ele>1029.5</ele>
        <time>2018-06-03T12:59:16Z</time>
      </trkpt>
      <trkpt lat="45.09944" lon="5.56174">
        <ele>1029.4</ele>
        <time>2018-06-03T12:59:18Z</time>
      </trkpt>
      <trkpt lat="45.09935" lon="5.56166">
        <ele>1029.3</ele>
        <time>2018-06-03T12:59:20Z</time>
      </trkpt>
      <trkpt lat="45.09925" lon="5.56158">
        <ele>1029.2</ele>
        <time>2018-06-03T12:59:22Z</time>
      </trkpt>
      <trkpt lat="45.09915" lon="5.5615">
        <ele>1029.2</ele>
        <time>2018-06-03T12:59:24Z</time>
      </trkpt>
      <trkpt lat="45.09906" lon="5.56141">
        <ele>1029</ele>
        <time>2018-06-03T12:59:26Z</time>
      </trkpt>
      <trkpt lat="45.09896" lon="5.56132">
        <ele>1029</ele>
        <time>2018-06-03T12:59:28Z</time>
      </trkpt>
      <trkpt lat="45.09886" lon="5.56123">
        <ele>1028.8</ele>
        <time>2018-06-03T12:59:30Z</time>
      </trkpt>
      <trkpt lat="45.09876" lon="5.56114">
        <ele>1028.7</ele>
        <time>2018-06-03T12:59:32Z</time>
      </trkpt>
      <trkpt lat="45.09867" lon="5.56106">
        <ele>1028.5</ele>
        <time>2018-06-03T12:59:34Z</time>
      </trkpt>
      <trkpt lat="45.09856" lon="5.56098">
        <ele>1028.4</ele>
        <time>2018-06-03T12:59:36Z</time>
      </trkpt>
      <trkpt lat="45.09847" lon="5.56089">
        <ele>1028.3</ele>
        <time>2018-06-03T12:59:38Z</time>
      </trkpt>
      <trkpt lat="45.09837" lon="5.56081">
        <ele>1028.1</ele>
        <time>2018-06-03T12:59:40Z</time>
      </trkpt>
      <trkpt lat="45.09828" lon="5.56072">
        <ele>1028.1</ele>
        <time>2018-06-03T12:59:42Z</time>
      </trkpt>
      <trkpt lat="45.09818" lon="5.56064">
        <ele>1028.2</ele>
        <time>2018-06-03T12:59:44Z</time>
      </trkpt>
      <trkpt lat="45.09808" lon="5.56056">
        <ele>1028.1</ele>
        <time>2018-06-03T12:59:46Z</time>
      </trkpt>
      <trkpt lat="45.09799" lon="5.56047">
        <ele>1028</ele>
        <time>2018-06-03T12:59:48Z</time>
      </trkpt>
      <trkpt lat="45.09789" lon="5.56038">
        <ele>1027.7</ele>
        <time>2018-06-03T12:59:50Z</time>
      </trkpt>
      <trkpt lat="45.09779" lon="5.5603">
        <ele>1027.7</ele>
        <time>2018-06-03T12:59:52Z</time>
      </trkpt>
      <trkpt lat="45.0977" lon="5.56023">
        <ele>1027.4</ele>
        <time>2018-06-03T12:59:54Z</time>
      </trkpt>
      <trkpt lat="45.09762" lon="5.56016">
        <ele>1027.2</ele>
        <time>2018-06-03T12:59:56Z</time>
      </trkpt>
      <trkpt lat="45.09753" lon="5.56008">
        <ele>1027</ele>
        <time>2018-06-03T12:59:58Z</time>
      </trkpt>
      <trkpt lat="45.09745" lon="5.56001">
        <ele>1027.1</ele>
        <time>2018-06-03T13:00:00Z</time>
      </trkpt>
      <trkpt lat="45.09737" lon="5.55993">
        <ele>1027.2</ele>
        <time>2018-06-03T13:00:02Z</time>
      </trkpt>
      <trkpt lat="45.09727" lon="5.55984">
        <ele>1027.2</ele>
        <time>2018-06-03T13:00:05Z</time>
      </trkpt>
      <trkpt lat="45.09717" lon="5.55975">
        <ele>1027</ele>
        <time>2018-06-03T13:00:08Z</time>
      </trkpt>
      <trkpt lat="45.09708" lon="5.55967">
        <ele>1026.9</ele>
        <time>2018-06-03T13:00:11Z</time>
      </trkpt>
      <trkpt lat="45.097" lon="5.55959">
        <ele>1026.7</ele>
        <time>2018-06-03T13:00:17Z</time>
      </trkpt>
      <trkpt lat="45.09691" lon="5.5595">
        <ele>1026.8</ele>
        <time>2018-06-03T13:00:23Z</time>
      </trkpt>
      <trkpt lat="45.09684" lon="5.55941">
        <ele>1026.6</ele>
        <time>2018-06-03T13:02:31Z</time>
      </trkpt>
      <trkpt lat="45.09675" lon="5.55936">
        <ele>1026.5</ele>
        <time>2018-06-03T13:02:36Z</time>
      </trkpt>
      <trkpt lat="45.09666" lon="5.55927">
        <ele>1026.4</ele>
        <time>2018-06-03T13:02:39Z</time>
      </trkpt>
      <trkpt lat="45.09656" lon="5.55919">
        <ele>1026.4</ele>
        <time>2018-06-03T13:02:42Z</time>
      </trkpt>
      <trkpt lat="45.09647" lon="5.55914">
        <ele>1026.4</ele>
        <time>2018-06-03T13:02:45Z</time>
      </trkpt>
      <trkpt lat="45.0964" lon="5.55907">
        <ele>1026.4</ele>
        <time>2018-06-03T13:02:48Z</time>
      </trkpt>
      <trkpt lat="45.09631" lon="5.55903">
        <ele>1026.2</ele>
        <time>2018-06-03T13:02:52Z</time>
      </trkpt>
      <trkpt lat="45.09623" lon="5.55915">
        <ele>1026.4</ele>
        <time>2018-06-03T13:02:56Z</time>
      </trkpt>
      <trkpt lat="45.09614" lon="5.55923">
        <ele>1026.3</ele>
        <time>2018-06-03T13:03:01Z</time>
      </trkpt>
      <trkpt lat="45.09606" lon="5.55934">
        <ele>1026.6</ele>
        <time>2018-06-03T13:03:06Z</time>
      </trkpt>
      <trkpt lat="45.09597" lon="5.55939">
        <ele>1026.9</ele>
        <time>2018-06-03T13:03:10Z</time>
      </trkpt>
      <trkpt lat="45.09588" lon="5.55941">
        <ele>1027.2</ele>
        <time>2018-06-03T13:03:14Z</time>
      </trkpt>
      <trkpt lat="45.09577" lon="5.55943">
        <ele>1027.7</ele>
        <time>2018-06-03T13:03:19Z</time>
      </trkpt>
      <trkpt lat="45.09566" lon="5.55946">
        <ele>1028.3</ele>
        <time>2018-06-03T13:03:24Z</time>
      </trkpt>
      <trkpt lat="45.09557" lon="5.55948">
        <ele>1029.1</ele>
        <time>2018-06-03T13:03:30Z</time>
      </trkpt>
      <trkpt lat="45.09548" lon="5.55949">
        <ele>1029.8</ele>
        <time>2018-06-03T13:03:36Z</time>
      </trkpt>
      <trkpt lat="45.0954" lon="5.55956">
        <ele>1031</ele>
        <time>2018-06-03T13:03:44Z</time>
      </trkpt>
      <trkpt lat="45.09532" lon="5.55966">
        <ele>1032.2</ele>
        <time>2018-06-03T13:03:53Z</time>
      </trkpt>
      <trkpt lat="45.09529" lon="5.55978">
        <ele>1032.8</ele>
        <time>2018-06-03T13:03:58Z</time>
      </trkpt>
      <trkpt lat="45.09525" lon="5.55992">
        <ele>1033.2</ele>
        <time>2018-06-03T13:04:03Z</time>
      </trkpt>
      <trkpt lat="45.09521" lon="5.56006">
        <ele>1034.1</ele>
        <time>2018-06-03T13:04:08Z</time>
      </trkpt>
      <trkpt lat="45.09517" lon="5.56019">
        <ele>1034.8</ele>
        <time>2018-06-03T13:04:13Z</time>
      </trkpt>
      <trkpt lat="45.09514" lon="5.56032">
        <ele>1035.6</ele>
        <time>2018-06-03T13:04:18Z</time>
      </trkpt>
      <trkpt lat="45.0951" lon="5.56046">
        <ele>1036.3</ele>
        <time>2018-06-03T13:04:24Z</time>
      </trkpt>
      <trkpt lat="45.09505" lon="5.56058">
        <ele>1037</ele>
        <time>2018-06-03T13:04:29Z</time>
      </trkpt>
      <trkpt lat="45.09499" lon="5.56068">
        <ele>1038</ele>
        <time>2018-06-03T13:04:34Z</time>
      </trkpt>
      <trkpt lat="45.09492" lon="5.56077">
        <ele>1038.5</ele>
        <time>2018-06-03T13:04:38Z</time>
      </trkpt>
      <trkpt lat="45.09482" lon="5.56089">
        <ele>1038.9</ele>
        <time>2018-06-03T13:04:43Z</time>
      </trkpt>
      <trkpt lat="45.09475" lon="5.56097">
        <ele>1039.5</ele>
        <time>2018-06-03T13:04:47Z</time>
      </trkpt>
      <trkpt lat="45.09466" lon="5.56105">
        <ele>1039.9</ele>
        <time>2018-06-03T13:04:51Z</time>
      </trkpt>
      <trkpt lat="45.09457" lon="5.56112">
        <ele>1040.4</ele>
        <time>2018-06-03T13:04:55Z</time>
      </trkpt>
      <trkpt lat="45.09449" lon="5.56118">
        <ele>1040.6</ele>
        <time>2018-06-03T13:04:59Z</time>
      </trkpt>
      <trkpt lat="45.09441" lon="5.56127">
        <ele>1040.9</ele>
        <time>2018-06-03T13:05:03Z</time>
      </trkpt>
      <trkpt lat="45.09434" lon="5.56136">
        <ele>1041.2</ele>
        <time>2018-06-03T13:05:07Z</time>
      </trkpt>
      <trkpt lat="45.09423" lon="5.56141">
        <ele>1041.5</ele>
        <time>2018-06-03T13:05:11Z</time>
      </trkpt>
      <trkpt lat="45.09417" lon="5.56132">
        <ele>1041.6</ele>
        <time>2018-06-03T13:05:14Z</time>
      </trkpt>
      <trkpt lat="45.09408" lon="5.5612">
        <ele>1041.5</ele>
        <time>2018-06-03T13:05:18Z</time>
      </trkpt>
      <trkpt lat="45.09401" lon="5.56112">
        <ele>1041.1</ele>
        <time>2018-06-03T13:05:20Z</time>
      </trkpt>
      <trkpt lat="45.0939" lon="5.56106">
        <ele>1040.6</ele>
        <time>2018-06-03T13:05:22Z</time>
      </trkpt>
      <trkpt lat="45.09377" lon="5.56102">
        <ele>1040.2</ele>
        <time>2018-06-03T13:05:24Z</time>
      </trkpt>
      <trkpt lat="45.09362" lon="5.56093">
        <ele>1039.2</ele>
        <time>2018-06-03T13:05:26Z</time>
      </trkpt>
      <trkpt lat="45.09354" lon="5.56086">
        <ele>1038.5</ele>
        <time>2018-06-03T13:05:27Z</time>
      </trkpt>
      <trkpt lat="45.09347" lon="5.56079">
        <ele>1037.9</ele>
        <time>2018-06-03T13:05:28Z</time>
      </trkpt>
      <trkpt lat="45.09338" lon="5.56071">
        <ele>1037.4</ele>
        <time>2018-06-03T13:05:29Z</time>
      </trkpt>
      <trkpt lat="45.09331" lon="5.56064">
        <ele>1037</ele>
        <time>2018-06-03T13:05:30Z</time>
      </trkpt>
      <trkpt lat="45.09317" lon="5.56055">
        <ele>1036.3</ele>
        <time>2018-06-03T13:05:32Z</time>
      </trkpt>
      <trkpt lat="45.09305" lon="5.56052">
        <ele>1035.8</ele>
        <time>2018-06-03T13:05:34Z</time>
      </trkpt>
      <trkpt lat="45.09293" lon="5.5605">
        <ele>1035.9</ele>
        <time>2018-06-03T13:05:36Z</time>
      </trkpt>
      <trkpt lat="45.09283" lon="5.56043">
        <ele>1036.5</ele>
        <time>2018-06-03T13:05:38Z</time>
      </trkpt>
      <trkpt lat="45.09279" lon="5.56032">
        <ele>1037.1</ele>
        <time>2018-06-03T13:05:40Z</time>
      </trkpt>
      <trkpt lat="45.09276" lon="5.56016">
        <ele>1037.6</ele>
        <time>2018-06-03T13:05:43Z</time>
      </trkpt>
      <trkpt lat="45.09273" lon="5.55999">
        <ele>1037.8</ele>
        <time>2018-06-03T13:05:46Z</time>
      </trkpt>
      <trkpt lat="45.09275" lon="5.55983">
        <ele>1038</ele>
        <time>2018-06-03T13:05:49Z</time>
      </trkpt>
      <trkpt lat="45.09278" lon="5.55964">
        <ele>1037.9</ele>
        <time>2018-06-03T13:05:52Z</time>
      </trkpt>
      <trkpt lat="45.0928" lon="5.55951">
        <ele>1037.9</ele>
        <time>2018-06-03T13:05:54Z</time>
      </trkpt>
      <trkpt lat="45.0928" lon="5.55932">
        <ele>1037.7</ele>
        <time>2018-06-03T13:05:57Z</time>
      </trkpt>
      <trkpt lat="45.09279" lon="5.55915">
        <ele>1037.2</ele>
        <time>2018-06-03T13:06:00Z</time>
      </trkpt>
      <trkpt lat="45.09271" lon="5.559">
        <ele>1036.8</ele>
        <time>2018-06-03T13:06:03Z</time>
      </trkpt>
      <trkpt lat="45.09265" lon="5.55888">
        <ele>1036.5</ele>
        <time>2018-06-03T13:06:05Z</time>
      </trkpt>
      <trkpt lat="45.09258" lon="5.55874">
        <ele>1035.6</ele>
        <time>2018-06-03T13:06:07Z</time>
      </trkpt>
      <trkpt lat="45.09249" lon="5.55858">
        <ele>1034.9</ele>
        <time>2018-06-03T13:06:09Z</time>
      </trkpt>
      <trkpt lat="45.0924" lon="5.55843">
        <ele>1034.6</ele>
        <time>2018-06-03T13:06:11Z</time>
      </trkpt>
      <trkpt lat="45.0923" lon="5.55833">
        <ele>1034.3</ele>
        <time>2018-06-03T13:06:13Z</time>
      </trkpt>
      <trkpt lat="45.09221" lon="5.55824">
        <ele>1034</ele>
        <time>2018-06-03T13:06:15Z</time>
      </trkpt>
      <trkpt lat="45.09212" lon="5.55817">
        <ele>1033.8</ele>
        <time>2018-06-03T13:06:17Z</time>
      </trkpt>
      <trkpt lat="45.09203" lon="5.55812">
        <ele>1033.6</ele>
        <time>2018-06-03T13:06:19Z</time>
      </trkpt>
      <trkpt lat="45.09192" lon="5.558">
        <ele>1033.1</ele>
        <time>2018-06-03T13:06:22Z</time>
      </trkpt>
      <trkpt lat="45.09183" lon="5.55786">
        <ele>1032.5</ele>
        <time>2018-06-03T13:06:24Z</time>
      </trkpt>
      <trkpt lat="45.09174" lon="5.5577">
        <ele>1031.6</ele>
        <time>2018-06-03T13:06:26Z</time>
      </trkpt>
      <trkpt lat="45.09163" lon="5.55752">
        <ele>1030.4</ele>
        <time>2018-06-03T13:06:28Z</time>
      </trkpt>
      <trkpt lat="45.0915" lon="5.55737">
        <ele>1029.2</ele>
        <time>2018-06-03T13:06:30Z</time>
      </trkpt>
      <trkpt lat="45.09135" lon="5.55728">
        <ele>1028.1</ele>
        <time>2018-06-03T13:06:32Z</time>
      </trkpt>
      <trkpt lat="45.09122" lon="5.55721">
        <ele>1027.4</ele>
        <time>2018-06-03T13:06:34Z</time>
      </trkpt>
      <trkpt lat="45.09109" lon="5.55714">
        <ele>1027.1</ele>
        <time>2018-06-03T13:06:36Z</time>
      </trkpt>
      <trkpt lat="45.09097" lon="5.5571">
        <ele>1026.9</ele>
        <time>2018-06-03T13:06:38Z</time>
      </trkpt>
      <trkpt lat="45.09086" lon="5.55707">
        <ele>1026.7</ele>
        <time>2018-06-03T13:06:40Z</time>
      </trkpt>
      <trkpt lat="45.09074" lon="5.55706">
        <ele>1026.6</ele>
        <time>2018-06-03T13:06:42Z</time>
      </trkpt>
      <trkpt lat="45.09064" lon="5.55708">
        <ele>1026.7</ele>
        <time>2018-06-03T13:06:44Z</time>
      </trkpt>
      <trkpt lat="45.09055" lon="5.55712">
        <ele>1026.6</ele>
        <time>2018-06-03T13:06:46Z</time>
      </trkpt>
      <trkpt lat="45.09046" lon="5.55717">
        <ele>1026.7</ele>
        <time>2018-06-03T13:06:48Z</time>
      </trkpt>
      <trkpt lat="45.09037" lon="5.55724">
        <ele>1026.8</ele>
        <time>2018-06-03T13:06:50Z</time>
      </trkpt>
      <trkpt lat="45.09028" lon="5.5573">
        <ele>1026.9</ele>
        <time>2018-06-03T13:06:52Z</time>
      </trkpt>
      <trkpt lat="45.09018" lon="5.55733">
        <ele>1027</ele>
        <time>2018-06-03T13:06:54Z</time>
      </trkpt>
      <trkpt lat="45.09009" lon="5.55734">
        <ele>1027.3</ele>
        <time>2018-06-03T13:06:56Z</time>
      </trkpt>
      <trkpt lat="45.09" lon="5.55731">
        <ele>1027.5</ele>
        <time>2018-06-03T13:06:58Z</time>
      </trkpt>
      <trkpt lat="45.08992" lon="5.55726">
        <ele>1027.7</ele>
        <time>2018-06-03T13:07:00Z</time>
      </trkpt>
      <trkpt lat="45.08983" lon="5.55719">
        <ele>1027.9</ele>
        <time>2018-06-03T13:07:02Z</time>
      </trkpt>
      <trkpt lat="45.08975" lon="5.55712">
        <ele>1028</ele>
        <time>2018-06-03T13:07:04Z</time>
      </trkpt>
      <trkpt lat="45.08964" lon="5.55703">
        <ele>1028.2</ele>
        <time>2018-06-03T13:07:07Z</time>
      </trkpt>
      <trkpt lat="45.08953" lon="5.55694">
        <ele>1028.4</ele>
        <time>2018-06-03T13:07:10Z</time>
      </trkpt>
      <trkpt lat="45.08945" lon="5.55688">
        <ele>1028.4</ele>
        <time>2018-06-03T13:07:12Z</time>
      </trkpt>
      <trkpt lat="45.08937" lon="5.55682">
        <ele>1028.2</ele>
        <time>2018-06-03T13:07:14Z</time>
      </trkpt>
      <trkpt lat="45.08926" lon="5.55674">
        <ele>1028.3</ele>
        <time>2018-06-03T13:07:17Z</time>
      </trkpt>
      <trkpt lat="45.08916" lon="5.55666">
        <ele>1027.9</ele>
        <time>2018-06-03T13:07:20Z</time>
      </trkpt>
      <trkpt lat="45.08907" lon="5.55658">
        <ele>1027.8</ele>
        <time>2018-06-03T13:07:23Z</time>
      </trkpt>
      <trkpt lat="45.08898" lon="5.5565">
        <ele>1027.9</ele>
        <time>2018-06-03T13:07:26Z</time>
      </trkpt>
      <trkpt lat="45.0889" lon="5.55642">
        <ele>1027.8</ele>
        <time>2018-06-03T13:07:29Z</time>
      </trkpt>
      <trkpt lat="45.08882" lon="5.55633">
        <ele>1027.7</ele>
        <time>2018-06-03T13:07:32Z</time>
      </trkpt>
      <trkpt lat="45.08872" lon="5.55623">
        <ele>1027.6</ele>
        <time>2018-06-03T13:07:35Z</time>
      </trkpt>
      <trkpt lat="45.08862" lon="5.55614">
        <ele>1027.4</ele>
        <time>2018-06-03T13:07:38Z</time>
      </trkpt>
      <trkpt lat="45.08854" lon="5.55607">
        <ele>1027.4</ele>
        <time>2018-06-03T13:07:40Z</time>
      </trkpt>
      <trkpt lat="45.08844" lon="5.55599">
        <ele>1027.3</ele>
        <time>2018-06-03T13:07:43Z</time>
      </trkpt>
      <trkpt lat="45.08833" lon="5.55589">
        <ele>1027.3</ele>
        <time>2018-06-03T13:07:46Z</time>
      </trkpt>
      <trkpt lat="45.08822" lon="5.55579">
        <ele>1027</ele>
        <time>2018-06-03T13:07:49Z</time>
      </trkpt>
      <trkpt lat="45.08812" lon="5.55571">
        <ele>1026.7</ele>
        <time>2018-06-03T13:07:52Z</time>
      </trkpt>
      <trkpt lat="45.088" lon="5.55563">
        <ele>1026.7</ele>
        <time>2018-06-03T13:07:55Z</time>
      </trkpt>
      <trkpt lat="45.08788" lon="5.55555">
        <ele>1026.6</ele>
        <time>2018-06-03T13:07:58Z</time>
      </trkpt>
      <trkpt lat="45.08777" lon="5.55547">
        <ele>1026.6</ele>
        <time>2018-06-03T13:08:01Z</time>
      </trkpt>
      <trkpt lat="45.08765" lon="5.5554">
        <ele>1026.5</ele>
        <time>2018-06-03T13:08:04Z</time>
      </trkpt>
      <trkpt lat="45.08756" lon="5.55536">
        <ele>1026.3</ele>
        <time>2018-06-03T13:08:07Z</time>
      </trkpt>
      <trkpt lat="45.08747" lon="5.55535">
        <ele>1026</ele>
        <time>2018-06-03T13:09:43Z</time>
      </trkpt>
      <trkpt lat="45.08736" lon="5.55529">
        <ele>1026</ele>
        <time>2018-06-03T13:09:47Z</time>
      </trkpt>
      <trkpt lat="45.08725" lon="5.55524">
        <ele>1025.8</ele>
        <time>2018-06-03T13:09:51Z</time>
      </trkpt>
      <trkpt lat="45.08714" lon="5.55518">
        <ele>1025.6</ele>
        <time>2018-06-03T13:09:55Z</time>
      </trkpt>
      <trkpt lat="45.08704" lon="5.55514">
        <ele>1025.4</ele>
        <time>2018-06-03T13:09:59Z</time>
      </trkpt>
      <trkpt lat="45.08693" lon="5.5551">
        <ele>1025.3</ele>
        <time>2018-06-03T13:10:03Z</time>
      </trkpt>
      <trkpt lat="45.08684" lon="5.55508">
        <ele>1025.2</ele>
        <time>2018-06-03T13:10:06Z</time>
      </trkpt>
      <trkpt lat="45.08675" lon="5.55504">
        <ele>1025.1</ele>
        <time>2018-06-03T13:10:09Z</time>
      </trkpt>
      <trkpt lat="45.08665" lon="5.55501">
        <ele>1025</ele>
        <time>2018-06-03T13:10:13Z</time>
      </trkpt>
      <trkpt lat="45.08654" lon="5.55496">
        <ele>1024.9</ele>
        <time>2018-06-03T13:10:17Z</time>
      </trkpt>
      <trkpt lat="45.08643" lon="5.55493">
        <ele>1025</ele>
        <time>2018-06-03T13:10:21Z</time>
      </trkpt>
      <trkpt lat="45.08633" lon="5.55489">
        <ele>1025.3</ele>
        <time>2018-06-03T13:10:25Z</time>
      </trkpt>
      <trkpt lat="45.08622" lon="5.55488">
        <ele>1025.3</ele>
        <time>2018-06-03T13:10:28Z</time>
      </trkpt>
      <trkpt lat="45.0861" lon="5.55486">
        <ele>1025.2</ele>
        <time>2018-06-03T13:10:31Z</time>
      </trkpt>
      <trkpt lat="45.08598" lon="5.55483">
        <ele>1025.2</ele>
        <time>2018-06-03T13:10:34Z</time>
      </trkpt>
      <trkpt lat="45.08585" lon="5.55479">
        <ele>1025.2</ele>
        <time>2018-06-03T13:10:37Z</time>
      </trkpt>
      <trkpt lat="45.08572" lon="5.55477">
        <ele>1025.2</ele>
        <time>2018-06-03T13:10:40Z</time>
      </trkpt>
      <trkpt lat="45.08559" lon="5.55478">
        <ele>1025.2</ele>
        <time>2018-06-03T13:10:43Z</time>
      </trkpt>
      <trkpt lat="45.0855" lon="5.5548">
        <ele>1025.1</ele>
        <time>2018-06-03T13:10:45Z</time>
      </trkpt>
      <trkpt lat="45.08541" lon="5.55483">
        <ele>1025</ele>
        <time>2018-06-03T13:10:47Z</time>
      </trkpt>
      <trkpt lat="45.08528" lon="5.55486">
        <ele>1025.1</ele>
        <time>2018-06-03T13:10:50Z</time>
      </trkpt>
      <trkpt lat="45.08519" lon="5.55476">
        <ele>1024.9</ele>
        <time>2018-06-03T13:10:54Z</time>
      </trkpt>
      <trkpt lat="45.08518" lon="5.55461">
        <ele>1024.8</ele>
        <time>2018-06-03T13:10:57Z</time>
      </trkpt>
      <trkpt lat="45.08517" lon="5.55444">
        <ele>1024.7</ele>
        <time>2018-06-03T13:11:00Z</time>
      </trkpt>
      <trkpt lat="45.08515" lon="5.5543">
        <ele>1024.4</ele>
        <time>2018-06-03T13:11:03Z</time>
      </trkpt>
      <trkpt lat="45.08519" lon="5.55416">
        <ele>1024.5</ele>
        <time>2018-06-03T13:11:08Z</time>
      </trkpt>
      <trkpt lat="45.08523" lon="5.55401">
        <ele>1024.1</ele>
        <time>2018-06-03T13:11:12Z</time>
      </trkpt>
      <trkpt lat="45.08525" lon="5.55385">
        <ele>1023.8</ele>
        <time>2018-06-03T13:11:15Z</time>
      </trkpt>
      <trkpt lat="45.08528" lon="5.55366">
        <ele>1023.3</ele>
        <time>2018-06-03T13:11:18Z</time>
      </trkpt>
      <trkpt lat="45.08529" lon="5.55354">
        <ele>1023</ele>
        <time>2018-06-03T13:11:20Z</time>
      </trkpt>
      <trkpt lat="45.0853" lon="5.5534">
        <ele>1022.7</ele>
        <time>2018-06-03T13:11:22Z</time>
      </trkpt>
      <trkpt lat="45.08531" lon="5.55326">
        <ele>1022.4</ele>
        <time>2018-06-03T13:11:24Z</time>
      </trkpt>
      <trkpt lat="45.08531" lon="5.55312">
        <ele>1022.2</ele>
        <time>2018-06-03T13:11:26Z</time>
      </trkpt>
      <trkpt lat="45.08531" lon="5.55298">
        <ele>1021.8</ele>
        <time>2018-06-03T13:11:28Z</time>
      </trkpt>
      <trkpt lat="45.08528" lon="5.55284">
        <ele>1021.6</ele>
        <time>2018-06-03T13:11:30Z</time>
      </trkpt>
      <trkpt lat="45.08524" lon="5.5527">
        <ele>1021.3</ele>
        <time>2018-06-03T13:11:32Z</time>
      </trkpt>
      <trkpt lat="45.08519" lon="5.55256">
        <ele>1021</ele>
        <time>2018-06-03T13:11:34Z</time>
      </trkpt>
      <trkpt lat="45.08515" lon="5.5524">
        <ele>1020.6</ele>
        <time>2018-06-03T13:11:36Z</time>
      </trkpt>
      <trkpt lat="45.08512" lon="5.55225">
        <ele>1020.3</ele>
        <time>2018-06-03T13:11:38Z</time>
      </trkpt>
      <trkpt lat="45.08511" lon="5.5521">
        <ele>1019.8</ele>
        <time>2018-06-03T13:11:40Z</time>
      </trkpt>
      <trkpt lat="45.08511" lon="5.55194">
        <ele>1019.3</ele>
        <time>2018-06-03T13:11:42Z</time>
      </trkpt>
      <trkpt lat="45.0851" lon="5.55176">
        <ele>1019</ele>
        <time>2018-06-03T13:11:44Z</time>
      </trkpt>
      <trkpt lat="45.08508" lon="5.55158">
        <ele>1018.5</ele>
        <time>2018-06-03T13:11:46Z</time>
      </trkpt>
      <trkpt lat="45.08506" lon="5.5514">
        <ele>1017.9</ele>
        <time>2018-06-03T13:11:48Z</time>
      </trkpt>
      <trkpt lat="45.08504" lon="5.55123">
        <ele>1017.4</ele>
        <time>2018-06-03T13:11:50Z</time>
      </trkpt>
      <trkpt lat="45.08503" lon="5.55108">
        <ele>1017.3</ele>
        <time>2018-06-03T13:11:52Z</time>
      </trkpt>
      <trkpt lat="45.08499" lon="5.55091">
        <ele>1017.2</ele>
        <time>2018-06-03T13:11:55Z</time>
      </trkpt>
      <trkpt lat="45.08489" lon="5.55083">
        <ele>1016.9</ele>
        <time>2018-06-03T13:11:58Z</time>
      </trkpt>
      <trkpt lat="45.08478" lon="5.55081">
        <ele>1016.8</ele>
        <time>2018-06-03T13:12:01Z</time>
      </trkpt>
      <trkpt lat="45.08465" lon="5.55081">
        <ele>1016.8</ele>
        <time>2018-06-03T13:12:04Z</time>
      </trkpt>
      <trkpt lat="45.08453" lon="5.55081">
        <ele>1016.8</ele>
        <time>2018-06-03T13:12:07Z</time>
      </trkpt>
      <trkpt lat="45.08443" lon="5.55081">
        <ele>1016.8</ele>
        <time>2018-06-03T13:12:10Z</time>
      </trkpt>
      <trkpt lat="45.08433" lon="5.55081">
        <ele>1016.6</ele>
        <time>2018-06-03T13:12:15Z</time>
      </trkpt>
      <trkpt lat="45.08422" lon="5.5508">
        <ele>1016.4</ele>
        <time>2018-06-03T13:12:19Z</time>
      </trkpt>
      <trkpt lat="45.08411" lon="5.55075">
        <ele>1016.3</ele>
        <time>2018-06-03T13:12:23Z</time>
      </trkpt>
      <trkpt lat="45.08402" lon="5.55073">
        <ele>1016.4</ele>
        <time>2018-06-03T13:12:26Z</time>
      </trkpt>
      <trkpt lat="45.08391" lon="5.5507">
        <ele>1016.6</ele>
        <time>2018-06-03T13:12:30Z</time>
      </trkpt>
      <trkpt lat="45.08381" lon="5.55063">
        <ele>1017.1</ele>
        <time>2018-06-03T13:12:34Z</time>
      </trkpt>
      <trkpt lat="45.08369" lon="5.55063">
        <ele>1017.2</ele>
        <time>2018-06-03T13:12:39Z</time>
      </trkpt>
      <trkpt lat="45.08359" lon="5.55063">
        <ele>1017</ele>
        <time>2018-06-03T13:12:42Z</time>
      </trkpt>
      <trkpt lat="45.08346" lon="5.55062">
        <ele>1016.8</ele>
        <time>2018-06-03T13:12:45Z</time>
      </trkpt>
      <trkpt lat="45.08335" lon="5.55059">
        <ele>1016.6</ele>
        <time>2018-06-03T13:12:48Z</time>
      </trkpt>
      <trkpt lat="45.08323" lon="5.55054">
        <ele>1016.3</ele>
        <time>2018-06-03T13:12:51Z</time>
      </trkpt>
      <trkpt lat="45.08311" lon="5.55047">
        <ele>1016</ele>
        <time>2018-06-03T13:12:54Z</time>
      </trkpt>
      <trkpt lat="45.083" lon="5.55038">
        <ele>1015.9</ele>
        <time>2018-06-03T13:12:57Z</time>
      </trkpt>
      <trkpt lat="45.08289" lon="5.55031">
        <ele>1015.7</ele>
        <time>2018-06-03T13:13:00Z</time>
      </trkpt>
      <trkpt lat="45.08277" lon="5.55025">
        <ele>1015.5</ele>
        <time>2018-06-03T13:13:03Z</time>
      </trkpt>
      <trkpt lat="45.08266" lon="5.55021">
        <ele>1015.4</ele>
        <time>2018-06-03T13:13:06Z</time>
      </trkpt>
      <trkpt lat="45.08253" lon="5.55015">
        <ele>1015.1</ele>
        <time>2018-06-03T13:13:09Z</time>
      </trkpt>
      <trkpt lat="45.08244" lon="5.55011">
        <ele>1015</ele>
        <time>2018-06-03T13:13:11Z</time>
      </trkpt>
      <trkpt lat="45.08235" lon="5.55008">
        <ele>1015</ele>
        <time>2018-06-03T13:13:13Z</time>
      </trkpt>
      <trkpt lat="45.08226" lon="5.55005">
        <ele>1014.9</ele>
        <time>2018-06-03T13:13:15Z</time>
      </trkpt>
      <trkpt lat="45.08218" lon="5.55001">
        <ele>1014.8</ele>
        <time>2018-06-03T13:13:17Z</time>
      </trkpt>
      <trkpt lat="45.08206" lon="5.54994">
        <ele>1014.7</ele>
        <time>2018-06-03T13:13:20Z</time>
      </trkpt>
      <trkpt lat="45.08195" lon="5.54987">
        <ele>1014.8</ele>
        <time>2018-06-03T13:13:23Z</time>
      </trkpt>
      <trkpt lat="45.08184" lon="5.5498">
        <ele>1015.1</ele>
        <time>2018-06-03T13:13:26Z</time>
      </trkpt>
      <trkpt lat="45.08173" lon="5.54973">
        <ele>1015</ele>
        <time>2018-06-03T13:13:29Z</time>
      </trkpt>
      <trkpt lat="45.0816" lon="5.54966">
        <ele>1015.3</ele>
        <time>2018-06-03T13:13:32Z</time>
      </trkpt>
      <trkpt lat="45.08149" lon="5.54959">
        <ele>1015.4</ele>
        <time>2018-06-03T13:13:35Z</time>
      </trkpt>
      <trkpt lat="45.08137" lon="5.54951">
        <ele>1015.7</ele>
        <time>2018-06-03T13:13:38Z</time>
      </trkpt>
      <trkpt lat="45.08126" lon="5.54941">
        <ele>1015.8</ele>
        <time>2018-06-03T13:13:41Z</time>
      </trkpt>
      <trkpt lat="45.08115" lon="5.5493">
        <ele>1015.7</ele>
        <time>2018-06-03T13:13:44Z</time>
      </trkpt>
      <trkpt lat="45.08105" lon="5.54919">
        <ele>1015.6</ele>
        <time>2018-06-03T13:13:47Z</time>
      </trkpt>
      <trkpt lat="45.08094" lon="5.54908">
        <ele>1015.6</ele>
        <time>2018-06-03T13:13:50Z</time>
      </trkpt>
      <trkpt lat="45.08083" lon="5.54899">
        <ele>1015.7</ele>
        <time>2018-06-03T13:13:53Z</time>
      </trkpt>
      <trkpt lat="45.08072" lon="5.54893">
        <ele>1015.9</ele>
        <time>2018-06-03T13:13:56Z</time>
      </trkpt>
      <trkpt lat="45.08061" lon="5.54889">
        <ele>1016.1</ele>
        <time>2018-06-03T13:13:59Z</time>
      </trkpt>
      <trkpt lat="45.0805" lon="5.54884">
        <ele>1016.2</ele>
        <time>2018-06-03T13:14:02Z</time>
      </trkpt>
      <trkpt lat="45.08038" lon="5.54879">
        <ele>1016.2</ele>
        <time>2018-06-03T13:14:05Z</time>
      </trkpt>
      <trkpt lat="45.08026" lon="5.54875">
        <ele>1016.2</ele>
        <time>2018-06-03T13:14:08Z</time>
      </trkpt>
      <trkpt lat="45.08014" lon="5.54872">
        <ele>1016.2</ele>
        <time>2018-06-03T13:14:11Z</time>
      </trkpt>
      <trkpt lat="45.08001" lon="5.5487">
        <ele>1016.4</ele>
        <time>2018-06-03T13:14:14Z</time>
      </trkpt>
      <trkpt lat="45.07989" lon="5.54867">
        <ele>1016.6</ele>
        <time>2018-06-03T13:14:17Z</time>
      </trkpt>
      <trkpt lat="45.0798" lon="5.54865">
        <ele>1016.7</ele>
        <time>2018-06-03T13:14:19Z</time>
      </trkpt>
      <trkpt lat="45.0797" lon="5.54863">
        <ele>1016.7</ele>
        <time>2018-06-03T13:14:21Z</time>
      </trkpt>
      <trkpt lat="45.07959" lon="5.54862">
        <ele>1016.5</ele>
        <time>2018-06-03T13:14:23Z</time>
      </trkpt>
      <trkpt lat="45.07949" lon="5.54861">
        <ele>1016.2</ele>
        <time>2018-06-03T13:14:25Z</time>
      </trkpt>
      <trkpt lat="45.07939" lon="5.54861">
        <ele>1016.2</ele>
        <time>2018-06-03T13:14:27Z</time>
      </trkpt>
      <trkpt lat="45.07929" lon="5.54861">
        <ele>1016.2</ele>
        <time>2018-06-03T13:14:29Z</time>
      </trkpt>
      <trkpt lat="45.0792" lon="5.54862">
        <ele>1016</ele>
        <time>2018-06-03T13:14:31Z</time>
      </trkpt>
      <trkpt lat="45.07911" lon="5.54862">
        <ele>1016</ele>
        <time>2018-06-03T13:14:33Z</time>
      </trkpt>
      <trkpt lat="45.07901" lon="5.54863">
        <ele>1016.1</ele>
        <time>2018-06-03T13:14:35Z</time>
      </trkpt>
      <trkpt lat="45.0789" lon="5.54863">
        <ele>1016.6</ele>
        <time>2018-06-03T13:14:38Z</time>
      </trkpt>
      <trkpt lat="45.07879" lon="5.54861">
        <ele>1017</ele>
        <time>2018-06-03T13:14:41Z</time>
      </trkpt>
      <trkpt lat="45.07868" lon="5.54858">
        <ele>1017.5</ele>
        <time>2018-06-03T13:14:44Z</time>
      </trkpt>
      <trkpt lat="45.07856" lon="5.54854">
        <ele>1018.1</ele>
        <time>2018-06-03T13:14:47Z</time>
      </trkpt>
      <trkpt lat="45.07845" lon="5.54847">
        <ele>1018.7</ele>
        <time>2018-06-03T13:14:50Z</time>
      </trkpt>
      <trkpt lat="45.07833" lon="5.54842">
        <ele>1019.3</ele>
        <time>2018-06-03T13:14:53Z</time>
      </trkpt>
      <trkpt lat="45.07821" lon="5.54839">
        <ele>1019.7</ele>
        <time>2018-06-03T13:14:56Z</time>
      </trkpt>
      <trkpt lat="45.07811" lon="5.54836">
        <ele>1020.1</ele>
        <time>2018-06-03T13:15:00Z</time>
      </trkpt>
      <trkpt lat="45.07801" lon="5.54834">
        <ele>1020</ele>
        <time>2018-06-03T13:15:04Z</time>
      </trkpt>
      <trkpt lat="45.0779" lon="5.54829">
        <ele>1019.7</ele>
        <time>2018-06-03T13:15:07Z</time>
      </trkpt>
      <trkpt lat="45.07781" lon="5.54825">
        <ele>1019.7</ele>
        <time>2018-06-03T13:15:09Z</time>
      </trkpt>
      <trkpt lat="45.07772" lon="5.54821">
        <ele>1019.5</ele>
        <time>2018-06-03T13:15:11Z</time>
      </trkpt>
      <trkpt lat="45.07762" lon="5.54816">
        <ele>1019.3</ele>
        <time>2018-06-03T13:15:13Z</time>
      </trkpt>
      <trkpt lat="45.07752" lon="5.54811">
        <ele>1019</ele>
        <time>2018-06-03T13:15:15Z</time>
      </trkpt>
      <trkpt lat="45.07743" lon="5.54806">
        <ele>1018.6</ele>
        <time>2018-06-03T13:15:17Z</time>
      </trkpt>
      <trkpt lat="45.07733" lon="5.54801">
        <ele>1018.4</ele>
        <time>2018-06-03T13:15:19Z</time>
      </trkpt>
      <trkpt lat="45.07724" lon="5.54796">
        <ele>1018.3</ele>
        <time>2018-06-03T13:15:21Z</time>
      </trkpt>
      <trkpt lat="45.07715" lon="5.54792">
        <ele>1018.3</ele>
        <time>2018-06-03T13:15:23Z</time>
      </trkpt>
      <trkpt lat="45.07707" lon="5.54788">
        <ele>1018.3</ele>
        <time>2018-06-03T13:15:25Z</time>
      </trkpt>
      <trkpt lat="45.07698" lon="5.54783">
        <ele>1018.2</ele>
        <time>2018-06-03T13:15:27Z</time>
      </trkpt>
      <trkpt lat="45.0769" lon="5.54779">
        <ele>1018.1</ele>
        <time>2018-06-03T13:15:29Z</time>
      </trkpt>
      <trkpt lat="45.07681" lon="5.54775">
        <ele>1018.1</ele>
        <time>2018-06-03T13:15:31Z</time>
      </trkpt>
      <trkpt lat="45.07668" lon="5.54769">
        <ele>1018</ele>
        <time>2018-06-03T13:15:34Z</time>
      </trkpt>
      <trkpt lat="45.07659" lon="5.54765">
        <ele>1018</ele>
        <time>2018-06-03T13:15:36Z</time>
      </trkpt>
      <trkpt lat="45.0765" lon="5.54761">
        <ele>1017.8</ele>
        <time>2018-06-03T13:15:38Z</time>
      </trkpt>
      <trkpt lat="45.07641" lon="5.54757">
        <ele>1017.7</ele>
        <time>2018-06-03T13:15:40Z</time>
      </trkpt>
      <trkpt lat="45.07633" lon="5.54752">
        <ele>1017.6</ele>
        <time>2018-06-03T13:15:42Z</time>
      </trkpt>
      <trkpt lat="45.07624" lon="5.54747">
        <ele>1017.5</ele>
        <time>2018-06-03T13:15:44Z</time>
      </trkpt>
      <trkpt lat="45.07614" lon="5.54742">
        <ele>1017.6</ele>
        <time>2018-06-03T13:15:46Z</time>
      </trkpt>
      <trkpt lat="45.07606" lon="5.54737">
        <ele>1017.6</ele>
        <time>2018-06-03T13:15:48Z</time>
      </trkpt>
      <trkpt lat="45.07594" lon="5.5473">
        <ele>1017.5</ele>
        <time>2018-06-03T13:15:51Z</time>
      </trkpt>
      <trkpt lat="45.07585" lon="5.54727">
        <ele>1017.4</ele>
        <time>2018-06-03T13:15:53Z</time>
      </trkpt>
      <trkpt lat="45.07576" lon="5.54723">
        <ele>1017.2</ele>
        <time>2018-06-03T13:15:55Z</time>
      </trkpt>
      <trkpt lat="45.07567" lon="5.54721">
        <ele>1017.2</ele>
        <time>2018-06-03T13:15:57Z</time>
      </trkpt>
      <trkpt lat="45.07558" lon="5.54718">
        <ele>1017</ele>
        <time>2018-06-03T13:15:59Z</time>
      </trkpt>
      <trkpt lat="45.07546" lon="5.54715">
        <ele>1016.4</ele>
        <time>2018-06-03T13:16:01Z</time>
      </trkpt>
      <trkpt lat="45.07531" lon="5.54711">
        <ele>1015.6</ele>
        <time>2018-06-03T13:16:03Z</time>
      </trkpt>
      <trkpt lat="45.07515" lon="5.54705">
        <ele>1014.7</ele>
        <time>2018-06-03T13:16:05Z</time>
      </trkpt>
      <trkpt lat="45.075" lon="5.54697">
        <ele>1013.8</ele>
        <time>2018-06-03T13:16:07Z</time>
      </trkpt>
      <trkpt lat="45.07485" lon="5.54688">
        <ele>1013</ele>
        <time>2018-06-03T13:16:09Z</time>
      </trkpt>
      <trkpt lat="45.07471" lon="5.54678">
        <ele>1012.2</ele>
        <time>2018-06-03T13:16:11Z</time>
      </trkpt>
      <trkpt lat="45.07458" lon="5.54668">
        <ele>1011.5</ele>
        <time>2018-06-03T13:16:13Z</time>
      </trkpt>
      <trkpt lat="45.07445" lon="5.54659">
        <ele>1011</ele>
        <time>2018-06-03T13:16:15Z</time>
      </trkpt>
      <trkpt lat="45.07434" lon="5.54651">
        <ele>1010.8</ele>
        <time>2018-06-03T13:16:17Z</time>
      </trkpt>
      <trkpt lat="45.07424" lon="5.54643">
        <ele>1010.6</ele>
        <time>2018-06-03T13:16:19Z</time>
      </trkpt>
      <trkpt lat="45.07416" lon="5.54636">
        <ele>1009.8</ele>
        <time>2018-06-03T13:16:22Z</time>
      </trkpt>
      <trkpt lat="45.07406" lon="5.54635">
        <ele>1009.3</ele>
        <time>2018-06-03T13:16:26Z</time>
      </trkpt>
      <trkpt lat="45.07397" lon="5.54641">
        <ele>1009</ele>
        <time>2018-06-03T13:16:30Z</time>
      </trkpt>
      <trkpt lat="45.07392" lon="5.54653">
        <ele>1008.8</ele>
        <time>2018-06-03T13:16:34Z</time>
      </trkpt>
      <trkpt lat="45.0739" lon="5.54667">
        <ele>1008.9</ele>
        <time>2018-06-03T13:16:38Z</time>
      </trkpt>
      <trkpt lat="45.07388" lon="5.54681">
        <ele>1008.9</ele>
        <time>2018-06-03T13:16:46Z</time>
      </trkpt>
      <trkpt lat="45.07386" lon="5.54695">
        <ele>1008.9</ele>
        <time>2018-06-03T13:18:01Z</time>
      </trkpt>
      <trkpt lat="45.07384" lon="5.5471">
        <ele>1008.9</ele>
        <time>2018-06-03T13:18:05Z</time>
      </trkpt>
      <trkpt lat="45.07382" lon="5.54722">
        <ele>1009.2</ele>
        <time>2018-06-03T13:18:08Z</time>
      </trkpt>
      <trkpt lat="45.07382" lon="5.54737">
        <ele>1009.3</ele>
        <time>2018-06-03T13:18:11Z</time>
      </trkpt>
      <trkpt lat="45.07384" lon="5.54752">
        <ele>1009.4</ele>
        <time>2018-06-03T13:18:14Z</time>
      </trkpt>
      <trkpt lat="45.07385" lon="5.54765">
        <ele>1009.6</ele>
        <time>2018-06-03T13:18:17Z</time>
      </trkpt>
      <trkpt lat="45.07382" lon="5.54779">
        <ele>1010.3</ele>
        <time>2018-06-03T13:18:21Z</time>
      </trkpt>
      <trkpt lat="45.07375" lon="5.54789">
        <ele>1011</ele>
        <time>2018-06-03T13:18:37Z</time>
      </trkpt>
      <trkpt lat="45.07378" lon="5.54801">
        <ele>1011.4</ele>
        <time>2018-06-03T13:18:41Z</time>
      </trkpt>
      <trkpt lat="45.07377" lon="5.54816">
        <ele>1012.3</ele>
        <time>2018-06-03T13:18:46Z</time>
      </trkpt>
      <trkpt lat="45.07367" lon="5.54816">
        <ele>1013</ele>
        <time>2018-06-03T13:18:51Z</time>
      </trkpt>
      <trkpt lat="45.07359" lon="5.54807">
        <ele>1013.5</ele>
        <time>2018-06-03T13:18:56Z</time>
      </trkpt>
      <trkpt lat="45.07352" lon="5.54799">
        <ele>1014.1</ele>
        <time>2018-06-03T13:19:01Z</time>
      </trkpt>
      <trkpt lat="45.07342" lon="5.54792">
        <ele>1014.9</ele>
        <time>2018-06-03T13:19:07Z</time>
      </trkpt>
      <trkpt lat="45.07334" lon="5.54786">
        <ele>1015.7</ele>
        <time>2018-06-03T13:19:13Z</time>
      </trkpt>
      <trkpt lat="45.07325" lon="5.54779">
        <ele>1016.4</ele>
        <time>2018-06-03T13:19:19Z</time>
      </trkpt>
      <trkpt lat="45.07315" lon="5.54773">
        <ele>1017.2</ele>
        <time>2018-06-03T13:19:25Z</time>
      </trkpt>
      <trkpt lat="45.07305" lon="5.5477">
        <ele>1018</ele>
        <time>2018-06-03T13:19:31Z</time>
      </trkpt>
      <trkpt lat="45.07295" lon="5.54767">
        <ele>1018.5</ele>
        <time>2018-06-03T13:19:37Z</time>
      </trkpt>
      <trkpt lat="45.07286" lon="5.54764">
        <ele>1019.3</ele>
        <time>2018-06-03T13:19:43Z</time>
      </trkpt>
      <trkpt lat="45.07276" lon="5.54762">
        <ele>1019.9</ele>
        <time>2018-06-03T13:19:49Z</time>
      </trkpt>
      <trkpt lat="45.07265" lon="5.54766">
        <ele>1020.6</ele>
        <time>2018-06-03T13:19:55Z</time>
      </trkpt>
      <trkpt lat="45.07255" lon="5.54771">
        <ele>1021.4</ele>
        <time>2018-06-03T13:20:01Z</time>
      </trkpt>
      <trkpt lat="45.07245" lon="5.54774">
        <ele>1021.9</ele>
        <time>2018-06-03T13:20:07Z</time>
      </trkpt>
      <trkpt lat="45.07236" lon="5.54777">
        <ele>1023.2</ele>
        <time>2018-06-03T13:20:13Z</time>
      </trkpt>
      <trkpt lat="45.07227" lon="5.54783">
        <ele>1024.6</ele>
        <time>2018-06-03T13:20:20Z</time>
      </trkpt>
      <trkpt lat="45.07221" lon="5.54793">
        <ele>1026.3</ele>
        <time>2018-06-03T13:20:28Z</time>
      </trkpt>
      <trkpt lat="45.07216" lon="5.54805">
        <ele>1028.3</ele>
        <time>2018-06-03T13:20:37Z</time>
      </trkpt>
      <trkpt lat="45.07212" lon="5.54817">
        <ele>1030.5</ele>
        <time>2018-06-03T13:20:46Z</time>
      </trkpt>
      <trkpt lat="45.07212" lon="5.5483">
        <ele>1034.7</ele>
        <time>2018-06-03T13:21:12Z</time>
      </trkpt>
      <trkpt lat="45.07215" lon="5.54843">
        <ele>1036.8</ele>
        <time>2018-06-03T13:21:22Z</time>
      </trkpt>
      <trkpt lat="45.07207" lon="5.54849">
        <ele>1039.5</ele>
        <time>2018-06-03T13:21:44Z</time>
      </trkpt>
      <trkpt lat="45.07198" lon="5.54842">
        <ele>1039.9</ele>
        <time>2018-06-03T13:22:01Z</time>
      </trkpt>
      <trkpt lat="45.07191" lon="5.54835">
        <ele>1040.3</ele>
        <time>2018-06-03T13:22:07Z</time>
      </trkpt>
      <trkpt lat="45.07181" lon="5.5483">
        <ele>1040.8</ele>
        <time>2018-06-03T13:22:12Z</time>
      </trkpt>
      <trkpt lat="45.07171" lon="5.54825">
        <ele>1041.4</ele>
        <time>2018-06-03T13:22:17Z</time>
      </trkpt>
      <trkpt lat="45.07162" lon="5.54823">
        <ele>1041.9</ele>
        <time>2018-06-03T13:22:22Z</time>
      </trkpt>
      <trkpt lat="45.07151" lon="5.5482">
        <ele>1042.6</ele>
        <time>2018-06-03T13:22:27Z</time>
      </trkpt>
      <trkpt lat="45.07142" lon="5.54818">
        <ele>1043.2</ele>
        <time>2018-06-03T13:22:31Z</time>
      </trkpt>
      <trkpt lat="45.07132" lon="5.54818">
        <ele>1043.8</ele>
        <time>2018-06-03T13:22:35Z</time>
      </trkpt>
      <trkpt lat="45.07122" lon="5.54817">
        <ele>1044.5</ele>
        <time>2018-06-03T13:22:39Z</time>
      </trkpt>
      <trkpt lat="45.07111" lon="5.54815">
        <ele>1045.2</ele>
        <time>2018-06-03T13:22:44Z</time>
      </trkpt>
      <trkpt lat="45.07101" lon="5.54814">
        <ele>1045.8</ele>
        <time>2018-06-03T13:22:48Z</time>
      </trkpt>
      <trkpt lat="45.07091" lon="5.54814">
        <ele>1046.4</ele>
        <time>2018-06-03T13:22:52Z</time>
      </trkpt>
      <trkpt lat="45.07081" lon="5.54816">
        <ele>1047</ele>
        <time>2018-06-03T13:22:56Z</time>
      </trkpt>
      <trkpt lat="45.07072" lon="5.54817">
        <ele>1047.3</ele>
        <time>2018-06-03T13:23:00Z</time>
      </trkpt>
      <trkpt lat="45.07061" lon="5.5482">
        <ele>1047.8</ele>
        <time>2018-06-03T13:23:04Z</time>
      </trkpt>
      <trkpt lat="45.0705" lon="5.54822">
        <ele>1048.4</ele>
        <time>2018-06-03T13:23:08Z</time>
      </trkpt>
      <trkpt lat="45.0704" lon="5.54825">
        <ele>1049.1</ele>
        <time>2018-06-03T13:23:12Z</time>
      </trkpt>
      <trkpt lat="45.0703" lon="5.54827">
        <ele>1049.7</ele>
        <time>2018-06-03T13:23:16Z</time>
      </trkpt>
      <trkpt lat="45.07019" lon="5.54828">
        <ele>1050.2</ele>
        <time>2018-06-03T13:23:20Z</time>
      </trkpt>
      <trkpt lat="45.07009" lon="5.5483">
        <ele>1051</ele>
        <time>2018-06-03T13:23:24Z</time>
      </trkpt>
      <trkpt lat="45.06998" lon="5.54832">
        <ele>1051.7</ele>
        <time>2018-06-03T13:23:28Z</time>
      </trkpt>
      <trkpt lat="45.06987" lon="5.54834">
        <ele>1052.3</ele>
        <time>2018-06-03T13:23:32Z</time>
      </trkpt>
      <trkpt lat="45.06975" lon="5.54836">
        <ele>1052.9</ele>
        <time>2018-06-03T13:23:36Z</time>
      </trkpt>
      <trkpt lat="45.06964" lon="5.54838">
        <ele>1053.7</ele>
        <time>2018-06-03T13:23:40Z</time>
      </trkpt>
      <trkpt lat="45.06955" lon="5.54842">
        <ele>1054.2</ele>
        <time>2018-06-03T13:23:43Z</time>
      </trkpt>
      <trkpt lat="45.06945" lon="5.54848">
        <ele>1054.9</ele>
        <time>2018-06-03T13:23:47Z</time>
      </trkpt>
      <trkpt lat="45.06936" lon="5.54857">
        <ele>1055.3</ele>
        <time>2018-06-03T13:23:51Z</time>
      </trkpt>
      <trkpt lat="45.06929" lon="5.54867">
        <ele>1055.9</ele>
        <time>2018-06-03T13:23:55Z</time>
      </trkpt>
      <trkpt lat="45.06923" lon="5.54878">
        <ele>1056.5</ele>
        <time>2018-06-03T13:23:59Z</time>
      </trkpt>
      <trkpt lat="45.0692" lon="5.54892">
        <ele>1057.1</ele>
        <time>2018-06-03T13:24:03Z</time>
      </trkpt>
      <trkpt lat="45.0692" lon="5.54907">
        <ele>1057.4</ele>
        <time>2018-06-03T13:24:07Z</time>
      </trkpt>
      <trkpt lat="45.06921" lon="5.54922">
        <ele>1058.1</ele>
        <time>2018-06-03T13:24:11Z</time>
      </trkpt>
      <trkpt lat="45.06923" lon="5.54935">
        <ele>1058.7</ele>
        <time>2018-06-03T13:24:15Z</time>
      </trkpt>
      <trkpt lat="45.06924" lon="5.54948">
        <ele>1059.2</ele>
        <time>2018-06-03T13:24:19Z</time>
      </trkpt>
      <trkpt lat="45.06931" lon="5.54958">
        <ele>1059.6</ele>
        <time>2018-06-03T13:24:24Z</time>
      </trkpt>
      <trkpt lat="45.0694" lon="5.54963">
        <ele>1060.3</ele>
        <time>2018-06-03T13:24:29Z</time>
      </trkpt>
      <trkpt lat="45.06948" lon="5.54969">
        <ele>1060.9</ele>
        <time>2018-06-03T13:24:34Z</time>
      </trkpt>
      <trkpt lat="45.06957" lon="5.54978">
        <ele>1061.4</ele>
        <time>2018-06-03T13:24:38Z</time>
      </trkpt>
      <trkpt lat="45.06965" lon="5.54986">
        <ele>1062.1</ele>
        <time>2018-06-03T13:24:42Z</time>
      </trkpt>
      <trkpt lat="45.06975" lon="5.54992">
        <ele>1062.8</ele>
        <time>2018-06-03T13:24:46Z</time>
      </trkpt>
      <trkpt lat="45.06983" lon="5.55">
        <ele>1063.3</ele>
        <time>2018-06-03T13:24:50Z</time>
      </trkpt>
      <trkpt lat="45.06991" lon="5.55009">
        <ele>1063.6</ele>
        <time>2018-06-03T13:24:55Z</time>
      </trkpt>
      <trkpt lat="45.06995" lon="5.55022">
        <ele>1063.9</ele>
        <time>2018-06-03T13:24:59Z</time>
      </trkpt>
      <trkpt lat="45.06999" lon="5.55036">
        <ele>1064.2</ele>
        <time>2018-06-03T13:25:03Z</time>
      </trkpt>
      <trkpt lat="45.07006" lon="5.55047">
        <ele>1064.5</ele>
        <time>2018-06-03T13:25:07Z</time>
      </trkpt>
      <trkpt lat="45.07015" lon="5.55056">
        <ele>1064.7</ele>
        <time>2018-06-03T13:25:11Z</time>
      </trkpt>
      <trkpt lat="45.07022" lon="5.55066">
        <ele>1065.2</ele>
        <time>2018-06-03T13:25:16Z</time>
      </trkpt>
      <trkpt lat="45.07029" lon="5.55075">
        <ele>1065.7</ele>
        <time>2018-06-03T13:25:22Z</time>
      </trkpt>
      <trkpt lat="45.07031" lon="5.55089">
        <ele>1066.2</ele>
        <time>2018-06-03T13:25:29Z</time>
      </trkpt>
      <trkpt lat="45.07024" lon="5.55098">
        <ele>1066.6</ele>
        <time>2018-06-03T13:25:38Z</time>
      </trkpt>
      <trkpt lat="45.07028" lon="5.55087">
        <ele>1067.4</ele>
        <time>2018-06-03T13:26:11Z</time>
      </trkpt>
      <trkpt lat="45.07028" lon="5.55087">
        <ele>1067.4</ele>
        <time>2018-06-03T13:26:11Z</time>
      </trkpt>
      <trkpt lat="45.07028" lon="5.55087">
        <ele>1067.4</ele>
        <time>2018-06-03T13:26:11Z</time>
      </trkpt>
    </trkseg>
  </trk>
</gpx>